<?xml version='1.0' encoding='UTF-8'?><gpx version="1.1" creator="JPX - https://github.com/jenetics/jpx" xmlns="http://www.topografix.com/GPX/1/1"><trk><trkseg><trkpt lat="44.8190823" lon="8.0557651"><ele>161.0</ele><time>2026-04-19T06:06:02.896Z</time></trkpt><trkpt lat="44.8192004" lon="8.0556624"><ele>161.0</ele><time>2026-04-19T06:06:03.889Z</time></trkpt><trkpt lat="44.8192849" lon="8.0556255"><ele>161.0</ele><time>2026-04-19T06:06:06.928Z</time></trkpt></trkseg><trkseg><trkpt lat="44.8198483" lon="8.0574701"><ele>161.0</ele><time>2026-04-19T06:22:25.715Z</time></trkpt><trkpt lat="44.819914" lon="8.0575044"><ele>161.0</ele><time>2026-04-19T06:31:24.735Z</time></trkpt><trkpt lat="44.8199229" lon="8.0575982"><ele>161.0</ele><time>2026-04-19T06:31:56.734Z</time></trkpt><trkpt lat="44.8199827" lon="8.0576361"><ele>161.0</ele><time>2026-04-19T06:32:26.732Z</time></trkpt><trkpt lat="44.8199153" lon="8.0576638"><ele>161.0</ele><time>2026-04-19T06:33:26.725Z</time></trkpt><trkpt lat="44.8198575" lon="8.0577012"><ele>161.0</ele><time>2026-04-19T06:33:32.727Z</time></trkpt><trkpt lat="44.8197987" lon="8.0576637"><ele>161.0</ele><time>2026-04-19T06:33:42.711Z</time></trkpt><trkpt lat="44.8197366" lon="8.0576288"><ele>161.0</ele><time>2026-04-19T06:34:05.727Z</time></trkpt><trkpt lat="44.8198023" lon="8.0576058"><ele>161.0</ele><time>2026-04-19T06:34:19.729Z</time></trkpt><trkpt lat="44.8198885" lon="8.0575882"><ele>161.0</ele><time>2026-04-19T06:34:56.72Z</time></trkpt><trkpt lat="44.8198833" lon="8.0574955"><ele>161.0</ele><time>2026-04-19T06:37:11.72Z</time></trkpt><trkpt lat="44.819946" lon="8.0575397"><ele>161.0</ele><time>2026-04-19T06:37:38.736Z</time></trkpt><trkpt lat="44.8199911" lon="8.0576218"><ele>161.0</ele><time>2026-04-19T06:37:45.725Z</time></trkpt><trkpt lat="44.8200327" lon="8.0577135"><ele>161.0</ele><time>2026-04-19T06:38:00.739Z</time></trkpt><trkpt lat="44.8200556" lon="8.0578181"><ele>161.0</ele><time>2026-04-19T06:38:08.731Z</time></trkpt><trkpt lat="44.8201066" lon="8.0578879"><ele>161.0</ele><time>2026-04-19T06:38:21.734Z</time></trkpt><trkpt lat="44.8201747" lon="8.0579378"><ele>161.0</ele><time>2026-04-19T06:38:45.718Z</time></trkpt><trkpt lat="44.8202725" lon="8.0579214"><ele>161.0</ele><time>2026-04-19T06:41:19.729Z</time></trkpt><trkpt lat="44.8202116" lon="8.0578886"><ele>161.0</ele><time>2026-04-19T06:43:34.73Z</time></trkpt><trkpt lat="44.8201511" lon="8.0578593"><ele>161.0</ele><time>2026-04-19T06:43:39.737Z</time></trkpt><trkpt lat="44.8200845" lon="8.0578816"><ele>161.0</ele><time>2026-04-19T06:44:19.732Z</time></trkpt><trkpt lat="44.8201581" lon="8.0578051"><ele>161.0</ele><time>2026-04-19T06:46:17.732Z</time></trkpt><trkpt lat="44.8201646" lon="8.0577166"><ele>161.0</ele><time>2026-04-19T06:46:39.721Z</time></trkpt><trkpt lat="44.8201736" lon="8.0576237"><ele>161.0</ele><time>2026-04-19T06:49:22.735Z</time></trkpt><trkpt lat="44.8201975" lon="8.0575241"><ele>161.0</ele><time>2026-04-19T06:50:48.708Z</time></trkpt><trkpt lat="44.8201283" lon="8.0575426"><ele>161.0</ele><time>2026-04-19T06:51:46.719Z</time></trkpt><trkpt lat="44.8201319" lon="8.0574238"><ele>161.0</ele><time>2026-04-19T06:51:54.712Z</time></trkpt><trkpt lat="44.8201193" lon="8.057258"><ele>161.0</ele><time>2026-04-19T06:51:56.708Z</time></trkpt><trkpt lat="44.8201104" lon="8.0571501"><ele>161.0</ele><time>2026-04-19T06:51:57.711Z</time></trkpt><trkpt lat="44.8200977" lon="8.0570412"><ele>161.0</ele><time>2026-04-19T06:51:58.715Z</time></trkpt><trkpt lat="44.8200878" lon="8.0569404"><ele>161.0</ele><time>2026-04-19T06:51:59.754Z</time></trkpt><trkpt lat="44.8200516" lon="8.0568257"><ele>161.0</ele><time>2026-04-19T06:52:01.705Z</time></trkpt><trkpt lat="44.8200058" lon="8.05674"><ele>161.0</ele><time>2026-04-19T06:52:04.703Z</time></trkpt><trkpt lat="44.8199402" lon="8.0566452"><ele>161.20000000000002</ele><time>2026-04-19T06:52:07.721Z</time></trkpt><trkpt lat="44.8199049" lon="8.0565663"><ele>161.4</ele><time>2026-04-19T06:52:08.727Z</time></trkpt><trkpt lat="44.8198629" lon="8.0564518"><ele>161.6</ele><time>2026-04-19T06:52:09.716Z</time></trkpt><trkpt lat="44.8198149" lon="8.0563069"><ele>161.8</ele><time>2026-04-19T06:52:10.716Z</time></trkpt><trkpt lat="44.8197586" lon="8.0561649"><ele>162.0</ele><time>2026-04-19T06:52:11.709Z</time></trkpt><trkpt lat="44.8196967" lon="8.0560109"><ele>162.0</ele><time>2026-04-19T06:52:12.718Z</time></trkpt><trkpt lat="44.819632" lon="8.055852"><ele>162.0</ele><time>2026-04-19T06:52:13.72Z</time></trkpt><trkpt lat="44.8195648" lon="8.0556976"><ele>162.0</ele><time>2026-04-19T06:52:14.711Z</time></trkpt><trkpt lat="44.8194936" lon="8.0555318"><ele>162.0</ele><time>2026-04-19T06:52:15.706Z</time></trkpt><trkpt lat="44.8194241" lon="8.0553665"><ele>161.75</ele><time>2026-04-19T06:52:16.715Z</time></trkpt><trkpt lat="44.8193569" lon="8.0552105"><ele>161.5</ele><time>2026-04-19T06:52:17.722Z</time></trkpt><trkpt lat="44.8192893" lon="8.0550527"><ele>161.25</ele><time>2026-04-19T06:52:18.718Z</time></trkpt><trkpt lat="44.8192246" lon="8.0548933"><ele>161.0</ele><time>2026-04-19T06:52:19.715Z</time></trkpt><trkpt lat="44.8191636" lon="8.054748"><ele>161.0</ele><time>2026-04-19T06:52:20.72Z</time></trkpt><trkpt lat="44.8191035" lon="8.0546083"><ele>161.0</ele><time>2026-04-19T06:52:21.72Z</time></trkpt><trkpt lat="44.8190448" lon="8.0544649"><ele>161.0</ele><time>2026-04-19T06:52:22.72Z</time></trkpt><trkpt lat="44.8189873" lon="8.0543246"><ele>161.0</ele><time>2026-04-19T06:52:23.718Z</time></trkpt><trkpt lat="44.8189394" lon="8.0541858"><ele>161.4</ele><time>2026-04-19T06:52:24.721Z</time></trkpt><trkpt lat="44.8189078" lon="8.0540487"><ele>161.8</ele><time>2026-04-19T06:52:25.719Z</time></trkpt><trkpt lat="44.8188788" lon="8.0539092"><ele>162.20000000000002</ele><time>2026-04-19T06:52:26.717Z</time></trkpt><trkpt lat="44.8188565" lon="8.0537718"><ele>162.60000000000002</ele><time>2026-04-19T06:52:27.716Z</time></trkpt><trkpt lat="44.8188356" lon="8.0536311"><ele>163.0</ele><time>2026-04-19T06:52:28.715Z</time></trkpt><trkpt lat="44.8188155" lon="8.0534933"><ele>163.0</ele><time>2026-04-19T06:52:29.736Z</time></trkpt><trkpt lat="44.8187914" lon="8.053356"><ele>163.0</ele><time>2026-04-19T06:52:30.725Z</time></trkpt><trkpt lat="44.8187661" lon="8.0532229"><ele>163.0</ele><time>2026-04-19T06:52:31.722Z</time></trkpt><trkpt lat="44.818749" lon="8.0530894"><ele>163.0</ele><time>2026-04-19T06:52:32.716Z</time></trkpt><trkpt lat="44.818745" lon="8.0529483"><ele>163.0</ele><time>2026-04-19T06:52:33.722Z</time></trkpt><trkpt lat="44.8187565" lon="8.0528008"><ele>163.4</ele><time>2026-04-19T06:52:34.716Z</time></trkpt><trkpt lat="44.8187717" lon="8.052657"><ele>163.8</ele><time>2026-04-19T06:52:35.728Z</time></trkpt><trkpt lat="44.8187868" lon="8.0525271"><ele>164.2</ele><time>2026-04-19T06:52:36.716Z</time></trkpt><trkpt lat="44.8188056" lon="8.0523849"><ele>164.6</ele><time>2026-04-19T06:52:37.72Z</time></trkpt><trkpt lat="44.8188254" lon="8.0522305"><ele>165.0</ele><time>2026-04-19T06:52:38.722Z</time></trkpt><trkpt lat="44.8188461" lon="8.0520711"><ele>165.5</ele><time>2026-04-19T06:52:39.722Z</time></trkpt><trkpt lat="44.8188614" lon="8.0519012"><ele>166.0</ele><time>2026-04-19T06:52:40.726Z</time></trkpt><trkpt lat="44.8188712" lon="8.051732"><ele>166.5</ele><time>2026-04-19T06:52:41.727Z</time></trkpt><trkpt lat="44.8188768" lon="8.0515526"><ele>167.0</ele><time>2026-04-19T06:52:42.724Z</time></trkpt><trkpt lat="44.8188738" lon="8.0513714"><ele>167.39999999999998</ele><time>2026-04-19T06:52:43.722Z</time></trkpt><trkpt lat="44.8188655" lon="8.051193"><ele>167.79999999999998</ele><time>2026-04-19T06:52:44.724Z</time></trkpt><trkpt lat="44.8188483" lon="8.0510245"><ele>168.2</ele><time>2026-04-19T06:52:45.72Z</time></trkpt><trkpt lat="44.8188165" lon="8.0508837"><ele>168.6</ele><time>2026-04-19T06:52:46.727Z</time></trkpt><trkpt lat="44.8187615" lon="8.0507991"><ele>169.0</ele><time>2026-04-19T06:52:47.735Z</time></trkpt><trkpt lat="44.8186875" lon="8.0507771"><ele>169.0</ele><time>2026-04-19T06:52:48.729Z</time></trkpt><trkpt lat="44.8185968" lon="8.0508044"><ele>169.0</ele><time>2026-04-19T06:52:49.733Z</time></trkpt><trkpt lat="44.8184896" lon="8.0508738"><ele>169.0</ele><time>2026-04-19T06:52:50.718Z</time></trkpt><trkpt lat="44.8183699" lon="8.050964"><ele>169.0</ele><time>2026-04-19T06:52:51.733Z</time></trkpt><trkpt lat="44.8182371" lon="8.0510755"><ele>167.66666666666669</ele><time>2026-04-19T06:52:52.724Z</time></trkpt><trkpt lat="44.8181019" lon="8.0511988"><ele>166.33333333333334</ele><time>2026-04-19T06:52:53.718Z</time></trkpt><trkpt lat="44.8179745" lon="8.0513241"><ele>165.0</ele><time>2026-04-19T06:52:54.722Z</time></trkpt><trkpt lat="44.8178352" lon="8.0514283"><ele>165.0</ele><time>2026-04-19T06:52:55.721Z</time></trkpt><trkpt lat="44.8177149" lon="8.0515036"><ele>165.0</ele><time>2026-04-19T06:52:56.723Z</time></trkpt><trkpt lat="44.817606" lon="8.0515645"><ele>165.0</ele><time>2026-04-19T06:52:57.719Z</time></trkpt><trkpt lat="44.8175066" lon="8.0516281"><ele>165.0</ele><time>2026-04-19T06:52:58.721Z</time></trkpt><trkpt lat="44.8174198" lon="8.0516801"><ele>165.0</ele><time>2026-04-19T06:52:59.729Z</time></trkpt><trkpt lat="44.8173594" lon="8.0517283"><ele>165.0</ele><time>2026-04-19T06:53:00.741Z</time></trkpt><trkpt lat="44.817282" lon="8.0518004"><ele>165.0</ele><time>2026-04-19T06:53:02.726Z</time></trkpt><trkpt lat="44.8173082" lon="8.0519203"><ele>165.0</ele><time>2026-04-19T06:53:04.724Z</time></trkpt><trkpt lat="44.8173543" lon="8.0520424"><ele>165.0</ele><time>2026-04-19T06:53:05.714Z</time></trkpt><trkpt lat="44.8174022" lon="8.0521902"><ele>165.0</ele><time>2026-04-19T06:53:06.718Z</time></trkpt><trkpt lat="44.8174558" lon="8.0523563"><ele>165.0</ele><time>2026-04-19T06:53:07.713Z</time></trkpt><trkpt lat="44.8175127" lon="8.0525329"><ele>165.0</ele><time>2026-04-19T06:53:08.717Z</time></trkpt><trkpt lat="44.8175668" lon="8.0527268"><ele>165.0</ele><time>2026-04-19T06:53:09.721Z</time></trkpt><trkpt lat="44.8176198" lon="8.0529282"><ele>165.0</ele><time>2026-04-19T06:53:10.717Z</time></trkpt><trkpt lat="44.8176672" lon="8.0531268"><ele>165.0</ele><time>2026-04-19T06:53:11.717Z</time></trkpt><trkpt lat="44.8177055" lon="8.0533172"><ele>165.0</ele><time>2026-04-19T06:53:12.717Z</time></trkpt><trkpt lat="44.8177426" lon="8.053511"><ele>165.0</ele><time>2026-04-19T06:53:13.725Z</time></trkpt><trkpt lat="44.8177849" lon="8.0537111"><ele>164.5</ele><time>2026-04-19T06:53:14.725Z</time></trkpt><trkpt lat="44.8178233" lon="8.0539101"><ele>164.0</ele><time>2026-04-19T06:53:15.724Z</time></trkpt><trkpt lat="44.8178676" lon="8.0541042"><ele>163.5</ele><time>2026-04-19T06:53:16.722Z</time></trkpt><trkpt lat="44.8179227" lon="8.0542976"><ele>163.0</ele><time>2026-04-19T06:53:17.72Z</time></trkpt><trkpt lat="44.8179704" lon="8.054483"><ele>162.5</ele><time>2026-04-19T06:53:18.719Z</time></trkpt><trkpt lat="44.8180235" lon="8.0546654"><ele>162.0</ele><time>2026-04-19T06:53:19.722Z</time></trkpt><trkpt lat="44.8180855" lon="8.0548497"><ele>161.5</ele><time>2026-04-19T06:53:20.717Z</time></trkpt><trkpt lat="44.8181543" lon="8.0550506"><ele>161.0</ele><time>2026-04-19T06:53:21.728Z</time></trkpt><trkpt lat="44.8182401" lon="8.0552502"><ele>161.0</ele><time>2026-04-19T06:53:22.727Z</time></trkpt><trkpt lat="44.818335" lon="8.0554519"><ele>161.0</ele><time>2026-04-19T06:53:23.725Z</time></trkpt><trkpt lat="44.8184324" lon="8.0556486"><ele>161.0</ele><time>2026-04-19T06:53:24.725Z</time></trkpt><trkpt lat="44.8185237" lon="8.0558311"><ele>160.66666666666666</ele><time>2026-04-19T06:53:25.723Z</time></trkpt><trkpt lat="44.8186191" lon="8.0560126"><ele>160.33333333333334</ele><time>2026-04-19T06:53:26.722Z</time></trkpt><trkpt lat="44.818713" lon="8.0561887"><ele>160.0</ele><time>2026-04-19T06:53:27.718Z</time></trkpt><trkpt lat="44.8188115" lon="8.0563577"><ele>160.0</ele><time>2026-04-19T06:53:28.707Z</time></trkpt><trkpt lat="44.8189239" lon="8.0565321"><ele>160.0</ele><time>2026-04-19T06:53:29.711Z</time></trkpt><trkpt lat="44.8190388" lon="8.056716"><ele>160.0</ele><time>2026-04-19T06:53:30.708Z</time></trkpt><trkpt lat="44.8191468" lon="8.0568905"><ele>159.66666666666669</ele><time>2026-04-19T06:53:31.733Z</time></trkpt><trkpt lat="44.8192511" lon="8.0570654"><ele>159.33333333333334</ele><time>2026-04-19T06:53:32.711Z</time></trkpt><trkpt lat="44.8193623" lon="8.0572464"><ele>159.0</ele><time>2026-04-19T06:53:33.709Z</time></trkpt><trkpt lat="44.8194728" lon="8.0574194"><ele>159.66666666666666</ele><time>2026-04-19T06:53:34.714Z</time></trkpt><trkpt lat="44.8195737" lon="8.0575849"><ele>160.33333333333331</ele><time>2026-04-19T06:53:35.71Z</time></trkpt><trkpt lat="44.8196662" lon="8.057747"><ele>161.0</ele><time>2026-04-19T06:53:36.704Z</time></trkpt><trkpt lat="44.8197676" lon="8.0579163"><ele>161.0</ele><time>2026-04-19T06:53:37.708Z</time></trkpt><trkpt lat="44.8198642" lon="8.0580865"><ele>161.0</ele><time>2026-04-19T06:53:38.709Z</time></trkpt><trkpt lat="44.8199475" lon="8.058243"><ele>161.0</ele><time>2026-04-19T06:53:39.712Z</time></trkpt><trkpt lat="44.8200234" lon="8.0583792"><ele>161.0</ele><time>2026-04-19T06:53:40.719Z</time></trkpt><trkpt lat="44.8200809" lon="8.0584809"><ele>160.75</ele><time>2026-04-19T06:53:41.713Z</time></trkpt><trkpt lat="44.8201519" lon="8.0585821"><ele>160.5</ele><time>2026-04-19T06:53:42.72Z</time></trkpt><trkpt lat="44.8202555" lon="8.0586893"><ele>160.25</ele><time>2026-04-19T06:53:43.709Z</time></trkpt><trkpt lat="44.8203682" lon="8.058803"><ele>160.0</ele><time>2026-04-19T06:53:44.715Z</time></trkpt><trkpt lat="44.8204711" lon="8.0589147"><ele>160.0</ele><time>2026-04-19T06:53:45.718Z</time></trkpt><trkpt lat="44.8205602" lon="8.059038"><ele>160.0</ele><time>2026-04-19T06:53:46.713Z</time></trkpt><trkpt lat="44.8206425" lon="8.0591655"><ele>160.0</ele><time>2026-04-19T06:53:47.717Z</time></trkpt><trkpt lat="44.8207235" lon="8.0592915"><ele>160.0</ele><time>2026-04-19T06:53:48.72Z</time></trkpt><trkpt lat="44.8208081" lon="8.059404"><ele>160.0</ele><time>2026-04-19T06:53:49.719Z</time></trkpt><trkpt lat="44.8209036" lon="8.0595109"><ele>160.0</ele><time>2026-04-19T06:53:50.716Z</time></trkpt><trkpt lat="44.8210111" lon="8.0596074"><ele>160.0</ele><time>2026-04-19T06:53:51.726Z</time></trkpt><trkpt lat="44.8211239" lon="8.0596811"><ele>160.0</ele><time>2026-04-19T06:53:52.722Z</time></trkpt><trkpt lat="44.8212327" lon="8.0597525"><ele>160.0</ele><time>2026-04-19T06:53:53.727Z</time></trkpt><trkpt lat="44.8213279" lon="8.0598216"><ele>160.0</ele><time>2026-04-19T06:53:54.731Z</time></trkpt><trkpt lat="44.8214164" lon="8.059899"><ele>160.0</ele><time>2026-04-19T06:53:55.724Z</time></trkpt><trkpt lat="44.8214957" lon="8.0600029"><ele>160.0</ele><time>2026-04-19T06:53:56.729Z</time></trkpt><trkpt lat="44.8215668" lon="8.060119"><ele>160.0</ele><time>2026-04-19T06:53:57.725Z</time></trkpt><trkpt lat="44.8216275" lon="8.0602345"><ele>160.0</ele><time>2026-04-19T06:53:58.729Z</time></trkpt><trkpt lat="44.8216807" lon="8.0603472"><ele>160.0</ele><time>2026-04-19T06:53:59.726Z</time></trkpt><trkpt lat="44.8217286" lon="8.0604496"><ele>160.0</ele><time>2026-04-19T06:54:00.734Z</time></trkpt><trkpt lat="44.8217677" lon="8.0605507"><ele>160.0</ele><time>2026-04-19T06:54:01.724Z</time></trkpt><trkpt lat="44.8218049" lon="8.0606613"><ele>160.0</ele><time>2026-04-19T06:54:02.747Z</time></trkpt><trkpt lat="44.8218418" lon="8.0607664"><ele>160.0</ele><time>2026-04-19T06:54:03.728Z</time></trkpt><trkpt lat="44.8218769" lon="8.0608765"><ele>160.66666666666669</ele><time>2026-04-19T06:54:04.722Z</time></trkpt><trkpt lat="44.8219032" lon="8.0609916"><ele>161.33333333333334</ele><time>2026-04-19T06:54:05.735Z</time></trkpt><trkpt lat="44.8219235" lon="8.0611099"><ele>162.0</ele><time>2026-04-19T06:54:06.717Z</time></trkpt><trkpt lat="44.8219465" lon="8.0612308"><ele>162.66666666666666</ele><time>2026-04-19T06:54:07.73Z</time></trkpt><trkpt lat="44.8219723" lon="8.0613442"><ele>163.33333333333331</ele><time>2026-04-19T06:54:08.728Z</time></trkpt><trkpt lat="44.8220044" lon="8.061439"><ele>164.0</ele><time>2026-04-19T06:54:09.73Z</time></trkpt><trkpt lat="44.8220517" lon="8.0615216"><ele>164.0</ele><time>2026-04-19T06:54:10.736Z</time></trkpt><trkpt lat="44.8221146" lon="8.0615853"><ele>164.0</ele><time>2026-04-19T06:54:11.721Z</time></trkpt><trkpt lat="44.8221874" lon="8.0616441"><ele>164.0</ele><time>2026-04-19T06:54:12.726Z</time></trkpt><trkpt lat="44.8222698" lon="8.0616919"><ele>164.0</ele><time>2026-04-19T06:54:13.729Z</time></trkpt><trkpt lat="44.8223616" lon="8.0617421"><ele>164.0</ele><time>2026-04-19T06:54:14.726Z</time></trkpt><trkpt lat="44.822455" lon="8.0617868"><ele>164.0</ele><time>2026-04-19T06:54:15.727Z</time></trkpt><trkpt lat="44.8225488" lon="8.0618303"><ele>164.39999999999998</ele><time>2026-04-19T06:54:16.732Z</time></trkpt><trkpt lat="44.8226424" lon="8.0618855"><ele>164.8</ele><time>2026-04-19T06:54:17.73Z</time></trkpt><trkpt lat="44.8227365" lon="8.0619526"><ele>165.2</ele><time>2026-04-19T06:54:18.723Z</time></trkpt><trkpt lat="44.8228264" lon="8.062025"><ele>165.60000000000002</ele><time>2026-04-19T06:54:19.727Z</time></trkpt><trkpt lat="44.8229128" lon="8.0621"><ele>166.0</ele><time>2026-04-19T06:54:20.729Z</time></trkpt><trkpt lat="44.8229915" lon="8.0621928"><ele>166.0</ele><time>2026-04-19T06:54:21.722Z</time></trkpt><trkpt lat="44.8230707" lon="8.0623114"><ele>166.0</ele><time>2026-04-19T06:54:22.729Z</time></trkpt><trkpt lat="44.8231462" lon="8.0624327"><ele>166.0</ele><time>2026-04-19T06:54:23.725Z</time></trkpt><trkpt lat="44.8232196" lon="8.0625485"><ele>166.0</ele><time>2026-04-19T06:54:24.725Z</time></trkpt><trkpt lat="44.8232903" lon="8.062654"><ele>166.0</ele><time>2026-04-19T06:54:25.722Z</time></trkpt><trkpt lat="44.8233575" lon="8.0627553"><ele>165.8</ele><time>2026-04-19T06:54:26.72Z</time></trkpt><trkpt lat="44.8234213" lon="8.0628587"><ele>165.60000000000002</ele><time>2026-04-19T06:54:27.726Z</time></trkpt><trkpt lat="44.8234857" lon="8.0629653"><ele>165.4</ele><time>2026-04-19T06:54:28.723Z</time></trkpt><trkpt lat="44.8235533" lon="8.0630735"><ele>165.2</ele><time>2026-04-19T06:54:29.723Z</time></trkpt><trkpt lat="44.8236227" lon="8.0631823"><ele>165.0</ele><time>2026-04-19T06:54:30.719Z</time></trkpt><trkpt lat="44.8236947" lon="8.0633102"><ele>165.0</ele><time>2026-04-19T06:54:31.717Z</time></trkpt><trkpt lat="44.8237651" lon="8.0634495"><ele>165.0</ele><time>2026-04-19T06:54:32.73Z</time></trkpt><trkpt lat="44.8238347" lon="8.0635919"><ele>165.0</ele><time>2026-04-19T06:54:33.747Z</time></trkpt><trkpt lat="44.8239006" lon="8.0637393"><ele>165.0</ele><time>2026-04-19T06:54:34.732Z</time></trkpt><trkpt lat="44.8239643" lon="8.0638964"><ele>165.0</ele><time>2026-04-19T06:54:35.73Z</time></trkpt><trkpt lat="44.8240267" lon="8.064065"><ele>165.0</ele><time>2026-04-19T06:54:36.726Z</time></trkpt><trkpt lat="44.8240866" lon="8.0642453"><ele>165.0</ele><time>2026-04-19T06:54:37.733Z</time></trkpt><trkpt lat="44.8241541" lon="8.0644434"><ele>165.0</ele><time>2026-04-19T06:54:38.731Z</time></trkpt><trkpt lat="44.8242445" lon="8.0646425"><ele>165.0</ele><time>2026-04-19T06:54:39.735Z</time></trkpt><trkpt lat="44.8243375" lon="8.0648199"><ele>165.0</ele><time>2026-04-19T06:54:40.727Z</time></trkpt><trkpt lat="44.824438" lon="8.0649822"><ele>165.0</ele><time>2026-04-19T06:54:41.718Z</time></trkpt><trkpt lat="44.8245658" lon="8.0651214"><ele>165.0</ele><time>2026-04-19T06:54:42.719Z</time></trkpt><trkpt lat="44.8247043" lon="8.0652346"><ele>165.0</ele><time>2026-04-19T06:54:43.723Z</time></trkpt><trkpt lat="44.8248532" lon="8.0653391"><ele>165.0</ele><time>2026-04-19T06:54:44.725Z</time></trkpt><trkpt lat="44.8250114" lon="8.0654266"><ele>165.33333333333334</ele><time>2026-04-19T06:54:45.73Z</time></trkpt><trkpt lat="44.825176" lon="8.0654949"><ele>165.66666666666669</ele><time>2026-04-19T06:54:46.726Z</time></trkpt><trkpt lat="44.825354" lon="8.0655681"><ele>166.0</ele><time>2026-04-19T06:54:47.726Z</time></trkpt><trkpt lat="44.8255365" lon="8.0656272"><ele>166.0</ele><time>2026-04-19T06:54:48.713Z</time></trkpt><trkpt lat="44.8257084" lon="8.0656766"><ele>166.0</ele><time>2026-04-19T06:54:49.726Z</time></trkpt><trkpt lat="44.8258665" lon="8.0657424"><ele>166.0</ele><time>2026-04-19T06:54:50.719Z</time></trkpt><trkpt lat="44.8260216" lon="8.0658117"><ele>164.5</ele><time>2026-04-19T06:54:51.713Z</time></trkpt><trkpt lat="44.82615" lon="8.0658712"><ele>163.0</ele><time>2026-04-19T06:54:52.714Z</time></trkpt><trkpt lat="44.8262729" lon="8.0659239"><ele>161.5</ele><time>2026-04-19T06:54:53.718Z</time></trkpt><trkpt lat="44.8263916" lon="8.0659912"><ele>160.0</ele><time>2026-04-19T06:54:54.712Z</time></trkpt><trkpt lat="44.8265171" lon="8.0660664"><ele>160.0</ele><time>2026-04-19T06:54:55.711Z</time></trkpt><trkpt lat="44.826646" lon="8.0661678"><ele>160.0</ele><time>2026-04-19T06:54:56.713Z</time></trkpt><trkpt lat="44.8267682" lon="8.0662852"><ele>160.0</ele><time>2026-04-19T06:54:57.717Z</time></trkpt><trkpt lat="44.8268739" lon="8.0664231"><ele>160.0</ele><time>2026-04-19T06:54:58.716Z</time></trkpt><trkpt lat="44.8269747" lon="8.0665836"><ele>160.25</ele><time>2026-04-19T06:54:59.726Z</time></trkpt><trkpt lat="44.8270627" lon="8.0667267"><ele>160.5</ele><time>2026-04-19T06:55:00.724Z</time></trkpt><trkpt lat="44.8271408" lon="8.0668503"><ele>160.75</ele><time>2026-04-19T06:55:01.721Z</time></trkpt><trkpt lat="44.8272284" lon="8.066946"><ele>161.0</ele><time>2026-04-19T06:55:02.735Z</time></trkpt><trkpt lat="44.8273364" lon="8.0670105"><ele>161.0</ele><time>2026-04-19T06:55:03.729Z</time></trkpt><trkpt lat="44.827452" lon="8.0670704"><ele>161.0</ele><time>2026-04-19T06:55:04.742Z</time></trkpt><trkpt lat="44.8275521" lon="8.0671254"><ele>161.0</ele><time>2026-04-19T06:55:05.724Z</time></trkpt><trkpt lat="44.8276409" lon="8.0671795"><ele>161.0</ele><time>2026-04-19T06:55:06.727Z</time></trkpt><trkpt lat="44.8277242" lon="8.0672277"><ele>161.0</ele><time>2026-04-19T06:55:07.727Z</time></trkpt><trkpt lat="44.8278061" lon="8.0672828"><ele>161.5</ele><time>2026-04-19T06:55:08.722Z</time></trkpt><trkpt lat="44.8278846" lon="8.0673298"><ele>162.0</ele><time>2026-04-19T06:55:09.728Z</time></trkpt><trkpt lat="44.8279607" lon="8.0673616"><ele>162.5</ele><time>2026-04-19T06:55:10.722Z</time></trkpt><trkpt lat="44.8280403" lon="8.0673813"><ele>163.0</ele><time>2026-04-19T06:55:11.717Z</time></trkpt><trkpt lat="44.8281151" lon="8.0673959"><ele>163.5</ele><time>2026-04-19T06:55:12.723Z</time></trkpt><trkpt lat="44.828228" lon="8.0674382"><ele>164.0</ele><time>2026-04-19T06:55:14.725Z</time></trkpt><trkpt lat="44.8283181" lon="8.0675155"><ele>163.2</ele><time>2026-04-19T06:55:16.725Z</time></trkpt><trkpt lat="44.8284344" lon="8.0676029"><ele>162.39999999999998</ele><time>2026-04-19T06:55:18.721Z</time></trkpt><trkpt lat="44.8285031" lon="8.0676423"><ele>161.6</ele><time>2026-04-19T06:55:19.728Z</time></trkpt><trkpt lat="44.8285782" lon="8.0676748"><ele>160.8</ele><time>2026-04-19T06:55:20.725Z</time></trkpt><trkpt lat="44.8286586" lon="8.0677023"><ele>160.0</ele><time>2026-04-19T06:55:21.731Z</time></trkpt><trkpt lat="44.8287516" lon="8.067738"><ele>160.0</ele><time>2026-04-19T06:55:22.728Z</time></trkpt><trkpt lat="44.8288496" lon="8.0677876"><ele>160.0</ele><time>2026-04-19T06:55:23.724Z</time></trkpt><trkpt lat="44.8289441" lon="8.0678402"><ele>160.0</ele><time>2026-04-19T06:55:24.732Z</time></trkpt><trkpt lat="44.8290387" lon="8.067895"><ele>160.0</ele><time>2026-04-19T06:55:25.726Z</time></trkpt><trkpt lat="44.8291368" lon="8.0679495"><ele>160.0</ele><time>2026-04-19T06:55:26.726Z</time></trkpt><trkpt lat="44.8292334" lon="8.0680022"><ele>159.5</ele><time>2026-04-19T06:55:27.729Z</time></trkpt><trkpt lat="44.8293296" lon="8.0680713"><ele>159.0</ele><time>2026-04-19T06:55:28.729Z</time></trkpt><trkpt lat="44.8294241" lon="8.0681521"><ele>158.5</ele><time>2026-04-19T06:55:29.725Z</time></trkpt><trkpt lat="44.8295165" lon="8.0682562"><ele>158.0</ele><time>2026-04-19T06:55:30.733Z</time></trkpt><trkpt lat="44.8295972" lon="8.0683907"><ele>158.0</ele><time>2026-04-19T06:55:31.726Z</time></trkpt><trkpt lat="44.8296639" lon="8.0685468"><ele>158.0</ele><time>2026-04-19T06:55:32.728Z</time></trkpt><trkpt lat="44.8297287" lon="8.0686991"><ele>158.0</ele><time>2026-04-19T06:55:33.726Z</time></trkpt><trkpt lat="44.8298067" lon="8.0688273"><ele>158.0</ele><time>2026-04-19T06:55:34.725Z</time></trkpt><trkpt lat="44.8299026" lon="8.0689339"><ele>158.0</ele><time>2026-04-19T06:55:35.748Z</time></trkpt><trkpt lat="44.8300295" lon="8.0690017"><ele>158.0</ele><time>2026-04-19T06:55:36.735Z</time></trkpt><trkpt lat="44.8301835" lon="8.0690466"><ele>158.0</ele><time>2026-04-19T06:55:37.731Z</time></trkpt><trkpt lat="44.8303479" lon="8.0690797"><ele>158.0</ele><time>2026-04-19T06:55:38.733Z</time></trkpt><trkpt lat="44.830524" lon="8.0691164"><ele>158.0</ele><time>2026-04-19T06:55:39.73Z</time></trkpt><trkpt lat="44.8306923" lon="8.0691506"><ele>158.0</ele><time>2026-04-19T06:55:40.73Z</time></trkpt><trkpt lat="44.8308422" lon="8.069178"><ele>157.75</ele><time>2026-04-19T06:55:41.722Z</time></trkpt><trkpt lat="44.8309801" lon="8.0692096"><ele>157.5</ele><time>2026-04-19T06:55:42.73Z</time></trkpt><trkpt lat="44.8311107" lon="8.0692456"><ele>157.25</ele><time>2026-04-19T06:55:43.733Z</time></trkpt><trkpt lat="44.8312324" lon="8.0692879"><ele>157.0</ele><time>2026-04-19T06:55:44.733Z</time></trkpt><trkpt lat="44.8313447" lon="8.0693181"><ele>157.0</ele><time>2026-04-19T06:55:45.732Z</time></trkpt><trkpt lat="44.831467" lon="8.0693474"><ele>157.0</ele><time>2026-04-19T06:55:46.729Z</time></trkpt><trkpt lat="44.8315974" lon="8.0693771"><ele>157.0</ele><time>2026-04-19T06:55:47.733Z</time></trkpt><trkpt lat="44.8317316" lon="8.0694127"><ele>157.0</ele><time>2026-04-19T06:55:48.733Z</time></trkpt><trkpt lat="44.8318598" lon="8.0694555"><ele>157.25</ele><time>2026-04-19T06:55:49.734Z</time></trkpt><trkpt lat="44.8319834" lon="8.0695027"><ele>157.5</ele><time>2026-04-19T06:55:50.733Z</time></trkpt><trkpt lat="44.832102" lon="8.0695508"><ele>157.75</ele><time>2026-04-19T06:55:51.734Z</time></trkpt><trkpt lat="44.8322157" lon="8.0696056"><ele>158.0</ele><time>2026-04-19T06:55:52.737Z</time></trkpt><trkpt lat="44.8323307" lon="8.069662"><ele>158.0</ele><time>2026-04-19T06:55:53.735Z</time></trkpt><trkpt lat="44.8324459" lon="8.0697123"><ele>158.0</ele><time>2026-04-19T06:55:54.737Z</time></trkpt><trkpt lat="44.8325563" lon="8.069761"><ele>158.0</ele><time>2026-04-19T06:55:55.722Z</time></trkpt><trkpt lat="44.8326727" lon="8.0698033"><ele>158.0</ele><time>2026-04-19T06:55:56.732Z</time></trkpt><trkpt lat="44.8327869" lon="8.0698455"><ele>158.4</ele><time>2026-04-19T06:55:57.734Z</time></trkpt><trkpt lat="44.8328969" lon="8.0698773"><ele>158.8</ele><time>2026-04-19T06:55:58.72Z</time></trkpt><trkpt lat="44.8330033" lon="8.0699067"><ele>159.2</ele><time>2026-04-19T06:55:59.727Z</time></trkpt><trkpt lat="44.8331078" lon="8.0699228"><ele>159.6</ele><time>2026-04-19T06:56:00.726Z</time></trkpt><trkpt lat="44.8332145" lon="8.0699292"><ele>160.0</ele><time>2026-04-19T06:56:01.728Z</time></trkpt><trkpt lat="44.8333112" lon="8.0699329"><ele>160.0</ele><time>2026-04-19T06:56:02.724Z</time></trkpt><trkpt lat="44.8333965" lon="8.0699308"><ele>160.0</ele><time>2026-04-19T06:56:03.73Z</time></trkpt><trkpt lat="44.8335128" lon="8.0699133"><ele>160.0</ele><time>2026-04-19T06:56:05.728Z</time></trkpt><trkpt lat="44.8336057" lon="8.0699015"><ele>160.0</ele><time>2026-04-19T06:56:15.739Z</time></trkpt><trkpt lat="44.8336803" lon="8.0699002"><ele>160.0</ele><time>2026-04-19T06:56:16.735Z</time></trkpt><trkpt lat="44.8337961" lon="8.0699092"><ele>160.0</ele><time>2026-04-19T06:56:17.729Z</time></trkpt><trkpt lat="44.8339175" lon="8.0699202"><ele>160.0</ele><time>2026-04-19T06:56:18.728Z</time></trkpt><trkpt lat="44.8340327" lon="8.0699303"><ele>160.0</ele><time>2026-04-19T06:56:19.727Z</time></trkpt><trkpt lat="44.8341492" lon="8.0699368"><ele>160.0</ele><time>2026-04-19T06:56:20.731Z</time></trkpt><trkpt lat="44.8342686" lon="8.0699412"><ele>160.4</ele><time>2026-04-19T06:56:21.738Z</time></trkpt><trkpt lat="44.8343932" lon="8.0699549"><ele>160.8</ele><time>2026-04-19T06:56:22.736Z</time></trkpt><trkpt lat="44.8345131" lon="8.0699578"><ele>161.2</ele><time>2026-04-19T06:56:23.726Z</time></trkpt><trkpt lat="44.8346204" lon="8.0699491"><ele>161.6</ele><time>2026-04-19T06:56:24.741Z</time></trkpt><trkpt lat="44.8347142" lon="8.0699247"><ele>162.0</ele><time>2026-04-19T06:56:25.736Z</time></trkpt><trkpt lat="44.8347841" lon="8.0698572"><ele>162.0</ele><time>2026-04-19T06:56:26.737Z</time></trkpt><trkpt lat="44.8348229" lon="8.0697455"><ele>162.0</ele><time>2026-04-19T06:56:27.735Z</time></trkpt><trkpt lat="44.8348283" lon="8.0695948"><ele>162.0</ele><time>2026-04-19T06:56:28.73Z</time></trkpt><trkpt lat="44.8348283" lon="8.0694476"><ele>162.0</ele><time>2026-04-19T06:56:29.725Z</time></trkpt><trkpt lat="44.8348447" lon="8.0693278"><ele>162.0</ele><time>2026-04-19T06:56:30.73Z</time></trkpt><trkpt lat="44.8348897" lon="8.0692431"><ele>162.0</ele><time>2026-04-19T06:56:31.729Z</time></trkpt><trkpt lat="44.834971" lon="8.0691976"><ele>162.0</ele><time>2026-04-19T06:56:32.724Z</time></trkpt><trkpt lat="44.8350895" lon="8.0691882"><ele>162.0</ele><time>2026-04-19T06:56:33.732Z</time></trkpt><trkpt lat="44.8352257" lon="8.0692115"><ele>162.0</ele><time>2026-04-19T06:56:34.726Z</time></trkpt><trkpt lat="44.8353706" lon="8.0692372"><ele>161.25</ele><time>2026-04-19T06:56:35.723Z</time></trkpt><trkpt lat="44.8355171" lon="8.069261"><ele>160.5</ele><time>2026-04-19T06:56:36.731Z</time></trkpt><trkpt lat="44.8356542" lon="8.0692688"><ele>159.75</ele><time>2026-04-19T06:56:37.742Z</time></trkpt><trkpt lat="44.8357728" lon="8.0692605"><ele>159.0</ele><time>2026-04-19T06:56:38.729Z</time></trkpt><trkpt lat="44.835885" lon="8.0692395"><ele>159.2</ele><time>2026-04-19T06:56:39.729Z</time></trkpt><trkpt lat="44.835996" lon="8.069218"><ele>159.4</ele><time>2026-04-19T06:56:40.721Z</time></trkpt><trkpt lat="44.8361071" lon="8.0691984"><ele>159.6</ele><time>2026-04-19T06:56:41.721Z</time></trkpt><trkpt lat="44.8362113" lon="8.0691762"><ele>159.8</ele><time>2026-04-19T06:56:42.725Z</time></trkpt><trkpt lat="44.8363128" lon="8.0691592"><ele>160.0</ele><time>2026-04-19T06:56:43.728Z</time></trkpt><trkpt lat="44.8364066" lon="8.0691404"><ele>160.0</ele><time>2026-04-19T06:56:44.724Z</time></trkpt><trkpt lat="44.8364916" lon="8.0691223"><ele>160.0</ele><time>2026-04-19T06:56:45.723Z</time></trkpt><trkpt lat="44.8365682" lon="8.069098"><ele>160.0</ele><time>2026-04-19T06:56:46.719Z</time></trkpt><trkpt lat="44.8366338" lon="8.0690792"><ele>160.0</ele><time>2026-04-19T06:56:47.727Z</time></trkpt><trkpt lat="44.8367385" lon="8.069055"><ele>160.0</ele><time>2026-04-19T06:56:49.729Z</time></trkpt><trkpt lat="44.8368085" lon="8.0690495"><ele>160.0</ele><time>2026-04-19T06:56:55.735Z</time></trkpt><trkpt lat="44.8366733" lon="8.0691328"><ele>160.0</ele><time>2026-04-19T06:57:19.721Z</time></trkpt><trkpt lat="44.8365488" lon="8.0691668"><ele>160.0</ele><time>2026-04-19T06:57:20.719Z</time></trkpt><trkpt lat="44.8364088" lon="8.0691965"><ele>160.0</ele><time>2026-04-19T06:57:21.719Z</time></trkpt><trkpt lat="44.8362571" lon="8.0692263"><ele>160.0</ele><time>2026-04-19T06:57:22.719Z</time></trkpt><trkpt lat="44.8360829" lon="8.0692583"><ele>159.66666666666669</ele><time>2026-04-19T06:57:23.721Z</time></trkpt><trkpt lat="44.8358989" lon="8.0692909"><ele>159.33333333333334</ele><time>2026-04-19T06:57:24.721Z</time></trkpt><trkpt lat="44.83571" lon="8.0693175"><ele>159.0</ele><time>2026-04-19T06:57:25.725Z</time></trkpt><trkpt lat="44.8355308" lon="8.0693273"><ele>159.0</ele><time>2026-04-19T06:57:26.722Z</time></trkpt><trkpt lat="44.8353596" lon="8.0693179"><ele>159.0</ele><time>2026-04-19T06:57:27.721Z</time></trkpt><trkpt lat="44.8352048" lon="8.0693053"><ele>159.0</ele><time>2026-04-19T06:57:28.718Z</time></trkpt><trkpt lat="44.8350631" lon="8.0693022"><ele>159.6</ele><time>2026-04-19T06:57:29.717Z</time></trkpt><trkpt lat="44.8349419" lon="8.0692985"><ele>160.2</ele><time>2026-04-19T06:57:30.714Z</time></trkpt><trkpt lat="44.8348489" lon="8.0693097"><ele>160.79999999999998</ele><time>2026-04-19T06:57:31.725Z</time></trkpt><trkpt lat="44.834784" lon="8.069363"><ele>161.4</ele><time>2026-04-19T06:57:32.73Z</time></trkpt><trkpt lat="44.8347444" lon="8.0694486"><ele>162.0</ele><time>2026-04-19T06:57:33.73Z</time></trkpt><trkpt lat="44.8347342" lon="8.0695758"><ele>162.0</ele><time>2026-04-19T06:57:34.728Z</time></trkpt><trkpt lat="44.8347248" lon="8.0697172"><ele>162.0</ele><time>2026-04-19T06:57:35.728Z</time></trkpt><trkpt lat="44.8347225" lon="8.0698459"><ele>162.0</ele><time>2026-04-19T06:57:36.725Z</time></trkpt><trkpt lat="44.8347083" lon="8.0699595"><ele>162.0</ele><time>2026-04-19T06:57:37.734Z</time></trkpt><trkpt lat="44.8346556" lon="8.0700313"><ele>162.0</ele><time>2026-04-19T06:57:38.738Z</time></trkpt><trkpt lat="44.8345636" lon="8.0700549"><ele>162.0</ele><time>2026-04-19T06:57:39.751Z</time></trkpt><trkpt lat="44.8344524" lon="8.0700379"><ele>161.6</ele><time>2026-04-19T06:57:40.722Z</time></trkpt><trkpt lat="44.8343382" lon="8.0700031"><ele>161.2</ele><time>2026-04-19T06:57:41.733Z</time></trkpt><trkpt lat="44.8342307" lon="8.0699762"><ele>160.8</ele><time>2026-04-19T06:57:42.726Z</time></trkpt><trkpt lat="44.8341255" lon="8.0699611"><ele>160.4</ele><time>2026-04-19T06:57:43.728Z</time></trkpt><trkpt lat="44.8340301" lon="8.0699491"><ele>160.0</ele><time>2026-04-19T06:57:44.734Z</time></trkpt><trkpt lat="44.8339336" lon="8.0699393"><ele>160.0</ele><time>2026-04-19T06:57:45.725Z</time></trkpt><trkpt lat="44.8338435" lon="8.0699335"><ele>160.0</ele><time>2026-04-19T06:57:46.727Z</time></trkpt><trkpt lat="44.8337632" lon="8.0699318"><ele>160.0</ele><time>2026-04-19T06:57:47.727Z</time></trkpt><trkpt lat="44.8336933" lon="8.0699344"><ele>160.0</ele><time>2026-04-19T06:57:48.719Z</time></trkpt><trkpt lat="44.833593" lon="8.0699378"><ele>160.0</ele><time>2026-04-19T06:57:50.72Z</time></trkpt><trkpt lat="44.8334765" lon="8.0699315"><ele>160.0</ele><time>2026-04-19T06:57:52.724Z</time></trkpt><trkpt lat="44.8333767" lon="8.0699191"><ele>160.0</ele><time>2026-04-19T06:57:53.733Z</time></trkpt><trkpt lat="44.8332354" lon="8.0699042"><ele>160.0</ele><time>2026-04-19T06:57:54.721Z</time></trkpt><trkpt lat="44.8330691" lon="8.0698935"><ele>160.0</ele><time>2026-04-19T06:57:55.72Z</time></trkpt><trkpt lat="44.8328821" lon="8.0698694"><ele>160.0</ele><time>2026-04-19T06:57:56.72Z</time></trkpt><trkpt lat="44.8326989" lon="8.0698178"><ele>160.0</ele><time>2026-04-19T06:57:57.728Z</time></trkpt><trkpt lat="44.8325225" lon="8.0697474"><ele>160.0</ele><time>2026-04-19T06:57:58.729Z</time></trkpt><trkpt lat="44.832355" lon="8.0696952"><ele>159.33333333333334</ele><time>2026-04-19T06:57:59.727Z</time></trkpt><trkpt lat="44.832193" lon="8.0696185"><ele>158.66666666666666</ele><time>2026-04-19T06:58:00.729Z</time></trkpt><trkpt lat="44.8320122" lon="8.0695282"><ele>158.0</ele><time>2026-04-19T06:58:01.735Z</time></trkpt><trkpt lat="44.8318323" lon="8.0694432"><ele>157.66666666666666</ele><time>2026-04-19T06:58:02.736Z</time></trkpt><trkpt lat="44.8316533" lon="8.0693771"><ele>157.33333333333334</ele><time>2026-04-19T06:58:03.732Z</time></trkpt><trkpt lat="44.8314716" lon="8.0693236"><ele>157.0</ele><time>2026-04-19T06:58:04.73Z</time></trkpt><trkpt lat="44.8312959" lon="8.0692724"><ele>157.0</ele><time>2026-04-19T06:58:05.734Z</time></trkpt><trkpt lat="44.8311285" lon="8.069238"><ele>157.0</ele><time>2026-04-19T06:58:06.736Z</time></trkpt><trkpt lat="44.8309674" lon="8.0692029"><ele>157.0</ele><time>2026-04-19T06:58:07.736Z</time></trkpt><trkpt lat="44.8308054" lon="8.0691626"><ele>157.33333333333334</ele><time>2026-04-19T06:58:08.734Z</time></trkpt><trkpt lat="44.8306442" lon="8.0691155"><ele>157.66666666666666</ele><time>2026-04-19T06:58:09.733Z</time></trkpt><trkpt lat="44.8304898" lon="8.069079"><ele>158.0</ele><time>2026-04-19T06:58:10.739Z</time></trkpt><trkpt lat="44.8303396" lon="8.069042"><ele>158.0</ele><time>2026-04-19T06:58:11.732Z</time></trkpt><trkpt lat="44.8301924" lon="8.0690088"><ele>158.0</ele><time>2026-04-19T06:58:12.729Z</time></trkpt><trkpt lat="44.8300579" lon="8.0689791"><ele>158.0</ele><time>2026-04-19T06:58:13.734Z</time></trkpt><trkpt lat="44.829932" lon="8.0689331"><ele>158.0</ele><time>2026-04-19T06:58:14.737Z</time></trkpt><trkpt lat="44.8298238" lon="8.0688683"><ele>158.0</ele><time>2026-04-19T06:58:15.739Z</time></trkpt><trkpt lat="44.8297235" lon="8.0687782"><ele>158.0</ele><time>2026-04-19T06:58:16.735Z</time></trkpt><trkpt lat="44.8296336" lon="8.0686728"><ele>158.0</ele><time>2026-04-19T06:58:17.736Z</time></trkpt><trkpt lat="44.8295689" lon="8.0685412"><ele>158.0</ele><time>2026-04-19T06:58:18.727Z</time></trkpt><trkpt lat="44.829512" lon="8.0683921"><ele>158.5</ele><time>2026-04-19T06:58:19.73Z</time></trkpt><trkpt lat="44.8294571" lon="8.068248"><ele>159.0</ele><time>2026-04-19T06:58:20.729Z</time></trkpt><trkpt lat="44.8293869" lon="8.0681232"><ele>159.5</ele><time>2026-04-19T06:58:21.729Z</time></trkpt><trkpt lat="44.8293039" lon="8.0680179"><ele>160.0</ele><time>2026-04-19T06:58:22.73Z</time></trkpt><trkpt lat="44.829203" lon="8.0679255"><ele>160.0</ele><time>2026-04-19T06:58:23.732Z</time></trkpt><trkpt lat="44.8290896" lon="8.067846"><ele>160.0</ele><time>2026-04-19T06:58:24.732Z</time></trkpt><trkpt lat="44.8289621" lon="8.0677863"><ele>160.0</ele><time>2026-04-19T06:58:25.737Z</time></trkpt><trkpt lat="44.8288268" lon="8.0677295"><ele>160.0</ele><time>2026-04-19T06:58:26.729Z</time></trkpt><trkpt lat="44.8286868" lon="8.067679"><ele>160.0</ele><time>2026-04-19T06:58:27.744Z</time></trkpt><trkpt lat="44.8285605" lon="8.0676279"><ele>160.0</ele><time>2026-04-19T06:58:28.735Z</time></trkpt><trkpt lat="44.8284468" lon="8.0675783"><ele>160.0</ele><time>2026-04-19T06:58:29.742Z</time></trkpt><trkpt lat="44.8283391" lon="8.0675269"><ele>160.0</ele><time>2026-04-19T06:58:30.727Z</time></trkpt><trkpt lat="44.8282339" lon="8.0674565"><ele>160.8</ele><time>2026-04-19T06:58:31.728Z</time></trkpt><trkpt lat="44.8281361" lon="8.067389"><ele>161.6</ele><time>2026-04-19T06:58:32.74Z</time></trkpt><trkpt lat="44.8280493" lon="8.0673267"><ele>162.39999999999998</ele><time>2026-04-19T06:58:33.738Z</time></trkpt><trkpt lat="44.8279677" lon="8.0672894"><ele>163.2</ele><time>2026-04-19T06:58:34.733Z</time></trkpt><trkpt lat="44.827902" lon="8.0672774"><ele>164.0</ele><time>2026-04-19T06:58:35.741Z</time></trkpt><trkpt lat="44.8278051" lon="8.0672752"><ele>164.0</ele><time>2026-04-19T06:58:37.741Z</time></trkpt><trkpt lat="44.8277308" lon="8.0672561"><ele>164.0</ele><time>2026-04-19T06:58:39.723Z</time></trkpt><trkpt lat="44.8276097" lon="8.0671841"><ele>164.0</ele><time>2026-04-19T06:58:41.749Z</time></trkpt><trkpt lat="44.8275307" lon="8.0671314"><ele>164.0</ele><time>2026-04-19T06:58:42.739Z</time></trkpt><trkpt lat="44.827438" lon="8.0670671"><ele>164.0</ele><time>2026-04-19T06:58:43.731Z</time></trkpt><trkpt lat="44.8273348" lon="8.0670017"><ele>163.25</ele><time>2026-04-19T06:58:44.735Z</time></trkpt><trkpt lat="44.8272219" lon="8.0669297"><ele>162.5</ele><time>2026-04-19T06:58:45.743Z</time></trkpt><trkpt lat="44.8271108" lon="8.066846"><ele>161.75</ele><time>2026-04-19T06:58:46.737Z</time></trkpt><trkpt lat="44.8270043" lon="8.0667474"><ele>161.0</ele><time>2026-04-19T06:58:47.735Z</time></trkpt><trkpt lat="44.8269109" lon="8.0666368"><ele>160.75</ele><time>2026-04-19T06:58:48.732Z</time></trkpt><trkpt lat="44.8268255" lon="8.0665159"><ele>160.5</ele><time>2026-04-19T06:58:49.746Z</time></trkpt><trkpt lat="44.826742" lon="8.0663951"><ele>160.25</ele><time>2026-04-19T06:58:50.733Z</time></trkpt><trkpt lat="44.8266586" lon="8.0662802"><ele>160.0</ele><time>2026-04-19T06:58:51.728Z</time></trkpt><trkpt lat="44.826576" lon="8.0661696"><ele>160.0</ele><time>2026-04-19T06:58:52.732Z</time></trkpt><trkpt lat="44.8264915" lon="8.0660765"><ele>160.0</ele><time>2026-04-19T06:58:53.733Z</time></trkpt><trkpt lat="44.8263978" lon="8.0660049"><ele>160.0</ele><time>2026-04-19T06:58:54.731Z</time></trkpt><trkpt lat="44.8262987" lon="8.0659405"><ele>160.0</ele><time>2026-04-19T06:58:55.729Z</time></trkpt><trkpt lat="44.8261939" lon="8.0658821"><ele>160.0</ele><time>2026-04-19T06:58:56.732Z</time></trkpt><trkpt lat="44.8260982" lon="8.0658346"><ele>160.0</ele><time>2026-04-19T06:58:57.721Z</time></trkpt><trkpt lat="44.826004" lon="8.065787"><ele>160.0</ele><time>2026-04-19T06:58:58.738Z</time></trkpt><trkpt lat="44.8259204" lon="8.0657438"><ele>160.0</ele><time>2026-04-19T06:58:59.737Z</time></trkpt><trkpt lat="44.8258391" lon="8.0657025"><ele>160.0</ele><time>2026-04-19T06:59:00.74Z</time></trkpt><trkpt lat="44.8257568" lon="8.0656674"><ele>160.0</ele><time>2026-04-19T06:59:01.737Z</time></trkpt><trkpt lat="44.825673" lon="8.0656336"><ele>160.0</ele><time>2026-04-19T06:59:02.743Z</time></trkpt><trkpt lat="44.8255838" lon="8.0656034"><ele>161.0</ele><time>2026-04-19T06:59:03.736Z</time></trkpt><trkpt lat="44.8254963" lon="8.065572"><ele>162.0</ele><time>2026-04-19T06:59:04.743Z</time></trkpt><trkpt lat="44.825409" lon="8.0655406"><ele>163.0</ele><time>2026-04-19T06:59:05.747Z</time></trkpt><trkpt lat="44.8253191" lon="8.0655107"><ele>164.0</ele><time>2026-04-19T06:59:06.742Z</time></trkpt><trkpt lat="44.8252245" lon="8.0654786"><ele>165.0</ele><time>2026-04-19T06:59:07.745Z</time></trkpt><trkpt lat="44.8251301" lon="8.0654455"><ele>165.0</ele><time>2026-04-19T06:59:08.745Z</time></trkpt><trkpt lat="44.825029" lon="8.0654046"><ele>165.0</ele><time>2026-04-19T06:59:09.745Z</time></trkpt><trkpt lat="44.8249211" lon="8.0653576"><ele>165.0</ele><time>2026-04-19T06:59:10.743Z</time></trkpt><trkpt lat="44.8248111" lon="8.0652977"><ele>165.0</ele><time>2026-04-19T06:59:11.744Z</time></trkpt><trkpt lat="44.8247034" lon="8.0652302"><ele>165.0</ele><time>2026-04-19T06:59:12.762Z</time></trkpt><trkpt lat="44.8246052" lon="8.0651571"><ele>165.0</ele><time>2026-04-19T06:59:13.744Z</time></trkpt><trkpt lat="44.8245097" lon="8.0650766"><ele>165.0</ele><time>2026-04-19T06:59:14.741Z</time></trkpt><trkpt lat="44.8244234" lon="8.064981"><ele>165.0</ele><time>2026-04-19T06:59:15.735Z</time></trkpt><trkpt lat="44.8243408" lon="8.0648795"><ele>165.0</ele><time>2026-04-19T06:59:16.737Z</time></trkpt><trkpt lat="44.8242659" lon="8.0647798"><ele>164.66666666666666</ele><time>2026-04-19T06:59:17.738Z</time></trkpt><trkpt lat="44.8242008" lon="8.0646797"><ele>164.33333333333334</ele><time>2026-04-19T06:59:18.739Z</time></trkpt><trkpt lat="44.8241479" lon="8.0645753"><ele>164.0</ele><time>2026-04-19T06:59:19.737Z</time></trkpt><trkpt lat="44.8241007" lon="8.0644804"><ele>163.66666666666669</ele><time>2026-04-19T06:59:20.737Z</time></trkpt><trkpt lat="44.8240568" lon="8.0643976"><ele>163.33333333333334</ele><time>2026-04-19T06:59:21.751Z</time></trkpt><trkpt lat="44.8240179" lon="8.0642644"><ele>163.0</ele><time>2026-04-19T06:59:23.737Z</time></trkpt><trkpt lat="44.8239976" lon="8.0641651"><ele>163.33333333333334</ele><time>2026-04-19T06:59:25.734Z</time></trkpt><trkpt lat="44.8239712" lon="8.0640816"><ele>163.66666666666669</ele><time>2026-04-19T06:59:27.734Z</time></trkpt><trkpt lat="44.8239402" lon="8.0640033"><ele>164.0</ele><time>2026-04-19T06:59:29.736Z</time></trkpt><trkpt lat="44.8238949" lon="8.0639003"><ele>164.33333333333334</ele><time>2026-04-19T06:59:31.739Z</time></trkpt><trkpt lat="44.8238265" lon="8.0637427"><ele>164.66666666666666</ele><time>2026-04-19T06:59:33.742Z</time></trkpt><trkpt lat="44.8237835" lon="8.0636472"><ele>165.0</ele><time>2026-04-19T06:59:34.741Z</time></trkpt><trkpt lat="44.8237346" lon="8.0635426"><ele>165.0</ele><time>2026-04-19T06:59:35.736Z</time></trkpt><trkpt lat="44.8236867" lon="8.0634349"><ele>165.0</ele><time>2026-04-19T06:59:36.738Z</time></trkpt><trkpt lat="44.8236355" lon="8.0633312"><ele>165.0</ele><time>2026-04-19T06:59:37.742Z</time></trkpt><trkpt lat="44.8235801" lon="8.0632303"><ele>165.0</ele><time>2026-04-19T06:59:38.734Z</time></trkpt><trkpt lat="44.8235154" lon="8.0631258"><ele>165.0</ele><time>2026-04-19T06:59:39.743Z</time></trkpt><trkpt lat="44.82345" lon="8.0630216"><ele>164.83333333333334</ele><time>2026-04-19T06:59:40.734Z</time></trkpt><trkpt lat="44.8233909" lon="8.0629238"><ele>164.66666666666666</ele><time>2026-04-19T06:59:41.738Z</time></trkpt><trkpt lat="44.8233334" lon="8.0628257"><ele>164.5</ele><time>2026-04-19T06:59:42.745Z</time></trkpt><trkpt lat="44.8232832" lon="8.0627319"><ele>164.33333333333331</ele><time>2026-04-19T06:59:43.757Z</time></trkpt><trkpt lat="44.8232368" lon="8.0626538"><ele>164.16666666666666</ele><time>2026-04-19T06:59:44.738Z</time></trkpt><trkpt lat="44.823189" lon="8.0625703"><ele>164.0</ele><time>2026-04-19T06:59:45.737Z</time></trkpt><trkpt lat="44.8231372" lon="8.0624939"><ele>164.33333333333331</ele><time>2026-04-19T06:59:46.741Z</time></trkpt><trkpt lat="44.8230782" lon="8.0624037"><ele>164.66666666666666</ele><time>2026-04-19T06:59:47.738Z</time></trkpt><trkpt lat="44.8230153" lon="8.0623149"><ele>165.0</ele><time>2026-04-19T06:59:48.725Z</time></trkpt><trkpt lat="44.8229518" lon="8.0622227"><ele>165.33333333333334</ele><time>2026-04-19T06:59:49.731Z</time></trkpt><trkpt lat="44.8228882" lon="8.0621337"><ele>165.66666666666669</ele><time>2026-04-19T06:59:50.725Z</time></trkpt><trkpt lat="44.8228285" lon="8.0620552"><ele>166.0</ele><time>2026-04-19T06:59:51.729Z</time></trkpt><trkpt lat="44.8227665" lon="8.0619828"><ele>166.0</ele><time>2026-04-19T06:59:52.731Z</time></trkpt><trkpt lat="44.8227055" lon="8.061925"><ele>166.0</ele><time>2026-04-19T06:59:53.73Z</time></trkpt><trkpt lat="44.8226436" lon="8.0618774"><ele>166.0</ele><time>2026-04-19T06:59:54.74Z</time></trkpt><trkpt lat="44.8225822" lon="8.061836"><ele>166.0</ele><time>2026-04-19T06:59:55.737Z</time></trkpt><trkpt lat="44.8225105" lon="8.0617967"><ele>166.0</ele><time>2026-04-19T06:59:56.735Z</time></trkpt><trkpt lat="44.8224428" lon="8.0617548"><ele>166.0</ele><time>2026-04-19T06:59:57.74Z</time></trkpt><trkpt lat="44.822379" lon="8.0617198"><ele>166.0</ele><time>2026-04-19T06:59:58.739Z</time></trkpt><trkpt lat="44.8223172" lon="8.0616891"><ele>165.66666666666669</ele><time>2026-04-19T06:59:59.741Z</time></trkpt><trkpt lat="44.8222567" lon="8.0616578"><ele>165.33333333333334</ele><time>2026-04-19T07:00:00.725Z</time></trkpt><trkpt lat="44.8221987" lon="8.0616221"><ele>165.0</ele><time>2026-04-19T07:00:01.72Z</time></trkpt><trkpt lat="44.8220997" lon="8.061564"><ele>164.66666666666666</ele><time>2026-04-19T07:00:03.728Z</time></trkpt><trkpt lat="44.8220233" lon="8.0615091"><ele>164.33333333333331</ele><time>2026-04-19T07:00:05.732Z</time></trkpt><trkpt lat="44.8219763" lon="8.0614467"><ele>164.0</ele><time>2026-04-19T07:00:07.73Z</time></trkpt><trkpt lat="44.8219237" lon="8.0613577"><ele>164.0</ele><time>2026-04-19T07:00:09.733Z</time></trkpt><trkpt lat="44.8218781" lon="8.0612588"><ele>164.0</ele><time>2026-04-19T07:00:11.735Z</time></trkpt><trkpt lat="44.8218527" lon="8.0611645"><ele>164.0</ele><time>2026-04-19T07:00:13.743Z</time></trkpt><trkpt lat="44.8218318" lon="8.0610552"><ele>164.0</ele><time>2026-04-19T07:00:15.731Z</time></trkpt><trkpt lat="44.8217993" lon="8.0609453"><ele>164.0</ele><time>2026-04-19T07:00:17.738Z</time></trkpt><trkpt lat="44.8217654" lon="8.0608304"><ele>164.0</ele><time>2026-04-19T07:00:19.73Z</time></trkpt><trkpt lat="44.8217135" lon="8.0606844"><ele>163.2</ele><time>2026-04-19T07:00:21.733Z</time></trkpt><trkpt lat="44.8216738" lon="8.0606"><ele>162.39999999999998</ele><time>2026-04-19T07:00:22.737Z</time></trkpt><trkpt lat="44.8216221" lon="8.0604969"><ele>161.6</ele><time>2026-04-19T07:00:23.719Z</time></trkpt><trkpt lat="44.8215719" lon="8.0603778"><ele>160.8</ele><time>2026-04-19T07:00:24.739Z</time></trkpt><trkpt lat="44.8215231" lon="8.0602472"><ele>160.0</ele><time>2026-04-19T07:00:25.72Z</time></trkpt><trkpt lat="44.8214636" lon="8.0601066"><ele>160.0</ele><time>2026-04-19T07:00:26.727Z</time></trkpt><trkpt lat="44.8213924" lon="8.0599696"><ele>160.0</ele><time>2026-04-19T07:00:27.727Z</time></trkpt><trkpt lat="44.8213135" lon="8.0598348"><ele>160.0</ele><time>2026-04-19T07:00:28.727Z</time></trkpt><trkpt lat="44.8212205" lon="8.0597062"><ele>160.0</ele><time>2026-04-19T07:00:29.724Z</time></trkpt><trkpt lat="44.8211097" lon="8.0595961"><ele>160.0</ele><time>2026-04-19T07:00:30.724Z</time></trkpt><trkpt lat="44.821002" lon="8.0595073"><ele>160.0</ele><time>2026-04-19T07:00:31.725Z</time></trkpt><trkpt lat="44.8208952" lon="8.0594388"><ele>160.0</ele><time>2026-04-19T07:00:32.724Z</time></trkpt><trkpt lat="44.8207961" lon="8.0593748"><ele>160.0</ele><time>2026-04-19T07:00:33.725Z</time></trkpt><trkpt lat="44.8207066" lon="8.059301"><ele>160.0</ele><time>2026-04-19T07:00:34.726Z</time></trkpt><trkpt lat="44.8206297" lon="8.0592095"><ele>160.0</ele><time>2026-04-19T07:00:35.74Z</time></trkpt><trkpt lat="44.8205632" lon="8.0591073"><ele>160.0</ele><time>2026-04-19T07:00:36.725Z</time></trkpt><trkpt lat="44.8205018" lon="8.0590149"><ele>160.0</ele><time>2026-04-19T07:00:37.727Z</time></trkpt><trkpt lat="44.8204544" lon="8.0589346"><ele>160.0</ele><time>2026-04-19T07:00:38.731Z</time></trkpt><trkpt lat="44.8203828" lon="8.0588061"><ele>160.0</ele><time>2026-04-19T07:00:40.727Z</time></trkpt><trkpt lat="44.8203415" lon="8.0587321"><ele>160.0</ele><time>2026-04-19T07:00:42.742Z</time></trkpt><trkpt lat="44.8202875" lon="8.0588401"><ele>160.0</ele><time>2026-04-19T07:00:46.736Z</time></trkpt><trkpt lat="44.8202168" lon="8.0589999"><ele>160.0</ele><time>2026-04-19T07:00:48.735Z</time></trkpt><trkpt lat="44.8201563" lon="8.0590927"><ele>160.0</ele><time>2026-04-19T07:00:49.733Z</time></trkpt><trkpt lat="44.8200969" lon="8.0591861"><ele>159.4</ele><time>2026-04-19T07:00:50.734Z</time></trkpt><trkpt lat="44.8200364" lon="8.0592803"><ele>158.8</ele><time>2026-04-19T07:00:51.739Z</time></trkpt><trkpt lat="44.8199731" lon="8.0593775"><ele>158.2</ele><time>2026-04-19T07:00:52.744Z</time></trkpt><trkpt lat="44.8199074" lon="8.0594725"><ele>157.6</ele><time>2026-04-19T07:00:53.744Z</time></trkpt><trkpt lat="44.819854" lon="8.0595678"><ele>157.0</ele><time>2026-04-19T07:00:54.749Z</time></trkpt><trkpt lat="44.8197963" lon="8.0596668"><ele>157.0</ele><time>2026-04-19T07:00:55.745Z</time></trkpt><trkpt lat="44.8197388" lon="8.0597647"><ele>157.0</ele><time>2026-04-19T07:00:56.741Z</time></trkpt><trkpt lat="44.8196834" lon="8.0598605"><ele>157.0</ele><time>2026-04-19T07:00:57.737Z</time></trkpt><trkpt lat="44.8196309" lon="8.0599548"><ele>157.0</ele><time>2026-04-19T07:00:58.744Z</time></trkpt><trkpt lat="44.8195774" lon="8.0600462"><ele>157.0</ele><time>2026-04-19T07:00:59.742Z</time></trkpt><trkpt lat="44.8195249" lon="8.0601352"><ele>157.0</ele><time>2026-04-19T07:01:00.734Z</time></trkpt><trkpt lat="44.819474" lon="8.0602314"><ele>157.16666666666669</ele><time>2026-04-19T07:01:01.731Z</time></trkpt><trkpt lat="44.8194232" lon="8.0603316"><ele>157.33333333333334</ele><time>2026-04-19T07:01:02.737Z</time></trkpt><trkpt lat="44.8193739" lon="8.0604277"><ele>157.5</ele><time>2026-04-19T07:01:03.737Z</time></trkpt><trkpt lat="44.8193247" lon="8.060525"><ele>157.66666666666666</ele><time>2026-04-19T07:01:04.737Z</time></trkpt><trkpt lat="44.8192693" lon="8.0606226"><ele>157.83333333333331</ele><time>2026-04-19T07:01:05.739Z</time></trkpt><trkpt lat="44.8192149" lon="8.0607132"><ele>158.0</ele><time>2026-04-19T07:01:06.737Z</time></trkpt><trkpt lat="44.8191644" lon="8.0607982"><ele>158.0</ele><time>2026-04-19T07:01:07.742Z</time></trkpt><trkpt lat="44.8191222" lon="8.0608815"><ele>158.0</ele><time>2026-04-19T07:01:08.742Z</time></trkpt><trkpt lat="44.8190753" lon="8.0609703"><ele>158.0</ele><time>2026-04-19T07:01:09.745Z</time></trkpt><trkpt lat="44.8190266" lon="8.0610534"><ele>158.0</ele><time>2026-04-19T07:01:10.745Z</time></trkpt><trkpt lat="44.8189833" lon="8.061131"><ele>158.0</ele><time>2026-04-19T07:01:11.739Z</time></trkpt><trkpt lat="44.8189233" lon="8.0612715"><ele>158.0</ele><time>2026-04-19T07:01:13.734Z</time></trkpt><trkpt lat="44.8189443" lon="8.0614024"><ele>158.0</ele><time>2026-04-19T07:01:15.734Z</time></trkpt><trkpt lat="44.8189794" lon="8.0614859"><ele>158.0</ele><time>2026-04-19T07:01:16.774Z</time></trkpt><trkpt lat="44.8190144" lon="8.0615631"><ele>158.0</ele><time>2026-04-19T07:01:17.73Z</time></trkpt><trkpt lat="44.8190731" lon="8.0616787"><ele>158.0</ele><time>2026-04-19T07:01:19.729Z</time></trkpt><trkpt lat="44.8191046" lon="8.0617994"><ele>158.0</ele><time>2026-04-19T07:01:21.742Z</time></trkpt><trkpt lat="44.8190502" lon="8.0619583"><ele>157.6</ele><time>2026-04-19T07:01:23.732Z</time></trkpt><trkpt lat="44.8189946" lon="8.0620582"><ele>157.20000000000002</ele><time>2026-04-19T07:01:24.727Z</time></trkpt><trkpt lat="44.8189245" lon="8.0621647"><ele>156.8</ele><time>2026-04-19T07:01:25.738Z</time></trkpt><trkpt lat="44.8188546" lon="8.0622767"><ele>156.4</ele><time>2026-04-19T07:01:26.735Z</time></trkpt><trkpt lat="44.8187835" lon="8.0623828"><ele>156.0</ele><time>2026-04-19T07:01:27.737Z</time></trkpt><trkpt lat="44.8187134" lon="8.0624834"><ele>155.83333333333334</ele><time>2026-04-19T07:01:28.741Z</time></trkpt><trkpt lat="44.8186538" lon="8.0625807"><ele>155.66666666666666</ele><time>2026-04-19T07:01:29.741Z</time></trkpt><trkpt lat="44.8185958" lon="8.0626703"><ele>155.5</ele><time>2026-04-19T07:01:30.739Z</time></trkpt><trkpt lat="44.8185406" lon="8.062756"><ele>155.33333333333331</ele><time>2026-04-19T07:01:31.739Z</time></trkpt><trkpt lat="44.8184821" lon="8.0628436"><ele>155.16666666666666</ele><time>2026-04-19T07:01:32.734Z</time></trkpt><trkpt lat="44.8184216" lon="8.0629393"><ele>155.0</ele><time>2026-04-19T07:01:33.738Z</time></trkpt><trkpt lat="44.8183603" lon="8.0630338"><ele>155.0</ele><time>2026-04-19T07:01:34.739Z</time></trkpt><trkpt lat="44.8183015" lon="8.063124"><ele>155.0</ele><time>2026-04-19T07:01:35.728Z</time></trkpt><trkpt lat="44.81825" lon="8.0632077"><ele>155.0</ele><time>2026-04-19T07:01:36.732Z</time></trkpt><trkpt lat="44.8182001" lon="8.0632877"><ele>155.0</ele><time>2026-04-19T07:01:37.735Z</time></trkpt><trkpt lat="44.8181547" lon="8.0633638"><ele>155.0</ele><time>2026-04-19T07:01:38.738Z</time></trkpt><trkpt lat="44.8181147" lon="8.0634372"><ele>155.0</ele><time>2026-04-19T07:01:39.74Z</time></trkpt><trkpt lat="44.8180756" lon="8.0635115"><ele>155.0</ele><time>2026-04-19T07:01:40.728Z</time></trkpt><trkpt lat="44.8180311" lon="8.0635851"><ele>155.16666666666666</ele><time>2026-04-19T07:01:41.735Z</time></trkpt><trkpt lat="44.8179862" lon="8.0636569"><ele>155.33333333333331</ele><time>2026-04-19T07:01:42.731Z</time></trkpt><trkpt lat="44.8179421" lon="8.0637292"><ele>155.5</ele><time>2026-04-19T07:01:43.731Z</time></trkpt><trkpt lat="44.8179011" lon="8.0638002"><ele>155.66666666666666</ele><time>2026-04-19T07:01:44.733Z</time></trkpt><trkpt lat="44.8178364" lon="8.0639296"><ele>155.83333333333334</ele><time>2026-04-19T07:01:46.753Z</time></trkpt><trkpt lat="44.8177783" lon="8.0640668"><ele>156.0</ele><time>2026-04-19T07:01:48.725Z</time></trkpt><trkpt lat="44.8177288" lon="8.0641619"><ele>156.0</ele><time>2026-04-19T07:01:50.731Z</time></trkpt><trkpt lat="44.8176732" lon="8.0642957"><ele>156.0</ele><time>2026-04-19T07:01:52.735Z</time></trkpt><trkpt lat="44.8176449" lon="8.064426"><ele>156.0</ele><time>2026-04-19T07:01:54.738Z</time></trkpt><trkpt lat="44.8176693" lon="8.0645087"><ele>156.0</ele><time>2026-04-19T07:01:56.746Z</time></trkpt><trkpt lat="44.8178222" lon="8.0645551"><ele>156.0</ele><time>2026-04-19T07:01:58.737Z</time></trkpt><trkpt lat="44.8179341" lon="8.0645901"><ele>156.5</ele><time>2026-04-19T07:01:59.74Z</time></trkpt><trkpt lat="44.8180561" lon="8.0646286"><ele>157.0</ele><time>2026-04-19T07:02:00.724Z</time></trkpt><trkpt lat="44.8181853" lon="8.0646379"><ele>157.5</ele><time>2026-04-19T07:02:01.732Z</time></trkpt><trkpt lat="44.8183189" lon="8.0646346"><ele>158.0</ele><time>2026-04-19T07:02:02.727Z</time></trkpt><trkpt lat="44.8184568" lon="8.0646273"><ele>158.0</ele><time>2026-04-19T07:02:03.711Z</time></trkpt><trkpt lat="44.8186051" lon="8.0646041"><ele>158.0</ele><time>2026-04-19T07:02:04.718Z</time></trkpt><trkpt lat="44.8187557" lon="8.0645786"><ele>158.0</ele><time>2026-04-19T07:02:05.726Z</time></trkpt><trkpt lat="44.8189132" lon="8.0645524"><ele>158.0</ele><time>2026-04-19T07:02:06.724Z</time></trkpt><trkpt lat="44.8190806" lon="8.0645252"><ele>158.0</ele><time>2026-04-19T07:02:07.71Z</time></trkpt><trkpt lat="44.8192248" lon="8.06451"><ele>158.0</ele><time>2026-04-19T07:02:08.725Z</time></trkpt><trkpt lat="44.8193321" lon="8.0644908"><ele>158.0</ele><time>2026-04-19T07:02:09.729Z</time></trkpt><trkpt lat="44.8194264" lon="8.0644831"><ele>157.83333333333331</ele><time>2026-04-19T07:02:11.729Z</time></trkpt><trkpt lat="44.8194879" lon="8.0646005"><ele>157.66666666666666</ele><time>2026-04-19T07:02:14.725Z</time></trkpt><trkpt lat="44.8194939" lon="8.0647375"><ele>157.5</ele><time>2026-04-19T07:02:16.733Z</time></trkpt><trkpt lat="44.8194873" lon="8.0648294"><ele>157.33333333333334</ele><time>2026-04-19T07:02:17.753Z</time></trkpt><trkpt lat="44.819462" lon="8.0649261"><ele>157.16666666666669</ele><time>2026-04-19T07:02:18.725Z</time></trkpt><trkpt lat="44.8194114" lon="8.0650427"><ele>157.0</ele><time>2026-04-19T07:02:19.735Z</time></trkpt><trkpt lat="44.8193523" lon="8.0651662"><ele>157.33333333333334</ele><time>2026-04-19T07:02:20.72Z</time></trkpt><trkpt lat="44.8192938" lon="8.0652905"><ele>157.66666666666669</ele><time>2026-04-19T07:02:21.731Z</time></trkpt><trkpt lat="44.8192436" lon="8.0654039"><ele>158.0</ele><time>2026-04-19T07:02:22.732Z</time></trkpt><trkpt lat="44.8192049" lon="8.0655014"><ele>158.33333333333334</ele><time>2026-04-19T07:02:23.715Z</time></trkpt><trkpt lat="44.8191672" lon="8.0655876"><ele>158.66666666666666</ele><time>2026-04-19T07:02:24.734Z</time></trkpt><trkpt lat="44.8191234" lon="8.0656662"><ele>159.0</ele><time>2026-04-19T07:02:25.725Z</time></trkpt><trkpt lat="44.8190716" lon="8.0657411"><ele>160.2</ele><time>2026-04-19T07:02:26.724Z</time></trkpt><trkpt lat="44.8189522" lon="8.0658053"><ele>161.4</ele><time>2026-04-19T07:02:28.71Z</time></trkpt><trkpt lat="44.8188875" lon="8.0658084"><ele>162.6</ele><time>2026-04-19T07:02:29.714Z</time></trkpt><trkpt lat="44.8188185" lon="8.0658053"><ele>163.8</ele><time>2026-04-19T07:02:30.719Z</time></trkpt><trkpt lat="44.8187028" lon="8.0657918"><ele>165.0</ele><time>2026-04-19T07:02:32.721Z</time></trkpt><trkpt lat="44.8185778" lon="8.0658086"><ele>166.0</ele><time>2026-04-19T07:02:34.718Z</time></trkpt><trkpt lat="44.8184687" lon="8.065812"><ele>167.0</ele><time>2026-04-19T07:02:36.725Z</time></trkpt><trkpt lat="44.8183744" lon="8.0657897"><ele>168.0</ele><time>2026-04-19T07:02:38.721Z</time></trkpt><trkpt lat="44.8182924" lon="8.0657981"><ele>169.0</ele><time>2026-04-19T07:02:40.717Z</time></trkpt><trkpt lat="44.8183379" lon="8.0658635"><ele>170.0</ele><time>2026-04-19T07:02:49.711Z</time></trkpt><trkpt lat="44.8183989" lon="8.0659523"><ele>171.0</ele><time>2026-04-19T07:02:51.701Z</time></trkpt><trkpt lat="44.8184608" lon="8.0660356"><ele>170.0</ele><time>2026-04-19T07:02:53.702Z</time></trkpt><trkpt lat="44.8185258" lon="8.066101"><ele>169.0</ele><time>2026-04-19T07:02:56.716Z</time></trkpt><trkpt lat="44.818604" lon="8.0661185"><ele>168.0</ele><time>2026-04-19T07:02:59.713Z</time></trkpt><trkpt lat="44.8186953" lon="8.0662197"><ele>167.0</ele><time>2026-04-19T07:03:01.708Z</time></trkpt><trkpt lat="44.8187607" lon="8.0663078"><ele>166.0</ele><time>2026-04-19T07:03:02.706Z</time></trkpt><trkpt lat="44.8188211" lon="8.0663847"><ele>165.0</ele><time>2026-04-19T07:03:03.704Z</time></trkpt><trkpt lat="44.8188707" lon="8.0664479"><ele>165.0</ele><time>2026-04-19T07:03:04.709Z</time></trkpt><trkpt lat="44.8189297" lon="8.0665623"><ele>165.0</ele><time>2026-04-19T07:03:06.706Z</time></trkpt><trkpt lat="44.8189739" lon="8.0666707"><ele>165.0</ele><time>2026-04-19T07:03:08.71Z</time></trkpt><trkpt lat="44.81902" lon="8.066804"><ele>165.0</ele><time>2026-04-19T07:03:10.717Z</time></trkpt><trkpt lat="44.819052" lon="8.0668876"><ele>165.0</ele><time>2026-04-19T07:03:11.718Z</time></trkpt><trkpt lat="44.8190908" lon="8.0669773"><ele>165.0</ele><time>2026-04-19T07:03:12.726Z</time></trkpt><trkpt lat="44.8191309" lon="8.0670803"><ele>167.8</ele><time>2026-04-19T07:03:13.716Z</time></trkpt><trkpt lat="44.8191732" lon="8.067183"><ele>170.6</ele><time>2026-04-19T07:03:14.716Z</time></trkpt><trkpt lat="44.8192177" lon="8.0672674"><ele>173.39999999999998</ele><time>2026-04-19T07:03:15.717Z</time></trkpt><trkpt lat="44.8192535" lon="8.0673412"><ele>176.2</ele><time>2026-04-19T07:03:16.717Z</time></trkpt><trkpt lat="44.8193185" lon="8.0674605"><ele>179.0</ele><time>2026-04-19T07:03:18.715Z</time></trkpt><trkpt lat="44.8193626" lon="8.0676243"><ele>179.0</ele><time>2026-04-19T07:03:20.717Z</time></trkpt><trkpt lat="44.8193848" lon="8.0677095"><ele>179.0</ele><time>2026-04-19T07:03:21.717Z</time></trkpt><trkpt lat="44.8193797" lon="8.0678072"><ele>179.0</ele><time>2026-04-19T07:03:25.725Z</time></trkpt><trkpt lat="44.8192764" lon="8.0678398"><ele>179.0</ele><time>2026-04-19T07:03:27.721Z</time></trkpt><trkpt lat="44.8191516" lon="8.0678779"><ele>179.0</ele><time>2026-04-19T07:03:29.722Z</time></trkpt><trkpt lat="44.8190504" lon="8.0679007"><ele>182.2</ele><time>2026-04-19T07:03:31.722Z</time></trkpt><trkpt lat="44.8189401" lon="8.0679085"><ele>185.39999999999998</ele><time>2026-04-19T07:03:33.73Z</time></trkpt><trkpt lat="44.8188172" lon="8.0679166"><ele>188.6</ele><time>2026-04-19T07:03:35.724Z</time></trkpt><trkpt lat="44.8187371" lon="8.0679083"><ele>191.8</ele><time>2026-04-19T07:03:36.72Z</time></trkpt><trkpt lat="44.8186516" lon="8.0678955"><ele>195.0</ele><time>2026-04-19T07:03:37.723Z</time></trkpt><trkpt lat="44.8185597" lon="8.06789"><ele>197.8</ele><time>2026-04-19T07:03:38.719Z</time></trkpt><trkpt lat="44.8184616" lon="8.0678853"><ele>200.6</ele><time>2026-04-19T07:03:39.72Z</time></trkpt><trkpt lat="44.8183645" lon="8.0678804"><ele>203.39999999999998</ele><time>2026-04-19T07:03:40.723Z</time></trkpt><trkpt lat="44.8182837" lon="8.0678739"><ele>206.2</ele><time>2026-04-19T07:03:41.713Z</time></trkpt><trkpt lat="44.8182203" lon="8.0678659"><ele>209.0</ele><time>2026-04-19T07:03:42.717Z</time></trkpt><trkpt lat="44.8181028" lon="8.0678701"><ele>209.0</ele><time>2026-04-19T07:03:44.713Z</time></trkpt><trkpt lat="44.8180159" lon="8.0679274"><ele>209.0</ele><time>2026-04-19T07:03:46.715Z</time></trkpt><trkpt lat="44.8179417" lon="8.0679711"><ele>209.0</ele><time>2026-04-19T07:03:48.716Z</time></trkpt><trkpt lat="44.8178543" lon="8.0680136"><ele>209.0</ele><time>2026-04-19T07:03:50.743Z</time></trkpt><trkpt lat="44.8177456" lon="8.0680249"><ele>209.0</ele><time>2026-04-19T07:03:52.725Z</time></trkpt><trkpt lat="44.8176719" lon="8.0680168"><ele>209.66666666666669</ele><time>2026-04-19T07:03:53.733Z</time></trkpt><trkpt lat="44.8175909" lon="8.0680167"><ele>210.33333333333334</ele><time>2026-04-19T07:03:54.738Z</time></trkpt><trkpt lat="44.8175061" lon="8.0680391"><ele>211.0</ele><time>2026-04-19T07:03:55.727Z</time></trkpt><trkpt lat="44.8174238" lon="8.0680847"><ele>211.66666666666669</ele><time>2026-04-19T07:03:56.728Z</time></trkpt><trkpt lat="44.8173456" lon="8.0681403"><ele>212.33333333333334</ele><time>2026-04-19T07:03:57.715Z</time></trkpt><trkpt lat="44.817264" lon="8.0682057"><ele>213.0</ele><time>2026-04-19T07:03:58.717Z</time></trkpt><trkpt lat="44.8171853" lon="8.0682664"><ele>213.16666666666666</ele><time>2026-04-19T07:03:59.716Z</time></trkpt><trkpt lat="44.8171114" lon="8.0683315"><ele>213.33333333333331</ele><time>2026-04-19T07:04:00.723Z</time></trkpt><trkpt lat="44.8170421" lon="8.0684086"><ele>213.5</ele><time>2026-04-19T07:04:01.716Z</time></trkpt><trkpt lat="44.8169743" lon="8.0684847"><ele>213.66666666666666</ele><time>2026-04-19T07:04:02.717Z</time></trkpt><trkpt lat="44.8169173" lon="8.0685629"><ele>213.83333333333331</ele><time>2026-04-19T07:04:03.717Z</time></trkpt><trkpt lat="44.8168621" lon="8.0686454"><ele>214.0</ele><time>2026-04-19T07:04:04.726Z</time></trkpt><trkpt lat="44.8168072" lon="8.0687348"><ele>214.99999999999997</ele><time>2026-04-19T07:04:05.722Z</time></trkpt><trkpt lat="44.8167515" lon="8.0688268"><ele>216.0</ele><time>2026-04-19T07:04:06.727Z</time></trkpt><trkpt lat="44.8166938" lon="8.0689185"><ele>217.0</ele><time>2026-04-19T07:04:07.72Z</time></trkpt><trkpt lat="44.8166335" lon="8.0690043"><ele>218.0</ele><time>2026-04-19T07:04:08.727Z</time></trkpt><trkpt lat="44.8165745" lon="8.0690876"><ele>218.99999999999997</ele><time>2026-04-19T07:04:09.72Z</time></trkpt><trkpt lat="44.8165152" lon="8.0691735"><ele>220.0</ele><time>2026-04-19T07:04:10.721Z</time></trkpt><trkpt lat="44.8164596" lon="8.0692575"><ele>220.49999999999997</ele><time>2026-04-19T07:04:11.72Z</time></trkpt><trkpt lat="44.8164074" lon="8.069344"><ele>221.0</ele><time>2026-04-19T07:04:12.727Z</time></trkpt><trkpt lat="44.8163573" lon="8.0694371"><ele>221.5</ele><time>2026-04-19T07:04:13.729Z</time></trkpt><trkpt lat="44.8163119" lon="8.0695278"><ele>222.0</ele><time>2026-04-19T07:04:14.723Z</time></trkpt><trkpt lat="44.8162734" lon="8.0696198"><ele>222.49999999999997</ele><time>2026-04-19T07:04:15.726Z</time></trkpt><trkpt lat="44.8162373" lon="8.0697077"><ele>223.0</ele><time>2026-04-19T07:04:16.724Z</time></trkpt><trkpt lat="44.8162087" lon="8.0697969"><ele>223.0</ele><time>2026-04-19T07:04:17.725Z</time></trkpt><trkpt lat="44.8161814" lon="8.0698816"><ele>223.0</ele><time>2026-04-19T07:04:18.72Z</time></trkpt><trkpt lat="44.8161597" lon="8.0699774"><ele>223.0</ele><time>2026-04-19T07:04:19.724Z</time></trkpt><trkpt lat="44.8161319" lon="8.0700787"><ele>223.0</ele><time>2026-04-19T07:04:20.713Z</time></trkpt><trkpt lat="44.8161055" lon="8.0701865"><ele>223.0</ele><time>2026-04-19T07:04:21.742Z</time></trkpt><trkpt lat="44.8160789" lon="8.0702894"><ele>223.0</ele><time>2026-04-19T07:04:22.728Z</time></trkpt><trkpt lat="44.8160444" lon="8.0703816"><ele>223.0</ele><time>2026-04-19T07:04:23.721Z</time></trkpt><trkpt lat="44.8160042" lon="8.0704712"><ele>224.33333333333331</ele><time>2026-04-19T07:04:24.73Z</time></trkpt><trkpt lat="44.815956" lon="8.0705593"><ele>225.66666666666666</ele><time>2026-04-19T07:04:25.724Z</time></trkpt><trkpt lat="44.8158996" lon="8.0706421"><ele>227.0</ele><time>2026-04-19T07:04:26.729Z</time></trkpt><trkpt lat="44.8158445" lon="8.0707238"><ele>228.33333333333331</ele><time>2026-04-19T07:04:27.725Z</time></trkpt><trkpt lat="44.8157849" lon="8.0708049"><ele>229.66666666666666</ele><time>2026-04-19T07:04:28.726Z</time></trkpt><trkpt lat="44.8157253" lon="8.0708869"><ele>231.0</ele><time>2026-04-19T07:04:29.727Z</time></trkpt><trkpt lat="44.8156723" lon="8.0709775"><ele>232.66666666666666</ele><time>2026-04-19T07:04:30.725Z</time></trkpt><trkpt lat="44.8156232" lon="8.0710719"><ele>234.33333333333331</ele><time>2026-04-19T07:04:31.728Z</time></trkpt><trkpt lat="44.8155756" lon="8.071172"><ele>236.0</ele><time>2026-04-19T07:04:32.729Z</time></trkpt><trkpt lat="44.8155281" lon="8.0712662"><ele>237.66666666666666</ele><time>2026-04-19T07:04:33.732Z</time></trkpt><trkpt lat="44.8154803" lon="8.0713604"><ele>239.33333333333331</ele><time>2026-04-19T07:04:34.733Z</time></trkpt><trkpt lat="44.8154362" lon="8.0714573"><ele>241.0</ele><time>2026-04-19T07:04:35.736Z</time></trkpt><trkpt lat="44.8153897" lon="8.0715508"><ele>241.16666666666666</ele><time>2026-04-19T07:04:36.737Z</time></trkpt><trkpt lat="44.8153348" lon="8.0716427"><ele>241.33333333333331</ele><time>2026-04-19T07:04:37.738Z</time></trkpt><trkpt lat="44.8152831" lon="8.071727"><ele>241.5</ele><time>2026-04-19T07:04:38.74Z</time></trkpt><trkpt lat="44.8152312" lon="8.0717992"><ele>241.66666666666669</ele><time>2026-04-19T07:04:39.732Z</time></trkpt><trkpt lat="44.8151761" lon="8.0718715"><ele>241.83333333333334</ele><time>2026-04-19T07:04:40.73Z</time></trkpt><trkpt lat="44.8151039" lon="8.0719358"><ele>242.0</ele><time>2026-04-19T07:04:41.737Z</time></trkpt><trkpt lat="44.8150128" lon="8.0719964"><ele>241.0</ele><time>2026-04-19T07:04:42.721Z</time></trkpt><trkpt lat="44.8149156" lon="8.072055"><ele>240.0</ele><time>2026-04-19T07:04:43.724Z</time></trkpt><trkpt lat="44.8148148" lon="8.072106"><ele>239.0</ele><time>2026-04-19T07:04:44.729Z</time></trkpt><trkpt lat="44.8147139" lon="8.0721676"><ele>238.0</ele><time>2026-04-19T07:04:45.724Z</time></trkpt><trkpt lat="44.8146244" lon="8.0722382"><ele>237.0</ele><time>2026-04-19T07:04:46.721Z</time></trkpt><trkpt lat="44.8145371" lon="8.0723273"><ele>237.0</ele><time>2026-04-19T07:04:47.727Z</time></trkpt><trkpt lat="44.8144569" lon="8.0724223"><ele>237.0</ele><time>2026-04-19T07:04:48.729Z</time></trkpt><trkpt lat="44.8143857" lon="8.0725143"><ele>237.0</ele><time>2026-04-19T07:04:49.727Z</time></trkpt><trkpt lat="44.8143208" lon="8.0725956"><ele>237.0</ele><time>2026-04-19T07:04:50.725Z</time></trkpt><trkpt lat="44.8142499" lon="8.0726715"><ele>237.0</ele><time>2026-04-19T07:04:51.731Z</time></trkpt><trkpt lat="44.8141801" lon="8.0727524"><ele>236.6</ele><time>2026-04-19T07:04:52.75Z</time></trkpt><trkpt lat="44.8141088" lon="8.072826"><ele>236.2</ele><time>2026-04-19T07:04:53.735Z</time></trkpt><trkpt lat="44.8140277" lon="8.0728927"><ele>235.8</ele><time>2026-04-19T07:04:54.737Z</time></trkpt><trkpt lat="44.8139403" lon="8.0729518"><ele>235.4</ele><time>2026-04-19T07:04:55.727Z</time></trkpt><trkpt lat="44.8138427" lon="8.0730098"><ele>235.0</ele><time>2026-04-19T07:04:56.732Z</time></trkpt><trkpt lat="44.8137394" lon="8.0730598"><ele>235.0</ele><time>2026-04-19T07:04:57.734Z</time></trkpt><trkpt lat="44.8136385" lon="8.0731088"><ele>235.0</ele><time>2026-04-19T07:04:58.739Z</time></trkpt><trkpt lat="44.8135337" lon="8.0731576"><ele>235.0</ele><time>2026-04-19T07:04:59.738Z</time></trkpt><trkpt lat="44.8134258" lon="8.0731955"><ele>235.0</ele><time>2026-04-19T07:05:00.731Z</time></trkpt><trkpt lat="44.8133192" lon="8.0732354"><ele>235.0</ele><time>2026-04-19T07:05:01.738Z</time></trkpt><trkpt lat="44.8132142" lon="8.0732711"><ele>233.6</ele><time>2026-04-19T07:05:02.735Z</time></trkpt><trkpt lat="44.8131083" lon="8.073304"><ele>232.2</ele><time>2026-04-19T07:05:03.736Z</time></trkpt><trkpt lat="44.8130023" lon="8.0733377"><ele>230.8</ele><time>2026-04-19T07:05:04.733Z</time></trkpt><trkpt lat="44.8128974" lon="8.0733769"><ele>229.4</ele><time>2026-04-19T07:05:05.734Z</time></trkpt><trkpt lat="44.8127937" lon="8.0734314"><ele>228.0</ele><time>2026-04-19T07:05:06.729Z</time></trkpt><trkpt lat="44.812697" lon="8.0734854"><ele>228.0</ele><time>2026-04-19T07:05:07.732Z</time></trkpt><trkpt lat="44.8126062" lon="8.0735409"><ele>228.0</ele><time>2026-04-19T07:05:08.727Z</time></trkpt><trkpt lat="44.8125155" lon="8.0735854"><ele>228.0</ele><time>2026-04-19T07:05:09.731Z</time></trkpt><trkpt lat="44.8124248" lon="8.0736131"><ele>228.0</ele><time>2026-04-19T07:05:10.735Z</time></trkpt><trkpt lat="44.8123337" lon="8.0736197"><ele>228.0</ele><time>2026-04-19T07:05:11.736Z</time></trkpt><trkpt lat="44.8122455" lon="8.0736061"><ele>228.0</ele><time>2026-04-19T07:05:12.737Z</time></trkpt><trkpt lat="44.8121548" lon="8.0735828"><ele>228.0</ele><time>2026-04-19T07:05:13.73Z</time></trkpt><trkpt lat="44.8120602" lon="8.0735687"><ele>228.0</ele><time>2026-04-19T07:05:14.744Z</time></trkpt><trkpt lat="44.8119544" lon="8.0735568"><ele>228.0</ele><time>2026-04-19T07:05:15.736Z</time></trkpt><trkpt lat="44.8118444" lon="8.0735481"><ele>228.0</ele><time>2026-04-19T07:05:16.743Z</time></trkpt><trkpt lat="44.8117338" lon="8.0735462"><ele>228.83333333333334</ele><time>2026-04-19T07:05:17.741Z</time></trkpt><trkpt lat="44.8116291" lon="8.0735472"><ele>229.66666666666669</ele><time>2026-04-19T07:05:18.726Z</time></trkpt><trkpt lat="44.8115309" lon="8.0735536"><ele>230.5</ele><time>2026-04-19T07:05:19.737Z</time></trkpt><trkpt lat="44.8114505" lon="8.0735606"><ele>231.33333333333334</ele><time>2026-04-19T07:05:20.729Z</time></trkpt><trkpt lat="44.8113885" lon="8.0735767"><ele>232.16666666666669</ele><time>2026-04-19T07:05:21.739Z</time></trkpt><trkpt lat="44.8112976" lon="8.0736315"><ele>233.0</ele><time>2026-04-19T07:05:23.757Z</time></trkpt><trkpt lat="44.8111901" lon="8.0737028"><ele>233.0</ele><time>2026-04-19T07:05:25.735Z</time></trkpt><trkpt lat="44.8111186" lon="8.0737435"><ele>233.0</ele><time>2026-04-19T07:05:26.736Z</time></trkpt><trkpt lat="44.8110491" lon="8.0737877"><ele>233.0</ele><time>2026-04-19T07:05:27.736Z</time></trkpt><trkpt lat="44.8109757" lon="8.0738327"><ele>233.0</ele><time>2026-04-19T07:05:28.734Z</time></trkpt><trkpt lat="44.8109066" lon="8.0738797"><ele>233.0</ele><time>2026-04-19T07:05:29.736Z</time></trkpt><trkpt lat="44.8108402" lon="8.0739141"><ele>233.0</ele><time>2026-04-19T07:05:30.729Z</time></trkpt><trkpt lat="44.8107742" lon="8.0739404"><ele>233.0</ele><time>2026-04-19T07:05:31.733Z</time></trkpt><trkpt lat="44.8107043" lon="8.0739688"><ele>234.16666666666669</ele><time>2026-04-19T07:05:32.721Z</time></trkpt><trkpt lat="44.8106326" lon="8.0739953"><ele>235.33333333333334</ele><time>2026-04-19T07:05:33.732Z</time></trkpt><trkpt lat="44.8105589" lon="8.0740209"><ele>236.5</ele><time>2026-04-19T07:05:34.73Z</time></trkpt><trkpt lat="44.8104818" lon="8.0740402"><ele>237.66666666666669</ele><time>2026-04-19T07:05:35.729Z</time></trkpt><trkpt lat="44.8104039" lon="8.0740526"><ele>238.83333333333334</ele><time>2026-04-19T07:05:36.725Z</time></trkpt><trkpt lat="44.8103273" lon="8.0740696"><ele>240.0</ele><time>2026-04-19T07:05:37.733Z</time></trkpt><trkpt lat="44.8102473" lon="8.0740793"><ele>240.0</ele><time>2026-04-19T07:05:38.729Z</time></trkpt><trkpt lat="44.8101652" lon="8.074085"><ele>240.0</ele><time>2026-04-19T07:05:39.732Z</time></trkpt><trkpt lat="44.810085" lon="8.0740881"><ele>240.0</ele><time>2026-04-19T07:05:40.73Z</time></trkpt><trkpt lat="44.8100055" lon="8.0740813"><ele>240.0</ele><time>2026-04-19T07:05:41.733Z</time></trkpt><trkpt lat="44.8099233" lon="8.0740675"><ele>240.0</ele><time>2026-04-19T07:05:42.726Z</time></trkpt><trkpt lat="44.8098432" lon="8.0740419"><ele>240.0</ele><time>2026-04-19T07:05:43.729Z</time></trkpt><trkpt lat="44.8097575" lon="8.0740072"><ele>240.42857142857144</ele><time>2026-04-19T07:05:44.717Z</time></trkpt><trkpt lat="44.8096708" lon="8.0739728"><ele>240.85714285714283</ele><time>2026-04-19T07:05:45.729Z</time></trkpt><trkpt lat="44.8095894" lon="8.073948"><ele>241.28571428571428</ele><time>2026-04-19T07:05:46.732Z</time></trkpt><trkpt lat="44.8095254" lon="8.0739384"><ele>241.71428571428572</ele><time>2026-04-19T07:05:47.721Z</time></trkpt><trkpt lat="44.8094621" lon="8.0739489"><ele>242.14285714285717</ele><time>2026-04-19T07:05:48.733Z</time></trkpt><trkpt lat="44.8093945" lon="8.07398"><ele>242.57142857142856</ele><time>2026-04-19T07:05:49.719Z</time></trkpt><trkpt lat="44.8093351" lon="8.0740362"><ele>243.0</ele><time>2026-04-19T07:05:50.728Z</time></trkpt><trkpt lat="44.8092683" lon="8.0741224"><ele>243.0</ele><time>2026-04-19T07:05:51.727Z</time></trkpt><trkpt lat="44.8091969" lon="8.0742226"><ele>243.0</ele><time>2026-04-19T07:05:52.73Z</time></trkpt><trkpt lat="44.8091209" lon="8.074325"><ele>243.0</ele><time>2026-04-19T07:05:53.722Z</time></trkpt><trkpt lat="44.8090446" lon="8.0744273"><ele>243.0</ele><time>2026-04-19T07:05:54.77Z</time></trkpt><trkpt lat="44.8089759" lon="8.0745164"><ele>243.0</ele><time>2026-04-19T07:05:55.726Z</time></trkpt><trkpt lat="44.8089172" lon="8.0746013"><ele>243.0</ele><time>2026-04-19T07:05:56.73Z</time></trkpt><trkpt lat="44.8088654" lon="8.0746928"><ele>243.0</ele><time>2026-04-19T07:05:57.725Z</time></trkpt><trkpt lat="44.8088134" lon="8.0747939"><ele>243.0</ele><time>2026-04-19T07:05:58.728Z</time></trkpt><trkpt lat="44.8087578" lon="8.074902"><ele>243.0</ele><time>2026-04-19T07:05:59.732Z</time></trkpt><trkpt lat="44.8087083" lon="8.0750195"><ele>243.0</ele><time>2026-04-19T07:06:00.728Z</time></trkpt><trkpt lat="44.8086648" lon="8.0751369"><ele>243.33333333333334</ele><time>2026-04-19T07:06:01.732Z</time></trkpt><trkpt lat="44.8086237" lon="8.0752447"><ele>243.66666666666669</ele><time>2026-04-19T07:06:02.729Z</time></trkpt><trkpt lat="44.8085831" lon="8.0753499"><ele>244.0</ele><time>2026-04-19T07:06:03.732Z</time></trkpt><trkpt lat="44.8085378" lon="8.0754526"><ele>244.33333333333334</ele><time>2026-04-19T07:06:04.732Z</time></trkpt><trkpt lat="44.8084869" lon="8.0755602"><ele>244.66666666666669</ele><time>2026-04-19T07:06:05.735Z</time></trkpt><trkpt lat="44.8084297" lon="8.0756716"><ele>245.0</ele><time>2026-04-19T07:06:06.729Z</time></trkpt><trkpt lat="44.8083714" lon="8.0757804"><ele>245.6</ele><time>2026-04-19T07:06:07.734Z</time></trkpt><trkpt lat="44.8083116" lon="8.0759004"><ele>246.2</ele><time>2026-04-19T07:06:08.73Z</time></trkpt><trkpt lat="44.8082542" lon="8.076029"><ele>246.8</ele><time>2026-04-19T07:06:09.728Z</time></trkpt><trkpt lat="44.8081986" lon="8.0761519"><ele>247.4</ele><time>2026-04-19T07:06:10.719Z</time></trkpt><trkpt lat="44.8081491" lon="8.0762726"><ele>248.0</ele><time>2026-04-19T07:06:11.731Z</time></trkpt><trkpt lat="44.8081041" lon="8.0763975"><ele>248.0</ele><time>2026-04-19T07:06:12.731Z</time></trkpt><trkpt lat="44.8080637" lon="8.0765246"><ele>248.0</ele><time>2026-04-19T07:06:13.736Z</time></trkpt><trkpt lat="44.8080137" lon="8.0766547"><ele>248.0</ele><time>2026-04-19T07:06:14.724Z</time></trkpt><trkpt lat="44.8079553" lon="8.0767864"><ele>248.0</ele><time>2026-04-19T07:06:15.723Z</time></trkpt><trkpt lat="44.8078989" lon="8.0769217"><ele>248.0</ele><time>2026-04-19T07:06:16.734Z</time></trkpt><trkpt lat="44.807837" lon="8.0770551"><ele>248.0</ele><time>2026-04-19T07:06:17.726Z</time></trkpt><trkpt lat="44.8077789" lon="8.0771804"><ele>248.0</ele><time>2026-04-19T07:06:18.73Z</time></trkpt><trkpt lat="44.8077194" lon="8.077303"><ele>248.0</ele><time>2026-04-19T07:06:19.726Z</time></trkpt><trkpt lat="44.8076579" lon="8.0774257"><ele>248.0</ele><time>2026-04-19T07:06:20.734Z</time></trkpt><trkpt lat="44.8075978" lon="8.0775483"><ele>248.0</ele><time>2026-04-19T07:06:21.734Z</time></trkpt><trkpt lat="44.8075465" lon="8.0776742"><ele>249.60000000000002</ele><time>2026-04-19T07:06:22.729Z</time></trkpt><trkpt lat="44.8075081" lon="8.0778057"><ele>251.20000000000002</ele><time>2026-04-19T07:06:23.733Z</time></trkpt><trkpt lat="44.8074691" lon="8.0779536"><ele>252.8</ele><time>2026-04-19T07:06:24.755Z</time></trkpt><trkpt lat="44.8074271" lon="8.0780906"><ele>254.4</ele><time>2026-04-19T07:06:25.723Z</time></trkpt><trkpt lat="44.8073919" lon="8.0782157"><ele>256.0</ele><time>2026-04-19T07:06:26.73Z</time></trkpt><trkpt lat="44.8073571" lon="8.078325"><ele>256.16666666666663</ele><time>2026-04-19T07:06:27.719Z</time></trkpt><trkpt lat="44.8073271" lon="8.0784324"><ele>256.3333333333333</ele><time>2026-04-19T07:06:28.73Z</time></trkpt><trkpt lat="44.8073024" lon="8.0785371"><ele>256.5</ele><time>2026-04-19T07:06:29.731Z</time></trkpt><trkpt lat="44.8072835" lon="8.0786332"><ele>256.6666666666667</ele><time>2026-04-19T07:06:30.737Z</time></trkpt><trkpt lat="44.8072823" lon="8.078733"><ele>256.83333333333337</ele><time>2026-04-19T07:06:32.738Z</time></trkpt><trkpt lat="44.8073588" lon="8.0787368"><ele>257.0</ele><time>2026-04-19T07:06:51.732Z</time></trkpt><trkpt lat="44.8074425" lon="8.0787039"><ele>257.0</ele><time>2026-04-19T07:06:53.728Z</time></trkpt><trkpt lat="44.8075083" lon="8.0786858"><ele>257.0</ele><time>2026-04-19T07:06:54.741Z</time></trkpt><trkpt lat="44.8076047" lon="8.0786821"><ele>257.0</ele><time>2026-04-19T07:06:55.748Z</time></trkpt><trkpt lat="44.8077259" lon="8.0786748"><ele>257.0</ele><time>2026-04-19T07:06:56.708Z</time></trkpt><trkpt lat="44.8078467" lon="8.0786629"><ele>257.0</ele><time>2026-04-19T07:06:57.714Z</time></trkpt><trkpt lat="44.8079733" lon="8.0786509"><ele>255.2</ele><time>2026-04-19T07:06:58.718Z</time></trkpt><trkpt lat="44.808093" lon="8.0786403"><ele>253.39999999999998</ele><time>2026-04-19T07:06:59.722Z</time></trkpt><trkpt lat="44.8082057" lon="8.0786297"><ele>251.60000000000002</ele><time>2026-04-19T07:07:00.717Z</time></trkpt><trkpt lat="44.8083157" lon="8.0786228"><ele>249.8</ele><time>2026-04-19T07:07:01.722Z</time></trkpt><trkpt lat="44.808421" lon="8.0786133"><ele>248.0</ele><time>2026-04-19T07:07:02.726Z</time></trkpt><trkpt lat="44.808521" lon="8.0786088"><ele>248.0</ele><time>2026-04-19T07:07:03.722Z</time></trkpt><trkpt lat="44.8086186" lon="8.078632"><ele>248.0</ele><time>2026-04-19T07:07:04.733Z</time></trkpt><trkpt lat="44.8087094" lon="8.0786709"><ele>248.0</ele><time>2026-04-19T07:07:05.731Z</time></trkpt><trkpt lat="44.8087924" lon="8.0787209"><ele>248.0</ele><time>2026-04-19T07:07:06.727Z</time></trkpt><trkpt lat="44.8088767" lon="8.078778"><ele>248.0</ele><time>2026-04-19T07:07:07.72Z</time></trkpt><trkpt lat="44.8089579" lon="8.0788326"><ele>248.00000000000003</ele><time>2026-04-19T07:07:08.728Z</time></trkpt><trkpt lat="44.8090313" lon="8.0789015"><ele>248.0</ele><time>2026-04-19T07:07:09.731Z</time></trkpt><trkpt lat="44.8090865" lon="8.0789771"><ele>248.0</ele><time>2026-04-19T07:07:10.724Z</time></trkpt><trkpt lat="44.8091297" lon="8.0790494"><ele>248.0</ele><time>2026-04-19T07:07:11.725Z</time></trkpt><trkpt lat="44.8091733" lon="8.0791332"><ele>248.00000000000003</ele><time>2026-04-19T07:07:12.719Z</time></trkpt><trkpt lat="44.8092278" lon="8.0792053"><ele>248.0</ele><time>2026-04-19T07:07:13.725Z</time></trkpt><trkpt lat="44.8092962" lon="8.0792672"><ele>247.00000000000003</ele><time>2026-04-19T07:07:14.72Z</time></trkpt><trkpt lat="44.8093718" lon="8.0793254"><ele>246.0</ele><time>2026-04-19T07:07:15.725Z</time></trkpt><trkpt lat="44.8094537" lon="8.0793891"><ele>245.0</ele><time>2026-04-19T07:07:16.727Z</time></trkpt><trkpt lat="44.809538" lon="8.0794507"><ele>244.0</ele><time>2026-04-19T07:07:17.722Z</time></trkpt><trkpt lat="44.8096184" lon="8.0795004"><ele>243.00000000000003</ele><time>2026-04-19T07:07:18.726Z</time></trkpt><trkpt lat="44.8096929" lon="8.0795378"><ele>242.0</ele><time>2026-04-19T07:07:19.727Z</time></trkpt><trkpt lat="44.8097704" lon="8.0795762"><ele>242.0</ele><time>2026-04-19T07:07:20.714Z</time></trkpt><trkpt lat="44.8098543" lon="8.0796115"><ele>242.0</ele><time>2026-04-19T07:07:21.726Z</time></trkpt><trkpt lat="44.8099455" lon="8.0796416"><ele>242.0</ele><time>2026-04-19T07:07:22.718Z</time></trkpt><trkpt lat="44.8100393" lon="8.0796746"><ele>242.0</ele><time>2026-04-19T07:07:23.724Z</time></trkpt><trkpt lat="44.8101283" lon="8.0797146"><ele>242.0</ele><time>2026-04-19T07:07:24.729Z</time></trkpt><trkpt lat="44.8102125" lon="8.0797655"><ele>239.00000000000003</ele><time>2026-04-19T07:07:25.716Z</time></trkpt><trkpt lat="44.8102843" lon="8.0798208"><ele>236.0</ele><time>2026-04-19T07:07:26.739Z</time></trkpt><trkpt lat="44.8103386" lon="8.0798696"><ele>233.0</ele><time>2026-04-19T07:07:27.718Z</time></trkpt><trkpt lat="44.8104032" lon="8.0799256"><ele>230.0</ele><time>2026-04-19T07:07:29.739Z</time></trkpt><trkpt lat="44.8103977" lon="8.0797741"><ele>227.00000000000003</ele><time>2026-04-19T07:07:32.725Z</time></trkpt><trkpt lat="44.8103782" lon="8.0796506"><ele>224.0</ele><time>2026-04-19T07:07:33.724Z</time></trkpt><trkpt lat="44.8103613" lon="8.0795078"><ele>224.0</ele><time>2026-04-19T07:07:34.719Z</time></trkpt><trkpt lat="44.8103495" lon="8.0793552"><ele>224.0</ele><time>2026-04-19T07:07:35.718Z</time></trkpt><trkpt lat="44.8103406" lon="8.0792"><ele>224.0</ele><time>2026-04-19T07:07:36.719Z</time></trkpt><trkpt lat="44.8103485" lon="8.0790352"><ele>224.0</ele><time>2026-04-19T07:07:37.712Z</time></trkpt><trkpt lat="44.8103697" lon="8.0788646"><ele>226.0</ele><time>2026-04-19T07:07:38.714Z</time></trkpt><trkpt lat="44.8104091" lon="8.0787094"><ele>228.0</ele><time>2026-04-19T07:07:39.724Z</time></trkpt><trkpt lat="44.8104714" lon="8.0785627"><ele>230.0</ele><time>2026-04-19T07:07:40.729Z</time></trkpt><trkpt lat="44.8105597" lon="8.0784348"><ele>232.0</ele><time>2026-04-19T07:07:41.723Z</time></trkpt><trkpt lat="44.8106597" lon="8.0783193"><ele>230.75</ele><time>2026-04-19T07:07:42.712Z</time></trkpt><trkpt lat="44.8107606" lon="8.0781997"><ele>229.5</ele><time>2026-04-19T07:07:43.717Z</time></trkpt><trkpt lat="44.8108577" lon="8.0780756"><ele>228.25</ele><time>2026-04-19T07:07:44.722Z</time></trkpt><trkpt lat="44.8109443" lon="8.0779588"><ele>227.0</ele><time>2026-04-19T07:07:45.734Z</time></trkpt><trkpt lat="44.8110129" lon="8.077872"><ele>226.66666666666669</ele><time>2026-04-19T07:07:46.728Z</time></trkpt><trkpt lat="44.8110816" lon="8.0778176"><ele>226.33333333333334</ele><time>2026-04-19T07:07:47.742Z</time></trkpt><trkpt lat="44.8111506" lon="8.0777882"><ele>226.0</ele><time>2026-04-19T07:07:48.732Z</time></trkpt><trkpt lat="44.8112307" lon="8.0777775"><ele>225.66666666666669</ele><time>2026-04-19T07:07:49.736Z</time></trkpt><trkpt lat="44.8113168" lon="8.0777672"><ele>225.33333333333334</ele><time>2026-04-19T07:07:50.738Z</time></trkpt><trkpt lat="44.8114078" lon="8.077753"><ele>225.0</ele><time>2026-04-19T07:07:51.738Z</time></trkpt><trkpt lat="44.8115017" lon="8.0777414"><ele>225.0</ele><time>2026-04-19T07:07:52.735Z</time></trkpt><trkpt lat="44.8116005" lon="8.0777398"><ele>225.0</ele><time>2026-04-19T07:07:53.737Z</time></trkpt><trkpt lat="44.8117028" lon="8.0777485"><ele>225.0</ele><time>2026-04-19T07:07:54.741Z</time></trkpt><trkpt lat="44.811799" lon="8.0777625"><ele>225.0</ele><time>2026-04-19T07:07:55.735Z</time></trkpt><trkpt lat="44.811893" lon="8.0777812"><ele>225.0</ele><time>2026-04-19T07:07:56.731Z</time></trkpt><trkpt lat="44.8119822" lon="8.077811"><ele>224.2</ele><time>2026-04-19T07:07:57.752Z</time></trkpt><trkpt lat="44.8120694" lon="8.077847"><ele>223.4</ele><time>2026-04-19T07:07:58.729Z</time></trkpt><trkpt lat="44.8121603" lon="8.0778779"><ele>222.60000000000002</ele><time>2026-04-19T07:07:59.738Z</time></trkpt><trkpt lat="44.8122476" lon="8.0779099"><ele>221.8</ele><time>2026-04-19T07:08:00.73Z</time></trkpt><trkpt lat="44.8123418" lon="8.0779437"><ele>221.0</ele><time>2026-04-19T07:08:01.731Z</time></trkpt><trkpt lat="44.8124366" lon="8.0779731"><ele>221.0</ele><time>2026-04-19T07:08:02.725Z</time></trkpt><trkpt lat="44.8125349" lon="8.0779939"><ele>221.00000000000003</ele><time>2026-04-19T07:08:03.729Z</time></trkpt><trkpt lat="44.8126341" lon="8.0780063"><ele>221.00000000000003</ele><time>2026-04-19T07:08:04.717Z</time></trkpt><trkpt lat="44.8127387" lon="8.0780125"><ele>221.0</ele><time>2026-04-19T07:08:05.728Z</time></trkpt><trkpt lat="44.8128495" lon="8.0780261"><ele>221.0</ele><time>2026-04-19T07:08:06.716Z</time></trkpt><trkpt lat="44.8129642" lon="8.0780437"><ele>221.0</ele><time>2026-04-19T07:08:07.722Z</time></trkpt><trkpt lat="44.8130899" lon="8.078066"><ele>221.0</ele><time>2026-04-19T07:08:08.719Z</time></trkpt><trkpt lat="44.8132252" lon="8.0780977"><ele>221.0</ele><time>2026-04-19T07:08:09.727Z</time></trkpt><trkpt lat="44.8133663" lon="8.0781202"><ele>221.0</ele><time>2026-04-19T07:08:10.714Z</time></trkpt><trkpt lat="44.8135262" lon="8.0781488"><ele>220.66666666666669</ele><time>2026-04-19T07:08:11.736Z</time></trkpt><trkpt lat="44.8136936" lon="8.0781872"><ele>220.33333333333331</ele><time>2026-04-19T07:08:12.724Z</time></trkpt><trkpt lat="44.8138603" lon="8.0782235"><ele>220.0</ele><time>2026-04-19T07:08:13.725Z</time></trkpt><trkpt lat="44.8140229" lon="8.0782565"><ele>224.0</ele><time>2026-04-19T07:08:14.726Z</time></trkpt><trkpt lat="44.814173" lon="8.0782853"><ele>228.0</ele><time>2026-04-19T07:08:15.722Z</time></trkpt><trkpt lat="44.8143141" lon="8.0783301"><ele>232.0</ele><time>2026-04-19T07:08:16.73Z</time></trkpt><trkpt lat="44.8144595" lon="8.0784193"><ele>234.33333333333331</ele><time>2026-04-19T07:08:17.736Z</time></trkpt><trkpt lat="44.8146082" lon="8.0786159"><ele>236.66666666666669</ele><time>2026-04-19T07:08:18.722Z</time></trkpt><trkpt lat="44.8147161" lon="8.0787436"><ele>239.0</ele><time>2026-04-19T07:08:19.719Z</time></trkpt><trkpt lat="44.814806" lon="8.0788601"><ele>239.0</ele><time>2026-04-19T07:08:20.709Z</time></trkpt><trkpt lat="44.8148923" lon="8.0789598"><ele>238.99999999999997</ele><time>2026-04-19T07:08:21.727Z</time></trkpt><trkpt lat="44.8149723" lon="8.0790435"><ele>238.99999999999997</ele><time>2026-04-19T07:08:22.737Z</time></trkpt><trkpt lat="44.8150421" lon="8.0791042"><ele>239.0</ele><time>2026-04-19T07:08:23.724Z</time></trkpt><trkpt lat="44.8151305" lon="8.079168"><ele>239.0</ele><time>2026-04-19T07:08:24.728Z</time></trkpt><trkpt lat="44.8152234" lon="8.0792292"><ele>237.0</ele><time>2026-04-19T07:08:25.729Z</time></trkpt><trkpt lat="44.8153326" lon="8.0792857"><ele>234.99999999999997</ele><time>2026-04-19T07:08:26.728Z</time></trkpt><trkpt lat="44.815441" lon="8.0793418"><ele>232.99999999999997</ele><time>2026-04-19T07:08:27.722Z</time></trkpt><trkpt lat="44.8155506" lon="8.0793977"><ele>231.0</ele><time>2026-04-19T07:08:28.742Z</time></trkpt><trkpt lat="44.8156424" lon="8.0794418"><ele>229.0</ele><time>2026-04-19T07:08:29.73Z</time></trkpt><trkpt lat="44.8157444" lon="8.0795308"><ele>229.0</ele><time>2026-04-19T07:08:30.719Z</time></trkpt><trkpt lat="44.8158388" lon="8.079618"><ele>229.0</ele><time>2026-04-19T07:08:31.721Z</time></trkpt><trkpt lat="44.8159233" lon="8.0797404"><ele>229.0</ele><time>2026-04-19T07:08:32.732Z</time></trkpt><trkpt lat="44.8160054" lon="8.0799046"><ele>229.0</ele><time>2026-04-19T07:08:33.733Z</time></trkpt><trkpt lat="44.8160991" lon="8.0800675"><ele>227.5</ele><time>2026-04-19T07:08:34.728Z</time></trkpt><trkpt lat="44.8161943" lon="8.0802233"><ele>226.0</ele><time>2026-04-19T07:08:35.723Z</time></trkpt><trkpt lat="44.8162967" lon="8.0803413"><ele>224.5</ele><time>2026-04-19T07:08:36.73Z</time></trkpt><trkpt lat="44.8163948" lon="8.08043"><ele>223.0</ele><time>2026-04-19T07:08:37.728Z</time></trkpt><trkpt lat="44.8165075" lon="8.0805118"><ele>223.0</ele><time>2026-04-19T07:08:38.724Z</time></trkpt><trkpt lat="44.8166299" lon="8.0805366"><ele>223.0</ele><time>2026-04-19T07:08:39.728Z</time></trkpt><trkpt lat="44.8167401" lon="8.0805455"><ele>223.0</ele><time>2026-04-19T07:08:40.732Z</time></trkpt><trkpt lat="44.8168399" lon="8.0805551"><ele>223.0</ele><time>2026-04-19T07:08:41.726Z</time></trkpt><trkpt lat="44.8169332" lon="8.0805614"><ele>223.0</ele><time>2026-04-19T07:08:42.731Z</time></trkpt><trkpt lat="44.817026" lon="8.0805716"><ele>221.49999999999997</ele><time>2026-04-19T07:08:43.732Z</time></trkpt><trkpt lat="44.8171202" lon="8.0805846"><ele>220.0</ele><time>2026-04-19T07:08:44.735Z</time></trkpt><trkpt lat="44.817202" lon="8.0805987"><ele>218.5</ele><time>2026-04-19T07:08:45.733Z</time></trkpt><trkpt lat="44.8172892" lon="8.0806098"><ele>217.0</ele><time>2026-04-19T07:08:46.73Z</time></trkpt><trkpt lat="44.8173575" lon="8.0806046"><ele>215.49999999999997</ele><time>2026-04-19T07:08:47.736Z</time></trkpt><trkpt lat="44.8174243" lon="8.0806175"><ele>214.0</ele><time>2026-04-19T07:08:48.725Z</time></trkpt><trkpt lat="44.8174924" lon="8.0806472"><ele>214.0</ele><time>2026-04-19T07:08:49.728Z</time></trkpt><trkpt lat="44.8175755" lon="8.0806917"><ele>213.99999999999997</ele><time>2026-04-19T07:08:50.729Z</time></trkpt><trkpt lat="44.8176692" lon="8.0807143"><ele>213.99999999999997</ele><time>2026-04-19T07:08:51.742Z</time></trkpt><trkpt lat="44.8177664" lon="8.0807131"><ele>214.0</ele><time>2026-04-19T07:08:52.732Z</time></trkpt><trkpt lat="44.8178778" lon="8.0806952"><ele>214.0</ele><time>2026-04-19T07:08:53.731Z</time></trkpt><trkpt lat="44.8180068" lon="8.0806626"><ele>215.5</ele><time>2026-04-19T07:08:54.73Z</time></trkpt><trkpt lat="44.8181348" lon="8.080622"><ele>217.0</ele><time>2026-04-19T07:08:55.724Z</time></trkpt><trkpt lat="44.8182578" lon="8.08059"><ele>218.5</ele><time>2026-04-19T07:08:56.73Z</time></trkpt><trkpt lat="44.8183774" lon="8.0805537"><ele>220.0</ele><time>2026-04-19T07:08:57.738Z</time></trkpt><trkpt lat="44.8184875" lon="8.0805218"><ele>222.8</ele><time>2026-04-19T07:08:58.722Z</time></trkpt><trkpt lat="44.818583" lon="8.0804676"><ele>225.6</ele><time>2026-04-19T07:08:59.736Z</time></trkpt><trkpt lat="44.8186652" lon="8.0803906"><ele>228.39999999999998</ele><time>2026-04-19T07:09:00.731Z</time></trkpt><trkpt lat="44.8187304" lon="8.0802938"><ele>231.2</ele><time>2026-04-19T07:09:01.724Z</time></trkpt><trkpt lat="44.8187993" lon="8.0801896"><ele>234.0</ele><time>2026-04-19T07:09:02.727Z</time></trkpt><trkpt lat="44.8188708" lon="8.0800907"><ele>234.0</ele><time>2026-04-19T07:09:03.729Z</time></trkpt><trkpt lat="44.8189426" lon="8.0799892"><ele>233.99999999999997</ele><time>2026-04-19T07:09:04.722Z</time></trkpt><trkpt lat="44.819011" lon="8.0798964"><ele>233.99999999999997</ele><time>2026-04-19T07:09:05.735Z</time></trkpt><trkpt lat="44.8190831" lon="8.0798181"><ele>234.0</ele><time>2026-04-19T07:09:06.735Z</time></trkpt><trkpt lat="44.8191583" lon="8.0797543"><ele>234.0</ele><time>2026-04-19T07:09:07.718Z</time></trkpt><trkpt lat="44.8192331" lon="8.0796887"><ele>233.5</ele><time>2026-04-19T07:09:08.724Z</time></trkpt><trkpt lat="44.8192996" lon="8.0796417"><ele>233.0</ele><time>2026-04-19T07:09:09.731Z</time></trkpt><trkpt lat="44.819407" lon="8.0796052"><ele>232.5</ele><time>2026-04-19T07:09:11.732Z</time></trkpt><trkpt lat="44.8195167" lon="8.0796321"><ele>232.0</ele><time>2026-04-19T07:09:13.744Z</time></trkpt><trkpt lat="44.8195825" lon="8.0796473"><ele>231.5</ele><time>2026-04-19T07:09:14.736Z</time></trkpt><trkpt lat="44.8196524" lon="8.0796439"><ele>231.0</ele><time>2026-04-19T07:09:15.736Z</time></trkpt><trkpt lat="44.8197257" lon="8.0796225"><ele>231.0</ele><time>2026-04-19T07:09:16.748Z</time></trkpt><trkpt lat="44.8197951" lon="8.0795663"><ele>231.00000000000003</ele><time>2026-04-19T07:09:17.736Z</time></trkpt><trkpt lat="44.8198805" lon="8.0795051"><ele>231.00000000000003</ele><time>2026-04-19T07:09:18.742Z</time></trkpt><trkpt lat="44.8199638" lon="8.079435"><ele>231.0</ele><time>2026-04-19T07:09:19.741Z</time></trkpt><trkpt lat="44.8200467" lon="8.0793593"><ele>231.0</ele><time>2026-04-19T07:09:20.74Z</time></trkpt><trkpt lat="44.8201307" lon="8.0792988"><ele>229.8</ele><time>2026-04-19T07:09:21.732Z</time></trkpt><trkpt lat="44.820223" lon="8.079244"><ele>228.60000000000002</ele><time>2026-04-19T07:09:22.737Z</time></trkpt><trkpt lat="44.8203138" lon="8.0791974"><ele>227.4</ele><time>2026-04-19T07:09:23.739Z</time></trkpt><trkpt lat="44.8204029" lon="8.0791726"><ele>226.2</ele><time>2026-04-19T07:09:24.741Z</time></trkpt><trkpt lat="44.8204914" lon="8.0791658"><ele>225.0</ele><time>2026-04-19T07:09:25.738Z</time></trkpt><trkpt lat="44.8205854" lon="8.0791772"><ele>225.0</ele><time>2026-04-19T07:09:26.739Z</time></trkpt><trkpt lat="44.820674" lon="8.0792017"><ele>225.0</ele><time>2026-04-19T07:09:27.733Z</time></trkpt><trkpt lat="44.8207683" lon="8.0792291"><ele>225.0</ele><time>2026-04-19T07:09:28.732Z</time></trkpt><trkpt lat="44.8208701" lon="8.0792567"><ele>225.0</ele><time>2026-04-19T07:09:29.731Z</time></trkpt><trkpt lat="44.82098" lon="8.0792876"><ele>225.0</ele><time>2026-04-19T07:09:30.745Z</time></trkpt><trkpt lat="44.8210931" lon="8.0793188"><ele>224.25</ele><time>2026-04-19T07:09:31.721Z</time></trkpt><trkpt lat="44.8212136" lon="8.0793459"><ele>223.5</ele><time>2026-04-19T07:09:32.722Z</time></trkpt><trkpt lat="44.8213332" lon="8.0793611"><ele>222.75</ele><time>2026-04-19T07:09:33.734Z</time></trkpt><trkpt lat="44.821463" lon="8.0793618"><ele>222.0</ele><time>2026-04-19T07:09:34.739Z</time></trkpt><trkpt lat="44.8215883" lon="8.0793608"><ele>222.0</ele><time>2026-04-19T07:09:35.74Z</time></trkpt><trkpt lat="44.821711" lon="8.0793612"><ele>222.0</ele><time>2026-04-19T07:09:36.736Z</time></trkpt><trkpt lat="44.8218203" lon="8.0793581"><ele>222.0</ele><time>2026-04-19T07:09:37.725Z</time></trkpt><trkpt lat="44.8219222" lon="8.0793416"><ele>222.0</ele><time>2026-04-19T07:09:38.727Z</time></trkpt><trkpt lat="44.8220143" lon="8.0793244"><ele>222.0</ele><time>2026-04-19T07:09:39.731Z</time></trkpt><trkpt lat="44.8221032" lon="8.0792891"><ele>222.2</ele><time>2026-04-19T07:09:40.728Z</time></trkpt><trkpt lat="44.8221974" lon="8.0792275"><ele>222.39999999999998</ele><time>2026-04-19T07:09:41.73Z</time></trkpt><trkpt lat="44.8222923" lon="8.0791619"><ele>222.60000000000002</ele><time>2026-04-19T07:09:42.735Z</time></trkpt><trkpt lat="44.8223952" lon="8.0790939"><ele>222.8</ele><time>2026-04-19T07:09:43.729Z</time></trkpt><trkpt lat="44.8224951" lon="8.0790248"><ele>223.0</ele><time>2026-04-19T07:09:44.733Z</time></trkpt><trkpt lat="44.8225887" lon="8.0789683"><ele>223.0</ele><time>2026-04-19T07:09:45.733Z</time></trkpt><trkpt lat="44.8226893" lon="8.078914"><ele>223.0</ele><time>2026-04-19T07:09:46.738Z</time></trkpt><trkpt lat="44.8227837" lon="8.0788667"><ele>223.0</ele><time>2026-04-19T07:09:47.739Z</time></trkpt><trkpt lat="44.8228687" lon="8.0788322"><ele>223.0</ele><time>2026-04-19T07:09:48.74Z</time></trkpt><trkpt lat="44.8229632" lon="8.0788053"><ele>223.0</ele><time>2026-04-19T07:09:49.735Z</time></trkpt><trkpt lat="44.8230587" lon="8.0787652"><ele>223.0</ele><time>2026-04-19T07:09:50.74Z</time></trkpt><trkpt lat="44.8231611" lon="8.0787364"><ele>223.0</ele><time>2026-04-19T07:09:51.742Z</time></trkpt><trkpt lat="44.8232708" lon="8.0787085"><ele>223.0</ele><time>2026-04-19T07:09:52.737Z</time></trkpt><trkpt lat="44.8233803" lon="8.0786869"><ele>223.0</ele><time>2026-04-19T07:09:53.738Z</time></trkpt><trkpt lat="44.8234746" lon="8.0786695"><ele>223.0</ele><time>2026-04-19T07:09:54.742Z</time></trkpt><trkpt lat="44.8235626" lon="8.0786512"><ele>222.16666666666666</ele><time>2026-04-19T07:09:55.735Z</time></trkpt><trkpt lat="44.8236347" lon="8.0786345"><ele>221.33333333333331</ele><time>2026-04-19T07:09:56.737Z</time></trkpt><trkpt lat="44.8237071" lon="8.0786039"><ele>220.5</ele><time>2026-04-19T07:09:57.729Z</time></trkpt><trkpt lat="44.8237627" lon="8.0785608"><ele>219.66666666666669</ele><time>2026-04-19T07:09:58.738Z</time></trkpt><trkpt lat="44.8238543" lon="8.0784667"><ele>218.83333333333334</ele><time>2026-04-19T07:10:00.736Z</time></trkpt><trkpt lat="44.8239137" lon="8.0783438"><ele>218.0</ele><time>2026-04-19T07:10:02.727Z</time></trkpt><trkpt lat="44.8239464" lon="8.0781726"><ele>217.00000000000003</ele><time>2026-04-19T07:10:04.737Z</time></trkpt><trkpt lat="44.8239477" lon="8.0780669"><ele>216.0</ele><time>2026-04-19T07:10:05.735Z</time></trkpt><trkpt lat="44.8239441" lon="8.0779542"><ele>215.0</ele><time>2026-04-19T07:10:06.732Z</time></trkpt><trkpt lat="44.8239433" lon="8.0778557"><ele>214.0</ele><time>2026-04-19T07:10:07.732Z</time></trkpt><trkpt lat="44.8239434" lon="8.0777647"><ele>213.00000000000003</ele><time>2026-04-19T07:10:08.728Z</time></trkpt><trkpt lat="44.8239574" lon="8.0776156"><ele>212.0</ele><time>2026-04-19T07:10:10.729Z</time></trkpt><trkpt lat="44.8240139" lon="8.0775709"><ele>212.0</ele><time>2026-04-19T07:10:12.731Z</time></trkpt><trkpt lat="44.8241254" lon="8.077668"><ele>212.0</ele><time>2026-04-19T07:10:14.718Z</time></trkpt><trkpt lat="44.8242078" lon="8.0777256"><ele>212.0</ele><time>2026-04-19T07:10:15.72Z</time></trkpt><trkpt lat="44.824298" lon="8.0777779"><ele>212.0</ele><time>2026-04-19T07:10:16.723Z</time></trkpt><trkpt lat="44.8243868" lon="8.0778162"><ele>212.0</ele><time>2026-04-19T07:10:17.725Z</time></trkpt><trkpt lat="44.8244685" lon="8.0778484"><ele>209.39999999999998</ele><time>2026-04-19T07:10:18.72Z</time></trkpt><trkpt lat="44.8245499" lon="8.0778754"><ele>206.79999999999998</ele><time>2026-04-19T07:10:19.722Z</time></trkpt><trkpt lat="44.8246218" lon="8.0778934"><ele>204.2</ele><time>2026-04-19T07:10:20.723Z</time></trkpt><trkpt lat="44.8247422" lon="8.0779111"><ele>201.6</ele><time>2026-04-19T07:10:22.724Z</time></trkpt><trkpt lat="44.8248073" lon="8.0779042"><ele>199.0</ele><time>2026-04-19T07:10:23.725Z</time></trkpt><trkpt lat="44.8249234" lon="8.0778501"><ele>198.99999999999997</ele><time>2026-04-19T07:10:25.733Z</time></trkpt><trkpt lat="44.8249796" lon="8.0777932"><ele>199.0</ele><time>2026-04-19T07:10:26.731Z</time></trkpt><trkpt lat="44.8250377" lon="8.0777229"><ele>199.0</ele><time>2026-04-19T07:10:27.731Z</time></trkpt><trkpt lat="44.8251038" lon="8.0776438"><ele>199.0</ele><time>2026-04-19T07:10:28.725Z</time></trkpt><trkpt lat="44.8251766" lon="8.0775512"><ele>198.99999999999997</ele><time>2026-04-19T07:10:29.735Z</time></trkpt><trkpt lat="44.8252513" lon="8.0774605"><ele>199.0</ele><time>2026-04-19T07:10:30.731Z</time></trkpt><trkpt lat="44.8253285" lon="8.0773869"><ele>196.42857142857142</ele><time>2026-04-19T07:10:31.728Z</time></trkpt><trkpt lat="44.8254011" lon="8.07732"><ele>193.85714285714286</ele><time>2026-04-19T07:10:32.743Z</time></trkpt><trkpt lat="44.8254681" lon="8.0772656"><ele>191.28571428571428</ele><time>2026-04-19T07:10:33.724Z</time></trkpt><trkpt lat="44.8255317" lon="8.0772124"><ele>188.71428571428572</ele><time>2026-04-19T07:10:34.728Z</time></trkpt><trkpt lat="44.8255979" lon="8.0771736"><ele>186.14285714285714</ele><time>2026-04-19T07:10:35.735Z</time></trkpt><trkpt lat="44.8256661" lon="8.0771481"><ele>183.57142857142856</ele><time>2026-04-19T07:10:36.735Z</time></trkpt><trkpt lat="44.82573" lon="8.0771181"><ele>181.0</ele><time>2026-04-19T07:10:37.73Z</time></trkpt><trkpt lat="44.8258049" lon="8.0770976"><ele>181.0</ele><time>2026-04-19T07:10:38.731Z</time></trkpt><trkpt lat="44.8258897" lon="8.0770819"><ele>181.0</ele><time>2026-04-19T07:10:39.737Z</time></trkpt><trkpt lat="44.8259791" lon="8.0770587"><ele>181.0</ele><time>2026-04-19T07:10:40.731Z</time></trkpt><trkpt lat="44.8260683" lon="8.0770484"><ele>181.0</ele><time>2026-04-19T07:10:41.732Z</time></trkpt><trkpt lat="44.8261715" lon="8.0770325"><ele>181.0</ele><time>2026-04-19T07:10:42.732Z</time></trkpt><trkpt lat="44.8262679" lon="8.0770149"><ele>178.60000000000002</ele><time>2026-04-19T07:10:43.732Z</time></trkpt><trkpt lat="44.8263706" lon="8.0769998"><ele>176.2</ele><time>2026-04-19T07:10:44.731Z</time></trkpt><trkpt lat="44.826473" lon="8.0769841"><ele>173.8</ele><time>2026-04-19T07:10:45.734Z</time></trkpt><trkpt lat="44.8265735" lon="8.0769632"><ele>171.39999999999998</ele><time>2026-04-19T07:10:46.729Z</time></trkpt><trkpt lat="44.8266716" lon="8.0769396"><ele>169.0</ele><time>2026-04-19T07:10:47.731Z</time></trkpt><trkpt lat="44.8267758" lon="8.0769202"><ele>168.2</ele><time>2026-04-19T07:10:48.727Z</time></trkpt><trkpt lat="44.8268744" lon="8.076911"><ele>167.39999999999998</ele><time>2026-04-19T07:10:49.72Z</time></trkpt><trkpt lat="44.8269721" lon="8.0769222"><ele>166.6</ele><time>2026-04-19T07:10:50.719Z</time></trkpt><trkpt lat="44.8270709" lon="8.0769228"><ele>165.8</ele><time>2026-04-19T07:10:51.722Z</time></trkpt><trkpt lat="44.8271638" lon="8.0769283"><ele>165.0</ele><time>2026-04-19T07:10:52.728Z</time></trkpt><trkpt lat="44.8272565" lon="8.0769179"><ele>165.0</ele><time>2026-04-19T07:10:53.721Z</time></trkpt><trkpt lat="44.8273521" lon="8.076888"><ele>165.0</ele><time>2026-04-19T07:10:54.727Z</time></trkpt><trkpt lat="44.8274438" lon="8.0768632"><ele>165.0</ele><time>2026-04-19T07:10:55.722Z</time></trkpt><trkpt lat="44.8275312" lon="8.0768476"><ele>165.0</ele><time>2026-04-19T07:10:56.725Z</time></trkpt><trkpt lat="44.8276194" lon="8.0768548"><ele>165.0</ele><time>2026-04-19T07:10:57.734Z</time></trkpt><trkpt lat="44.8276872" lon="8.0768586"><ele>165.0</ele><time>2026-04-19T07:10:58.721Z</time></trkpt><trkpt lat="44.8277849" lon="8.0768928"><ele>164.4</ele><time>2026-04-19T07:11:00.734Z</time></trkpt><trkpt lat="44.8278536" lon="8.077088"><ele>163.8</ele><time>2026-04-19T07:11:02.723Z</time></trkpt><trkpt lat="44.8278901" lon="8.0772229"><ele>163.2</ele><time>2026-04-19T07:11:03.737Z</time></trkpt><trkpt lat="44.8279284" lon="8.0773586"><ele>162.6</ele><time>2026-04-19T07:11:04.726Z</time></trkpt><trkpt lat="44.8279539" lon="8.0774549"><ele>162.0</ele><time>2026-04-19T07:11:05.71Z</time></trkpt><trkpt lat="44.8280379" lon="8.0775009"><ele>160.75</ele><time>2026-04-19T07:11:08.73Z</time></trkpt><trkpt lat="44.8281565" lon="8.0774078"><ele>159.5</ele><time>2026-04-19T07:11:10.723Z</time></trkpt><trkpt lat="44.8282625" lon="8.0772676"><ele>158.25</ele><time>2026-04-19T07:11:11.731Z</time></trkpt><trkpt lat="44.8283879" lon="8.0771209"><ele>157.0</ele><time>2026-04-19T07:11:12.72Z</time></trkpt><trkpt lat="44.8285172" lon="8.0769854"><ele>156.0</ele><time>2026-04-19T07:11:13.727Z</time></trkpt><trkpt lat="44.828653" lon="8.0768801"><ele>155.0</ele><time>2026-04-19T07:11:14.726Z</time></trkpt><trkpt lat="44.8287995" lon="8.0767673"><ele>154.0</ele><time>2026-04-19T07:11:15.721Z</time></trkpt><trkpt lat="44.8289422" lon="8.0766671"><ele>153.75</ele><time>2026-04-19T07:11:16.724Z</time></trkpt><trkpt lat="44.829076" lon="8.0765791"><ele>153.5</ele><time>2026-04-19T07:11:17.721Z</time></trkpt><trkpt lat="44.8292068" lon="8.076498"><ele>153.25</ele><time>2026-04-19T07:11:18.729Z</time></trkpt><trkpt lat="44.8293382" lon="8.0764148"><ele>153.0</ele><time>2026-04-19T07:11:19.726Z</time></trkpt><trkpt lat="44.8294666" lon="8.0763399"><ele>152.75</ele><time>2026-04-19T07:11:20.727Z</time></trkpt><trkpt lat="44.82958" lon="8.0762782"><ele>152.5</ele><time>2026-04-19T07:11:21.736Z</time></trkpt><trkpt lat="44.8296964" lon="8.0762103"><ele>152.25</ele><time>2026-04-19T07:11:22.739Z</time></trkpt><trkpt lat="44.8298021" lon="8.0761432"><ele>152.0</ele><time>2026-04-19T07:11:23.732Z</time></trkpt><trkpt lat="44.8299133" lon="8.0760809"><ele>152.0</ele><time>2026-04-19T07:11:24.741Z</time></trkpt><trkpt lat="44.8300301" lon="8.076018"><ele>152.0</ele><time>2026-04-19T07:11:25.733Z</time></trkpt><trkpt lat="44.8301493" lon="8.0759485"><ele>152.0</ele><time>2026-04-19T07:11:26.734Z</time></trkpt><trkpt lat="44.8302582" lon="8.075891"><ele>152.0</ele><time>2026-04-19T07:11:27.736Z</time></trkpt><trkpt lat="44.8303607" lon="8.0758343"><ele>152.0</ele><time>2026-04-19T07:11:28.735Z</time></trkpt><trkpt lat="44.8304608" lon="8.0757722"><ele>152.0</ele><time>2026-04-19T07:11:29.741Z</time></trkpt><trkpt lat="44.8305625" lon="8.0757174"><ele>152.0</ele><time>2026-04-19T07:11:30.733Z</time></trkpt><trkpt lat="44.8306606" lon="8.0756566"><ele>152.0</ele><time>2026-04-19T07:11:31.732Z</time></trkpt><trkpt lat="44.8307699" lon="8.0755938"><ele>152.0</ele><time>2026-04-19T07:11:32.73Z</time></trkpt><trkpt lat="44.8308834" lon="8.0755303"><ele>152.25</ele><time>2026-04-19T07:11:33.733Z</time></trkpt><trkpt lat="44.8310055" lon="8.0754498"><ele>152.5</ele><time>2026-04-19T07:11:34.742Z</time></trkpt><trkpt lat="44.8311233" lon="8.075361"><ele>152.75</ele><time>2026-04-19T07:11:35.73Z</time></trkpt><trkpt lat="44.8312401" lon="8.0752898"><ele>153.0</ele><time>2026-04-19T07:11:36.737Z</time></trkpt><trkpt lat="44.8313474" lon="8.0752243"><ele>153.0</ele><time>2026-04-19T07:11:37.734Z</time></trkpt><trkpt lat="44.8314464" lon="8.0751578"><ele>153.0</ele><time>2026-04-19T07:11:38.743Z</time></trkpt><trkpt lat="44.8315386" lon="8.0750975"><ele>153.0</ele><time>2026-04-19T07:11:39.73Z</time></trkpt><trkpt lat="44.8316085" lon="8.0750455"><ele>153.0</ele><time>2026-04-19T07:11:40.735Z</time></trkpt><trkpt lat="44.8316781" lon="8.0750005"><ele>153.0</ele><time>2026-04-19T07:11:41.737Z</time></trkpt><trkpt lat="44.8317454" lon="8.0749546"><ele>153.0</ele><time>2026-04-19T07:11:43.729Z</time></trkpt><trkpt lat="44.831814" lon="8.0749305"><ele>153.0</ele><time>2026-04-19T07:11:59.737Z</time></trkpt><trkpt lat="44.8317819" lon="8.075063"><ele>153.0</ele><time>2026-04-19T07:12:02.728Z</time></trkpt><trkpt lat="44.8317044" lon="8.0751946"><ele>153.0</ele><time>2026-04-19T07:12:04.724Z</time></trkpt><trkpt lat="44.8316623" lon="8.0752731"><ele>153.0</ele><time>2026-04-19T07:12:05.738Z</time></trkpt><trkpt lat="44.8316249" lon="8.0754"><ele>153.0</ele><time>2026-04-19T07:12:07.725Z</time></trkpt><trkpt lat="44.8316403" lon="8.0754878"><ele>153.0</ele><time>2026-04-19T07:12:10.726Z</time></trkpt><trkpt lat="44.8316896" lon="8.075605"><ele>153.0</ele><time>2026-04-19T07:12:13.733Z</time></trkpt><trkpt lat="44.8317541" lon="8.0756698"><ele>153.0</ele><time>2026-04-19T07:12:15.724Z</time></trkpt><trkpt lat="44.8318674" lon="8.0757448"><ele>153.0</ele><time>2026-04-19T07:12:17.731Z</time></trkpt><trkpt lat="44.8319419" lon="8.0757963"><ele>153.0</ele><time>2026-04-19T07:12:18.731Z</time></trkpt><trkpt lat="44.8320114" lon="8.0758581"><ele>153.4</ele><time>2026-04-19T07:12:19.727Z</time></trkpt><trkpt lat="44.8320822" lon="8.0759278"><ele>153.8</ele><time>2026-04-19T07:12:20.735Z</time></trkpt><trkpt lat="44.8321536" lon="8.0759932"><ele>154.2</ele><time>2026-04-19T07:12:21.735Z</time></trkpt><trkpt lat="44.8322279" lon="8.0760615"><ele>154.6</ele><time>2026-04-19T07:12:22.736Z</time></trkpt><trkpt lat="44.8323077" lon="8.0761376"><ele>155.0</ele><time>2026-04-19T07:12:23.732Z</time></trkpt><trkpt lat="44.8323886" lon="8.0762082"><ele>155.0</ele><time>2026-04-19T07:12:24.735Z</time></trkpt><trkpt lat="44.8324662" lon="8.0762901"><ele>155.0</ele><time>2026-04-19T07:12:25.735Z</time></trkpt><trkpt lat="44.8325499" lon="8.0763837"><ele>155.0</ele><time>2026-04-19T07:12:26.735Z</time></trkpt><trkpt lat="44.8326305" lon="8.0764659"><ele>155.0</ele><time>2026-04-19T07:12:27.734Z</time></trkpt><trkpt lat="44.8327123" lon="8.0765565"><ele>155.0</ele><time>2026-04-19T07:12:28.737Z</time></trkpt><trkpt lat="44.8327892" lon="8.0766243"><ele>154.5</ele><time>2026-04-19T07:12:29.732Z</time></trkpt><trkpt lat="44.8328558" lon="8.0766839"><ele>154.0</ele><time>2026-04-19T07:12:30.734Z</time></trkpt><trkpt lat="44.8329421" lon="8.0767358"><ele>153.5</ele><time>2026-04-19T07:12:31.733Z</time></trkpt><trkpt lat="44.8330244" lon="8.0767841"><ele>153.0</ele><time>2026-04-19T07:12:32.733Z</time></trkpt><trkpt lat="44.8331063" lon="8.0768399"><ele>152.5</ele><time>2026-04-19T07:12:33.734Z</time></trkpt><trkpt lat="44.8331932" lon="8.076894"><ele>152.0</ele><time>2026-04-19T07:12:34.729Z</time></trkpt><trkpt lat="44.8332742" lon="8.0769419"><ele>152.0</ele><time>2026-04-19T07:12:35.731Z</time></trkpt><trkpt lat="44.8333484" lon="8.0769868"><ele>152.0</ele><time>2026-04-19T07:12:36.743Z</time></trkpt><trkpt lat="44.8334182" lon="8.0770227"><ele>152.0</ele><time>2026-04-19T07:12:37.719Z</time></trkpt><trkpt lat="44.8334808" lon="8.0770521"><ele>152.0</ele><time>2026-04-19T07:12:38.721Z</time></trkpt><trkpt lat="44.8335413" lon="8.0770783"><ele>152.0</ele><time>2026-04-19T07:12:39.727Z</time></trkpt><trkpt lat="44.833643" lon="8.0770942"><ele>152.0</ele><time>2026-04-19T07:12:41.729Z</time></trkpt><trkpt lat="44.8337078" lon="8.0770901"><ele>151.7142857142857</ele><time>2026-04-19T07:12:43.722Z</time></trkpt><trkpt lat="44.8337717" lon="8.0770293"><ele>151.42857142857144</ele><time>2026-04-19T07:14:41.732Z</time></trkpt><trkpt lat="44.8338425" lon="8.0770449"><ele>151.14285714285714</ele><time>2026-04-19T07:15:00.741Z</time></trkpt><trkpt lat="44.8339071" lon="8.0770336"><ele>150.85714285714283</ele><time>2026-04-19T07:15:18.741Z</time></trkpt><trkpt lat="44.8339712" lon="8.0770252"><ele>150.57142857142856</ele><time>2026-04-19T07:15:24.741Z</time></trkpt><trkpt lat="44.8340351" lon="8.077015"><ele>150.28571428571428</ele><time>2026-04-19T07:15:33.738Z</time></trkpt><trkpt lat="44.8341" lon="8.0770473"><ele>150.0</ele><time>2026-04-19T07:15:36.741Z</time></trkpt><trkpt lat="44.8341699" lon="8.0770936"><ele>150.0</ele><time>2026-04-19T07:15:38.741Z</time></trkpt><trkpt lat="44.8342407" lon="8.0770508"><ele>150.0</ele><time>2026-04-19T07:15:40.737Z</time></trkpt><trkpt lat="44.834299" lon="8.0769812"><ele>150.0</ele><time>2026-04-19T07:15:41.762Z</time></trkpt><trkpt lat="44.8343827" lon="8.0769032"><ele>150.0</ele><time>2026-04-19T07:15:42.746Z</time></trkpt><trkpt lat="44.8344809" lon="8.0768263"><ele>150.0</ele><time>2026-04-19T07:15:43.745Z</time></trkpt><trkpt lat="44.8345694" lon="8.0767428"><ele>150.4</ele><time>2026-04-19T07:15:44.746Z</time></trkpt><trkpt lat="44.8346656" lon="8.0766624"><ele>150.8</ele><time>2026-04-19T07:15:45.74Z</time></trkpt><trkpt lat="44.8347447" lon="8.0766026"><ele>151.2</ele><time>2026-04-19T07:15:46.738Z</time></trkpt><trkpt lat="44.8348348" lon="8.0765698"><ele>151.6</ele><time>2026-04-19T07:15:47.737Z</time></trkpt><trkpt lat="44.8349268" lon="8.0765475"><ele>152.0</ele><time>2026-04-19T07:15:48.738Z</time></trkpt><trkpt lat="44.8350189" lon="8.076538"><ele>152.0</ele><time>2026-04-19T07:15:49.742Z</time></trkpt><trkpt lat="44.8351024" lon="8.0765346"><ele>152.0</ele><time>2026-04-19T07:15:50.747Z</time></trkpt><trkpt lat="44.8351807" lon="8.0765309"><ele>152.0</ele><time>2026-04-19T07:15:51.734Z</time></trkpt><trkpt lat="44.8352613" lon="8.0765238"><ele>152.0</ele><time>2026-04-19T07:15:52.746Z</time></trkpt><trkpt lat="44.8353441" lon="8.0765192"><ele>152.0</ele><time>2026-04-19T07:15:53.746Z</time></trkpt><trkpt lat="44.8354224" lon="8.0765235"><ele>152.0</ele><time>2026-04-19T07:15:54.749Z</time></trkpt><trkpt lat="44.835538" lon="8.0765279"><ele>151.79999999999998</ele><time>2026-04-19T07:15:56.744Z</time></trkpt><trkpt lat="44.8356249" lon="8.0765511"><ele>151.6</ele><time>2026-04-19T07:15:58.73Z</time></trkpt><trkpt lat="44.8357186" lon="8.0765435"><ele>151.39999999999998</ele><time>2026-04-19T07:16:00.736Z</time></trkpt><trkpt lat="44.8358365" lon="8.0764721"><ele>151.2</ele><time>2026-04-19T07:16:02.746Z</time></trkpt><trkpt lat="44.8359298" lon="8.0764373"><ele>151.0</ele><time>2026-04-19T07:16:03.747Z</time></trkpt><trkpt lat="44.8360166" lon="8.0764187"><ele>150.83333333333334</ele><time>2026-04-19T07:16:04.732Z</time></trkpt><trkpt lat="44.8361043" lon="8.0764328"><ele>150.66666666666669</ele><time>2026-04-19T07:16:05.739Z</time></trkpt><trkpt lat="44.836184" lon="8.0764567"><ele>150.5</ele><time>2026-04-19T07:16:06.729Z</time></trkpt><trkpt lat="44.8362588" lon="8.0764924"><ele>150.33333333333334</ele><time>2026-04-19T07:16:07.728Z</time></trkpt><trkpt lat="44.8363371" lon="8.0765282"><ele>150.16666666666666</ele><time>2026-04-19T07:16:08.73Z</time></trkpt><trkpt lat="44.8364268" lon="8.0765616"><ele>150.0</ele><time>2026-04-19T07:16:09.728Z</time></trkpt><trkpt lat="44.836514" lon="8.0765877"><ele>149.8</ele><time>2026-04-19T07:16:10.724Z</time></trkpt><trkpt lat="44.8366105" lon="8.0766284"><ele>149.6</ele><time>2026-04-19T07:16:11.734Z</time></trkpt><trkpt lat="44.8367035" lon="8.0766729"><ele>149.4</ele><time>2026-04-19T07:16:12.745Z</time></trkpt><trkpt lat="44.8367926" lon="8.07672"><ele>149.2</ele><time>2026-04-19T07:16:13.729Z</time></trkpt><trkpt lat="44.8368844" lon="8.0767742"><ele>149.0</ele><time>2026-04-19T07:16:14.733Z</time></trkpt><trkpt lat="44.8369759" lon="8.07683"><ele>148.6</ele><time>2026-04-19T07:16:15.736Z</time></trkpt><trkpt lat="44.8370802" lon="8.0768819"><ele>148.2</ele><time>2026-04-19T07:16:16.737Z</time></trkpt><trkpt lat="44.8371729" lon="8.0769251"><ele>147.79999999999998</ele><time>2026-04-19T07:16:17.746Z</time></trkpt><trkpt lat="44.8372767" lon="8.0769554"><ele>147.4</ele><time>2026-04-19T07:16:18.733Z</time></trkpt><trkpt lat="44.8373927" lon="8.0769681"><ele>147.0</ele><time>2026-04-19T07:16:19.736Z</time></trkpt><trkpt lat="44.8375103" lon="8.0769768"><ele>147.0</ele><time>2026-04-19T07:16:20.733Z</time></trkpt><trkpt lat="44.8376249" lon="8.0769846"><ele>147.0</ele><time>2026-04-19T07:16:21.73Z</time></trkpt><trkpt lat="44.8377445" lon="8.0769988"><ele>147.0</ele><time>2026-04-19T07:16:22.737Z</time></trkpt><trkpt lat="44.837856" lon="8.0770093"><ele>147.0</ele><time>2026-04-19T07:16:23.733Z</time></trkpt><trkpt lat="44.8379773" lon="8.077024"><ele>147.5</ele><time>2026-04-19T07:16:24.735Z</time></trkpt><trkpt lat="44.838094" lon="8.0770556"><ele>148.0</ele><time>2026-04-19T07:16:25.734Z</time></trkpt><trkpt lat="44.8382093" lon="8.0770841"><ele>148.5</ele><time>2026-04-19T07:16:26.746Z</time></trkpt><trkpt lat="44.8383154" lon="8.0771238"><ele>149.0</ele><time>2026-04-19T07:16:27.732Z</time></trkpt><trkpt lat="44.8384296" lon="8.0771853"><ele>149.0</ele><time>2026-04-19T07:16:28.741Z</time></trkpt><trkpt lat="44.8385418" lon="8.0772567"><ele>149.0</ele><time>2026-04-19T07:16:29.738Z</time></trkpt><trkpt lat="44.8386607" lon="8.0773237"><ele>149.0</ele><time>2026-04-19T07:16:30.736Z</time></trkpt><trkpt lat="44.8387687" lon="8.0773827"><ele>149.0</ele><time>2026-04-19T07:16:31.727Z</time></trkpt><trkpt lat="44.8388726" lon="8.0774328"><ele>148.6</ele><time>2026-04-19T07:16:32.733Z</time></trkpt><trkpt lat="44.8389763" lon="8.0774676"><ele>148.2</ele><time>2026-04-19T07:16:33.74Z</time></trkpt><trkpt lat="44.8390658" lon="8.0775074"><ele>147.79999999999998</ele><time>2026-04-19T07:16:34.733Z</time></trkpt><trkpt lat="44.8391625" lon="8.0775689"><ele>147.4</ele><time>2026-04-19T07:16:35.738Z</time></trkpt><trkpt lat="44.8392529" lon="8.0776243"><ele>147.0</ele><time>2026-04-19T07:16:36.739Z</time></trkpt><trkpt lat="44.8393422" lon="8.0776756"><ele>146.83333333333334</ele><time>2026-04-19T07:16:37.74Z</time></trkpt><trkpt lat="44.8394254" lon="8.0777282"><ele>146.66666666666666</ele><time>2026-04-19T07:16:38.733Z</time></trkpt><trkpt lat="44.839502" lon="8.0777977"><ele>146.5</ele><time>2026-04-19T07:16:39.727Z</time></trkpt><trkpt lat="44.8395758" lon="8.077867"><ele>146.33333333333331</ele><time>2026-04-19T07:16:40.737Z</time></trkpt><trkpt lat="44.8396478" lon="8.0779352"><ele>146.16666666666666</ele><time>2026-04-19T07:16:41.73Z</time></trkpt><trkpt lat="44.8397221" lon="8.0780022"><ele>146.0</ele><time>2026-04-19T07:16:42.732Z</time></trkpt><trkpt lat="44.8398001" lon="8.0780724"><ele>146.0</ele><time>2026-04-19T07:16:43.755Z</time></trkpt><trkpt lat="44.8398784" lon="8.0781465"><ele>146.0</ele><time>2026-04-19T07:16:44.739Z</time></trkpt><trkpt lat="44.8399575" lon="8.0782079"><ele>146.0</ele><time>2026-04-19T07:16:45.738Z</time></trkpt><trkpt lat="44.8400385" lon="8.0782807"><ele>146.0</ele><time>2026-04-19T07:16:46.733Z</time></trkpt><trkpt lat="44.8401208" lon="8.0783721"><ele>146.0</ele><time>2026-04-19T07:16:47.738Z</time></trkpt><trkpt lat="44.8402089" lon="8.0784636"><ele>146.8</ele><time>2026-04-19T07:16:48.737Z</time></trkpt><trkpt lat="44.8402962" lon="8.0785643"><ele>147.6</ele><time>2026-04-19T07:16:49.739Z</time></trkpt><trkpt lat="44.8403789" lon="8.0786532"><ele>148.4</ele><time>2026-04-19T07:16:50.744Z</time></trkpt><trkpt lat="44.8404625" lon="8.0787373"><ele>149.2</ele><time>2026-04-19T07:16:51.75Z</time></trkpt><trkpt lat="44.8405368" lon="8.0788249"><ele>150.0</ele><time>2026-04-19T07:16:52.747Z</time></trkpt><trkpt lat="44.8406076" lon="8.0789044"><ele>150.0</ele><time>2026-04-19T07:16:53.743Z</time></trkpt><trkpt lat="44.8406803" lon="8.0789805"><ele>150.0</ele><time>2026-04-19T07:16:54.74Z</time></trkpt><trkpt lat="44.8407494" lon="8.0790692"><ele>150.0</ele><time>2026-04-19T07:16:55.731Z</time></trkpt><trkpt lat="44.8408076" lon="8.0791621"><ele>150.0</ele><time>2026-04-19T07:16:56.736Z</time></trkpt><trkpt lat="44.840866" lon="8.0792619"><ele>150.0</ele><time>2026-04-19T07:16:57.734Z</time></trkpt><trkpt lat="44.8409136" lon="8.079354"><ele>150.0</ele><time>2026-04-19T07:16:58.737Z</time></trkpt><trkpt lat="44.8409693" lon="8.0794442"><ele>150.28571428571428</ele><time>2026-04-19T07:16:59.738Z</time></trkpt><trkpt lat="44.8410227" lon="8.079523"><ele>150.57142857142856</ele><time>2026-04-19T07:17:00.745Z</time></trkpt><trkpt lat="44.841079" lon="8.0795855"><ele>150.85714285714283</ele><time>2026-04-19T07:17:01.736Z</time></trkpt><trkpt lat="44.8411307" lon="8.0796469"><ele>151.14285714285714</ele><time>2026-04-19T07:17:02.73Z</time></trkpt><trkpt lat="44.8411978" lon="8.0797227"><ele>151.42857142857144</ele><time>2026-04-19T07:17:04.732Z</time></trkpt><trkpt lat="44.841256" lon="8.0797623"><ele>151.7142857142857</ele><time>2026-04-19T07:17:10.734Z</time></trkpt><trkpt lat="44.8413006" lon="8.0798503"><ele>152.0</ele><time>2026-04-19T07:17:14.76Z</time></trkpt><trkpt lat="44.8413473" lon="8.0799779"><ele>152.0</ele><time>2026-04-19T07:17:17.743Z</time></trkpt><trkpt lat="44.8414079" lon="8.0800943"><ele>152.0</ele><time>2026-04-19T07:17:19.745Z</time></trkpt><trkpt lat="44.8414449" lon="8.0801761"><ele>152.0</ele><time>2026-04-19T07:17:20.733Z</time></trkpt><trkpt lat="44.8414849" lon="8.0802733"><ele>152.0</ele><time>2026-04-19T07:17:21.743Z</time></trkpt><trkpt lat="44.8415261" lon="8.0804232"><ele>152.0</ele><time>2026-04-19T07:17:23.733Z</time></trkpt><trkpt lat="44.84159" lon="8.080562"><ele>152.0</ele><time>2026-04-19T07:17:25.737Z</time></trkpt><trkpt lat="44.8416264" lon="8.0806453"><ele>152.0</ele><time>2026-04-19T07:17:26.737Z</time></trkpt><trkpt lat="44.841663" lon="8.0807195"><ele>152.0</ele><time>2026-04-19T07:17:27.739Z</time></trkpt><trkpt lat="44.8417056" lon="8.0808034"><ele>152.0</ele><time>2026-04-19T07:17:28.734Z</time></trkpt><trkpt lat="44.8417512" lon="8.080885"><ele>152.0</ele><time>2026-04-19T07:17:29.74Z</time></trkpt><trkpt lat="44.8417956" lon="8.0809618"><ele>152.0</ele><time>2026-04-19T07:17:30.74Z</time></trkpt><trkpt lat="44.8418548" lon="8.0810567"><ele>152.0</ele><time>2026-04-19T07:17:32.736Z</time></trkpt><trkpt lat="44.8418783" lon="8.0811678"><ele>152.0</ele><time>2026-04-19T07:17:41.734Z</time></trkpt><trkpt lat="44.8418358" lon="8.0812947"><ele>152.0</ele><time>2026-04-19T07:17:43.737Z</time></trkpt><trkpt lat="44.8418162" lon="8.0814013"><ele>152.0</ele><time>2026-04-19T07:17:44.75Z</time></trkpt><trkpt lat="44.8417767" lon="8.0814914"><ele>152.0</ele><time>2026-04-19T07:17:45.76Z</time></trkpt><trkpt lat="44.8417268" lon="8.0816063"><ele>152.0</ele><time>2026-04-19T07:17:46.745Z</time></trkpt><trkpt lat="44.8416912" lon="8.081715"><ele>152.0</ele><time>2026-04-19T07:17:47.745Z</time></trkpt><trkpt lat="44.84168" lon="8.0818303"><ele>152.25</ele><time>2026-04-19T07:17:49.732Z</time></trkpt><trkpt lat="44.8417632" lon="8.0817022"><ele>152.5</ele><time>2026-04-19T07:17:54.739Z</time></trkpt><trkpt lat="44.8418312" lon="8.0815967"><ele>152.75</ele><time>2026-04-19T07:17:55.736Z</time></trkpt><trkpt lat="44.8419259" lon="8.0814918"><ele>153.0</ele><time>2026-04-19T07:17:56.727Z</time></trkpt><trkpt lat="44.8420313" lon="8.0813789"><ele>151.33333333333334</ele><time>2026-04-19T07:17:57.737Z</time></trkpt><trkpt lat="44.842146" lon="8.0812505"><ele>149.66666666666669</ele><time>2026-04-19T07:17:58.726Z</time></trkpt><trkpt lat="44.8422698" lon="8.0811228"><ele>148.0</ele><time>2026-04-19T07:17:59.729Z</time></trkpt><trkpt lat="44.8424077" lon="8.0809814"><ele>148.0</ele><time>2026-04-19T07:18:00.736Z</time></trkpt><trkpt lat="44.8425367" lon="8.080865"><ele>148.0</ele><time>2026-04-19T07:18:01.735Z</time></trkpt><trkpt lat="44.8426635" lon="8.0807348"><ele>148.0</ele><time>2026-04-19T07:18:02.74Z</time></trkpt><trkpt lat="44.8427909" lon="8.0805696"><ele>147.66666666666669</ele><time>2026-04-19T07:18:03.739Z</time></trkpt><trkpt lat="44.8428812" lon="8.0803793"><ele>147.33333333333334</ele><time>2026-04-19T07:18:04.741Z</time></trkpt><trkpt lat="44.8429762" lon="8.0801786"><ele>147.0</ele><time>2026-04-19T07:18:05.739Z</time></trkpt><trkpt lat="44.8430624" lon="8.0799795"><ele>148.33333333333334</ele><time>2026-04-19T07:18:06.737Z</time></trkpt><trkpt lat="44.8431314" lon="8.0797782"><ele>149.66666666666669</ele><time>2026-04-19T07:18:07.741Z</time></trkpt><trkpt lat="44.8432047" lon="8.0795804"><ele>151.0</ele><time>2026-04-19T07:18:08.741Z</time></trkpt><trkpt lat="44.843278" lon="8.0793784"><ele>151.0</ele><time>2026-04-19T07:18:09.745Z</time></trkpt><trkpt lat="44.8433501" lon="8.0791717"><ele>151.0</ele><time>2026-04-19T07:18:10.738Z</time></trkpt><trkpt lat="44.8434161" lon="8.078965"><ele>151.0</ele><time>2026-04-19T07:18:11.743Z</time></trkpt><trkpt lat="44.8434785" lon="8.0787575"><ele>151.25</ele><time>2026-04-19T07:18:12.743Z</time></trkpt><trkpt lat="44.8435432" lon="8.0785653"><ele>151.5</ele><time>2026-04-19T07:18:13.739Z</time></trkpt><trkpt lat="44.8436014" lon="8.0783757"><ele>151.75</ele><time>2026-04-19T07:18:14.734Z</time></trkpt><trkpt lat="44.8436652" lon="8.0782072"><ele>152.0</ele><time>2026-04-19T07:18:15.744Z</time></trkpt><trkpt lat="44.8437088" lon="8.0780823"><ele>152.0</ele><time>2026-04-19T07:18:16.761Z</time></trkpt><trkpt lat="44.8437161" lon="8.0779483"><ele>152.0</ele><time>2026-04-19T07:18:17.742Z</time></trkpt><trkpt lat="44.8436723" lon="8.0778221"><ele>152.0</ele><time>2026-04-19T07:18:18.741Z</time></trkpt><trkpt lat="44.8436131" lon="8.0777143"><ele>152.0</ele><time>2026-04-19T07:18:19.732Z</time></trkpt><trkpt lat="44.8435655" lon="8.077626"><ele>152.0</ele><time>2026-04-19T07:18:20.742Z</time></trkpt><trkpt lat="44.8436122" lon="8.0774701"><ele>152.0</ele><time>2026-04-19T07:18:22.742Z</time></trkpt><trkpt lat="44.843673" lon="8.0774151"><ele>152.0</ele><time>2026-04-19T07:18:24.738Z</time></trkpt><trkpt lat="44.8437674" lon="8.0774001"><ele>152.0</ele><time>2026-04-19T07:18:26.725Z</time></trkpt><trkpt lat="44.8439211" lon="8.0774521"><ele>152.0</ele><time>2026-04-19T07:18:28.741Z</time></trkpt><trkpt lat="44.8440346" lon="8.0775274"><ele>152.0</ele><time>2026-04-19T07:18:29.743Z</time></trkpt><trkpt lat="44.844156" lon="8.0776224"><ele>152.0</ele><time>2026-04-19T07:18:30.739Z</time></trkpt><trkpt lat="44.8442678" lon="8.0777395"><ele>152.0</ele><time>2026-04-19T07:18:31.738Z</time></trkpt><trkpt lat="44.844377" lon="8.0778532"><ele>152.0</ele><time>2026-04-19T07:18:32.735Z</time></trkpt><trkpt lat="44.844492" lon="8.0779841"><ele>151.33333333333331</ele><time>2026-04-19T07:18:33.731Z</time></trkpt><trkpt lat="44.8446049" lon="8.078109"><ele>150.66666666666666</ele><time>2026-04-19T07:18:34.739Z</time></trkpt><trkpt lat="44.8447148" lon="8.0782409"><ele>150.0</ele><time>2026-04-19T07:18:35.733Z</time></trkpt><trkpt lat="44.844839" lon="8.0783876"><ele>150.0</ele><time>2026-04-19T07:18:36.737Z</time></trkpt><trkpt lat="44.8449595" lon="8.0785465"><ele>150.0</ele><time>2026-04-19T07:18:37.744Z</time></trkpt><trkpt lat="44.8450837" lon="8.078711"><ele>150.0</ele><time>2026-04-19T07:18:38.742Z</time></trkpt><trkpt lat="44.8452045" lon="8.0788625"><ele>150.33333333333334</ele><time>2026-04-19T07:18:39.735Z</time></trkpt><trkpt lat="44.84533" lon="8.0790242"><ele>150.66666666666669</ele><time>2026-04-19T07:18:40.745Z</time></trkpt><trkpt lat="44.8454505" lon="8.0791753"><ele>151.0</ele><time>2026-04-19T07:18:41.735Z</time></trkpt><trkpt lat="44.8455732" lon="8.0793256"><ele>151.0</ele><time>2026-04-19T07:18:42.746Z</time></trkpt><trkpt lat="44.8456895" lon="8.0794768"><ele>151.0</ele><time>2026-04-19T07:18:43.747Z</time></trkpt><trkpt lat="44.8458119" lon="8.0796291"><ele>151.0</ele><time>2026-04-19T07:18:44.743Z</time></trkpt><trkpt lat="44.8459313" lon="8.0797727"><ele>151.0</ele><time>2026-04-19T07:18:45.745Z</time></trkpt><trkpt lat="44.8460476" lon="8.0799167"><ele>151.0</ele><time>2026-04-19T07:18:46.737Z</time></trkpt><trkpt lat="44.8461709" lon="8.0800537"><ele>151.0</ele><time>2026-04-19T07:18:47.757Z</time></trkpt><trkpt lat="44.84629" lon="8.0801888"><ele>151.0</ele><time>2026-04-19T07:18:48.734Z</time></trkpt><trkpt lat="44.8464085" lon="8.0803001"><ele>151.0</ele><time>2026-04-19T07:18:49.738Z</time></trkpt><trkpt lat="44.846524" lon="8.0804355"><ele>151.0</ele><time>2026-04-19T07:18:50.731Z</time></trkpt><trkpt lat="44.8466422" lon="8.0805933"><ele>151.0</ele><time>2026-04-19T07:18:51.737Z</time></trkpt><trkpt lat="44.8467646" lon="8.0807321"><ele>151.0</ele><time>2026-04-19T07:18:52.739Z</time></trkpt><trkpt lat="44.8468801" lon="8.0808717"><ele>151.0</ele><time>2026-04-19T07:18:53.733Z</time></trkpt><trkpt lat="44.8469926" lon="8.0809944"><ele>150.5</ele><time>2026-04-19T07:18:54.73Z</time></trkpt><trkpt lat="44.8471027" lon="8.0811233"><ele>150.0</ele><time>2026-04-19T07:18:55.734Z</time></trkpt><trkpt lat="44.8472061" lon="8.0812582"><ele>149.5</ele><time>2026-04-19T07:18:56.737Z</time></trkpt><trkpt lat="44.8472988" lon="8.081383"><ele>149.0</ele><time>2026-04-19T07:18:57.734Z</time></trkpt><trkpt lat="44.8473695" lon="8.0815076"><ele>148.5</ele><time>2026-04-19T07:18:58.741Z</time></trkpt><trkpt lat="44.8474615" lon="8.0816339"><ele>148.0</ele><time>2026-04-19T07:18:59.746Z</time></trkpt><trkpt lat="44.8475404" lon="8.0817735"><ele>147.5</ele><time>2026-04-19T07:19:00.725Z</time></trkpt><trkpt lat="44.8476168" lon="8.0819066"><ele>147.0</ele><time>2026-04-19T07:19:01.736Z</time></trkpt><trkpt lat="44.8477062" lon="8.0820731"><ele>148.25</ele><time>2026-04-19T07:19:02.732Z</time></trkpt><trkpt lat="44.8477858" lon="8.0822246"><ele>149.5</ele><time>2026-04-19T07:19:03.721Z</time></trkpt><trkpt lat="44.8478715" lon="8.0823758"><ele>150.75</ele><time>2026-04-19T07:19:04.723Z</time></trkpt><trkpt lat="44.8479463" lon="8.0825211"><ele>152.0</ele><time>2026-04-19T07:19:05.734Z</time></trkpt><trkpt lat="44.8480164" lon="8.0826562"><ele>152.0</ele><time>2026-04-19T07:19:06.729Z</time></trkpt><trkpt lat="44.8480875" lon="8.0827914"><ele>152.0</ele><time>2026-04-19T07:19:07.73Z</time></trkpt><trkpt lat="44.8481591" lon="8.0829255"><ele>152.0</ele><time>2026-04-19T07:19:08.74Z</time></trkpt><trkpt lat="44.8482224" lon="8.0830531"><ele>152.0</ele><time>2026-04-19T07:19:09.747Z</time></trkpt><trkpt lat="44.8482808" lon="8.0831849"><ele>151.79999999999998</ele><time>2026-04-19T07:19:10.736Z</time></trkpt><trkpt lat="44.8483426" lon="8.0833118"><ele>151.6</ele><time>2026-04-19T07:19:11.726Z</time></trkpt><trkpt lat="44.8484013" lon="8.0834393"><ele>151.39999999999998</ele><time>2026-04-19T07:19:12.729Z</time></trkpt><trkpt lat="44.8484526" lon="8.0835721"><ele>151.2</ele><time>2026-04-19T07:19:13.731Z</time></trkpt><trkpt lat="44.8485075" lon="8.0837053"><ele>151.0</ele><time>2026-04-19T07:19:14.727Z</time></trkpt><trkpt lat="44.8485607" lon="8.0838405"><ele>151.4</ele><time>2026-04-19T07:19:15.731Z</time></trkpt><trkpt lat="44.8486088" lon="8.083972"><ele>151.8</ele><time>2026-04-19T07:19:16.727Z</time></trkpt><trkpt lat="44.848657" lon="8.0841057"><ele>152.20000000000002</ele><time>2026-04-19T07:19:17.746Z</time></trkpt><trkpt lat="44.848714" lon="8.0842419"><ele>152.6</ele><time>2026-04-19T07:19:18.756Z</time></trkpt><trkpt lat="44.8487674" lon="8.0843717"><ele>153.0</ele><time>2026-04-19T07:19:19.735Z</time></trkpt><trkpt lat="44.8488185" lon="8.0845114"><ele>153.0</ele><time>2026-04-19T07:19:20.74Z</time></trkpt><trkpt lat="44.8488655" lon="8.0846493"><ele>153.0</ele><time>2026-04-19T07:19:21.741Z</time></trkpt><trkpt lat="44.8489108" lon="8.0847838"><ele>153.0</ele><time>2026-04-19T07:19:22.745Z</time></trkpt><trkpt lat="44.8489567" lon="8.0849161"><ele>153.0</ele><time>2026-04-19T07:19:23.75Z</time></trkpt><trkpt lat="44.8490043" lon="8.0850505"><ele>153.0</ele><time>2026-04-19T07:19:24.749Z</time></trkpt><trkpt lat="44.8490491" lon="8.0851816"><ele>152.6</ele><time>2026-04-19T07:19:25.745Z</time></trkpt><trkpt lat="44.8490957" lon="8.0853057"><ele>152.20000000000002</ele><time>2026-04-19T07:19:26.745Z</time></trkpt><trkpt lat="44.8491468" lon="8.0854381"><ele>151.8</ele><time>2026-04-19T07:19:27.744Z</time></trkpt><trkpt lat="44.8491968" lon="8.0855736"><ele>151.4</ele><time>2026-04-19T07:19:28.745Z</time></trkpt><trkpt lat="44.8492448" lon="8.0857049"><ele>151.0</ele><time>2026-04-19T07:19:29.73Z</time></trkpt><trkpt lat="44.8492914" lon="8.085834"><ele>152.6</ele><time>2026-04-19T07:19:30.742Z</time></trkpt><trkpt lat="44.8493361" lon="8.085966"><ele>154.2</ele><time>2026-04-19T07:19:31.736Z</time></trkpt><trkpt lat="44.8493809" lon="8.0861024"><ele>155.8</ele><time>2026-04-19T07:19:32.742Z</time></trkpt><trkpt lat="44.8494345" lon="8.0862443"><ele>157.4</ele><time>2026-04-19T07:19:33.737Z</time></trkpt><trkpt lat="44.8494884" lon="8.0863845"><ele>159.0</ele><time>2026-04-19T07:19:34.744Z</time></trkpt><trkpt lat="44.8495383" lon="8.0865258"><ele>158.25</ele><time>2026-04-19T07:19:35.737Z</time></trkpt><trkpt lat="44.8495929" lon="8.0866728"><ele>157.5</ele><time>2026-04-19T07:19:36.741Z</time></trkpt><trkpt lat="44.8496475" lon="8.0868216"><ele>156.75</ele><time>2026-04-19T07:19:37.741Z</time></trkpt><trkpt lat="44.8497002" lon="8.0869662"><ele>156.0</ele><time>2026-04-19T07:19:38.741Z</time></trkpt><trkpt lat="44.8497507" lon="8.0871081"><ele>156.0</ele><time>2026-04-19T07:19:39.741Z</time></trkpt><trkpt lat="44.8498038" lon="8.087248"><ele>156.0</ele><time>2026-04-19T07:19:40.737Z</time></trkpt><trkpt lat="44.8498539" lon="8.0873851"><ele>156.0</ele><time>2026-04-19T07:19:41.743Z</time></trkpt><trkpt lat="44.8499049" lon="8.0875204"><ele>156.0</ele><time>2026-04-19T07:19:42.743Z</time></trkpt><trkpt lat="44.84996" lon="8.087659"><ele>156.0</ele><time>2026-04-19T07:19:43.741Z</time></trkpt><trkpt lat="44.8500112" lon="8.0877931"><ele>155.4</ele><time>2026-04-19T07:19:44.734Z</time></trkpt><trkpt lat="44.8500614" lon="8.0879232"><ele>154.8</ele><time>2026-04-19T07:19:45.737Z</time></trkpt><trkpt lat="44.8501122" lon="8.0880466"><ele>154.20000000000002</ele><time>2026-04-19T07:19:46.738Z</time></trkpt><trkpt lat="44.8501582" lon="8.0881742"><ele>153.6</ele><time>2026-04-19T07:19:47.741Z</time></trkpt><trkpt lat="44.8502101" lon="8.0883049"><ele>153.0</ele><time>2026-04-19T07:19:48.741Z</time></trkpt><trkpt lat="44.850261" lon="8.0884334"><ele>153.0</ele><time>2026-04-19T07:19:49.759Z</time></trkpt><trkpt lat="44.8503134" lon="8.0885721"><ele>153.0</ele><time>2026-04-19T07:19:50.743Z</time></trkpt><trkpt lat="44.8503625" lon="8.0887094"><ele>153.0</ele><time>2026-04-19T07:19:51.745Z</time></trkpt><trkpt lat="44.8504143" lon="8.0888448"><ele>153.0</ele><time>2026-04-19T07:19:52.741Z</time></trkpt><trkpt lat="44.8504674" lon="8.0889778"><ele>153.0</ele><time>2026-04-19T07:19:53.743Z</time></trkpt><trkpt lat="44.8505194" lon="8.0891126"><ele>152.0</ele><time>2026-04-19T07:19:54.743Z</time></trkpt><trkpt lat="44.8505594" lon="8.0892441"><ele>151.0</ele><time>2026-04-19T07:19:55.745Z</time></trkpt><trkpt lat="44.8506086" lon="8.0893746"><ele>150.0</ele><time>2026-04-19T07:19:56.746Z</time></trkpt><trkpt lat="44.8506672" lon="8.0895025"><ele>149.0</ele><time>2026-04-19T07:19:57.742Z</time></trkpt><trkpt lat="44.8507181" lon="8.0896315"><ele>148.0</ele><time>2026-04-19T07:19:58.744Z</time></trkpt><trkpt lat="44.8507705" lon="8.0897604"><ele>148.0</ele><time>2026-04-19T07:19:59.744Z</time></trkpt><trkpt lat="44.8508255" lon="8.0898848"><ele>148.0</ele><time>2026-04-19T07:20:00.733Z</time></trkpt><trkpt lat="44.8508775" lon="8.0899872"><ele>148.0</ele><time>2026-04-19T07:20:01.738Z</time></trkpt><trkpt lat="44.8509335" lon="8.0900934"><ele>148.0</ele><time>2026-04-19T07:20:02.735Z</time></trkpt><trkpt lat="44.8509708" lon="8.0901996"><ele>148.0</ele><time>2026-04-19T07:20:03.747Z</time></trkpt><trkpt lat="44.8510064" lon="8.0902789"><ele>148.0</ele><time>2026-04-19T07:20:04.746Z</time></trkpt><trkpt lat="44.8510752" lon="8.090342"><ele>148.33333333333334</ele><time>2026-04-19T07:20:06.738Z</time></trkpt><trkpt lat="44.8511268" lon="8.090268"><ele>148.66666666666669</ele><time>2026-04-19T07:20:08.756Z</time></trkpt><trkpt lat="44.8511534" lon="8.090181"><ele>149.0</ele><time>2026-04-19T07:20:09.745Z</time></trkpt><trkpt lat="44.8511933" lon="8.090086"><ele>149.33333333333334</ele><time>2026-04-19T07:20:10.748Z</time></trkpt><trkpt lat="44.8512443" lon="8.0899774"><ele>149.66666666666666</ele><time>2026-04-19T07:20:11.745Z</time></trkpt><trkpt lat="44.8513032" lon="8.0898504"><ele>150.0</ele><time>2026-04-19T07:20:12.738Z</time></trkpt><trkpt lat="44.8513602" lon="8.0897146"><ele>150.4</ele><time>2026-04-19T07:20:13.743Z</time></trkpt><trkpt lat="44.8514093" lon="8.089591"><ele>150.8</ele><time>2026-04-19T07:20:14.74Z</time></trkpt><trkpt lat="44.8514521" lon="8.0894727"><ele>151.2</ele><time>2026-04-19T07:20:15.741Z</time></trkpt><trkpt lat="44.85148" lon="8.0893586"><ele>151.6</ele><time>2026-04-19T07:20:16.74Z</time></trkpt><trkpt lat="44.8514963" lon="8.0892435"><ele>152.0</ele><time>2026-04-19T07:20:17.746Z</time></trkpt><trkpt lat="44.8515056" lon="8.0891188"><ele>152.6</ele><time>2026-04-19T07:20:18.736Z</time></trkpt><trkpt lat="44.8515058" lon="8.0889835"><ele>153.2</ele><time>2026-04-19T07:20:19.743Z</time></trkpt><trkpt lat="44.8515048" lon="8.0888344"><ele>153.8</ele><time>2026-04-19T07:20:20.763Z</time></trkpt><trkpt lat="44.8515017" lon="8.0886851"><ele>154.4</ele><time>2026-04-19T07:20:21.749Z</time></trkpt><trkpt lat="44.8514964" lon="8.088532"><ele>155.0</ele><time>2026-04-19T07:20:22.742Z</time></trkpt><trkpt lat="44.8514771" lon="8.0883824"><ele>155.6</ele><time>2026-04-19T07:20:23.741Z</time></trkpt><trkpt lat="44.8514626" lon="8.0882414"><ele>156.2</ele><time>2026-04-19T07:20:24.735Z</time></trkpt><trkpt lat="44.8514504" lon="8.0881071"><ele>156.8</ele><time>2026-04-19T07:20:25.738Z</time></trkpt><trkpt lat="44.8514329" lon="8.0879702"><ele>157.4</ele><time>2026-04-19T07:20:26.741Z</time></trkpt><trkpt lat="44.8514199" lon="8.0878282"><ele>158.0</ele><time>2026-04-19T07:20:27.739Z</time></trkpt><trkpt lat="44.851404" lon="8.0876803"><ele>158.0</ele><time>2026-04-19T07:20:28.739Z</time></trkpt><trkpt lat="44.8513904" lon="8.0875455"><ele>158.0</ele><time>2026-04-19T07:20:29.744Z</time></trkpt><trkpt lat="44.851375" lon="8.0874037"><ele>158.0</ele><time>2026-04-19T07:20:30.748Z</time></trkpt><trkpt lat="44.8513578" lon="8.08726"><ele>158.0</ele><time>2026-04-19T07:20:31.74Z</time></trkpt><trkpt lat="44.8513318" lon="8.087123"><ele>158.0</ele><time>2026-04-19T07:20:32.742Z</time></trkpt><trkpt lat="44.8513002" lon="8.0869879"><ele>158.20000000000002</ele><time>2026-04-19T07:20:33.744Z</time></trkpt><trkpt lat="44.8512637" lon="8.0868544"><ele>158.4</ele><time>2026-04-19T07:20:34.749Z</time></trkpt><trkpt lat="44.8512279" lon="8.0867115"><ele>158.60000000000002</ele><time>2026-04-19T07:20:35.745Z</time></trkpt><trkpt lat="44.8511867" lon="8.0865702"><ele>158.8</ele><time>2026-04-19T07:20:36.741Z</time></trkpt><trkpt lat="44.8511412" lon="8.0864274"><ele>159.0</ele><time>2026-04-19T07:20:37.738Z</time></trkpt><trkpt lat="44.8510916" lon="8.0863065"><ele>158.6</ele><time>2026-04-19T07:20:38.749Z</time></trkpt><trkpt lat="44.85105" lon="8.0861848"><ele>158.2</ele><time>2026-04-19T07:20:39.746Z</time></trkpt><trkpt lat="44.8510075" lon="8.0860709"><ele>157.79999999999998</ele><time>2026-04-19T07:20:40.746Z</time></trkpt><trkpt lat="44.8509559" lon="8.085959"><ele>157.4</ele><time>2026-04-19T07:20:41.747Z</time></trkpt><trkpt lat="44.8508978" lon="8.085848"><ele>157.0</ele><time>2026-04-19T07:20:42.749Z</time></trkpt><trkpt lat="44.8508421" lon="8.0857364"><ele>158.39999999999998</ele><time>2026-04-19T07:20:43.751Z</time></trkpt><trkpt lat="44.8507793" lon="8.0856182"><ele>159.79999999999998</ele><time>2026-04-19T07:20:44.746Z</time></trkpt><trkpt lat="44.8507197" lon="8.0855011"><ele>161.2</ele><time>2026-04-19T07:20:45.741Z</time></trkpt><trkpt lat="44.8506583" lon="8.085378"><ele>162.6</ele><time>2026-04-19T07:20:46.746Z</time></trkpt><trkpt lat="44.8505941" lon="8.0852544"><ele>164.0</ele><time>2026-04-19T07:20:47.751Z</time></trkpt><trkpt lat="44.850535" lon="8.0851306"><ele>164.0</ele><time>2026-04-19T07:20:48.752Z</time></trkpt><trkpt lat="44.8504856" lon="8.0849949"><ele>164.0</ele><time>2026-04-19T07:20:49.736Z</time></trkpt><trkpt lat="44.8504373" lon="8.0848614"><ele>164.0</ele><time>2026-04-19T07:20:50.741Z</time></trkpt><trkpt lat="44.8503865" lon="8.0847436"><ele>164.0</ele><time>2026-04-19T07:20:51.765Z</time></trkpt><trkpt lat="44.8503331" lon="8.0846229"><ele>164.0</ele><time>2026-04-19T07:20:52.744Z</time></trkpt><trkpt lat="44.8502757" lon="8.0844972"><ele>163.75</ele><time>2026-04-19T07:20:53.735Z</time></trkpt><trkpt lat="44.8502133" lon="8.0843633"><ele>163.5</ele><time>2026-04-19T07:20:54.741Z</time></trkpt><trkpt lat="44.8501494" lon="8.0842205"><ele>163.25</ele><time>2026-04-19T07:20:55.749Z</time></trkpt><trkpt lat="44.8500868" lon="8.0840647"><ele>163.0</ele><time>2026-04-19T07:20:56.749Z</time></trkpt><trkpt lat="44.8500265" lon="8.0839106"><ele>163.5</ele><time>2026-04-19T07:20:57.748Z</time></trkpt><trkpt lat="44.8499644" lon="8.0837502"><ele>164.0</ele><time>2026-04-19T07:20:58.748Z</time></trkpt><trkpt lat="44.8499102" lon="8.0835974"><ele>164.5</ele><time>2026-04-19T07:20:59.74Z</time></trkpt><trkpt lat="44.8498691" lon="8.0834495"><ele>165.0</ele><time>2026-04-19T07:21:00.739Z</time></trkpt><trkpt lat="44.8498328" lon="8.0833038"><ele>165.6</ele><time>2026-04-19T07:21:01.734Z</time></trkpt><trkpt lat="44.8498072" lon="8.0831592"><ele>166.2</ele><time>2026-04-19T07:21:02.749Z</time></trkpt><trkpt lat="44.8497913" lon="8.0830084"><ele>166.8</ele><time>2026-04-19T07:21:03.748Z</time></trkpt><trkpt lat="44.8497988" lon="8.0828619"><ele>167.4</ele><time>2026-04-19T07:21:04.744Z</time></trkpt><trkpt lat="44.8498051" lon="8.0827127"><ele>168.0</ele><time>2026-04-19T07:21:05.748Z</time></trkpt><trkpt lat="44.8498071" lon="8.0825561"><ele>168.25</ele><time>2026-04-19T07:21:06.749Z</time></trkpt><trkpt lat="44.8498011" lon="8.0823817"><ele>168.5</ele><time>2026-04-19T07:21:07.74Z</time></trkpt><trkpt lat="44.8497951" lon="8.0821988"><ele>168.75</ele><time>2026-04-19T07:21:08.742Z</time></trkpt><trkpt lat="44.8497882" lon="8.082017"><ele>169.0</ele><time>2026-04-19T07:21:09.746Z</time></trkpt><trkpt lat="44.8497752" lon="8.0818543"><ele>169.0</ele><time>2026-04-19T07:21:10.745Z</time></trkpt><trkpt lat="44.8497623" lon="8.0816968"><ele>169.0</ele><time>2026-04-19T07:21:11.743Z</time></trkpt><trkpt lat="44.8497474" lon="8.0815473"><ele>169.0</ele><time>2026-04-19T07:21:12.742Z</time></trkpt><trkpt lat="44.8497287" lon="8.0814173"><ele>169.0</ele><time>2026-04-19T07:21:13.745Z</time></trkpt><trkpt lat="44.8496918" lon="8.0813128"><ele>169.0</ele><time>2026-04-19T07:21:14.748Z</time></trkpt><trkpt lat="44.8496327" lon="8.0812134"><ele>169.0</ele><time>2026-04-19T07:21:15.749Z</time></trkpt><trkpt lat="44.8495573" lon="8.0810991"><ele>169.0</ele><time>2026-04-19T07:21:16.745Z</time></trkpt><trkpt lat="44.8494765" lon="8.0809749"><ele>169.0</ele><time>2026-04-19T07:21:17.749Z</time></trkpt><trkpt lat="44.8493911" lon="8.080822"><ele>169.0</ele><time>2026-04-19T07:21:18.74Z</time></trkpt><trkpt lat="44.8492966" lon="8.080643"><ele>170.0</ele><time>2026-04-19T07:21:19.746Z</time></trkpt><trkpt lat="44.8492099" lon="8.0804716"><ele>171.0</ele><time>2026-04-19T07:21:20.741Z</time></trkpt><trkpt lat="44.8491255" lon="8.0803172"><ele>172.0</ele><time>2026-04-19T07:21:21.741Z</time></trkpt><trkpt lat="44.8490551" lon="8.0801903"><ele>173.0</ele><time>2026-04-19T07:21:22.759Z</time></trkpt><trkpt lat="44.8489894" lon="8.0800673"><ele>173.0</ele><time>2026-04-19T07:21:23.734Z</time></trkpt><trkpt lat="44.8489279" lon="8.0799336"><ele>173.0</ele><time>2026-04-19T07:21:24.738Z</time></trkpt><trkpt lat="44.8488594" lon="8.0797808"><ele>173.0</ele><time>2026-04-19T07:21:25.742Z</time></trkpt><trkpt lat="44.8487928" lon="8.0796336"><ele>173.0</ele><time>2026-04-19T07:21:26.738Z</time></trkpt><trkpt lat="44.8487227" lon="8.0794867"><ele>173.0</ele><time>2026-04-19T07:21:27.741Z</time></trkpt><trkpt lat="44.8486494" lon="8.0793478"><ele>173.0</ele><time>2026-04-19T07:21:28.743Z</time></trkpt><trkpt lat="44.8485705" lon="8.0792142"><ele>173.0</ele><time>2026-04-19T07:21:29.742Z</time></trkpt><trkpt lat="44.8484888" lon="8.079099"><ele>173.0</ele><time>2026-04-19T07:21:30.742Z</time></trkpt><trkpt lat="44.8484229" lon="8.0790007"><ele>172.5</ele><time>2026-04-19T07:21:31.742Z</time></trkpt><trkpt lat="44.8483634" lon="8.0789059"><ele>172.0</ele><time>2026-04-19T07:21:32.748Z</time></trkpt><trkpt lat="44.8483263" lon="8.0788147"><ele>171.5</ele><time>2026-04-19T07:21:33.746Z</time></trkpt><trkpt lat="44.848312" lon="8.0787122"><ele>171.0</ele><time>2026-04-19T07:21:34.749Z</time></trkpt><trkpt lat="44.8483271" lon="8.0786018"><ele>170.5</ele><time>2026-04-19T07:21:35.749Z</time></trkpt><trkpt lat="44.8483612" lon="8.0784781"><ele>170.0</ele><time>2026-04-19T07:21:36.747Z</time></trkpt><trkpt lat="44.8484123" lon="8.0783571"><ele>170.5</ele><time>2026-04-19T07:21:37.748Z</time></trkpt><trkpt lat="44.8484859" lon="8.0782183"><ele>171.0</ele><time>2026-04-19T07:21:38.749Z</time></trkpt><trkpt lat="44.8485781" lon="8.0780596"><ele>171.5</ele><time>2026-04-19T07:21:39.74Z</time></trkpt><trkpt lat="44.8486636" lon="8.0779"><ele>172.0</ele><time>2026-04-19T07:21:40.744Z</time></trkpt><trkpt lat="44.8487401" lon="8.0777269"><ele>172.0</ele><time>2026-04-19T07:21:41.745Z</time></trkpt><trkpt lat="44.8488024" lon="8.0775403"><ele>172.0</ele><time>2026-04-19T07:21:42.749Z</time></trkpt><trkpt lat="44.8488712" lon="8.0773733"><ele>172.0</ele><time>2026-04-19T07:21:43.747Z</time></trkpt><trkpt lat="44.8489319" lon="8.0772137"><ele>172.0</ele><time>2026-04-19T07:21:44.742Z</time></trkpt><trkpt lat="44.8489841" lon="8.0770584"><ele>172.6</ele><time>2026-04-19T07:21:45.75Z</time></trkpt><trkpt lat="44.8490158" lon="8.0769193"><ele>173.2</ele><time>2026-04-19T07:21:46.741Z</time></trkpt><trkpt lat="44.8490308" lon="8.0767833"><ele>173.8</ele><time>2026-04-19T07:21:47.746Z</time></trkpt><trkpt lat="44.8490357" lon="8.0766542"><ele>174.4</ele><time>2026-04-19T07:21:48.737Z</time></trkpt><trkpt lat="44.8490151" lon="8.0765088"><ele>175.0</ele><time>2026-04-19T07:21:49.738Z</time></trkpt><trkpt lat="44.8489903" lon="8.0763585"><ele>175.75</ele><time>2026-04-19T07:21:50.748Z</time></trkpt><trkpt lat="44.8489557" lon="8.0761872"><ele>176.5</ele><time>2026-04-19T07:21:51.753Z</time></trkpt><trkpt lat="44.8489241" lon="8.0760033"><ele>177.25</ele><time>2026-04-19T07:21:52.75Z</time></trkpt><trkpt lat="44.848892" lon="8.0758187"><ele>178.0</ele><time>2026-04-19T07:21:53.769Z</time></trkpt><trkpt lat="44.8488593" lon="8.0756281"><ele>178.0</ele><time>2026-04-19T07:21:54.746Z</time></trkpt><trkpt lat="44.8488244" lon="8.0754444"><ele>178.0</ele><time>2026-04-19T07:21:55.745Z</time></trkpt><trkpt lat="44.8487949" lon="8.0752714"><ele>178.0</ele><time>2026-04-19T07:21:56.745Z</time></trkpt><trkpt lat="44.8487711" lon="8.0751082"><ele>178.0</ele><time>2026-04-19T07:21:57.741Z</time></trkpt><trkpt lat="44.8487544" lon="8.074954"><ele>177.5</ele><time>2026-04-19T07:21:58.741Z</time></trkpt><trkpt lat="44.8487494" lon="8.0748017"><ele>177.0</ele><time>2026-04-19T07:21:59.746Z</time></trkpt><trkpt lat="44.8487589" lon="8.0746471"><ele>176.5</ele><time>2026-04-19T07:22:00.744Z</time></trkpt><trkpt lat="44.8487801" lon="8.0744804"><ele>176.0</ele><time>2026-04-19T07:22:01.748Z</time></trkpt><trkpt lat="44.8488071" lon="8.0742963"><ele>176.0</ele><time>2026-04-19T07:22:02.754Z</time></trkpt><trkpt lat="44.848833" lon="8.0741338"><ele>176.0</ele><time>2026-04-19T07:22:03.74Z</time></trkpt><trkpt lat="44.848869" lon="8.0739868"><ele>176.0</ele><time>2026-04-19T07:22:04.746Z</time></trkpt><trkpt lat="44.8489215" lon="8.0738517"><ele>176.0</ele><time>2026-04-19T07:22:05.752Z</time></trkpt><trkpt lat="44.8489908" lon="8.0737091"><ele>176.0</ele><time>2026-04-19T07:22:06.748Z</time></trkpt><trkpt lat="44.8490697" lon="8.0735563"><ele>176.0</ele><time>2026-04-19T07:22:07.738Z</time></trkpt><trkpt lat="44.8491491" lon="8.0734073"><ele>176.0</ele><time>2026-04-19T07:22:08.743Z</time></trkpt><trkpt lat="44.8492264" lon="8.0732752"><ele>176.0</ele><time>2026-04-19T07:22:09.752Z</time></trkpt><trkpt lat="44.8492906" lon="8.0731705"><ele>175.83333333333331</ele><time>2026-04-19T07:22:10.748Z</time></trkpt><trkpt lat="44.8493469" lon="8.0730898"><ele>175.66666666666666</ele><time>2026-04-19T07:22:11.751Z</time></trkpt><trkpt lat="44.8493821" lon="8.0730145"><ele>175.5</ele><time>2026-04-19T07:22:12.747Z</time></trkpt><trkpt lat="44.8494217" lon="8.0728666"><ele>175.33333333333334</ele><time>2026-04-19T07:22:14.745Z</time></trkpt><trkpt lat="44.8494302" lon="8.0727628"><ele>175.16666666666669</ele><time>2026-04-19T07:22:16.751Z</time></trkpt><trkpt lat="44.849493" lon="8.072701"><ele>175.0</ele><time>2026-04-19T07:22:26.745Z</time></trkpt><trkpt lat="44.8496345" lon="8.0727572"><ele>175.0</ele><time>2026-04-19T07:22:28.73Z</time></trkpt><trkpt lat="44.8497245" lon="8.0728054"><ele>175.0</ele><time>2026-04-19T07:22:29.73Z</time></trkpt><trkpt lat="44.8498205" lon="8.0728498"><ele>175.0</ele><time>2026-04-19T07:22:30.734Z</time></trkpt><trkpt lat="44.8499218" lon="8.0728894"><ele>175.0</ele><time>2026-04-19T07:22:31.721Z</time></trkpt><trkpt lat="44.8500125" lon="8.0729274"><ele>175.0</ele><time>2026-04-19T07:22:32.733Z</time></trkpt><trkpt lat="44.8500898" lon="8.0729772"><ele>175.4</ele><time>2026-04-19T07:22:33.728Z</time></trkpt><trkpt lat="44.8501723" lon="8.0730305"><ele>175.8</ele><time>2026-04-19T07:22:34.732Z</time></trkpt><trkpt lat="44.8502695" lon="8.0730927"><ele>176.2</ele><time>2026-04-19T07:22:35.732Z</time></trkpt><trkpt lat="44.8503728" lon="8.0731556"><ele>176.6</ele><time>2026-04-19T07:22:36.73Z</time></trkpt><trkpt lat="44.8504875" lon="8.0732261"><ele>177.0</ele><time>2026-04-19T07:22:37.721Z</time></trkpt><trkpt lat="44.8506006" lon="8.0732968"><ele>177.0</ele><time>2026-04-19T07:22:38.726Z</time></trkpt><trkpt lat="44.8507126" lon="8.0733562"><ele>177.0</ele><time>2026-04-19T07:22:39.722Z</time></trkpt><trkpt lat="44.8508196" lon="8.0734084"><ele>177.0</ele><time>2026-04-19T07:22:40.729Z</time></trkpt><trkpt lat="44.8509254" lon="8.0734603"><ele>177.0</ele><time>2026-04-19T07:22:41.733Z</time></trkpt><trkpt lat="44.8510228" lon="8.0735037"><ele>177.0</ele><time>2026-04-19T07:22:42.737Z</time></trkpt><trkpt lat="44.8511136" lon="8.0735339"><ele>177.0</ele><time>2026-04-19T07:22:43.731Z</time></trkpt><trkpt lat="44.8512027" lon="8.0735619"><ele>177.0</ele><time>2026-04-19T07:22:44.722Z</time></trkpt><trkpt lat="44.8512984" lon="8.0735954"><ele>177.0</ele><time>2026-04-19T07:22:45.744Z</time></trkpt><trkpt lat="44.85141" lon="8.073622"><ele>177.0</ele><time>2026-04-19T07:22:46.745Z</time></trkpt><trkpt lat="44.8515201" lon="8.0736221"><ele>177.0</ele><time>2026-04-19T07:22:47.737Z</time></trkpt><trkpt lat="44.8516271" lon="8.0736235"><ele>177.0</ele><time>2026-04-19T07:22:48.742Z</time></trkpt><trkpt lat="44.851736" lon="8.0736124"><ele>177.0</ele><time>2026-04-19T07:22:49.733Z</time></trkpt><trkpt lat="44.8518472" lon="8.0736074"><ele>177.0</ele><time>2026-04-19T07:22:50.737Z</time></trkpt><trkpt lat="44.8519629" lon="8.0735944"><ele>177.0</ele><time>2026-04-19T07:22:51.736Z</time></trkpt><trkpt lat="44.8520799" lon="8.0735877"><ele>177.5</ele><time>2026-04-19T07:22:52.748Z</time></trkpt><trkpt lat="44.8522009" lon="8.0735864"><ele>178.0</ele><time>2026-04-19T07:22:53.747Z</time></trkpt><trkpt lat="44.8523178" lon="8.0735885"><ele>178.5</ele><time>2026-04-19T07:22:54.745Z</time></trkpt><trkpt lat="44.8524344" lon="8.0735902"><ele>179.0</ele><time>2026-04-19T07:22:55.765Z</time></trkpt><trkpt lat="44.8525486" lon="8.0735993"><ele>179.25</ele><time>2026-04-19T07:22:56.75Z</time></trkpt><trkpt lat="44.8526595" lon="8.0736009"><ele>179.5</ele><time>2026-04-19T07:22:57.742Z</time></trkpt><trkpt lat="44.8527743" lon="8.073607"><ele>179.75</ele><time>2026-04-19T07:22:58.746Z</time></trkpt><trkpt lat="44.8528985" lon="8.0736158"><ele>180.0</ele><time>2026-04-19T07:22:59.743Z</time></trkpt><trkpt lat="44.8530178" lon="8.0736242"><ele>180.0</ele><time>2026-04-19T07:23:00.749Z</time></trkpt><trkpt lat="44.8531377" lon="8.0736303"><ele>180.0</ele><time>2026-04-19T07:23:01.737Z</time></trkpt><trkpt lat="44.8532658" lon="8.0736348"><ele>180.0</ele><time>2026-04-19T07:23:02.745Z</time></trkpt><trkpt lat="44.8533937" lon="8.073648"><ele>180.0</ele><time>2026-04-19T07:23:03.737Z</time></trkpt><trkpt lat="44.8535207" lon="8.0736621"><ele>181.25</ele><time>2026-04-19T07:23:04.74Z</time></trkpt><trkpt lat="44.85365" lon="8.0736755"><ele>182.5</ele><time>2026-04-19T07:23:05.742Z</time></trkpt><trkpt lat="44.8537813" lon="8.0736888"><ele>183.75</ele><time>2026-04-19T07:23:06.737Z</time></trkpt><trkpt lat="44.8539108" lon="8.0737179"><ele>185.0</ele><time>2026-04-19T07:23:07.742Z</time></trkpt><trkpt lat="44.8540438" lon="8.0737633"><ele>185.0</ele><time>2026-04-19T07:23:08.738Z</time></trkpt><trkpt lat="44.8541754" lon="8.0738348"><ele>185.0</ele><time>2026-04-19T07:23:09.743Z</time></trkpt><trkpt lat="44.8543023" lon="8.0739142"><ele>185.0</ele><time>2026-04-19T07:23:10.745Z</time></trkpt><trkpt lat="44.8544113" lon="8.0739906"><ele>185.0</ele><time>2026-04-19T07:23:11.735Z</time></trkpt><trkpt lat="44.8545208" lon="8.0740548"><ele>185.8</ele><time>2026-04-19T07:23:12.742Z</time></trkpt><trkpt lat="44.8546269" lon="8.0740922"><ele>186.6</ele><time>2026-04-19T07:23:13.737Z</time></trkpt><trkpt lat="44.8547164" lon="8.0740911"><ele>187.39999999999998</ele><time>2026-04-19T07:23:14.734Z</time></trkpt><trkpt lat="44.8548003" lon="8.0740477"><ele>188.2</ele><time>2026-04-19T07:23:15.747Z</time></trkpt><trkpt lat="44.8549001" lon="8.0739765"><ele>189.0</ele><time>2026-04-19T07:23:16.737Z</time></trkpt><trkpt lat="44.8549895" lon="8.0738644"><ele>189.0</ele><time>2026-04-19T07:23:17.733Z</time></trkpt><trkpt lat="44.855087" lon="8.0737415"><ele>189.0</ele><time>2026-04-19T07:23:18.73Z</time></trkpt><trkpt lat="44.8551795" lon="8.073607"><ele>189.0</ele><time>2026-04-19T07:23:19.735Z</time></trkpt><trkpt lat="44.8552607" lon="8.0734779"><ele>189.0</ele><time>2026-04-19T07:23:20.738Z</time></trkpt><trkpt lat="44.8553507" lon="8.0733618"><ele>189.6</ele><time>2026-04-19T07:23:21.73Z</time></trkpt><trkpt lat="44.8554441" lon="8.0732656"><ele>190.2</ele><time>2026-04-19T07:23:22.733Z</time></trkpt><trkpt lat="44.8555289" lon="8.0731858"><ele>190.79999999999998</ele><time>2026-04-19T07:23:23.732Z</time></trkpt><trkpt lat="44.855613" lon="8.073118"><ele>191.39999999999998</ele><time>2026-04-19T07:23:24.747Z</time></trkpt><trkpt lat="44.8557077" lon="8.0730833"><ele>192.0</ele><time>2026-04-19T07:23:25.738Z</time></trkpt><trkpt lat="44.8557963" lon="8.0730627"><ele>192.0</ele><time>2026-04-19T07:23:26.761Z</time></trkpt><trkpt lat="44.8558989" lon="8.0730609"><ele>192.0</ele><time>2026-04-19T07:23:27.746Z</time></trkpt><trkpt lat="44.8560095" lon="8.0731137"><ele>192.0</ele><time>2026-04-19T07:23:28.749Z</time></trkpt><trkpt lat="44.8561085" lon="8.0731772"><ele>192.0</ele><time>2026-04-19T07:23:29.747Z</time></trkpt><trkpt lat="44.8562042" lon="8.0732431"><ele>192.0</ele><time>2026-04-19T07:23:30.742Z</time></trkpt><trkpt lat="44.8563058" lon="8.0733097"><ele>191.0</ele><time>2026-04-19T07:23:31.743Z</time></trkpt><trkpt lat="44.8564094" lon="8.0733898"><ele>190.0</ele><time>2026-04-19T07:23:32.741Z</time></trkpt><trkpt lat="44.8565094" lon="8.0734805"><ele>189.0</ele><time>2026-04-19T07:23:33.745Z</time></trkpt><trkpt lat="44.856608" lon="8.0735916"><ele>188.0</ele><time>2026-04-19T07:23:34.742Z</time></trkpt><trkpt lat="44.8567039" lon="8.0737133"><ele>188.5</ele><time>2026-04-19T07:23:35.744Z</time></trkpt><trkpt lat="44.8568061" lon="8.0738219"><ele>189.0</ele><time>2026-04-19T07:23:36.741Z</time></trkpt><trkpt lat="44.8569143" lon="8.0739226"><ele>189.5</ele><time>2026-04-19T07:23:37.741Z</time></trkpt><trkpt lat="44.8570287" lon="8.0740157"><ele>190.0</ele><time>2026-04-19T07:23:38.742Z</time></trkpt><trkpt lat="44.8571484" lon="8.0740933"><ele>188.75</ele><time>2026-04-19T07:23:39.738Z</time></trkpt><trkpt lat="44.8572688" lon="8.0741583"><ele>187.5</ele><time>2026-04-19T07:23:40.739Z</time></trkpt><trkpt lat="44.8573918" lon="8.0742186"><ele>186.25</ele><time>2026-04-19T07:23:41.729Z</time></trkpt><trkpt lat="44.8575103" lon="8.0742783"><ele>185.0</ele><time>2026-04-19T07:23:42.728Z</time></trkpt><trkpt lat="44.8576314" lon="8.0743477"><ele>184.0</ele><time>2026-04-19T07:23:43.726Z</time></trkpt><trkpt lat="44.857749" lon="8.0744021"><ele>183.0</ele><time>2026-04-19T07:23:44.73Z</time></trkpt><trkpt lat="44.8578679" lon="8.0744573"><ele>182.0</ele><time>2026-04-19T07:23:45.729Z</time></trkpt><trkpt lat="44.8579855" lon="8.074523"><ele>181.0</ele><time>2026-04-19T07:23:46.734Z</time></trkpt><trkpt lat="44.8581043" lon="8.0745979"><ele>181.0</ele><time>2026-04-19T07:23:47.734Z</time></trkpt><trkpt lat="44.8582208" lon="8.0746733"><ele>181.0</ele><time>2026-04-19T07:23:48.73Z</time></trkpt><trkpt lat="44.8583431" lon="8.0747505"><ele>181.0</ele><time>2026-04-19T07:23:49.722Z</time></trkpt><trkpt lat="44.8584646" lon="8.0748203"><ele>181.0</ele><time>2026-04-19T07:23:50.731Z</time></trkpt><trkpt lat="44.8585943" lon="8.0748881"><ele>179.0</ele><time>2026-04-19T07:23:51.731Z</time></trkpt><trkpt lat="44.8587218" lon="8.074949"><ele>177.0</ele><time>2026-04-19T07:23:52.732Z</time></trkpt><trkpt lat="44.8588597" lon="8.0750159"><ele>175.0</ele><time>2026-04-19T07:23:53.731Z</time></trkpt><trkpt lat="44.8590012" lon="8.0750659"><ele>173.0</ele><time>2026-04-19T07:23:54.737Z</time></trkpt><trkpt lat="44.8591486" lon="8.0750955"><ele>172.25</ele><time>2026-04-19T07:23:55.742Z</time></trkpt><trkpt lat="44.8592908" lon="8.0751026"><ele>171.5</ele><time>2026-04-19T07:23:56.743Z</time></trkpt><trkpt lat="44.859433" lon="8.0751057"><ele>170.75</ele><time>2026-04-19T07:23:57.765Z</time></trkpt><trkpt lat="44.8595783" lon="8.0751237"><ele>170.0</ele><time>2026-04-19T07:23:58.739Z</time></trkpt><trkpt lat="44.8597251" lon="8.0751373"><ele>170.0</ele><time>2026-04-19T07:23:59.745Z</time></trkpt><trkpt lat="44.8598653" lon="8.0751538"><ele>170.0</ele><time>2026-04-19T07:24:00.737Z</time></trkpt><trkpt lat="44.8599953" lon="8.0751699"><ele>170.0</ele><time>2026-04-19T07:24:01.733Z</time></trkpt><trkpt lat="44.8601174" lon="8.075183"><ele>170.0</ele><time>2026-04-19T07:24:02.733Z</time></trkpt><trkpt lat="44.8602433" lon="8.0751852"><ele>170.25</ele><time>2026-04-19T07:24:03.733Z</time></trkpt><trkpt lat="44.8603674" lon="8.075183"><ele>170.5</ele><time>2026-04-19T07:24:04.734Z</time></trkpt><trkpt lat="44.8604865" lon="8.0751709"><ele>170.75</ele><time>2026-04-19T07:24:05.733Z</time></trkpt><trkpt lat="44.8606234" lon="8.0751671"><ele>171.0</ele><time>2026-04-19T07:24:06.72Z</time></trkpt><trkpt lat="44.8607591" lon="8.0751465"><ele>171.0</ele><time>2026-04-19T07:24:07.728Z</time></trkpt><trkpt lat="44.8609077" lon="8.0751249"><ele>171.0</ele><time>2026-04-19T07:24:08.726Z</time></trkpt><trkpt lat="44.8610604" lon="8.0750778"><ele>171.0</ele><time>2026-04-19T07:24:09.712Z</time></trkpt><trkpt lat="44.8611776" lon="8.0750282"><ele>171.0</ele><time>2026-04-19T07:24:10.729Z</time></trkpt><trkpt lat="44.8612947" lon="8.0749589"><ele>172.5</ele><time>2026-04-19T07:24:11.713Z</time></trkpt><trkpt lat="44.8614141" lon="8.0748988"><ele>174.0</ele><time>2026-04-19T07:24:12.736Z</time></trkpt><trkpt lat="44.8615301" lon="8.0748338"><ele>175.5</ele><time>2026-04-19T07:24:13.725Z</time></trkpt><trkpt lat="44.8616384" lon="8.0747692"><ele>177.0</ele><time>2026-04-19T07:24:14.73Z</time></trkpt><trkpt lat="44.8617416" lon="8.0747026"><ele>178.33333333333334</ele><time>2026-04-19T07:24:15.734Z</time></trkpt><trkpt lat="44.8618226" lon="8.0746385"><ele>179.66666666666666</ele><time>2026-04-19T07:24:16.72Z</time></trkpt><trkpt lat="44.8618686" lon="8.0745767"><ele>181.0</ele><time>2026-04-19T07:24:17.733Z</time></trkpt><trkpt lat="44.8619376" lon="8.0745919"><ele>182.33333333333331</ele><time>2026-04-19T07:24:25.734Z</time></trkpt><trkpt lat="44.8619867" lon="8.0746676"><ele>183.66666666666666</ele><time>2026-04-19T07:24:27.731Z</time></trkpt><trkpt lat="44.8620313" lon="8.0747579"><ele>185.0</ele><time>2026-04-19T07:24:29.741Z</time></trkpt><trkpt lat="44.8620772" lon="8.0748638"><ele>186.2</ele><time>2026-04-19T07:24:31.727Z</time></trkpt><trkpt lat="44.8621449" lon="8.0749634"><ele>187.4</ele><time>2026-04-19T07:24:33.72Z</time></trkpt><trkpt lat="44.8622484" lon="8.0750056"><ele>188.60000000000002</ele><time>2026-04-19T07:24:35.73Z</time></trkpt><trkpt lat="44.8623476" lon="8.0749924"><ele>189.8</ele><time>2026-04-19T07:24:37.725Z</time></trkpt><trkpt lat="44.8624326" lon="8.0749928"><ele>191.0</ele><time>2026-04-19T07:24:39.728Z</time></trkpt><trkpt lat="44.8624173" lon="8.0751258"><ele>191.0</ele><time>2026-04-19T07:24:44.74Z</time></trkpt><trkpt lat="44.8623548" lon="8.0751957"><ele>191.0</ele><time>2026-04-19T07:24:45.74Z</time></trkpt><trkpt lat="44.8622885" lon="8.075273"><ele>191.0</ele><time>2026-04-19T07:24:46.741Z</time></trkpt><trkpt lat="44.8622208" lon="8.0753529"><ele>191.0</ele><time>2026-04-19T07:24:47.745Z</time></trkpt><trkpt lat="44.8621665" lon="8.0754206"><ele>191.0</ele><time>2026-04-19T07:24:48.739Z</time></trkpt><trkpt lat="44.862121" lon="8.0754952"><ele>191.0</ele><time>2026-04-19T07:24:49.753Z</time></trkpt><trkpt lat="44.8620834" lon="8.0755873"><ele>191.0</ele><time>2026-04-19T07:24:50.746Z</time></trkpt><trkpt lat="44.8620421" lon="8.0756874"><ele>191.0</ele><time>2026-04-19T07:24:51.75Z</time></trkpt><trkpt lat="44.8620008" lon="8.0757899"><ele>191.0</ele><time>2026-04-19T07:24:52.748Z</time></trkpt><trkpt lat="44.8619671" lon="8.0758846"><ele>191.0</ele><time>2026-04-19T07:24:53.746Z</time></trkpt><trkpt lat="44.8619341" lon="8.075968"><ele>191.0</ele><time>2026-04-19T07:24:54.755Z</time></trkpt><trkpt lat="44.8619083" lon="8.0760734"><ele>191.0</ele><time>2026-04-19T07:24:56.757Z</time></trkpt><trkpt lat="44.861988" lon="8.0761688"><ele>191.33333333333331</ele><time>2026-04-19T07:24:59.746Z</time></trkpt><trkpt lat="44.8620498" lon="8.0761965"><ele>191.66666666666666</ele><time>2026-04-19T07:25:00.751Z</time></trkpt><trkpt lat="44.8621188" lon="8.0762374"><ele>192.0</ele><time>2026-04-19T07:25:01.741Z</time></trkpt><trkpt lat="44.8622034" lon="8.0762851"><ele>192.33333333333331</ele><time>2026-04-19T07:25:02.758Z</time></trkpt><trkpt lat="44.8622925" lon="8.0763233"><ele>192.66666666666666</ele><time>2026-04-19T07:25:03.745Z</time></trkpt><trkpt lat="44.8623741" lon="8.0763727"><ele>193.0</ele><time>2026-04-19T07:25:04.743Z</time></trkpt><trkpt lat="44.8624352" lon="8.0764141"><ele>193.0</ele><time>2026-04-19T07:25:05.75Z</time></trkpt><trkpt lat="44.8624893" lon="8.076515"><ele>193.0</ele><time>2026-04-19T07:25:07.755Z</time></trkpt><trkpt lat="44.8624899" lon="8.0766108"><ele>193.0</ele><time>2026-04-19T07:25:08.756Z</time></trkpt><trkpt lat="44.8624734" lon="8.0767247"><ele>193.0</ele><time>2026-04-19T07:25:09.753Z</time></trkpt><trkpt lat="44.8624356" lon="8.0768691"><ele>193.0</ele><time>2026-04-19T07:25:10.755Z</time></trkpt><trkpt lat="44.8623843" lon="8.0770286"><ele>192.8</ele><time>2026-04-19T07:25:11.751Z</time></trkpt><trkpt lat="44.8623503" lon="8.0771777"><ele>192.60000000000002</ele><time>2026-04-19T07:25:12.738Z</time></trkpt><trkpt lat="44.8623208" lon="8.0773226"><ele>192.39999999999998</ele><time>2026-04-19T07:25:13.741Z</time></trkpt><trkpt lat="44.8622807" lon="8.077458"><ele>192.2</ele><time>2026-04-19T07:25:14.75Z</time></trkpt><trkpt lat="44.8622909" lon="8.0775603"><ele>192.0</ele><time>2026-04-19T07:25:15.749Z</time></trkpt><trkpt lat="44.8623284" lon="8.0776542"><ele>192.0</ele><time>2026-04-19T07:25:16.751Z</time></trkpt><trkpt lat="44.8623701" lon="8.077759"><ele>192.0</ele><time>2026-04-19T07:25:17.747Z</time></trkpt><trkpt lat="44.8623976" lon="8.0778714"><ele>192.0</ele><time>2026-04-19T07:25:18.754Z</time></trkpt><trkpt lat="44.8623971" lon="8.077989"><ele>192.0</ele><time>2026-04-19T07:25:19.749Z</time></trkpt><trkpt lat="44.862375" lon="8.078129"><ele>192.0</ele><time>2026-04-19T07:25:20.757Z</time></trkpt><trkpt lat="44.8623404" lon="8.0782858"><ele>192.0</ele><time>2026-04-19T07:25:21.754Z</time></trkpt><trkpt lat="44.8623048" lon="8.0784519"><ele>192.0</ele><time>2026-04-19T07:25:22.749Z</time></trkpt><trkpt lat="44.8622717" lon="8.0786212"><ele>192.0</ele><time>2026-04-19T07:25:23.754Z</time></trkpt><trkpt lat="44.8622357" lon="8.0787843"><ele>192.0</ele><time>2026-04-19T07:25:24.752Z</time></trkpt><trkpt lat="44.8622044" lon="8.0789437"><ele>192.0</ele><time>2026-04-19T07:25:25.752Z</time></trkpt><trkpt lat="44.8621732" lon="8.0790893"><ele>192.0</ele><time>2026-04-19T07:25:26.753Z</time></trkpt><trkpt lat="44.862147" lon="8.0792314"><ele>192.0</ele><time>2026-04-19T07:25:27.75Z</time></trkpt><trkpt lat="44.8621198" lon="8.0793706"><ele>192.0</ele><time>2026-04-19T07:25:28.756Z</time></trkpt><trkpt lat="44.8620891" lon="8.0795135"><ele>192.0</ele><time>2026-04-19T07:25:29.776Z</time></trkpt><trkpt lat="44.8620621" lon="8.0796598"><ele>191.5</ele><time>2026-04-19T07:25:30.757Z</time></trkpt><trkpt lat="44.8620297" lon="8.079806"><ele>191.0</ele><time>2026-04-19T07:25:31.753Z</time></trkpt><trkpt lat="44.8619938" lon="8.079953"><ele>190.5</ele><time>2026-04-19T07:25:32.754Z</time></trkpt><trkpt lat="44.8619547" lon="8.0801133"><ele>190.0</ele><time>2026-04-19T07:25:33.754Z</time></trkpt><trkpt lat="44.8619169" lon="8.0802764"><ele>189.75</ele><time>2026-04-19T07:25:34.758Z</time></trkpt><trkpt lat="44.8618832" lon="8.0804377"><ele>189.5</ele><time>2026-04-19T07:25:35.756Z</time></trkpt><trkpt lat="44.8618478" lon="8.0805939"><ele>189.25</ele><time>2026-04-19T07:25:36.756Z</time></trkpt><trkpt lat="44.8618122" lon="8.0807472"><ele>189.0</ele><time>2026-04-19T07:25:37.754Z</time></trkpt><trkpt lat="44.8617892" lon="8.080896"><ele>189.6</ele><time>2026-04-19T07:25:38.752Z</time></trkpt><trkpt lat="44.8617728" lon="8.0810346"><ele>190.2</ele><time>2026-04-19T07:25:39.745Z</time></trkpt><trkpt lat="44.8617578" lon="8.0811714"><ele>190.79999999999998</ele><time>2026-04-19T07:25:40.742Z</time></trkpt><trkpt lat="44.8617412" lon="8.0813009"><ele>191.39999999999998</ele><time>2026-04-19T07:25:41.758Z</time></trkpt><trkpt lat="44.8617345" lon="8.0814331"><ele>192.0</ele><time>2026-04-19T07:25:42.75Z</time></trkpt><trkpt lat="44.8617304" lon="8.0815642"><ele>191.83333333333334</ele><time>2026-04-19T07:25:43.756Z</time></trkpt><trkpt lat="44.8617331" lon="8.0816946"><ele>191.66666666666666</ele><time>2026-04-19T07:25:44.759Z</time></trkpt><trkpt lat="44.8617458" lon="8.0818235"><ele>191.5</ele><time>2026-04-19T07:25:45.753Z</time></trkpt><trkpt lat="44.8617485" lon="8.0819525"><ele>191.33333333333331</ele><time>2026-04-19T07:25:46.748Z</time></trkpt><trkpt lat="44.8617507" lon="8.0820739"><ele>191.16666666666666</ele><time>2026-04-19T07:25:47.75Z</time></trkpt><trkpt lat="44.8617561" lon="8.082191"><ele>191.0</ele><time>2026-04-19T07:25:48.756Z</time></trkpt><trkpt lat="44.8617717" lon="8.0822896"><ele>191.0</ele><time>2026-04-19T07:25:49.74Z</time></trkpt><trkpt lat="44.8617908" lon="8.0824465"><ele>191.0</ele><time>2026-04-19T07:25:51.74Z</time></trkpt><trkpt lat="44.8617879" lon="8.0825459"><ele>191.0</ele><time>2026-04-19T07:25:53.755Z</time></trkpt><trkpt lat="44.8617744" lon="8.0826389"><ele>191.0</ele><time>2026-04-19T07:25:56.742Z</time></trkpt><trkpt lat="44.8617547" lon="8.0827476"><ele>191.0</ele><time>2026-04-19T07:25:59.752Z</time></trkpt><trkpt lat="44.8618174" lon="8.0828083"><ele>191.0</ele><time>2026-04-19T07:26:01.752Z</time></trkpt><trkpt lat="44.8619318" lon="8.082898"><ele>191.0</ele><time>2026-04-19T07:26:03.749Z</time></trkpt><trkpt lat="44.8619886" lon="8.0829633"><ele>191.0</ele><time>2026-04-19T07:26:04.75Z</time></trkpt><trkpt lat="44.8620483" lon="8.083034"><ele>191.0</ele><time>2026-04-19T07:26:05.739Z</time></trkpt><trkpt lat="44.8620976" lon="8.0831235"><ele>191.0</ele><time>2026-04-19T07:26:06.741Z</time></trkpt><trkpt lat="44.8621508" lon="8.083232"><ele>191.0</ele><time>2026-04-19T07:26:07.742Z</time></trkpt><trkpt lat="44.862201" lon="8.0833394"><ele>191.0</ele><time>2026-04-19T07:26:08.756Z</time></trkpt><trkpt lat="44.8622512" lon="8.0834337"><ele>190.66666666666666</ele><time>2026-04-19T07:26:09.754Z</time></trkpt><trkpt lat="44.8623344" lon="8.0835098"><ele>190.33333333333331</ele><time>2026-04-19T07:26:10.747Z</time></trkpt><trkpt lat="44.8624283" lon="8.0835893"><ele>190.0</ele><time>2026-04-19T07:26:11.738Z</time></trkpt><trkpt lat="44.8624927" lon="8.0836644"><ele>189.66666666666666</ele><time>2026-04-19T07:26:12.749Z</time></trkpt><trkpt lat="44.8625402" lon="8.0837309"><ele>189.33333333333334</ele><time>2026-04-19T07:26:13.737Z</time></trkpt><trkpt lat="44.8625862" lon="8.0837999"><ele>189.0</ele><time>2026-04-19T07:26:14.743Z</time></trkpt><trkpt lat="44.8625788" lon="8.0840002"><ele>188.39999999999998</ele><time>2026-04-19T07:26:16.739Z</time></trkpt><trkpt lat="44.8625363" lon="8.0841413"><ele>187.8</ele><time>2026-04-19T07:26:17.735Z</time></trkpt><trkpt lat="44.8624757" lon="8.0842764"><ele>187.2</ele><time>2026-04-19T07:26:18.736Z</time></trkpt><trkpt lat="44.8624202" lon="8.0843875"><ele>186.60000000000002</ele><time>2026-04-19T07:26:19.736Z</time></trkpt><trkpt lat="44.8623516" lon="8.0844816"><ele>186.0</ele><time>2026-04-19T07:26:20.741Z</time></trkpt><trkpt lat="44.8622694" lon="8.0845757"><ele>186.0</ele><time>2026-04-19T07:26:21.743Z</time></trkpt><trkpt lat="44.8621737" lon="8.0846532"><ele>186.0</ele><time>2026-04-19T07:26:22.745Z</time></trkpt><trkpt lat="44.8620833" lon="8.0847248"><ele>186.0</ele><time>2026-04-19T07:26:23.745Z</time></trkpt><trkpt lat="44.8619923" lon="8.0848204"><ele>186.0</ele><time>2026-04-19T07:26:24.749Z</time></trkpt><trkpt lat="44.8619036" lon="8.084946"><ele>185.25</ele><time>2026-04-19T07:26:25.75Z</time></trkpt><trkpt lat="44.8618195" lon="8.0850905"><ele>184.5</ele><time>2026-04-19T07:26:26.743Z</time></trkpt><trkpt lat="44.8617378" lon="8.0852338"><ele>183.75</ele><time>2026-04-19T07:26:27.747Z</time></trkpt><trkpt lat="44.8616583" lon="8.0853877"><ele>183.0</ele><time>2026-04-19T07:26:28.75Z</time></trkpt><trkpt lat="44.8615814" lon="8.0855333"><ele>181.5</ele><time>2026-04-19T07:26:29.75Z</time></trkpt><trkpt lat="44.8615055" lon="8.0856771"><ele>180.0</ele><time>2026-04-19T07:26:30.757Z</time></trkpt><trkpt lat="44.8614243" lon="8.0858162"><ele>178.5</ele><time>2026-04-19T07:26:31.771Z</time></trkpt><trkpt lat="44.861347" lon="8.0859628"><ele>177.0</ele><time>2026-04-19T07:26:32.75Z</time></trkpt><trkpt lat="44.8612668" lon="8.0861105"><ele>176.5</ele><time>2026-04-19T07:26:33.75Z</time></trkpt><trkpt lat="44.8611915" lon="8.0862593"><ele>176.0</ele><time>2026-04-19T07:26:34.75Z</time></trkpt><trkpt lat="44.8611099" lon="8.0864064"><ele>175.5</ele><time>2026-04-19T07:26:35.754Z</time></trkpt><trkpt lat="44.8610317" lon="8.0865562"><ele>175.0</ele><time>2026-04-19T07:26:36.753Z</time></trkpt><trkpt lat="44.8609623" lon="8.0866974"><ele>174.66666666666669</ele><time>2026-04-19T07:26:37.75Z</time></trkpt><trkpt lat="44.8608914" lon="8.0868243"><ele>174.33333333333334</ele><time>2026-04-19T07:26:38.753Z</time></trkpt><trkpt lat="44.8608318" lon="8.0869199"><ele>174.0</ele><time>2026-04-19T07:26:39.752Z</time></trkpt><trkpt lat="44.8607925" lon="8.0869996"><ele>173.66666666666666</ele><time>2026-04-19T07:26:40.756Z</time></trkpt><trkpt lat="44.8607586" lon="8.0870889"><ele>173.33333333333331</ele><time>2026-04-19T07:26:42.757Z</time></trkpt><trkpt lat="44.8608257" lon="8.0871356"><ele>173.0</ele><time>2026-04-19T07:26:45.758Z</time></trkpt><trkpt lat="44.8609609" lon="8.0871078"><ele>172.75</ele><time>2026-04-19T07:26:47.755Z</time></trkpt><trkpt lat="44.8610612" lon="8.0871013"><ele>172.5</ele><time>2026-04-19T07:26:48.752Z</time></trkpt><trkpt lat="44.8611718" lon="8.0870992"><ele>172.25</ele><time>2026-04-19T07:26:49.749Z</time></trkpt><trkpt lat="44.8612898" lon="8.0871095"><ele>172.0</ele><time>2026-04-19T07:26:50.757Z</time></trkpt><trkpt lat="44.8614188" lon="8.0871312"><ele>172.0</ele><time>2026-04-19T07:26:51.75Z</time></trkpt><trkpt lat="44.8615356" lon="8.0871649"><ele>172.0</ele><time>2026-04-19T07:26:52.751Z</time></trkpt><trkpt lat="44.8616583" lon="8.0872036"><ele>172.0</ele><time>2026-04-19T07:26:53.753Z</time></trkpt><trkpt lat="44.8617756" lon="8.0872547"><ele>172.0</ele><time>2026-04-19T07:26:54.751Z</time></trkpt><trkpt lat="44.8618846" lon="8.0873039"><ele>171.8</ele><time>2026-04-19T07:26:55.751Z</time></trkpt><trkpt lat="44.8619845" lon="8.0873584"><ele>171.6</ele><time>2026-04-19T07:26:56.75Z</time></trkpt><trkpt lat="44.862079" lon="8.0874128"><ele>171.4</ele><time>2026-04-19T07:26:57.744Z</time></trkpt><trkpt lat="44.8621708" lon="8.0874562"><ele>171.20000000000002</ele><time>2026-04-19T07:26:58.75Z</time></trkpt><trkpt lat="44.8622604" lon="8.0874967"><ele>171.0</ele><time>2026-04-19T07:26:59.752Z</time></trkpt><trkpt lat="44.8623546" lon="8.0875328"><ele>171.0</ele><time>2026-04-19T07:27:00.735Z</time></trkpt><trkpt lat="44.8624501" lon="8.0875672"><ele>171.0</ele><time>2026-04-19T07:27:01.74Z</time></trkpt><trkpt lat="44.8625548" lon="8.0876079"><ele>171.0</ele><time>2026-04-19T07:27:02.757Z</time></trkpt><trkpt lat="44.8626641" lon="8.0876445"><ele>171.0</ele><time>2026-04-19T07:27:03.728Z</time></trkpt><trkpt lat="44.8627817" lon="8.0876837"><ele>171.0</ele><time>2026-04-19T07:27:04.744Z</time></trkpt><trkpt lat="44.8629046" lon="8.0877235"><ele>171.8</ele><time>2026-04-19T07:27:05.742Z</time></trkpt><trkpt lat="44.8630158" lon="8.0877595"><ele>172.60000000000002</ele><time>2026-04-19T07:27:06.732Z</time></trkpt><trkpt lat="44.8631244" lon="8.0877974"><ele>173.4</ele><time>2026-04-19T07:27:07.743Z</time></trkpt><trkpt lat="44.8632272" lon="8.0878311"><ele>174.2</ele><time>2026-04-19T07:27:08.751Z</time></trkpt><trkpt lat="44.863339" lon="8.0878624"><ele>175.0</ele><time>2026-04-19T07:27:09.744Z</time></trkpt><trkpt lat="44.8634525" lon="8.0878878"><ele>175.0</ele><time>2026-04-19T07:27:10.742Z</time></trkpt><trkpt lat="44.8635689" lon="8.0879031"><ele>175.0</ele><time>2026-04-19T07:27:11.752Z</time></trkpt><trkpt lat="44.8636752" lon="8.0879158"><ele>175.0</ele><time>2026-04-19T07:27:12.749Z</time></trkpt><trkpt lat="44.8637797" lon="8.0879287"><ele>175.0</ele><time>2026-04-19T07:27:13.747Z</time></trkpt><trkpt lat="44.8638711" lon="8.08794"><ele>175.0</ele><time>2026-04-19T07:27:14.743Z</time></trkpt><trkpt lat="44.8639454" lon="8.0879491"><ele>175.0</ele><time>2026-04-19T07:27:15.753Z</time></trkpt><trkpt lat="44.8640373" lon="8.0879541"><ele>175.0</ele><time>2026-04-19T07:27:17.75Z</time></trkpt><trkpt lat="44.8640739" lon="8.0880317"><ele>175.0</ele><time>2026-04-19T07:27:19.757Z</time></trkpt><trkpt lat="44.864061" lon="8.0882252"><ele>175.0</ele><time>2026-04-19T07:27:21.751Z</time></trkpt><trkpt lat="44.8640406" lon="8.0883649"><ele>175.0</ele><time>2026-04-19T07:27:22.755Z</time></trkpt><trkpt lat="44.8640206" lon="8.0885364"><ele>174.8</ele><time>2026-04-19T07:27:23.753Z</time></trkpt><trkpt lat="44.8640092" lon="8.0887225"><ele>174.6</ele><time>2026-04-19T07:27:24.746Z</time></trkpt><trkpt lat="44.8639968" lon="8.0888889"><ele>174.39999999999998</ele><time>2026-04-19T07:27:25.743Z</time></trkpt><trkpt lat="44.8639781" lon="8.089037"><ele>174.2</ele><time>2026-04-19T07:27:26.74Z</time></trkpt><trkpt lat="44.863958" lon="8.0891546"><ele>174.0</ele><time>2026-04-19T07:27:27.755Z</time></trkpt><trkpt lat="44.8639386" lon="8.0892427"><ele>174.0</ele><time>2026-04-19T07:27:28.754Z</time></trkpt><trkpt lat="44.8640154" lon="8.0892343"><ele>174.0</ele><time>2026-04-19T07:27:32.751Z</time></trkpt><trkpt lat="44.8640746" lon="8.0891425"><ele>174.0</ele><time>2026-04-19T07:27:33.768Z</time></trkpt><trkpt lat="44.8641553" lon="8.0890364"><ele>174.0</ele><time>2026-04-19T07:27:34.744Z</time></trkpt><trkpt lat="44.8642535" lon="8.088915"><ele>174.0</ele><time>2026-04-19T07:27:35.745Z</time></trkpt><trkpt lat="44.8643417" lon="8.0888071"><ele>174.0</ele><time>2026-04-19T07:27:36.745Z</time></trkpt><trkpt lat="44.864417" lon="8.0887402"><ele>174.0</ele><time>2026-04-19T07:27:37.749Z</time></trkpt><trkpt lat="44.8644865" lon="8.0887186"><ele>174.0</ele><time>2026-04-19T07:27:38.754Z</time></trkpt><trkpt lat="44.8645508" lon="8.0887517"><ele>174.0</ele><time>2026-04-19T07:27:39.75Z</time></trkpt><trkpt lat="44.8646229" lon="8.0888159"><ele>174.0</ele><time>2026-04-19T07:27:40.735Z</time></trkpt><trkpt lat="44.8647134" lon="8.0889168"><ele>174.0</ele><time>2026-04-19T07:27:41.743Z</time></trkpt><trkpt lat="44.8648125" lon="8.0890293"><ele>173.75</ele><time>2026-04-19T07:27:42.748Z</time></trkpt><trkpt lat="44.8649277" lon="8.0891693"><ele>173.5</ele><time>2026-04-19T07:27:43.746Z</time></trkpt><trkpt lat="44.8650451" lon="8.0893044"><ele>173.25</ele><time>2026-04-19T07:27:44.745Z</time></trkpt><trkpt lat="44.8651489" lon="8.0894197"><ele>173.0</ele><time>2026-04-19T07:27:45.742Z</time></trkpt><trkpt lat="44.8652453" lon="8.0895151"><ele>173.75</ele><time>2026-04-19T07:27:46.746Z</time></trkpt><trkpt lat="44.8653409" lon="8.0896141"><ele>174.5</ele><time>2026-04-19T07:27:47.747Z</time></trkpt><trkpt lat="44.8654481" lon="8.0896969"><ele>175.25</ele><time>2026-04-19T07:27:48.744Z</time></trkpt><trkpt lat="44.865557" lon="8.0897977"><ele>176.0</ele><time>2026-04-19T07:27:49.75Z</time></trkpt><trkpt lat="44.8656529" lon="8.0899107"><ele>175.4</ele><time>2026-04-19T07:27:50.749Z</time></trkpt><trkpt lat="44.8657488" lon="8.0900081"><ele>174.8</ele><time>2026-04-19T07:27:51.748Z</time></trkpt><trkpt lat="44.8658394" lon="8.0900954"><ele>174.20000000000002</ele><time>2026-04-19T07:27:52.752Z</time></trkpt><trkpt lat="44.8659284" lon="8.0901774"><ele>173.60000000000002</ele><time>2026-04-19T07:27:53.747Z</time></trkpt><trkpt lat="44.8660152" lon="8.0902815"><ele>173.0</ele><time>2026-04-19T07:27:54.749Z</time></trkpt><trkpt lat="44.866112" lon="8.0903904"><ele>173.0</ele><time>2026-04-19T07:27:55.741Z</time></trkpt><trkpt lat="44.8662065" lon="8.0904922"><ele>173.0</ele><time>2026-04-19T07:27:56.753Z</time></trkpt><trkpt lat="44.8662939" lon="8.0905881"><ele>173.0</ele><time>2026-04-19T07:27:57.749Z</time></trkpt><trkpt lat="44.866377" lon="8.0906776"><ele>173.0</ele><time>2026-04-19T07:27:58.746Z</time></trkpt><trkpt lat="44.866462" lon="8.0907576"><ele>173.0</ele><time>2026-04-19T07:27:59.755Z</time></trkpt><trkpt lat="44.8665449" lon="8.0908138"><ele>172.5</ele><time>2026-04-19T07:28:00.755Z</time></trkpt><trkpt lat="44.8666419" lon="8.0908435"><ele>172.0</ele><time>2026-04-19T07:28:01.746Z</time></trkpt><trkpt lat="44.8667593" lon="8.0908768"><ele>171.5</ele><time>2026-04-19T07:28:02.743Z</time></trkpt><trkpt lat="44.8668866" lon="8.0909169"><ele>171.0</ele><time>2026-04-19T07:28:03.747Z</time></trkpt><trkpt lat="44.8670138" lon="8.0909593"><ele>172.0</ele><time>2026-04-19T07:28:04.77Z</time></trkpt><trkpt lat="44.8671388" lon="8.0909964"><ele>173.0</ele><time>2026-04-19T07:28:05.752Z</time></trkpt><trkpt lat="44.8672554" lon="8.0910358"><ele>174.0</ele><time>2026-04-19T07:28:06.749Z</time></trkpt><trkpt lat="44.8673642" lon="8.0910735"><ele>175.0</ele><time>2026-04-19T07:28:07.743Z</time></trkpt><trkpt lat="44.8674662" lon="8.091103"><ele>175.0</ele><time>2026-04-19T07:28:08.743Z</time></trkpt><trkpt lat="44.8675486" lon="8.0911107"><ele>175.0</ele><time>2026-04-19T07:28:09.745Z</time></trkpt><trkpt lat="44.8676344" lon="8.0911074"><ele>175.0</ele><time>2026-04-19T07:28:11.731Z</time></trkpt><trkpt lat="44.8676998" lon="8.0911034"><ele>175.0</ele><time>2026-04-19T07:28:13.733Z</time></trkpt><trkpt lat="44.8677957" lon="8.0911501"><ele>175.0</ele><time>2026-04-19T07:28:16.733Z</time></trkpt><trkpt lat="44.8678702" lon="8.0912918"><ele>173.83333333333334</ele><time>2026-04-19T07:28:18.737Z</time></trkpt><trkpt lat="44.8679049" lon="8.0914132"><ele>172.66666666666669</ele><time>2026-04-19T07:28:19.733Z</time></trkpt><trkpt lat="44.8679493" lon="8.0915258"><ele>171.5</ele><time>2026-04-19T07:28:20.739Z</time></trkpt><trkpt lat="44.8679965" lon="8.0916303"><ele>170.33333333333334</ele><time>2026-04-19T07:28:21.741Z</time></trkpt><trkpt lat="44.8680566" lon="8.0917211"><ele>169.16666666666666</ele><time>2026-04-19T07:28:22.739Z</time></trkpt><trkpt lat="44.8681224" lon="8.0918049"><ele>168.0</ele><time>2026-04-19T07:28:23.743Z</time></trkpt><trkpt lat="44.868189" lon="8.0918755"><ele>168.0</ele><time>2026-04-19T07:28:24.74Z</time></trkpt><trkpt lat="44.868257" lon="8.0919036"><ele>168.0</ele><time>2026-04-19T07:28:25.726Z</time></trkpt><trkpt lat="44.8683328" lon="8.0919321"><ele>168.0</ele><time>2026-04-19T07:28:26.727Z</time></trkpt><trkpt lat="44.8684106" lon="8.0919739"><ele>168.0</ele><time>2026-04-19T07:28:27.729Z</time></trkpt><trkpt lat="44.868494" lon="8.0920184"><ele>168.0</ele><time>2026-04-19T07:28:28.726Z</time></trkpt><trkpt lat="44.8685851" lon="8.0920521"><ele>168.0</ele><time>2026-04-19T07:28:29.726Z</time></trkpt><trkpt lat="44.8686751" lon="8.0920873"><ele>166.5</ele><time>2026-04-19T07:28:30.73Z</time></trkpt><trkpt lat="44.8687496" lon="8.0921459"><ele>165.0</ele><time>2026-04-19T07:28:31.722Z</time></trkpt><trkpt lat="44.8688301" lon="8.092213"><ele>163.5</ele><time>2026-04-19T07:28:32.727Z</time></trkpt><trkpt lat="44.8689085" lon="8.0922845"><ele>162.0</ele><time>2026-04-19T07:28:33.729Z</time></trkpt><trkpt lat="44.8689786" lon="8.0923533"><ele>160.5</ele><time>2026-04-19T07:28:34.73Z</time></trkpt><trkpt lat="44.8690524" lon="8.0924262"><ele>159.0</ele><time>2026-04-19T07:28:36.73Z</time></trkpt><trkpt lat="44.8691254" lon="8.0924081"><ele>159.0</ele><time>2026-04-19T07:28:38.747Z</time></trkpt><trkpt lat="44.8691782" lon="8.0923429"><ele>159.0</ele><time>2026-04-19T07:28:39.738Z</time></trkpt><trkpt lat="44.8692492" lon="8.0922702"><ele>159.0</ele><time>2026-04-19T07:28:40.746Z</time></trkpt><trkpt lat="44.8693323" lon="8.0922111"><ele>159.0</ele><time>2026-04-19T07:28:41.755Z</time></trkpt><trkpt lat="44.8694572" lon="8.0921533"><ele>159.0</ele><time>2026-04-19T07:28:42.747Z</time></trkpt><trkpt lat="44.8696072" lon="8.0921054"><ele>159.0</ele><time>2026-04-19T07:28:43.744Z</time></trkpt><trkpt lat="44.8697502" lon="8.0920421"><ele>159.0</ele><time>2026-04-19T07:28:44.759Z</time></trkpt><trkpt lat="44.8698811" lon="8.0919772"><ele>159.0</ele><time>2026-04-19T07:28:45.752Z</time></trkpt><trkpt lat="44.8700155" lon="8.0919039"><ele>159.0</ele><time>2026-04-19T07:28:46.756Z</time></trkpt><trkpt lat="44.8701293" lon="8.0918192"><ele>160.5</ele><time>2026-04-19T07:28:47.757Z</time></trkpt><trkpt lat="44.8702651" lon="8.0917653"><ele>162.0</ele><time>2026-04-19T07:28:48.754Z</time></trkpt><trkpt lat="44.8703997" lon="8.0917182"><ele>163.5</ele><time>2026-04-19T07:28:49.752Z</time></trkpt><trkpt lat="44.8705299" lon="8.0916799"><ele>165.0</ele><time>2026-04-19T07:28:50.751Z</time></trkpt><trkpt lat="44.8706638" lon="8.0916348"><ele>165.6</ele><time>2026-04-19T07:28:51.748Z</time></trkpt><trkpt lat="44.8707741" lon="8.0915823"><ele>166.2</ele><time>2026-04-19T07:28:52.752Z</time></trkpt><trkpt lat="44.8708693" lon="8.0915358"><ele>166.8</ele><time>2026-04-19T07:28:53.749Z</time></trkpt><trkpt lat="44.8709598" lon="8.0914941"><ele>167.4</ele><time>2026-04-19T07:28:54.74Z</time></trkpt><trkpt lat="44.8710327" lon="8.0914681"><ele>168.0</ele><time>2026-04-19T07:28:55.741Z</time></trkpt><trkpt lat="44.8711435" lon="8.0914723"><ele>168.0</ele><time>2026-04-19T07:28:57.739Z</time></trkpt><trkpt lat="44.871208" lon="8.0914876"><ele>168.0</ele><time>2026-04-19T07:28:58.746Z</time></trkpt><trkpt lat="44.8713248" lon="8.0914879"><ele>168.0</ele><time>2026-04-19T07:29:00.742Z</time></trkpt><trkpt lat="44.8713896" lon="8.091491"><ele>168.0</ele><time>2026-04-19T07:29:01.741Z</time></trkpt><trkpt lat="44.8714529" lon="8.0914905"><ele>168.0</ele><time>2026-04-19T07:29:02.745Z</time></trkpt><trkpt lat="44.8715144" lon="8.0914694"><ele>168.0</ele><time>2026-04-19T07:29:03.737Z</time></trkpt><trkpt lat="44.8716171" lon="8.0915163"><ele>168.0</ele><time>2026-04-19T07:29:05.736Z</time></trkpt><trkpt lat="44.871668" lon="8.0915819"><ele>168.0</ele><time>2026-04-19T07:29:06.754Z</time></trkpt><trkpt lat="44.8717299" lon="8.0917076"><ele>168.0</ele><time>2026-04-19T07:29:07.741Z</time></trkpt><trkpt lat="44.8718095" lon="8.0918681"><ele>168.0</ele><time>2026-04-19T07:29:08.733Z</time></trkpt><trkpt lat="44.8718893" lon="8.0920088"><ele>168.0</ele><time>2026-04-19T07:29:09.737Z</time></trkpt><trkpt lat="44.8719688" lon="8.092138"><ele>167.8</ele><time>2026-04-19T07:29:10.736Z</time></trkpt><trkpt lat="44.8720486" lon="8.0922556"><ele>167.60000000000002</ele><time>2026-04-19T07:29:11.744Z</time></trkpt><trkpt lat="44.8721394" lon="8.092315"><ele>167.39999999999998</ele><time>2026-04-19T07:29:12.747Z</time></trkpt><trkpt lat="44.8722184" lon="8.0923264"><ele>167.2</ele><time>2026-04-19T07:29:13.751Z</time></trkpt><trkpt lat="44.8723028" lon="8.0923124"><ele>167.0</ele><time>2026-04-19T07:29:14.75Z</time></trkpt><trkpt lat="44.8724028" lon="8.0922618"><ele>167.0</ele><time>2026-04-19T07:29:15.735Z</time></trkpt><trkpt lat="44.8725151" lon="8.0922132"><ele>167.0</ele><time>2026-04-19T07:29:16.739Z</time></trkpt><trkpt lat="44.8726339" lon="8.0921824"><ele>167.0</ele><time>2026-04-19T07:29:17.733Z</time></trkpt><trkpt lat="44.8727631" lon="8.0921554"><ele>167.0</ele><time>2026-04-19T07:29:18.735Z</time></trkpt><trkpt lat="44.8729082" lon="8.0921341"><ele>166.75</ele><time>2026-04-19T07:29:19.735Z</time></trkpt><trkpt lat="44.8730417" lon="8.0921141"><ele>166.5</ele><time>2026-04-19T07:29:20.736Z</time></trkpt><trkpt lat="44.8731699" lon="8.0920992"><ele>166.25</ele><time>2026-04-19T07:29:21.75Z</time></trkpt><trkpt lat="44.8732891" lon="8.0920807"><ele>166.0</ele><time>2026-04-19T07:29:22.736Z</time></trkpt><trkpt lat="44.8734021" lon="8.0920549"><ele>166.0</ele><time>2026-04-19T07:29:23.732Z</time></trkpt><trkpt lat="44.8735054" lon="8.0920326"><ele>166.0</ele><time>2026-04-19T07:29:24.742Z</time></trkpt><trkpt lat="44.8735972" lon="8.0920136"><ele>166.0</ele><time>2026-04-19T07:29:25.739Z</time></trkpt><trkpt lat="44.8736897" lon="8.0919928"><ele>166.0</ele><time>2026-04-19T07:29:26.737Z</time></trkpt><trkpt lat="44.8737724" lon="8.0919746"><ele>166.0</ele><time>2026-04-19T07:29:27.74Z</time></trkpt><trkpt lat="44.8738606" lon="8.0919582"><ele>166.0</ele><time>2026-04-19T07:29:28.743Z</time></trkpt><trkpt lat="44.8739513" lon="8.091946"><ele>166.0</ele><time>2026-04-19T07:29:29.74Z</time></trkpt><trkpt lat="44.8740441" lon="8.0919303"><ele>166.0</ele><time>2026-04-19T07:29:30.738Z</time></trkpt><trkpt lat="44.8741386" lon="8.0919132"><ele>166.0</ele><time>2026-04-19T07:29:31.74Z</time></trkpt><trkpt lat="44.8742269" lon="8.0918942"><ele>166.0</ele><time>2026-04-19T07:29:32.733Z</time></trkpt><trkpt lat="44.8743147" lon="8.0918704"><ele>166.16666666666669</ele><time>2026-04-19T07:29:33.728Z</time></trkpt><trkpt lat="44.8743942" lon="8.0918439"><ele>166.33333333333334</ele><time>2026-04-19T07:29:34.725Z</time></trkpt><trkpt lat="44.8744695" lon="8.0918287"><ele>166.5</ele><time>2026-04-19T07:29:35.734Z</time></trkpt><trkpt lat="44.8745403" lon="8.0918076"><ele>166.66666666666666</ele><time>2026-04-19T07:29:36.734Z</time></trkpt><trkpt lat="44.8746105" lon="8.0917796"><ele>166.83333333333331</ele><time>2026-04-19T07:29:37.757Z</time></trkpt><trkpt lat="44.8746731" lon="8.0917533"><ele>167.0</ele><time>2026-04-19T07:29:38.739Z</time></trkpt><trkpt lat="44.8748086" lon="8.0917322"><ele>167.0</ele><time>2026-04-19T07:29:40.749Z</time></trkpt><trkpt lat="44.8748728" lon="8.0917201"><ele>167.0</ele><time>2026-04-19T07:29:41.736Z</time></trkpt><trkpt lat="44.8749364" lon="8.0917076"><ele>167.0</ele><time>2026-04-19T07:29:42.734Z</time></trkpt><trkpt lat="44.8750019" lon="8.0916901"><ele>167.0</ele><time>2026-04-19T07:29:43.731Z</time></trkpt><trkpt lat="44.8750697" lon="8.0916725"><ele>167.0</ele><time>2026-04-19T07:29:44.734Z</time></trkpt><trkpt lat="44.8751382" lon="8.0916474"><ele>167.0</ele><time>2026-04-19T07:29:45.733Z</time></trkpt><trkpt lat="44.8752027" lon="8.0916075"><ele>167.0</ele><time>2026-04-19T07:29:46.742Z</time></trkpt><trkpt lat="44.875264" lon="8.0915558"><ele>166.39999999999998</ele><time>2026-04-19T07:29:47.74Z</time></trkpt><trkpt lat="44.8753118" lon="8.0914975"><ele>165.79999999999998</ele><time>2026-04-19T07:29:48.74Z</time></trkpt><trkpt lat="44.8753939" lon="8.0913744"><ele>165.2</ele><time>2026-04-19T07:29:50.741Z</time></trkpt><trkpt lat="44.875472" lon="8.0912431"><ele>164.6</ele><time>2026-04-19T07:29:52.749Z</time></trkpt><trkpt lat="44.8755307" lon="8.0911594"><ele>164.0</ele><time>2026-04-19T07:29:54.757Z</time></trkpt><trkpt lat="44.8756232" lon="8.0911748"><ele>164.0</ele><time>2026-04-19T07:30:00.757Z</time></trkpt><trkpt lat="44.8756961" lon="8.091077"><ele>164.0</ele><time>2026-04-19T07:30:05.75Z</time></trkpt><trkpt lat="44.875748" lon="8.0909899"><ele>164.0</ele><time>2026-04-19T07:30:06.755Z</time></trkpt><trkpt lat="44.8758006" lon="8.0908607"><ele>164.0</ele><time>2026-04-19T07:30:07.749Z</time></trkpt><trkpt lat="44.8758488" lon="8.0907079"><ele>164.0</ele><time>2026-04-19T07:30:08.767Z</time></trkpt><trkpt lat="44.8758863" lon="8.0905508"><ele>163.75</ele><time>2026-04-19T07:30:09.744Z</time></trkpt><trkpt lat="44.8759135" lon="8.0904"><ele>163.5</ele><time>2026-04-19T07:30:10.735Z</time></trkpt><trkpt lat="44.8759354" lon="8.0902378"><ele>163.25</ele><time>2026-04-19T07:30:11.742Z</time></trkpt><trkpt lat="44.8759562" lon="8.0900736"><ele>163.0</ele><time>2026-04-19T07:30:12.75Z</time></trkpt><trkpt lat="44.8759769" lon="8.089914"><ele>166.5</ele><time>2026-04-19T07:30:13.748Z</time></trkpt><trkpt lat="44.8760121" lon="8.0897406"><ele>170.0</ele><time>2026-04-19T07:30:14.743Z</time></trkpt><trkpt lat="44.8760575" lon="8.089561"><ele>173.5</ele><time>2026-04-19T07:30:15.751Z</time></trkpt><trkpt lat="44.8761045" lon="8.0893694"><ele>177.0</ele><time>2026-04-19T07:30:16.744Z</time></trkpt><trkpt lat="44.8761539" lon="8.0891675"><ele>175.25</ele><time>2026-04-19T07:30:17.748Z</time></trkpt><trkpt lat="44.8762025" lon="8.0889816"><ele>173.5</ele><time>2026-04-19T07:30:18.737Z</time></trkpt><trkpt lat="44.8762424" lon="8.0888136"><ele>171.75</ele><time>2026-04-19T07:30:19.745Z</time></trkpt><trkpt lat="44.8762774" lon="8.0886483"><ele>170.0</ele><time>2026-04-19T07:30:20.735Z</time></trkpt><trkpt lat="44.8763118" lon="8.0884799"><ele>170.0</ele><time>2026-04-19T07:30:21.734Z</time></trkpt><trkpt lat="44.8763425" lon="8.0883118"><ele>170.0</ele><time>2026-04-19T07:30:22.742Z</time></trkpt><trkpt lat="44.8763557" lon="8.0881299"><ele>170.0</ele><time>2026-04-19T07:30:23.741Z</time></trkpt><trkpt lat="44.8763512" lon="8.0879471"><ele>170.0</ele><time>2026-04-19T07:30:24.739Z</time></trkpt><trkpt lat="44.8763542" lon="8.0877587"><ele>170.0</ele><time>2026-04-19T07:30:25.737Z</time></trkpt><trkpt lat="44.8763588" lon="8.0875746"><ele>170.0</ele><time>2026-04-19T07:30:26.745Z</time></trkpt><trkpt lat="44.8763554" lon="8.0873856"><ele>170.0</ele><time>2026-04-19T07:30:27.746Z</time></trkpt><trkpt lat="44.8763537" lon="8.087197"><ele>170.0</ele><time>2026-04-19T07:30:28.751Z</time></trkpt><trkpt lat="44.8763502" lon="8.086993"><ele>170.66666666666666</ele><time>2026-04-19T07:30:29.748Z</time></trkpt><trkpt lat="44.8763437" lon="8.086787"><ele>171.33333333333334</ele><time>2026-04-19T07:30:30.749Z</time></trkpt><trkpt lat="44.8763339" lon="8.0865606"><ele>172.0</ele><time>2026-04-19T07:30:31.743Z</time></trkpt><trkpt lat="44.876328" lon="8.0863411"><ele>172.0</ele><time>2026-04-19T07:30:32.747Z</time></trkpt><trkpt lat="44.8763275" lon="8.0861296"><ele>172.0</ele><time>2026-04-19T07:30:33.741Z</time></trkpt><trkpt lat="44.8763313" lon="8.0859347"><ele>172.0</ele><time>2026-04-19T07:30:34.746Z</time></trkpt><trkpt lat="44.8763278" lon="8.085748"><ele>172.0</ele><time>2026-04-19T07:30:35.742Z</time></trkpt><trkpt lat="44.8763251" lon="8.0855925"><ele>172.0</ele><time>2026-04-19T07:30:36.737Z</time></trkpt><trkpt lat="44.876318" lon="8.08546"><ele>172.0</ele><time>2026-04-19T07:30:37.738Z</time></trkpt><trkpt lat="44.8763028" lon="8.0852924"><ele>172.0</ele><time>2026-04-19T07:30:38.739Z</time></trkpt><trkpt lat="44.8762819" lon="8.0851383"><ele>172.0</ele><time>2026-04-19T07:30:39.749Z</time></trkpt><trkpt lat="44.8762524" lon="8.0849897"><ele>172.0</ele><time>2026-04-19T07:30:40.737Z</time></trkpt><trkpt lat="44.8762427" lon="8.0848462"><ele>172.0</ele><time>2026-04-19T07:30:41.743Z</time></trkpt><trkpt lat="44.8762443" lon="8.0846964"><ele>172.0</ele><time>2026-04-19T07:30:42.743Z</time></trkpt><trkpt lat="44.8762564" lon="8.0845406"><ele>172.0</ele><time>2026-04-19T07:30:43.749Z</time></trkpt><trkpt lat="44.8762868" lon="8.0843838"><ele>172.0</ele><time>2026-04-19T07:30:44.744Z</time></trkpt><trkpt lat="44.8763281" lon="8.0842314"><ele>172.0</ele><time>2026-04-19T07:30:45.742Z</time></trkpt><trkpt lat="44.8763719" lon="8.0840796"><ele>172.2</ele><time>2026-04-19T07:30:46.742Z</time></trkpt><trkpt lat="44.8764133" lon="8.0839378"><ele>172.39999999999998</ele><time>2026-04-19T07:30:47.741Z</time></trkpt><trkpt lat="44.8764518" lon="8.083803"><ele>172.60000000000002</ele><time>2026-04-19T07:30:48.745Z</time></trkpt><trkpt lat="44.8764886" lon="8.0836638"><ele>172.8</ele><time>2026-04-19T07:30:49.744Z</time></trkpt><trkpt lat="44.8765267" lon="8.0835379"><ele>173.0</ele><time>2026-04-19T07:30:50.741Z</time></trkpt><trkpt lat="44.876572" lon="8.0834177"><ele>173.0</ele><time>2026-04-19T07:30:51.743Z</time></trkpt><trkpt lat="44.876617" lon="8.0833049"><ele>173.0</ele><time>2026-04-19T07:30:52.737Z</time></trkpt><trkpt lat="44.8766499" lon="8.0832"><ele>173.0</ele><time>2026-04-19T07:30:53.739Z</time></trkpt><trkpt lat="44.8766597" lon="8.0830945"><ele>173.0</ele><time>2026-04-19T07:30:54.736Z</time></trkpt><trkpt lat="44.8766581" lon="8.0829788"><ele>173.0</ele><time>2026-04-19T07:30:55.742Z</time></trkpt><trkpt lat="44.8766548" lon="8.0828582"><ele>173.0</ele><time>2026-04-19T07:30:56.738Z</time></trkpt><trkpt lat="44.8766569" lon="8.0827277"><ele>173.5</ele><time>2026-04-19T07:30:57.736Z</time></trkpt><trkpt lat="44.8766632" lon="8.082606"><ele>174.0</ele><time>2026-04-19T07:30:58.734Z</time></trkpt><trkpt lat="44.8766712" lon="8.0824833"><ele>174.5</ele><time>2026-04-19T07:30:59.728Z</time></trkpt><trkpt lat="44.8766864" lon="8.0823511"><ele>175.0</ele><time>2026-04-19T07:31:00.726Z</time></trkpt><trkpt lat="44.8767066" lon="8.0822269"><ele>175.5</ele><time>2026-04-19T07:31:01.724Z</time></trkpt><trkpt lat="44.8767239" lon="8.0821198"><ele>176.0</ele><time>2026-04-19T07:31:02.736Z</time></trkpt><trkpt lat="44.8767387" lon="8.082022"><ele>177.16666666666666</ele><time>2026-04-19T07:31:03.722Z</time></trkpt><trkpt lat="44.8767496" lon="8.0819325"><ele>178.33333333333331</ele><time>2026-04-19T07:31:04.737Z</time></trkpt><trkpt lat="44.8766813" lon="8.0818449"><ele>179.5</ele><time>2026-04-19T07:31:07.729Z</time></trkpt><trkpt lat="44.8766027" lon="8.081853"><ele>180.66666666666666</ele><time>2026-04-19T07:31:08.74Z</time></trkpt><trkpt lat="44.8765217" lon="8.0818193"><ele>181.83333333333334</ele><time>2026-04-19T07:31:09.742Z</time></trkpt><trkpt lat="44.876449" lon="8.081774"><ele>183.0</ele><time>2026-04-19T07:31:10.753Z</time></trkpt><trkpt lat="44.8763821" lon="8.0817156"><ele>183.0</ele><time>2026-04-19T07:31:11.731Z</time></trkpt><trkpt lat="44.8763229" lon="8.0816525"><ele>183.0</ele><time>2026-04-19T07:31:12.746Z</time></trkpt><trkpt lat="44.8762738" lon="8.0815857"><ele>183.0</ele><time>2026-04-19T07:31:13.741Z</time></trkpt><trkpt lat="44.8762287" lon="8.0815162"><ele>183.0</ele><time>2026-04-19T07:31:14.735Z</time></trkpt><trkpt lat="44.8761498" lon="8.0813969"><ele>183.0</ele><time>2026-04-19T07:31:16.737Z</time></trkpt><trkpt lat="44.8761195" lon="8.0813033"><ele>183.0</ele><time>2026-04-19T07:31:17.735Z</time></trkpt><trkpt lat="44.8760867" lon="8.0811887"><ele>183.5</ele><time>2026-04-19T07:31:18.734Z</time></trkpt><trkpt lat="44.8760612" lon="8.0810668"><ele>184.0</ele><time>2026-04-19T07:31:19.739Z</time></trkpt><trkpt lat="44.8760414" lon="8.080937"><ele>184.5</ele><time>2026-04-19T07:31:20.738Z</time></trkpt><trkpt lat="44.876017" lon="8.0808329"><ele>185.0</ele><time>2026-04-19T07:31:21.739Z</time></trkpt><trkpt lat="44.8759927" lon="8.0807352"><ele>185.5</ele><time>2026-04-19T07:31:22.734Z</time></trkpt><trkpt lat="44.8759747" lon="8.0806313"><ele>186.0</ele><time>2026-04-19T07:31:23.731Z</time></trkpt><trkpt lat="44.8759659" lon="8.0805277"><ele>186.16666666666666</ele><time>2026-04-19T07:31:24.734Z</time></trkpt><trkpt lat="44.8759569" lon="8.0804251"><ele>186.33333333333334</ele><time>2026-04-19T07:31:25.734Z</time></trkpt><trkpt lat="44.8759438" lon="8.0803164"><ele>186.5</ele><time>2026-04-19T07:31:26.733Z</time></trkpt><trkpt lat="44.8759315" lon="8.0802178"><ele>186.66666666666669</ele><time>2026-04-19T07:31:27.733Z</time></trkpt><trkpt lat="44.8759262" lon="8.080122"><ele>186.83333333333334</ele><time>2026-04-19T07:31:28.729Z</time></trkpt><trkpt lat="44.8759204" lon="8.0799686"><ele>187.0</ele><time>2026-04-19T07:31:30.729Z</time></trkpt><trkpt lat="44.8759205" lon="8.079835"><ele>189.66666666666669</ele><time>2026-04-19T07:31:32.731Z</time></trkpt><trkpt lat="44.8759316" lon="8.0797284"><ele>192.33333333333334</ele><time>2026-04-19T07:31:34.738Z</time></trkpt><trkpt lat="44.8759288" lon="8.0795945"><ele>195.0</ele><time>2026-04-19T07:31:36.733Z</time></trkpt><trkpt lat="44.8759081" lon="8.0794799"><ele>197.66666666666669</ele><time>2026-04-19T07:31:38.732Z</time></trkpt><trkpt lat="44.8759007" lon="8.0793567"><ele>200.33333333333334</ele><time>2026-04-19T07:31:40.732Z</time></trkpt><trkpt lat="44.8759021" lon="8.0792165"><ele>203.0</ele><time>2026-04-19T07:31:42.736Z</time></trkpt><trkpt lat="44.8759013" lon="8.0791193"><ele>203.0</ele><time>2026-04-19T07:31:43.737Z</time></trkpt><trkpt lat="44.8759011" lon="8.0790217"><ele>203.0</ele><time>2026-04-19T07:31:44.733Z</time></trkpt><trkpt lat="44.8758979" lon="8.0789211"><ele>203.0</ele><time>2026-04-19T07:31:45.724Z</time></trkpt><trkpt lat="44.8758997" lon="8.0788157"><ele>203.0</ele><time>2026-04-19T07:31:46.725Z</time></trkpt><trkpt lat="44.8759142" lon="8.0787193"><ele>203.0</ele><time>2026-04-19T07:31:47.745Z</time></trkpt><trkpt lat="44.8759256" lon="8.0786167"><ele>203.0</ele><time>2026-04-19T07:31:48.733Z</time></trkpt><trkpt lat="44.8759365" lon="8.0785152"><ele>203.0</ele><time>2026-04-19T07:31:49.733Z</time></trkpt><trkpt lat="44.8759452" lon="8.0784139"><ele>203.0</ele><time>2026-04-19T07:31:50.739Z</time></trkpt><trkpt lat="44.8759474" lon="8.0783042"><ele>203.0</ele><time>2026-04-19T07:31:51.741Z</time></trkpt><trkpt lat="44.8759473" lon="8.0781984"><ele>203.0</ele><time>2026-04-19T07:31:52.744Z</time></trkpt><trkpt lat="44.875946" lon="8.0780914"><ele>203.0</ele><time>2026-04-19T07:31:53.741Z</time></trkpt><trkpt lat="44.875942" lon="8.0779972"><ele>203.0</ele><time>2026-04-19T07:31:54.732Z</time></trkpt><trkpt lat="44.8759378" lon="8.0779042"><ele>203.0</ele><time>2026-04-19T07:31:55.743Z</time></trkpt><trkpt lat="44.8759171" lon="8.0778057"><ele>203.0</ele><time>2026-04-19T07:31:56.744Z</time></trkpt><trkpt lat="44.8758556" lon="8.0776686"><ele>205.00000000000003</ele><time>2026-04-19T07:31:58.748Z</time></trkpt><trkpt lat="44.8757618" lon="8.0775724"><ele>207.0</ele><time>2026-04-19T07:32:00.75Z</time></trkpt><trkpt lat="44.8756753" lon="8.0775149"><ele>209.0</ele><time>2026-04-19T07:32:02.756Z</time></trkpt><trkpt lat="44.8756161" lon="8.0774705"><ele>211.0</ele><time>2026-04-19T07:32:06.753Z</time></trkpt><trkpt lat="44.8756096" lon="8.0773707"><ele>213.00000000000003</ele><time>2026-04-19T07:32:09.76Z</time></trkpt><trkpt lat="44.8756299" lon="8.0772856"><ele>215.0</ele><time>2026-04-19T07:32:12.771Z</time></trkpt><trkpt lat="44.8756251" lon="8.0771929"><ele>215.66666666666669</ele><time>2026-04-19T07:32:18.727Z</time></trkpt><trkpt lat="44.8756458" lon="8.0770849"><ele>216.33333333333334</ele><time>2026-04-19T07:32:22.725Z</time></trkpt><trkpt lat="44.875569" lon="8.0770102"><ele>217.0</ele><time>2026-04-19T07:32:24.741Z</time></trkpt><trkpt lat="44.8755291" lon="8.077147"><ele>217.66666666666669</ele><time>2026-04-19T07:32:27.741Z</time></trkpt><trkpt lat="44.8754731" lon="8.0772083"><ele>218.33333333333334</ele><time>2026-04-19T07:32:28.738Z</time></trkpt><trkpt lat="44.8754148" lon="8.0772767"><ele>219.0</ele><time>2026-04-19T07:32:32.738Z</time></trkpt><trkpt lat="44.8753456" lon="8.0772367"><ele>219.0</ele><time>2026-04-19T07:32:36.734Z</time></trkpt><trkpt lat="44.8752906" lon="8.0771922"><ele>219.0</ele><time>2026-04-19T07:32:39.733Z</time></trkpt><trkpt lat="44.8752227" lon="8.0771266"><ele>219.0</ele><time>2026-04-19T07:32:42.727Z</time></trkpt><trkpt lat="44.8751638" lon="8.0770382"><ele>219.0</ele><time>2026-04-19T07:32:45.722Z</time></trkpt><trkpt lat="44.87511" lon="8.0769678"><ele>219.0</ele><time>2026-04-19T07:32:47.729Z</time></trkpt><trkpt lat="44.8750683" lon="8.0768734"><ele>219.0</ele><time>2026-04-19T07:32:49.737Z</time></trkpt><trkpt lat="44.8750056" lon="8.0767606"><ele>217.16666666666666</ele><time>2026-04-19T07:32:51.731Z</time></trkpt><trkpt lat="44.8749708" lon="8.0766662"><ele>215.33333333333331</ele><time>2026-04-19T07:32:52.732Z</time></trkpt><trkpt lat="44.8749298" lon="8.0765863"><ele>213.5</ele><time>2026-04-19T07:32:53.729Z</time></trkpt><trkpt lat="44.8748932" lon="8.076505"><ele>211.66666666666666</ele><time>2026-04-19T07:32:54.731Z</time></trkpt><trkpt lat="44.8748549" lon="8.0764271"><ele>209.83333333333331</ele><time>2026-04-19T07:32:55.731Z</time></trkpt><trkpt lat="44.8747732" lon="8.0762743"><ele>208.0</ele><time>2026-04-19T07:32:57.731Z</time></trkpt><trkpt lat="44.8747379" lon="8.0761742"><ele>207.60000000000002</ele><time>2026-04-19T07:32:58.732Z</time></trkpt><trkpt lat="44.8747086" lon="8.0760713"><ele>207.20000000000002</ele><time>2026-04-19T07:32:59.732Z</time></trkpt><trkpt lat="44.8746792" lon="8.0759592"><ele>206.8</ele><time>2026-04-19T07:33:00.735Z</time></trkpt><trkpt lat="44.8746542" lon="8.0758432"><ele>206.4</ele><time>2026-04-19T07:33:01.73Z</time></trkpt><trkpt lat="44.874629" lon="8.0757117"><ele>206.0</ele><time>2026-04-19T07:33:02.736Z</time></trkpt><trkpt lat="44.8746037" lon="8.0755551"><ele>205.0</ele><time>2026-04-19T07:33:03.737Z</time></trkpt><trkpt lat="44.8745755" lon="8.0753984"><ele>204.0</ele><time>2026-04-19T07:33:04.737Z</time></trkpt><trkpt lat="44.8745546" lon="8.0752596"><ele>203.0</ele><time>2026-04-19T07:33:05.735Z</time></trkpt><trkpt lat="44.8745351" lon="8.0751359"><ele>202.0</ele><time>2026-04-19T07:33:06.741Z</time></trkpt><trkpt lat="44.8745172" lon="8.0750241"><ele>201.0</ele><time>2026-04-19T07:33:07.747Z</time></trkpt><trkpt lat="44.8744983" lon="8.0749279"><ele>200.60000000000002</ele><time>2026-04-19T07:33:09.742Z</time></trkpt><trkpt lat="44.8744043" lon="8.0750058"><ele>200.2</ele><time>2026-04-19T07:33:11.745Z</time></trkpt><trkpt lat="44.8743587" lon="8.0750967"><ele>199.8</ele><time>2026-04-19T07:33:12.745Z</time></trkpt><trkpt lat="44.8743229" lon="8.0752145"><ele>199.39999999999998</ele><time>2026-04-19T07:33:13.746Z</time></trkpt><trkpt lat="44.8742861" lon="8.0753445"><ele>199.0</ele><time>2026-04-19T07:33:14.757Z</time></trkpt><trkpt lat="44.8742305" lon="8.0754743"><ele>198.99999999999997</ele><time>2026-04-19T07:33:15.732Z</time></trkpt><trkpt lat="44.8741704" lon="8.075591"><ele>199.0</ele><time>2026-04-19T07:33:16.74Z</time></trkpt><trkpt lat="44.8741207" lon="8.0756808"><ele>199.0</ele><time>2026-04-19T07:33:17.738Z</time></trkpt><trkpt lat="44.874065" lon="8.0757567"><ele>199.0</ele><time>2026-04-19T07:33:18.731Z</time></trkpt><trkpt lat="44.8740051" lon="8.0758436"><ele>198.99999999999997</ele><time>2026-04-19T07:33:19.738Z</time></trkpt><trkpt lat="44.8739532" lon="8.0759419"><ele>199.0</ele><time>2026-04-19T07:33:20.735Z</time></trkpt><trkpt lat="44.8738871" lon="8.0760449"><ele>199.0</ele><time>2026-04-19T07:33:21.741Z</time></trkpt><trkpt lat="44.8738201" lon="8.0761456"><ele>199.0</ele><time>2026-04-19T07:33:22.742Z</time></trkpt><trkpt lat="44.8737543" lon="8.0762324"><ele>199.0</ele><time>2026-04-19T07:33:23.748Z</time></trkpt><trkpt lat="44.8736841" lon="8.0763047"><ele>199.0</ele><time>2026-04-19T07:33:24.741Z</time></trkpt><trkpt lat="44.8735941" lon="8.0763749"><ele>199.0</ele><time>2026-04-19T07:33:25.739Z</time></trkpt><trkpt lat="44.873498" lon="8.0764519"><ele>198.39999999999998</ele><time>2026-04-19T07:33:26.738Z</time></trkpt><trkpt lat="44.8733976" lon="8.0765217"><ele>197.8</ele><time>2026-04-19T07:33:27.735Z</time></trkpt><trkpt lat="44.8732998" lon="8.076578"><ele>197.2</ele><time>2026-04-19T07:33:28.737Z</time></trkpt><trkpt lat="44.8732041" lon="8.0766253"><ele>196.60000000000002</ele><time>2026-04-19T07:33:29.742Z</time></trkpt><trkpt lat="44.8731105" lon="8.0766627"><ele>196.0</ele><time>2026-04-19T07:33:30.744Z</time></trkpt><trkpt lat="44.8730197" lon="8.0766875"><ele>195.99999999999997</ele><time>2026-04-19T07:33:31.741Z</time></trkpt><trkpt lat="44.8729247" lon="8.0766959"><ele>196.0</ele><time>2026-04-19T07:33:32.742Z</time></trkpt><trkpt lat="44.8728401" lon="8.0767168"><ele>196.0</ele><time>2026-04-19T07:33:33.737Z</time></trkpt><trkpt lat="44.8727733" lon="8.0767456"><ele>196.0</ele><time>2026-04-19T07:33:34.732Z</time></trkpt><trkpt lat="44.8726593" lon="8.0767788"><ele>195.99999999999997</ele><time>2026-04-19T07:33:36.742Z</time></trkpt><trkpt lat="44.8725833" lon="8.0767392"><ele>196.0</ele><time>2026-04-19T07:33:37.732Z</time></trkpt><trkpt lat="44.8724866" lon="8.076685"><ele>195.5</ele><time>2026-04-19T07:33:38.736Z</time></trkpt><trkpt lat="44.8723554" lon="8.0766285"><ele>195.0</ele><time>2026-04-19T07:33:39.734Z</time></trkpt><trkpt lat="44.8722258" lon="8.0765855"><ele>194.5</ele><time>2026-04-19T07:33:40.732Z</time></trkpt><trkpt lat="44.8721008" lon="8.0765542"><ele>194.0</ele><time>2026-04-19T07:33:41.734Z</time></trkpt><trkpt lat="44.8719827" lon="8.0765257"><ele>194.0</ele><time>2026-04-19T07:33:42.739Z</time></trkpt><trkpt lat="44.8718669" lon="8.0765314"><ele>194.0</ele><time>2026-04-19T07:33:43.743Z</time></trkpt><trkpt lat="44.8717771" lon="8.0765432"><ele>194.0</ele><time>2026-04-19T07:33:44.736Z</time></trkpt><trkpt lat="44.871679" lon="8.0765579"><ele>194.0</ele><time>2026-04-19T07:33:45.777Z</time></trkpt><trkpt lat="44.8715965" lon="8.0765908"><ele>194.0</ele><time>2026-04-19T07:33:46.738Z</time></trkpt><trkpt lat="44.871515" lon="8.0766262"><ele>194.0</ele><time>2026-04-19T07:33:47.734Z</time></trkpt><trkpt lat="44.8714264" lon="8.0766688"><ele>194.0</ele><time>2026-04-19T07:33:48.738Z</time></trkpt><trkpt lat="44.8713437" lon="8.0766997"><ele>194.0</ele><time>2026-04-19T07:33:49.736Z</time></trkpt><trkpt lat="44.8712572" lon="8.0767083"><ele>194.0</ele><time>2026-04-19T07:33:50.74Z</time></trkpt><trkpt lat="44.87117" lon="8.0766974"><ele>194.0</ele><time>2026-04-19T07:33:51.738Z</time></trkpt><trkpt lat="44.8710725" lon="8.0766745"><ele>194.0</ele><time>2026-04-19T07:33:52.742Z</time></trkpt><trkpt lat="44.8709765" lon="8.0766459"><ele>194.0</ele><time>2026-04-19T07:33:53.739Z</time></trkpt><trkpt lat="44.8708841" lon="8.0766234"><ele>194.0</ele><time>2026-04-19T07:33:54.736Z</time></trkpt><trkpt lat="44.8707924" lon="8.0766003"><ele>194.0</ele><time>2026-04-19T07:33:55.741Z</time></trkpt><trkpt lat="44.8706912" lon="8.0765835"><ele>194.0</ele><time>2026-04-19T07:33:56.738Z</time></trkpt><trkpt lat="44.8705911" lon="8.0765847"><ele>194.6</ele><time>2026-04-19T07:33:57.74Z</time></trkpt><trkpt lat="44.8704851" lon="8.076591"><ele>195.2</ele><time>2026-04-19T07:33:58.742Z</time></trkpt><trkpt lat="44.8703783" lon="8.0765996"><ele>195.79999999999998</ele><time>2026-04-19T07:33:59.743Z</time></trkpt><trkpt lat="44.870295" lon="8.0766102"><ele>196.39999999999998</ele><time>2026-04-19T07:34:00.743Z</time></trkpt><trkpt lat="44.8702287" lon="8.0766197"><ele>197.0</ele><time>2026-04-19T07:34:01.741Z</time></trkpt><trkpt lat="44.8702519" lon="8.0767451"><ele>196.6</ele><time>2026-04-19T07:34:12.746Z</time></trkpt><trkpt lat="44.8702801" lon="8.0769086"><ele>196.2</ele><time>2026-04-19T07:34:14.744Z</time></trkpt><trkpt lat="44.870303" lon="8.0770135"><ele>195.8</ele><time>2026-04-19T07:34:15.762Z</time></trkpt><trkpt lat="44.8703293" lon="8.0771437"><ele>195.4</ele><time>2026-04-19T07:34:16.721Z</time></trkpt><trkpt lat="44.8703605" lon="8.0773005"><ele>195.0</ele><time>2026-04-19T07:34:17.733Z</time></trkpt><trkpt lat="44.8703773" lon="8.077441"><ele>195.0</ele><time>2026-04-19T07:34:18.723Z</time></trkpt><trkpt lat="44.8703935" lon="8.0775842"><ele>195.0</ele><time>2026-04-19T07:34:19.723Z</time></trkpt><trkpt lat="44.8704029" lon="8.0777401"><ele>195.0</ele><time>2026-04-19T07:34:20.718Z</time></trkpt><trkpt lat="44.8704063" lon="8.0778869"><ele>195.0</ele><time>2026-04-19T07:34:21.722Z</time></trkpt><trkpt lat="44.8704047" lon="8.0780285"><ele>195.0</ele><time>2026-04-19T07:34:22.724Z</time></trkpt><trkpt lat="44.8704022" lon="8.0781742"><ele>196.5</ele><time>2026-04-19T07:34:23.726Z</time></trkpt><trkpt lat="44.8704088" lon="8.0783379"><ele>198.0</ele><time>2026-04-19T07:34:24.73Z</time></trkpt><trkpt lat="44.8704134" lon="8.0785057"><ele>199.5</ele><time>2026-04-19T07:34:25.729Z</time></trkpt><trkpt lat="44.8704197" lon="8.078668"><ele>201.0</ele><time>2026-04-19T07:34:26.736Z</time></trkpt><trkpt lat="44.8704356" lon="8.0788393"><ele>201.0</ele><time>2026-04-19T07:34:27.734Z</time></trkpt><trkpt lat="44.8704431" lon="8.0789988"><ele>201.0</ele><time>2026-04-19T07:34:28.732Z</time></trkpt><trkpt lat="44.8704467" lon="8.079138"><ele>201.0</ele><time>2026-04-19T07:34:29.745Z</time></trkpt><trkpt lat="44.8704413" lon="8.0792311"><ele>201.0</ele><time>2026-04-19T07:34:30.754Z</time></trkpt><trkpt lat="44.8705432" lon="8.0792706"><ele>201.0</ele><time>2026-04-19T07:34:47.755Z</time></trkpt><trkpt lat="44.8706459" lon="8.079252"><ele>200.8</ele><time>2026-04-19T07:34:49.737Z</time></trkpt><trkpt lat="44.8707261" lon="8.0792329"><ele>200.60000000000002</ele><time>2026-04-19T07:34:50.74Z</time></trkpt><trkpt lat="44.8708247" lon="8.0792028"><ele>200.4</ele><time>2026-04-19T07:34:51.745Z</time></trkpt><trkpt lat="44.8709362" lon="8.0791807"><ele>200.2</ele><time>2026-04-19T07:34:52.744Z</time></trkpt><trkpt lat="44.8710335" lon="8.079156"><ele>200.0</ele><time>2026-04-19T07:34:53.755Z</time></trkpt><trkpt lat="44.8711254" lon="8.079134"><ele>201.4</ele><time>2026-04-19T07:34:54.742Z</time></trkpt><trkpt lat="44.8712319" lon="8.0791145"><ele>202.8</ele><time>2026-04-19T07:34:55.743Z</time></trkpt><trkpt lat="44.8713395" lon="8.0790899"><ele>204.2</ele><time>2026-04-19T07:34:56.748Z</time></trkpt><trkpt lat="44.8714337" lon="8.079063"><ele>205.6</ele><time>2026-04-19T07:34:57.738Z</time></trkpt><trkpt lat="44.8715195" lon="8.0790371"><ele>207.0</ele><time>2026-04-19T07:34:58.738Z</time></trkpt><trkpt lat="44.8716069" lon="8.07901"><ele>207.0</ele><time>2026-04-19T07:34:59.742Z</time></trkpt><trkpt lat="44.8716941" lon="8.0789789"><ele>207.0</ele><time>2026-04-19T07:35:00.741Z</time></trkpt><trkpt lat="44.8717753" lon="8.0789507"><ele>207.0</ele><time>2026-04-19T07:35:01.737Z</time></trkpt><trkpt lat="44.8718612" lon="8.0789251"><ele>207.0</ele><time>2026-04-19T07:35:02.74Z</time></trkpt><trkpt lat="44.8719437" lon="8.0788892"><ele>207.0</ele><time>2026-04-19T07:35:03.742Z</time></trkpt><trkpt lat="44.8720206" lon="8.0788595"><ele>207.0</ele><time>2026-04-19T07:35:04.739Z</time></trkpt><trkpt lat="44.8720972" lon="8.0788397"><ele>207.00000000000003</ele><time>2026-04-19T07:35:05.729Z</time></trkpt><trkpt lat="44.8721741" lon="8.0788159"><ele>207.0</ele><time>2026-04-19T07:35:06.74Z</time></trkpt><trkpt lat="44.8722473" lon="8.0787899"><ele>207.0</ele><time>2026-04-19T07:35:07.735Z</time></trkpt><trkpt lat="44.8723106" lon="8.0787774"><ele>207.0</ele><time>2026-04-19T07:35:08.745Z</time></trkpt><trkpt lat="44.8723858" lon="8.0787573"><ele>207.0</ele><time>2026-04-19T07:35:10.738Z</time></trkpt><trkpt lat="44.8724664" lon="8.0787496"><ele>207.00000000000003</ele><time>2026-04-19T07:35:15.747Z</time></trkpt><trkpt lat="44.872534" lon="8.0787329"><ele>207.0</ele><time>2026-04-19T07:35:21.75Z</time></trkpt><trkpt lat="44.872439" lon="8.0787898"><ele>207.0</ele><time>2026-04-19T07:35:36.749Z</time></trkpt><trkpt lat="44.8723457" lon="8.0788152"><ele>207.0</ele><time>2026-04-19T07:35:37.752Z</time></trkpt><trkpt lat="44.8722361" lon="8.0788385"><ele>207.0</ele><time>2026-04-19T07:35:38.753Z</time></trkpt><trkpt lat="44.8721248" lon="8.0788618"><ele>207.0</ele><time>2026-04-19T07:35:39.748Z</time></trkpt><trkpt lat="44.8720221" lon="8.078888"><ele>207.0</ele><time>2026-04-19T07:35:40.753Z</time></trkpt><trkpt lat="44.8719252" lon="8.0789202"><ele>207.0</ele><time>2026-04-19T07:35:41.749Z</time></trkpt><trkpt lat="44.8718331" lon="8.0789569"><ele>207.0</ele><time>2026-04-19T07:35:42.749Z</time></trkpt><trkpt lat="44.8717414" lon="8.0789938"><ele>207.0</ele><time>2026-04-19T07:35:43.745Z</time></trkpt><trkpt lat="44.8716448" lon="8.0790232"><ele>207.0</ele><time>2026-04-19T07:35:44.747Z</time></trkpt><trkpt lat="44.8715458" lon="8.0790552"><ele>207.0</ele><time>2026-04-19T07:35:45.745Z</time></trkpt><trkpt lat="44.8714278" lon="8.0790896"><ele>207.0</ele><time>2026-04-19T07:35:46.744Z</time></trkpt><trkpt lat="44.8713068" lon="8.0791227"><ele>207.0</ele><time>2026-04-19T07:35:47.745Z</time></trkpt><trkpt lat="44.8711875" lon="8.0791447"><ele>207.0</ele><time>2026-04-19T07:35:48.769Z</time></trkpt><trkpt lat="44.8710699" lon="8.0791659"><ele>207.0</ele><time>2026-04-19T07:35:49.747Z</time></trkpt><trkpt lat="44.8709565" lon="8.0791938"><ele>205.25</ele><time>2026-04-19T07:35:50.749Z</time></trkpt><trkpt lat="44.8708486" lon="8.0792248"><ele>203.5</ele><time>2026-04-19T07:35:51.746Z</time></trkpt><trkpt lat="44.8707348" lon="8.0792533"><ele>201.75</ele><time>2026-04-19T07:35:52.752Z</time></trkpt><trkpt lat="44.8706154" lon="8.0792731"><ele>200.0</ele><time>2026-04-19T07:35:53.757Z</time></trkpt><trkpt lat="44.8704991" lon="8.0792871"><ele>200.0</ele><time>2026-04-19T07:35:54.757Z</time></trkpt><trkpt lat="44.8703861" lon="8.0792976"><ele>200.0</ele><time>2026-04-19T07:35:55.748Z</time></trkpt><trkpt lat="44.8702769" lon="8.0793167"><ele>200.0</ele><time>2026-04-19T07:35:56.751Z</time></trkpt><trkpt lat="44.8701647" lon="8.0793433"><ele>200.0</ele><time>2026-04-19T07:35:57.748Z</time></trkpt><trkpt lat="44.8700463" lon="8.0793602"><ele>199.6</ele><time>2026-04-19T07:35:58.749Z</time></trkpt><trkpt lat="44.8699389" lon="8.0793954"><ele>199.2</ele><time>2026-04-19T07:35:59.75Z</time></trkpt><trkpt lat="44.8698324" lon="8.079435"><ele>198.8</ele><time>2026-04-19T07:36:00.75Z</time></trkpt><trkpt lat="44.8697348" lon="8.0794638"><ele>198.4</ele><time>2026-04-19T07:36:01.75Z</time></trkpt><trkpt lat="44.8696335" lon="8.0794827"><ele>198.0</ele><time>2026-04-19T07:36:02.746Z</time></trkpt><trkpt lat="44.869547" lon="8.0794841"><ele>198.0</ele><time>2026-04-19T07:36:03.741Z</time></trkpt><trkpt lat="44.8694767" lon="8.0794847"><ele>198.0</ele><time>2026-04-19T07:36:04.745Z</time></trkpt><trkpt lat="44.8694119" lon="8.0795118"><ele>198.0</ele><time>2026-04-19T07:36:39.753Z</time></trkpt><trkpt lat="44.869345" lon="8.0795004"><ele>198.0</ele><time>2026-04-19T07:36:42.757Z</time></trkpt><trkpt lat="44.8692561" lon="8.0794723"><ele>198.0</ele><time>2026-04-19T07:36:45.745Z</time></trkpt><trkpt lat="44.8692464" lon="8.0795718"><ele>198.0</ele><time>2026-04-19T07:36:51.746Z</time></trkpt><trkpt lat="44.8693228" lon="8.0795792"><ele>198.0</ele><time>2026-04-19T07:36:54.745Z</time></trkpt><trkpt lat="44.8693857" lon="8.0795501"><ele>198.0</ele><time>2026-04-19T07:36:56.747Z</time></trkpt><trkpt lat="44.869514" lon="8.0795298"><ele>198.0</ele><time>2026-04-19T07:36:58.758Z</time></trkpt><trkpt lat="44.869584" lon="8.0795044"><ele>198.0</ele><time>2026-04-19T07:36:59.741Z</time></trkpt><trkpt lat="44.869653" lon="8.079473"><ele>198.0</ele><time>2026-04-19T07:37:00.752Z</time></trkpt><trkpt lat="44.8697321" lon="8.0794432"><ele>198.0</ele><time>2026-04-19T07:37:01.749Z</time></trkpt><trkpt lat="44.8698543" lon="8.0794428"><ele>198.0</ele><time>2026-04-19T07:37:03.741Z</time></trkpt><trkpt lat="44.8699194" lon="8.0794282"><ele>198.0</ele><time>2026-04-19T07:37:04.741Z</time></trkpt><trkpt lat="44.8700397" lon="8.0793962"><ele>198.0</ele><time>2026-04-19T07:37:06.747Z</time></trkpt><trkpt lat="44.8701505" lon="8.0793615"><ele>198.0</ele><time>2026-04-19T07:37:08.751Z</time></trkpt><trkpt lat="44.8702185" lon="8.0793438"><ele>198.0</ele><time>2026-04-19T07:37:09.754Z</time></trkpt><trkpt lat="44.8702948" lon="8.0793153"><ele>198.0</ele><time>2026-04-19T07:37:11.757Z</time></trkpt><trkpt lat="44.8703595" lon="8.0792723"><ele>198.0</ele><time>2026-04-19T07:37:16.76Z</time></trkpt><trkpt lat="44.870245" lon="8.0793228"><ele>198.0</ele><time>2026-04-19T07:37:19.755Z</time></trkpt><trkpt lat="44.8701619" lon="8.07935"><ele>198.0</ele><time>2026-04-19T07:37:20.747Z</time></trkpt><trkpt lat="44.8700642" lon="8.0793911"><ele>198.0</ele><time>2026-04-19T07:37:21.776Z</time></trkpt><trkpt lat="44.8699603" lon="8.0794316"><ele>198.0</ele><time>2026-04-19T07:37:22.751Z</time></trkpt><trkpt lat="44.8698483" lon="8.0794744"><ele>198.0</ele><time>2026-04-19T07:37:23.748Z</time></trkpt><trkpt lat="44.869743" lon="8.0795103"><ele>198.0</ele><time>2026-04-19T07:37:24.738Z</time></trkpt><trkpt lat="44.8696433" lon="8.0795425"><ele>198.0</ele><time>2026-04-19T07:37:25.752Z</time></trkpt><trkpt lat="44.8695494" lon="8.0795673"><ele>198.0</ele><time>2026-04-19T07:37:26.747Z</time></trkpt><trkpt lat="44.869479" lon="8.0795779"><ele>198.0</ele><time>2026-04-19T07:37:27.757Z</time></trkpt><trkpt lat="44.8694148" lon="8.0795853"><ele>198.0</ele><time>2026-04-19T07:37:29.753Z</time></trkpt><trkpt lat="44.8694169" lon="8.0797021"><ele>198.0</ele><time>2026-04-19T07:37:33.754Z</time></trkpt><trkpt lat="44.8694376" lon="8.0797947"><ele>198.0</ele><time>2026-04-19T07:37:34.752Z</time></trkpt><trkpt lat="44.8694523" lon="8.0798888"><ele>198.0</ele><time>2026-04-19T07:37:35.751Z</time></trkpt><trkpt lat="44.8694552" lon="8.0799818"><ele>198.0</ele><time>2026-04-19T07:37:36.752Z</time></trkpt><trkpt lat="44.8694543" lon="8.0801255"><ele>197.85714285714286</ele><time>2026-04-19T07:37:38.754Z</time></trkpt><trkpt lat="44.8694577" lon="8.0802207"><ele>197.7142857142857</ele><time>2026-04-19T07:37:40.749Z</time></trkpt><trkpt lat="44.8694369" lon="8.0803177"><ele>197.57142857142856</ele><time>2026-04-19T07:37:42.755Z</time></trkpt><trkpt lat="44.8694141" lon="8.0804227"><ele>197.42857142857144</ele><time>2026-04-19T07:37:45.756Z</time></trkpt><trkpt lat="44.8693646" lon="8.0804824"><ele>197.28571428571428</ele><time>2026-04-19T07:37:53.758Z</time></trkpt><trkpt lat="44.8693498" lon="8.0803845"><ele>197.14285714285714</ele><time>2026-04-19T07:37:56.757Z</time></trkpt><trkpt lat="44.8693747" lon="8.0802857"><ele>197.0</ele><time>2026-04-19T07:37:57.764Z</time></trkpt><trkpt lat="44.8693948" lon="8.0801825"><ele>197.00000000000003</ele><time>2026-04-19T07:37:58.753Z</time></trkpt><trkpt lat="44.8694153" lon="8.0800691"><ele>197.0</ele><time>2026-04-19T07:37:59.753Z</time></trkpt><trkpt lat="44.8694324" lon="8.0799647"><ele>197.0</ele><time>2026-04-19T07:38:00.758Z</time></trkpt><trkpt lat="44.8694487" lon="8.079851"><ele>197.0</ele><time>2026-04-19T07:38:01.754Z</time></trkpt><trkpt lat="44.8694552" lon="8.0797373"><ele>197.00000000000003</ele><time>2026-04-19T07:38:02.757Z</time></trkpt><trkpt lat="44.8694501" lon="8.079642"><ele>197.0</ele><time>2026-04-19T07:38:03.756Z</time></trkpt><trkpt lat="44.8693869" lon="8.0794854"><ele>196.33333333333334</ele><time>2026-04-19T07:38:05.766Z</time></trkpt><trkpt lat="44.8692686" lon="8.079417"><ele>195.66666666666669</ele><time>2026-04-19T07:38:07.759Z</time></trkpt><trkpt lat="44.8691997" lon="8.0793774"><ele>195.0</ele><time>2026-04-19T07:38:08.753Z</time></trkpt><trkpt lat="44.8691314" lon="8.079333"><ele>194.33333333333331</ele><time>2026-04-19T07:38:09.753Z</time></trkpt><trkpt lat="44.8690589" lon="8.079275"><ele>193.66666666666666</ele><time>2026-04-19T07:38:10.751Z</time></trkpt><trkpt lat="44.8689859" lon="8.0792222"><ele>193.0</ele><time>2026-04-19T07:38:11.754Z</time></trkpt><trkpt lat="44.8689085" lon="8.0791602"><ele>191.60000000000002</ele><time>2026-04-19T07:38:12.757Z</time></trkpt><trkpt lat="44.8688255" lon="8.0790967"><ele>190.20000000000002</ele><time>2026-04-19T07:38:13.753Z</time></trkpt><trkpt lat="44.8687382" lon="8.0790431"><ele>188.8</ele><time>2026-04-19T07:38:14.75Z</time></trkpt><trkpt lat="44.8686465" lon="8.0789781"><ele>187.4</ele><time>2026-04-19T07:38:15.757Z</time></trkpt><trkpt lat="44.8685648" lon="8.0789144"><ele>186.0</ele><time>2026-04-19T07:38:16.751Z</time></trkpt><trkpt lat="44.8684848" lon="8.0788561"><ele>186.0</ele><time>2026-04-19T07:38:17.76Z</time></trkpt><trkpt lat="44.8684259" lon="8.0787913"><ele>186.0</ele><time>2026-04-19T07:38:18.76Z</time></trkpt><trkpt lat="44.8684072" lon="8.078692"><ele>186.0</ele><time>2026-04-19T07:38:19.762Z</time></trkpt><trkpt lat="44.8684245" lon="8.0785697"><ele>186.0</ele><time>2026-04-19T07:38:20.746Z</time></trkpt><trkpt lat="44.8684759" lon="8.0784585"><ele>186.0</ele><time>2026-04-19T07:38:21.756Z</time></trkpt><trkpt lat="44.8685508" lon="8.0783"><ele>185.5</ele><time>2026-04-19T07:38:22.761Z</time></trkpt><trkpt lat="44.8686672" lon="8.0781687"><ele>185.0</ele><time>2026-04-19T07:38:23.765Z</time></trkpt><trkpt lat="44.8687564" lon="8.0780521"><ele>184.5</ele><time>2026-04-19T07:38:24.745Z</time></trkpt><trkpt lat="44.8688308" lon="8.0779388"><ele>184.0</ele><time>2026-04-19T07:38:25.752Z</time></trkpt><trkpt lat="44.8688834" lon="8.0778234"><ele>184.0</ele><time>2026-04-19T07:38:26.76Z</time></trkpt><trkpt lat="44.8688867" lon="8.0777146"><ele>184.0</ele><time>2026-04-19T07:38:27.748Z</time></trkpt><trkpt lat="44.8688394" lon="8.0776192"><ele>184.0</ele><time>2026-04-19T07:38:28.755Z</time></trkpt><trkpt lat="44.8687778" lon="8.0774926"><ele>184.0</ele><time>2026-04-19T07:38:29.762Z</time></trkpt><trkpt lat="44.8686997" lon="8.0774175"><ele>184.0</ele><time>2026-04-19T07:38:30.765Z</time></trkpt><trkpt lat="44.8685939" lon="8.077474"><ele>184.0</ele><time>2026-04-19T07:38:31.76Z</time></trkpt><trkpt lat="44.8684945" lon="8.0775937"><ele>184.0</ele><time>2026-04-19T07:38:32.746Z</time></trkpt><trkpt lat="44.8683908" lon="8.0777177"><ele>184.0</ele><time>2026-04-19T07:38:33.744Z</time></trkpt><trkpt lat="44.8682897" lon="8.0778153"><ele>184.0</ele><time>2026-04-19T07:38:34.751Z</time></trkpt><trkpt lat="44.8681987" lon="8.0779101"><ele>182.39999999999998</ele><time>2026-04-19T07:38:35.744Z</time></trkpt><trkpt lat="44.8681079" lon="8.0779944"><ele>180.8</ele><time>2026-04-19T07:38:36.748Z</time></trkpt><trkpt lat="44.8680099" lon="8.0780629"><ele>179.2</ele><time>2026-04-19T07:38:37.747Z</time></trkpt><trkpt lat="44.8679172" lon="8.0781275"><ele>177.60000000000002</ele><time>2026-04-19T07:38:38.747Z</time></trkpt><trkpt lat="44.867827" lon="8.0781823"><ele>176.0</ele><time>2026-04-19T07:38:39.752Z</time></trkpt><trkpt lat="44.8677321" lon="8.0782332"><ele>176.20000000000002</ele><time>2026-04-19T07:38:40.753Z</time></trkpt><trkpt lat="44.867642" lon="8.0782864"><ele>176.4</ele><time>2026-04-19T07:38:41.753Z</time></trkpt><trkpt lat="44.8675556" lon="8.0783395"><ele>176.6</ele><time>2026-04-19T07:38:42.751Z</time></trkpt><trkpt lat="44.867468" lon="8.0783874"><ele>176.8</ele><time>2026-04-19T07:38:43.752Z</time></trkpt><trkpt lat="44.8673774" lon="8.0784302"><ele>177.0</ele><time>2026-04-19T07:38:44.748Z</time></trkpt><trkpt lat="44.8672864" lon="8.0784821"><ele>177.0</ele><time>2026-04-19T07:38:45.747Z</time></trkpt><trkpt lat="44.8671996" lon="8.0785306"><ele>177.0</ele><time>2026-04-19T07:38:46.748Z</time></trkpt><trkpt lat="44.8671076" lon="8.0785694"><ele>177.0</ele><time>2026-04-19T07:38:47.743Z</time></trkpt><trkpt lat="44.8670142" lon="8.0785909"><ele>177.0</ele><time>2026-04-19T07:38:48.756Z</time></trkpt><trkpt lat="44.8669221" lon="8.0785863"><ele>177.0</ele><time>2026-04-19T07:38:49.753Z</time></trkpt><trkpt lat="44.8668297" lon="8.0785581"><ele>176.5</ele><time>2026-04-19T07:38:50.749Z</time></trkpt><trkpt lat="44.866751" lon="8.0785197"><ele>176.0</ele><time>2026-04-19T07:38:51.751Z</time></trkpt><trkpt lat="44.8666739" lon="8.0784598"><ele>175.5</ele><time>2026-04-19T07:38:52.75Z</time></trkpt><trkpt lat="44.8666104" lon="8.0783947"><ele>175.0</ele><time>2026-04-19T07:38:53.749Z</time></trkpt><trkpt lat="44.8665585" lon="8.0783429"><ele>174.5</ele><time>2026-04-19T07:38:54.773Z</time></trkpt><trkpt lat="44.8665039" lon="8.0782685"><ele>174.0</ele><time>2026-04-19T07:38:56.751Z</time></trkpt><trkpt lat="44.86646" lon="8.0781736"><ele>174.0</ele><time>2026-04-19T07:38:59.757Z</time></trkpt><trkpt lat="44.8664182" lon="8.0780878"><ele>174.0</ele><time>2026-04-19T07:39:03.753Z</time></trkpt><trkpt lat="44.8663635" lon="8.0780197"><ele>174.0</ele><time>2026-04-19T07:39:06.735Z</time></trkpt><trkpt lat="44.8663109" lon="8.0778888"><ele>174.0</ele><time>2026-04-19T07:39:08.739Z</time></trkpt><trkpt lat="44.8662386" lon="8.0778013"><ele>174.0</ele><time>2026-04-19T07:39:10.751Z</time></trkpt><trkpt lat="44.8661749" lon="8.0777125"><ele>174.0</ele><time>2026-04-19T07:39:12.747Z</time></trkpt><trkpt lat="44.866155" lon="8.0776266"><ele>174.0</ele><time>2026-04-19T07:39:13.767Z</time></trkpt><trkpt lat="44.8661465" lon="8.0775126"><ele>174.0</ele><time>2026-04-19T07:39:14.749Z</time></trkpt><trkpt lat="44.8661625" lon="8.0773852"><ele>174.0</ele><time>2026-04-19T07:39:15.76Z</time></trkpt><trkpt lat="44.8662004" lon="8.0772445"><ele>174.0</ele><time>2026-04-19T07:39:16.758Z</time></trkpt><trkpt lat="44.8662533" lon="8.0770713"><ele>174.0</ele><time>2026-04-19T07:39:17.753Z</time></trkpt><trkpt lat="44.8662917" lon="8.0769153"><ele>174.5</ele><time>2026-04-19T07:39:18.749Z</time></trkpt><trkpt lat="44.8663273" lon="8.0767546"><ele>175.0</ele><time>2026-04-19T07:39:19.751Z</time></trkpt><trkpt lat="44.8663541" lon="8.0765956"><ele>175.5</ele><time>2026-04-19T07:39:20.748Z</time></trkpt><trkpt lat="44.8663665" lon="8.0764241"><ele>176.0</ele><time>2026-04-19T07:39:21.742Z</time></trkpt><trkpt lat="44.8663591" lon="8.0762672"><ele>176.75</ele><time>2026-04-19T07:39:22.743Z</time></trkpt><trkpt lat="44.8663301" lon="8.0760887"><ele>177.5</ele><time>2026-04-19T07:39:23.737Z</time></trkpt><trkpt lat="44.8662989" lon="8.0759058"><ele>178.25</ele><time>2026-04-19T07:39:24.737Z</time></trkpt><trkpt lat="44.8662747" lon="8.0757107"><ele>179.0</ele><time>2026-04-19T07:39:25.759Z</time></trkpt><trkpt lat="44.8662484" lon="8.0755129"><ele>179.25</ele><time>2026-04-19T07:39:26.732Z</time></trkpt><trkpt lat="44.8662119" lon="8.0753202"><ele>179.5</ele><time>2026-04-19T07:39:27.735Z</time></trkpt><trkpt lat="44.8661851" lon="8.0751212"><ele>179.75</ele><time>2026-04-19T07:39:28.733Z</time></trkpt><trkpt lat="44.8661565" lon="8.074906"><ele>180.0</ele><time>2026-04-19T07:39:29.738Z</time></trkpt><trkpt lat="44.8661035" lon="8.0747034"><ele>181.33333333333334</ele><time>2026-04-19T07:39:30.75Z</time></trkpt><trkpt lat="44.8660504" lon="8.0744893"><ele>182.66666666666669</ele><time>2026-04-19T07:39:31.75Z</time></trkpt><trkpt lat="44.8659782" lon="8.0743064"><ele>184.0</ele><time>2026-04-19T07:39:32.748Z</time></trkpt><trkpt lat="44.8658916" lon="8.074135"><ele>185.75</ele><time>2026-04-19T07:39:33.759Z</time></trkpt><trkpt lat="44.8658061" lon="8.0739928"><ele>187.5</ele><time>2026-04-19T07:39:34.751Z</time></trkpt><trkpt lat="44.8657143" lon="8.0738738"><ele>189.25</ele><time>2026-04-19T07:39:35.748Z</time></trkpt><trkpt lat="44.8655918" lon="8.0737899"><ele>191.0</ele><time>2026-04-19T07:39:36.748Z</time></trkpt><trkpt lat="44.8654969" lon="8.0737232"><ele>191.0</ele><time>2026-04-19T07:39:37.744Z</time></trkpt><trkpt lat="44.8654047" lon="8.0736627"><ele>191.0</ele><time>2026-04-19T07:39:38.746Z</time></trkpt><trkpt lat="44.8653002" lon="8.0736086"><ele>191.0</ele><time>2026-04-19T07:39:39.745Z</time></trkpt><trkpt lat="44.8652023" lon="8.0735659"><ele>191.0</ele><time>2026-04-19T07:39:40.753Z</time></trkpt><trkpt lat="44.8651032" lon="8.0735409"><ele>191.0</ele><time>2026-04-19T07:39:41.757Z</time></trkpt><trkpt lat="44.8650058" lon="8.0735247"><ele>191.20000000000002</ele><time>2026-04-19T07:39:42.758Z</time></trkpt><trkpt lat="44.8649086" lon="8.0734959"><ele>191.4</ele><time>2026-04-19T07:39:43.761Z</time></trkpt><trkpt lat="44.8648196" lon="8.0734564"><ele>191.6</ele><time>2026-04-19T07:39:44.753Z</time></trkpt><trkpt lat="44.8647349" lon="8.0733887"><ele>191.8</ele><time>2026-04-19T07:39:45.751Z</time></trkpt><trkpt lat="44.8646625" lon="8.0733055"><ele>192.0</ele><time>2026-04-19T07:39:46.736Z</time></trkpt><trkpt lat="44.8646009" lon="8.0732136"><ele>192.39999999999998</ele><time>2026-04-19T07:39:47.76Z</time></trkpt><trkpt lat="44.8645612" lon="8.073094"><ele>192.79999999999998</ele><time>2026-04-19T07:39:48.762Z</time></trkpt><trkpt lat="44.86455" lon="8.0729582"><ele>193.2</ele><time>2026-04-19T07:39:49.756Z</time></trkpt><trkpt lat="44.8645461" lon="8.07283"><ele>193.6</ele><time>2026-04-19T07:39:50.753Z</time></trkpt><trkpt lat="44.8645363" lon="8.0727027"><ele>194.0</ele><time>2026-04-19T07:39:51.759Z</time></trkpt><trkpt lat="44.8645174" lon="8.0725825"><ele>194.0</ele><time>2026-04-19T07:39:52.767Z</time></trkpt><trkpt lat="44.8644875" lon="8.0724743"><ele>194.0</ele><time>2026-04-19T07:39:53.765Z</time></trkpt><trkpt lat="44.8644275" lon="8.0724075"><ele>194.0</ele><time>2026-04-19T07:39:54.764Z</time></trkpt><trkpt lat="44.8643682" lon="8.0723627"><ele>194.0</ele><time>2026-04-19T07:39:55.76Z</time></trkpt><trkpt lat="44.8642783" lon="8.0723632"><ele>194.0</ele><time>2026-04-19T07:39:57.759Z</time></trkpt><trkpt lat="44.8642159" lon="8.0723264"><ele>194.0</ele><time>2026-04-19T07:40:00.755Z</time></trkpt><trkpt lat="44.8642284" lon="8.0724139"><ele>194.0</ele><time>2026-04-19T07:40:09.766Z</time></trkpt><trkpt lat="44.864319" lon="8.0724658"><ele>194.0</ele><time>2026-04-19T07:40:11.76Z</time></trkpt><trkpt lat="44.8643931" lon="8.0725002"><ele>194.0</ele><time>2026-04-19T07:40:12.751Z</time></trkpt><trkpt lat="44.8644707" lon="8.0725498"><ele>194.0</ele><time>2026-04-19T07:40:13.756Z</time></trkpt><trkpt lat="44.8645498" lon="8.072616"><ele>194.0</ele><time>2026-04-19T07:40:14.758Z</time></trkpt><trkpt lat="44.8646077" lon="8.0727289"><ele>194.0</ele><time>2026-04-19T07:40:15.755Z</time></trkpt><trkpt lat="44.8646276" lon="8.0729019"><ele>194.0</ele><time>2026-04-19T07:40:16.749Z</time></trkpt><trkpt lat="44.8646415" lon="8.073092"><ele>194.0</ele><time>2026-04-19T07:40:17.758Z</time></trkpt><trkpt lat="44.8646881" lon="8.0732703"><ele>194.0</ele><time>2026-04-19T07:40:18.759Z</time></trkpt><trkpt lat="44.8647649" lon="8.0734325"><ele>194.0</ele><time>2026-04-19T07:40:19.763Z</time></trkpt><trkpt lat="44.8648704" lon="8.0735568"><ele>193.5</ele><time>2026-04-19T07:40:20.753Z</time></trkpt><trkpt lat="44.8649924" lon="8.0736404"><ele>193.0</ele><time>2026-04-19T07:40:21.747Z</time></trkpt><trkpt lat="44.8651403" lon="8.0736907"><ele>192.5</ele><time>2026-04-19T07:40:22.745Z</time></trkpt><trkpt lat="44.8652991" lon="8.0737184"><ele>192.0</ele><time>2026-04-19T07:40:23.742Z</time></trkpt><trkpt lat="44.865447" lon="8.0737671"><ele>191.75</ele><time>2026-04-19T07:40:24.751Z</time></trkpt><trkpt lat="44.8655739" lon="8.073844"><ele>191.5</ele><time>2026-04-19T07:40:25.74Z</time></trkpt><trkpt lat="44.8657073" lon="8.0739402"><ele>191.25</ele><time>2026-04-19T07:40:26.739Z</time></trkpt><trkpt lat="44.8658369" lon="8.0740695"><ele>191.0</ele><time>2026-04-19T07:40:27.755Z</time></trkpt><trkpt lat="44.8659389" lon="8.0742043"><ele>189.25</ele><time>2026-04-19T07:40:28.746Z</time></trkpt><trkpt lat="44.8660195" lon="8.0743861"><ele>187.5</ele><time>2026-04-19T07:40:29.75Z</time></trkpt><trkpt lat="44.8660736" lon="8.0745836"><ele>185.75</ele><time>2026-04-19T07:40:30.745Z</time></trkpt><trkpt lat="44.8661223" lon="8.074775"><ele>184.0</ele><time>2026-04-19T07:40:31.745Z</time></trkpt><trkpt lat="44.8661651" lon="8.0749825"><ele>183.0</ele><time>2026-04-19T07:40:32.744Z</time></trkpt><trkpt lat="44.8662075" lon="8.0751904"><ele>182.0</ele><time>2026-04-19T07:40:33.747Z</time></trkpt><trkpt lat="44.8662405" lon="8.0753776"><ele>181.0</ele><time>2026-04-19T07:40:34.733Z</time></trkpt><trkpt lat="44.8662665" lon="8.0755627"><ele>180.0</ele><time>2026-04-19T07:40:35.736Z</time></trkpt><trkpt lat="44.8663014" lon="8.0757417"><ele>179.75</ele><time>2026-04-19T07:40:36.738Z</time></trkpt><trkpt lat="44.8663402" lon="8.0759235"><ele>179.5</ele><time>2026-04-19T07:40:37.737Z</time></trkpt><trkpt lat="44.8663544" lon="8.0761"><ele>179.25</ele><time>2026-04-19T07:40:38.735Z</time></trkpt><trkpt lat="44.8663576" lon="8.0762681"><ele>179.0</ele><time>2026-04-19T07:40:39.731Z</time></trkpt><trkpt lat="44.8663657" lon="8.0764074"><ele>179.0</ele><time>2026-04-19T07:40:40.748Z</time></trkpt><trkpt lat="44.8663744" lon="8.0765467"><ele>179.0</ele><time>2026-04-19T07:40:41.743Z</time></trkpt><trkpt lat="44.8663619" lon="8.0766897"><ele>179.0</ele><time>2026-04-19T07:40:42.743Z</time></trkpt><trkpt lat="44.8663358" lon="8.0768549"><ele>179.0</ele><time>2026-04-19T07:40:43.747Z</time></trkpt><trkpt lat="44.8663096" lon="8.0770168"><ele>179.0</ele><time>2026-04-19T07:40:44.745Z</time></trkpt><trkpt lat="44.8662777" lon="8.0771701"><ele>178.39999999999998</ele><time>2026-04-19T07:40:45.753Z</time></trkpt><trkpt lat="44.8662423" lon="8.0773116"><ele>177.8</ele><time>2026-04-19T07:40:46.752Z</time></trkpt><trkpt lat="44.8662162" lon="8.0774344"><ele>177.2</ele><time>2026-04-19T07:40:47.749Z</time></trkpt><trkpt lat="44.8661904" lon="8.0775565"><ele>176.60000000000002</ele><time>2026-04-19T07:40:48.751Z</time></trkpt><trkpt lat="44.8661711" lon="8.0776657"><ele>176.0</ele><time>2026-04-19T07:40:49.762Z</time></trkpt><trkpt lat="44.8661661" lon="8.0777839"><ele>175.66666666666666</ele><time>2026-04-19T07:40:51.755Z</time></trkpt><trkpt lat="44.8660837" lon="8.0777406"><ele>175.33333333333331</ele><time>2026-04-19T07:40:55.752Z</time></trkpt><trkpt lat="44.8660309" lon="8.0776919"><ele>175.0</ele><time>2026-04-19T07:40:56.758Z</time></trkpt><trkpt lat="44.8659723" lon="8.0776384"><ele>174.66666666666666</ele><time>2026-04-19T07:40:57.756Z</time></trkpt><trkpt lat="44.8659002" lon="8.0775821"><ele>174.33333333333334</ele><time>2026-04-19T07:40:59.753Z</time></trkpt><trkpt lat="44.8659691" lon="8.0775962"><ele>174.0</ele><time>2026-04-19T07:41:39.757Z</time></trkpt><trkpt lat="44.8660504" lon="8.0776307"><ele>174.0</ele><time>2026-04-19T07:41:41.761Z</time></trkpt><trkpt lat="44.8661243" lon="8.0776757"><ele>174.0</ele><time>2026-04-19T07:41:43.765Z</time></trkpt><trkpt lat="44.8661747" lon="8.0777589"><ele>174.0</ele><time>2026-04-19T07:41:44.758Z</time></trkpt><trkpt lat="44.8662372" lon="8.0778642"><ele>174.0</ele><time>2026-04-19T07:41:45.755Z</time></trkpt><trkpt lat="44.8663255" lon="8.0779885"><ele>174.0</ele><time>2026-04-19T07:41:46.757Z</time></trkpt><trkpt lat="44.8664326" lon="8.0781371"><ele>173.66666666666666</ele><time>2026-04-19T07:41:47.749Z</time></trkpt><trkpt lat="44.8665485" lon="8.0782822"><ele>173.33333333333331</ele><time>2026-04-19T07:41:48.751Z</time></trkpt><trkpt lat="44.8666651" lon="8.0784241"><ele>173.0</ele><time>2026-04-19T07:41:49.756Z</time></trkpt><trkpt lat="44.8667949" lon="8.0785465"><ele>174.33333333333331</ele><time>2026-04-19T07:41:50.757Z</time></trkpt><trkpt lat="44.8669277" lon="8.0786139"><ele>175.66666666666666</ele><time>2026-04-19T07:41:51.753Z</time></trkpt><trkpt lat="44.8670831" lon="8.0786016"><ele>177.0</ele><time>2026-04-19T07:41:52.75Z</time></trkpt><trkpt lat="44.8672534" lon="8.0785258"><ele>177.0</ele><time>2026-04-19T07:41:53.742Z</time></trkpt><trkpt lat="44.8674252" lon="8.0784293"><ele>177.0</ele><time>2026-04-19T07:41:54.738Z</time></trkpt><trkpt lat="44.8675908" lon="8.0783151"><ele>177.0</ele><time>2026-04-19T07:41:55.746Z</time></trkpt><trkpt lat="44.8677585" lon="8.078213"><ele>176.66666666666666</ele><time>2026-04-19T07:41:56.738Z</time></trkpt><trkpt lat="44.8679349" lon="8.0781246"><ele>176.33333333333331</ele><time>2026-04-19T07:41:57.747Z</time></trkpt><trkpt lat="44.8680796" lon="8.0780415"><ele>176.0</ele><time>2026-04-19T07:41:58.745Z</time></trkpt><trkpt lat="44.8682142" lon="8.0779541"><ele>176.0</ele><time>2026-04-19T07:41:59.749Z</time></trkpt><trkpt lat="44.8683471" lon="8.0778582"><ele>176.0</ele><time>2026-04-19T07:42:00.772Z</time></trkpt><trkpt lat="44.8684543" lon="8.0777726"><ele>176.0</ele><time>2026-04-19T07:42:01.747Z</time></trkpt><trkpt lat="44.8685496" lon="8.0776905"><ele>176.0</ele><time>2026-04-19T07:42:02.769Z</time></trkpt><trkpt lat="44.8686375" lon="8.0776248"><ele>177.60000000000002</ele><time>2026-04-19T07:42:03.753Z</time></trkpt><trkpt lat="44.8687422" lon="8.0776395"><ele>179.2</ele><time>2026-04-19T07:42:04.755Z</time></trkpt><trkpt lat="44.868822" lon="8.0777058"><ele>180.8</ele><time>2026-04-19T07:42:05.759Z</time></trkpt><trkpt lat="44.8688629" lon="8.0777929"><ele>182.39999999999998</ele><time>2026-04-19T07:42:06.761Z</time></trkpt><trkpt lat="44.8688413" lon="8.0779107"><ele>184.0</ele><time>2026-04-19T07:42:07.762Z</time></trkpt><trkpt lat="44.8687898" lon="8.0780537"><ele>184.0</ele><time>2026-04-19T07:42:08.761Z</time></trkpt><trkpt lat="44.8687068" lon="8.07818"><ele>184.0</ele><time>2026-04-19T07:42:09.754Z</time></trkpt><trkpt lat="44.8686121" lon="8.0783028"><ele>184.0</ele><time>2026-04-19T07:42:10.749Z</time></trkpt><trkpt lat="44.8685203" lon="8.0784326"><ele>184.0</ele><time>2026-04-19T07:42:11.753Z</time></trkpt><trkpt lat="44.8684381" lon="8.0785564"><ele>184.39999999999998</ele><time>2026-04-19T07:42:12.751Z</time></trkpt><trkpt lat="44.8683688" lon="8.0786781"><ele>184.8</ele><time>2026-04-19T07:42:13.758Z</time></trkpt><trkpt lat="44.8683517" lon="8.0787959"><ele>185.2</ele><time>2026-04-19T07:42:14.748Z</time></trkpt><trkpt lat="44.8683952" lon="8.0788999"><ele>185.60000000000002</ele><time>2026-04-19T07:42:15.759Z</time></trkpt><trkpt lat="44.8684857" lon="8.0789833"><ele>186.0</ele><time>2026-04-19T07:42:16.749Z</time></trkpt><trkpt lat="44.8686068" lon="8.079043"><ele>187.75</ele><time>2026-04-19T07:42:17.739Z</time></trkpt><trkpt lat="44.8687418" lon="8.0791086"><ele>189.5</ele><time>2026-04-19T07:42:18.74Z</time></trkpt><trkpt lat="44.8688795" lon="8.0791972"><ele>191.25</ele><time>2026-04-19T07:42:19.746Z</time></trkpt><trkpt lat="44.8690147" lon="8.079291"><ele>193.0</ele><time>2026-04-19T07:42:20.75Z</time></trkpt><trkpt lat="44.8691449" lon="8.0793838"><ele>193.0</ele><time>2026-04-19T07:42:21.754Z</time></trkpt><trkpt lat="44.8692603" lon="8.0794563"><ele>193.0</ele><time>2026-04-19T07:42:22.745Z</time></trkpt><trkpt lat="44.8693586" lon="8.0795231"><ele>193.0</ele><time>2026-04-19T07:42:23.755Z</time></trkpt><trkpt lat="44.8694283" lon="8.0795576"><ele>193.0</ele><time>2026-04-19T07:42:24.746Z</time></trkpt><trkpt lat="44.8695062" lon="8.0795656"><ele>193.0</ele><time>2026-04-19T07:42:26.756Z</time></trkpt><trkpt lat="44.8696128" lon="8.0795072"><ele>194.0</ele><time>2026-04-19T07:42:28.746Z</time></trkpt><trkpt lat="44.8696796" lon="8.0794666"><ele>195.0</ele><time>2026-04-19T07:42:29.748Z</time></trkpt><trkpt lat="44.8697616" lon="8.079428"><ele>196.0</ele><time>2026-04-19T07:42:30.759Z</time></trkpt><trkpt lat="44.8698695" lon="8.0793987"><ele>197.0</ele><time>2026-04-19T07:42:31.773Z</time></trkpt><trkpt lat="44.8699776" lon="8.079375"><ele>198.0</ele><time>2026-04-19T07:42:32.753Z</time></trkpt><trkpt lat="44.8700813" lon="8.0793543"><ele>198.33333333333334</ele><time>2026-04-19T07:42:33.753Z</time></trkpt><trkpt lat="44.8701777" lon="8.0793333"><ele>198.66666666666669</ele><time>2026-04-19T07:42:34.75Z</time></trkpt><trkpt lat="44.8702671" lon="8.0793092"><ele>199.0</ele><time>2026-04-19T07:42:35.758Z</time></trkpt><trkpt lat="44.8703319" lon="8.079292"><ele>199.33333333333334</ele><time>2026-04-19T07:42:36.752Z</time></trkpt><trkpt lat="44.8704001" lon="8.0793052"><ele>199.66666666666669</ele><time>2026-04-19T07:42:38.753Z</time></trkpt><trkpt lat="44.8704153" lon="8.07917"><ele>200.0</ele><time>2026-04-19T07:42:46.769Z</time></trkpt><trkpt lat="44.8704188" lon="8.0790733"><ele>200.2</ele><time>2026-04-19T07:42:47.757Z</time></trkpt><trkpt lat="44.8704085" lon="8.07893"><ele>200.4</ele><time>2026-04-19T07:42:48.765Z</time></trkpt><trkpt lat="44.8703976" lon="8.0787653"><ele>200.60000000000002</ele><time>2026-04-19T07:42:49.757Z</time></trkpt><trkpt lat="44.8703857" lon="8.078601"><ele>200.8</ele><time>2026-04-19T07:42:50.754Z</time></trkpt><trkpt lat="44.8703742" lon="8.0784468"><ele>201.0</ele><time>2026-04-19T07:42:51.748Z</time></trkpt><trkpt lat="44.8703585" lon="8.0783039"><ele>200.0</ele><time>2026-04-19T07:42:52.749Z</time></trkpt><trkpt lat="44.8703354" lon="8.0781693"><ele>199.0</ele><time>2026-04-19T07:42:53.751Z</time></trkpt><trkpt lat="44.870307" lon="8.0780606"><ele>198.0</ele><time>2026-04-19T07:42:54.746Z</time></trkpt><trkpt lat="44.8702891" lon="8.0779471"><ele>197.0</ele><time>2026-04-19T07:42:55.745Z</time></trkpt><trkpt lat="44.8702773" lon="8.0778339"><ele>196.0</ele><time>2026-04-19T07:42:56.749Z</time></trkpt><trkpt lat="44.8702821" lon="8.0777144"><ele>195.0</ele><time>2026-04-19T07:42:57.751Z</time></trkpt><trkpt lat="44.8702913" lon="8.0775934"><ele>195.0</ele><time>2026-04-19T07:42:58.738Z</time></trkpt><trkpt lat="44.8702957" lon="8.0774667"><ele>195.0</ele><time>2026-04-19T07:42:59.738Z</time></trkpt><trkpt lat="44.8702906" lon="8.0773215"><ele>195.0</ele><time>2026-04-19T07:43:00.738Z</time></trkpt><trkpt lat="44.870268" lon="8.0771451"><ele>195.0</ele><time>2026-04-19T07:43:01.738Z</time></trkpt><trkpt lat="44.8702241" lon="8.0769682"><ele>195.66666666666669</ele><time>2026-04-19T07:43:02.783Z</time></trkpt><trkpt lat="44.8701888" lon="8.0767648"><ele>196.33333333333334</ele><time>2026-04-19T07:43:03.75Z</time></trkpt><trkpt lat="44.8701613" lon="8.0765592"><ele>197.0</ele><time>2026-04-19T07:43:04.754Z</time></trkpt><trkpt lat="44.8701362" lon="8.0763411"><ele>197.0</ele><time>2026-04-19T07:43:05.75Z</time></trkpt><trkpt lat="44.8701371" lon="8.0761281"><ele>197.0</ele><time>2026-04-19T07:43:06.76Z</time></trkpt><trkpt lat="44.8701414" lon="8.0759644"><ele>197.0</ele><time>2026-04-19T07:43:07.751Z</time></trkpt><trkpt lat="44.870137" lon="8.0758428"><ele>197.0</ele><time>2026-04-19T07:43:08.74Z</time></trkpt><trkpt lat="44.8701305" lon="8.075732"><ele>197.0</ele><time>2026-04-19T07:43:09.742Z</time></trkpt><trkpt lat="44.870152" lon="8.0755854"><ele>197.39999999999998</ele><time>2026-04-19T07:43:10.739Z</time></trkpt><trkpt lat="44.870215" lon="8.0755013"><ele>197.79999999999998</ele><time>2026-04-19T07:43:19.748Z</time></trkpt><trkpt lat="44.8702916" lon="8.0754255"><ele>198.2</ele><time>2026-04-19T07:43:21.767Z</time></trkpt><trkpt lat="44.8704232" lon="8.0754228"><ele>198.6</ele><time>2026-04-19T07:43:23.729Z</time></trkpt><trkpt lat="44.870526" lon="8.0754408"><ele>199.0</ele><time>2026-04-19T07:43:24.737Z</time></trkpt><trkpt lat="44.8706361" lon="8.0754518"><ele>199.0</ele><time>2026-04-19T07:43:25.742Z</time></trkpt><trkpt lat="44.8707523" lon="8.0754537"><ele>199.0</ele><time>2026-04-19T07:43:26.745Z</time></trkpt><trkpt lat="44.8708544" lon="8.0754677"><ele>199.0</ele><time>2026-04-19T07:43:27.747Z</time></trkpt><trkpt lat="44.8709619" lon="8.0754799"><ele>199.0</ele><time>2026-04-19T07:43:28.746Z</time></trkpt><trkpt lat="44.8710728" lon="8.0755108"><ele>199.0</ele><time>2026-04-19T07:43:29.74Z</time></trkpt><trkpt lat="44.8711723" lon="8.0755231"><ele>200.49999999999997</ele><time>2026-04-19T07:43:30.749Z</time></trkpt><trkpt lat="44.8712547" lon="8.0755157"><ele>202.0</ele><time>2026-04-19T07:43:31.738Z</time></trkpt><trkpt lat="44.8713415" lon="8.0754992"><ele>203.5</ele><time>2026-04-19T07:43:32.753Z</time></trkpt><trkpt lat="44.8714235" lon="8.0754694"><ele>205.0</ele><time>2026-04-19T07:43:33.738Z</time></trkpt><trkpt lat="44.8714934" lon="8.0754474"><ele>206.49999999999997</ele><time>2026-04-19T07:43:34.742Z</time></trkpt><trkpt lat="44.8715688" lon="8.0754235"><ele>208.0</ele><time>2026-04-19T07:43:35.737Z</time></trkpt><trkpt lat="44.8716486" lon="8.0753863"><ele>207.99999999999997</ele><time>2026-04-19T07:43:36.742Z</time></trkpt><trkpt lat="44.871722" lon="8.075339"><ele>208.0</ele><time>2026-04-19T07:43:37.742Z</time></trkpt><trkpt lat="44.8717908" lon="8.0752625"><ele>208.0</ele><time>2026-04-19T07:43:38.748Z</time></trkpt><trkpt lat="44.8718531" lon="8.0751731"><ele>208.0</ele><time>2026-04-19T07:43:39.743Z</time></trkpt><trkpt lat="44.8719083" lon="8.0750811"><ele>207.99999999999997</ele><time>2026-04-19T07:43:40.744Z</time></trkpt><trkpt lat="44.8719663" lon="8.0749833"><ele>208.0</ele><time>2026-04-19T07:43:41.749Z</time></trkpt><trkpt lat="44.8720238" lon="8.0748887"><ele>208.83333333333331</ele><time>2026-04-19T07:43:42.75Z</time></trkpt><trkpt lat="44.8720869" lon="8.0748136"><ele>209.66666666666666</ele><time>2026-04-19T07:43:43.744Z</time></trkpt><trkpt lat="44.8721615" lon="8.0747391"><ele>210.5</ele><time>2026-04-19T07:43:44.747Z</time></trkpt><trkpt lat="44.8722339" lon="8.0746779"><ele>211.33333333333331</ele><time>2026-04-19T07:43:45.744Z</time></trkpt><trkpt lat="44.8723268" lon="8.0746276"><ele>212.16666666666666</ele><time>2026-04-19T07:43:46.743Z</time></trkpt><trkpt lat="44.8724075" lon="8.0745834"><ele>213.0</ele><time>2026-04-19T07:43:47.747Z</time></trkpt><trkpt lat="44.872474" lon="8.0745332"><ele>213.0</ele><time>2026-04-19T07:43:48.755Z</time></trkpt><trkpt lat="44.872539" lon="8.0744722"><ele>213.0</ele><time>2026-04-19T07:43:49.759Z</time></trkpt><trkpt lat="44.8725984" lon="8.0744013"><ele>213.0</ele><time>2026-04-19T07:43:50.76Z</time></trkpt><trkpt lat="44.872661" lon="8.0743128"><ele>213.0</ele><time>2026-04-19T07:43:51.763Z</time></trkpt><trkpt lat="44.8727194" lon="8.0742237"><ele>213.0</ele><time>2026-04-19T07:43:52.755Z</time></trkpt><trkpt lat="44.8727736" lon="8.0741427"><ele>213.0</ele><time>2026-04-19T07:43:53.761Z</time></trkpt><trkpt lat="44.8728305" lon="8.0740591"><ele>214.5</ele><time>2026-04-19T07:43:54.754Z</time></trkpt><trkpt lat="44.8728842" lon="8.0739836"><ele>216.0</ele><time>2026-04-19T07:43:55.759Z</time></trkpt><trkpt lat="44.8729392" lon="8.0739043"><ele>217.5</ele><time>2026-04-19T07:43:56.754Z</time></trkpt><trkpt lat="44.8729877" lon="8.0738111"><ele>219.0</ele><time>2026-04-19T07:43:57.757Z</time></trkpt><trkpt lat="44.8730374" lon="8.0737064"><ele>220.5</ele><time>2026-04-19T07:43:58.756Z</time></trkpt><trkpt lat="44.8730885" lon="8.0736157"><ele>222.0</ele><time>2026-04-19T07:43:59.755Z</time></trkpt><trkpt lat="44.8731214" lon="8.0735174"><ele>222.0</ele><time>2026-04-19T07:44:00.752Z</time></trkpt><trkpt lat="44.8731595" lon="8.0734255"><ele>222.0</ele><time>2026-04-19T07:44:01.753Z</time></trkpt><trkpt lat="44.8732055" lon="8.0733419"><ele>222.0</ele><time>2026-04-19T07:44:02.744Z</time></trkpt><trkpt lat="44.873257" lon="8.0732721"><ele>222.0</ele><time>2026-04-19T07:44:03.765Z</time></trkpt><trkpt lat="44.873357" lon="8.0731694"><ele>222.0</ele><time>2026-04-19T07:44:05.743Z</time></trkpt><trkpt lat="44.8734749" lon="8.0731345"><ele>223.0</ele><time>2026-04-19T07:44:07.739Z</time></trkpt><trkpt lat="44.8735442" lon="8.0731309"><ele>224.0</ele><time>2026-04-19T07:44:08.741Z</time></trkpt><trkpt lat="44.8736061" lon="8.0731093"><ele>225.0</ele><time>2026-04-19T07:44:09.741Z</time></trkpt><trkpt lat="44.8737178" lon="8.0730588"><ele>226.0</ele><time>2026-04-19T07:44:11.741Z</time></trkpt><trkpt lat="44.8738274" lon="8.0729965"><ele>227.0</ele><time>2026-04-19T07:44:13.741Z</time></trkpt><trkpt lat="44.8739275" lon="8.0728995"><ele>227.0</ele><time>2026-04-19T07:44:15.734Z</time></trkpt><trkpt lat="44.8739903" lon="8.0728405"><ele>227.00000000000003</ele><time>2026-04-19T07:44:16.736Z</time></trkpt><trkpt lat="44.8740389" lon="8.0727774"><ele>227.0</ele><time>2026-04-19T07:44:17.747Z</time></trkpt><trkpt lat="44.8740809" lon="8.0726911"><ele>227.0</ele><time>2026-04-19T07:44:18.731Z</time></trkpt><trkpt lat="44.8741298" lon="8.0726206"><ele>227.00000000000003</ele><time>2026-04-19T07:44:19.74Z</time></trkpt><trkpt lat="44.8741827" lon="8.0725639"><ele>227.0</ele><time>2026-04-19T07:44:20.74Z</time></trkpt><trkpt lat="44.8742309" lon="8.0724978"><ele>227.0</ele><time>2026-04-19T07:44:21.746Z</time></trkpt><trkpt lat="44.8742907" lon="8.0724262"><ele>226.8</ele><time>2026-04-19T07:44:22.743Z</time></trkpt><trkpt lat="44.874348" lon="8.0723651"><ele>226.6</ele><time>2026-04-19T07:44:23.755Z</time></trkpt><trkpt lat="44.8744043" lon="8.0723228"><ele>226.40000000000003</ele><time>2026-04-19T07:44:24.755Z</time></trkpt><trkpt lat="44.8745236" lon="8.0722742"><ele>226.20000000000002</ele><time>2026-04-19T07:44:26.751Z</time></trkpt><trkpt lat="44.8746591" lon="8.0723006"><ele>226.0</ele><time>2026-04-19T07:44:28.755Z</time></trkpt><trkpt lat="44.8747246" lon="8.0723321"><ele>225.99999999999997</ele><time>2026-04-19T07:44:29.749Z</time></trkpt><trkpt lat="44.8747968" lon="8.0723375"><ele>226.0</ele><time>2026-04-19T07:44:30.757Z</time></trkpt><trkpt lat="44.8748679" lon="8.072304"><ele>226.0</ele><time>2026-04-19T07:44:31.748Z</time></trkpt><trkpt lat="44.8749294" lon="8.072244"><ele>226.0</ele><time>2026-04-19T07:44:32.752Z</time></trkpt><trkpt lat="44.8749865" lon="8.0721584"><ele>225.99999999999997</ele><time>2026-04-19T07:44:33.752Z</time></trkpt><trkpt lat="44.8750509" lon="8.0720648"><ele>226.0</ele><time>2026-04-19T07:44:34.772Z</time></trkpt><trkpt lat="44.8751125" lon="8.0719845"><ele>225.33333333333331</ele><time>2026-04-19T07:44:35.753Z</time></trkpt><trkpt lat="44.8751727" lon="8.0719031"><ele>224.66666666666666</ele><time>2026-04-19T07:44:36.754Z</time></trkpt><trkpt lat="44.8752374" lon="8.0718257"><ele>224.0</ele><time>2026-04-19T07:44:37.753Z</time></trkpt><trkpt lat="44.8753045" lon="8.0717591"><ele>223.33333333333331</ele><time>2026-04-19T07:44:38.758Z</time></trkpt><trkpt lat="44.8753645" lon="8.0716877"><ele>222.66666666666666</ele><time>2026-04-19T07:44:39.744Z</time></trkpt><trkpt lat="44.8754317" lon="8.0716173"><ele>222.0</ele><time>2026-04-19T07:44:40.95Z</time></trkpt><trkpt lat="44.8755587" lon="8.0714909"><ele>223.8</ele><time>2026-04-19T07:44:42.727Z</time></trkpt><trkpt lat="44.8756537" lon="8.0713647"><ele>225.6</ele><time>2026-04-19T07:44:44.706Z</time></trkpt><trkpt lat="44.875699" lon="8.0712724"><ele>227.40000000000003</ele><time>2026-04-19T07:44:45.722Z</time></trkpt><trkpt lat="44.8757546" lon="8.0711691"><ele>229.20000000000002</ele><time>2026-04-19T07:44:46.735Z</time></trkpt><trkpt lat="44.8758185" lon="8.0710564"><ele>231.0</ele><time>2026-04-19T07:44:47.723Z</time></trkpt><trkpt lat="44.8758673" lon="8.0709573"><ele>231.0</ele><time>2026-04-19T07:44:48.726Z</time></trkpt><trkpt lat="44.8759233" lon="8.07085"><ele>231.00000000000003</ele><time>2026-04-19T07:44:49.724Z</time></trkpt><trkpt lat="44.8759852" lon="8.0707383"><ele>231.00000000000003</ele><time>2026-04-19T07:44:50.722Z</time></trkpt><trkpt lat="44.8760391" lon="8.0706317"><ele>231.0</ele><time>2026-04-19T07:44:51.726Z</time></trkpt><trkpt lat="44.8760895" lon="8.070531"><ele>231.0</ele><time>2026-04-19T07:44:52.72Z</time></trkpt><trkpt lat="44.8761446" lon="8.0704347"><ele>231.33333333333334</ele><time>2026-04-19T07:44:53.725Z</time></trkpt><trkpt lat="44.8761972" lon="8.0703392"><ele>231.66666666666669</ele><time>2026-04-19T07:44:54.721Z</time></trkpt><trkpt lat="44.876258" lon="8.0702401"><ele>232.0</ele><time>2026-04-19T07:44:55.727Z</time></trkpt><trkpt lat="44.8763133" lon="8.0701552"><ele>232.33333333333334</ele><time>2026-04-19T07:44:56.722Z</time></trkpt><trkpt lat="44.8763547" lon="8.0700646"><ele>232.66666666666669</ele><time>2026-04-19T07:44:57.731Z</time></trkpt><trkpt lat="44.8763902" lon="8.0699863"><ele>233.0</ele><time>2026-04-19T07:44:58.732Z</time></trkpt><trkpt lat="44.876427" lon="8.0699103"><ele>233.0</ele><time>2026-04-19T07:44:59.728Z</time></trkpt><trkpt lat="44.8764754" lon="8.0698102"><ele>233.0</ele><time>2026-04-19T07:45:00.731Z</time></trkpt><trkpt lat="44.876523" lon="8.0697002"><ele>233.0</ele><time>2026-04-19T07:45:01.728Z</time></trkpt><trkpt lat="44.8765764" lon="8.0695867"><ele>233.0</ele><time>2026-04-19T07:45:02.734Z</time></trkpt><trkpt lat="44.8766305" lon="8.0694777"><ele>233.0</ele><time>2026-04-19T07:45:03.73Z</time></trkpt><trkpt lat="44.8766746" lon="8.0693758"><ele>233.00000000000003</ele><time>2026-04-19T07:45:04.725Z</time></trkpt><trkpt lat="44.8767143" lon="8.0692681"><ele>233.0</ele><time>2026-04-19T07:45:05.75Z</time></trkpt><trkpt lat="44.8767535" lon="8.0691538"><ele>233.0</ele><time>2026-04-19T07:45:06.728Z</time></trkpt><trkpt lat="44.8767903" lon="8.0690493"><ele>233.0</ele><time>2026-04-19T07:45:07.728Z</time></trkpt><trkpt lat="44.8768243" lon="8.0689394"><ele>233.00000000000003</ele><time>2026-04-19T07:45:08.722Z</time></trkpt><trkpt lat="44.8768627" lon="8.0688402"><ele>233.0</ele><time>2026-04-19T07:45:09.728Z</time></trkpt><trkpt lat="44.876909" lon="8.0687449"><ele>233.50000000000003</ele><time>2026-04-19T07:45:10.73Z</time></trkpt><trkpt lat="44.8769449" lon="8.0686391"><ele>234.0</ele><time>2026-04-19T07:45:11.731Z</time></trkpt><trkpt lat="44.8769726" lon="8.0685156"><ele>234.5</ele><time>2026-04-19T07:45:12.73Z</time></trkpt><trkpt lat="44.8770025" lon="8.0683941"><ele>235.0</ele><time>2026-04-19T07:45:13.733Z</time></trkpt><trkpt lat="44.8770308" lon="8.0682852"><ele>235.50000000000003</ele><time>2026-04-19T07:45:14.735Z</time></trkpt><trkpt lat="44.8770626" lon="8.0681826"><ele>236.0</ele><time>2026-04-19T07:45:15.733Z</time></trkpt><trkpt lat="44.8770986" lon="8.0680802"><ele>236.0</ele><time>2026-04-19T07:45:16.731Z</time></trkpt><trkpt lat="44.8771305" lon="8.0679758"><ele>236.00000000000003</ele><time>2026-04-19T07:45:17.732Z</time></trkpt><trkpt lat="44.8771618" lon="8.0678632"><ele>236.00000000000003</ele><time>2026-04-19T07:45:18.734Z</time></trkpt><trkpt lat="44.877196" lon="8.0677295"><ele>236.0</ele><time>2026-04-19T07:45:19.736Z</time></trkpt><trkpt lat="44.8772267" lon="8.067608"><ele>236.0</ele><time>2026-04-19T07:45:20.734Z</time></trkpt><trkpt lat="44.8772586" lon="8.067484"><ele>237.66666666666669</ele><time>2026-04-19T07:45:21.732Z</time></trkpt><trkpt lat="44.877281" lon="8.0673729"><ele>239.33333333333334</ele><time>2026-04-19T07:45:22.732Z</time></trkpt><trkpt lat="44.8773008" lon="8.0672549"><ele>241.0</ele><time>2026-04-19T07:45:23.733Z</time></trkpt><trkpt lat="44.8773202" lon="8.0671338"><ele>242.66666666666669</ele><time>2026-04-19T07:45:24.733Z</time></trkpt><trkpt lat="44.877338" lon="8.0670116"><ele>244.33333333333334</ele><time>2026-04-19T07:45:25.736Z</time></trkpt><trkpt lat="44.8773468" lon="8.0669062"><ele>246.0</ele><time>2026-04-19T07:45:26.733Z</time></trkpt><trkpt lat="44.877356" lon="8.0668091"><ele>246.0</ele><time>2026-04-19T07:45:27.728Z</time></trkpt><trkpt lat="44.8773591" lon="8.0666964"><ele>246.0</ele><time>2026-04-19T07:45:28.727Z</time></trkpt><trkpt lat="44.8773447" lon="8.0665801"><ele>246.0</ele><time>2026-04-19T07:45:29.728Z</time></trkpt><trkpt lat="44.8773371" lon="8.0664836"><ele>246.0</ele><time>2026-04-19T07:45:30.745Z</time></trkpt><trkpt lat="44.8773212" lon="8.0663177"><ele>246.0</ele><time>2026-04-19T07:45:32.726Z</time></trkpt><trkpt lat="44.8772994" lon="8.0662175"><ele>246.0</ele><time>2026-04-19T07:45:33.726Z</time></trkpt><trkpt lat="44.8772806" lon="8.0661249"><ele>248.4</ele><time>2026-04-19T07:45:34.724Z</time></trkpt><trkpt lat="44.8772632" lon="8.0660363"><ele>250.8</ele><time>2026-04-19T07:45:35.73Z</time></trkpt><trkpt lat="44.8772637" lon="8.065883"><ele>253.20000000000002</ele><time>2026-04-19T07:45:37.719Z</time></trkpt><trkpt lat="44.8773092" lon="8.0657108"><ele>255.60000000000002</ele><time>2026-04-19T07:45:39.72Z</time></trkpt><trkpt lat="44.877347" lon="8.0655934"><ele>258.0</ele><time>2026-04-19T07:45:40.716Z</time></trkpt><trkpt lat="44.8773724" lon="8.0654876"><ele>258.6666666666667</ele><time>2026-04-19T07:45:41.724Z</time></trkpt><trkpt lat="44.8773995" lon="8.0653643"><ele>259.3333333333333</ele><time>2026-04-19T07:45:42.725Z</time></trkpt><trkpt lat="44.8774271" lon="8.0652414"><ele>260.0</ele><time>2026-04-19T07:45:43.729Z</time></trkpt><trkpt lat="44.877453" lon="8.0651198"><ele>260.66666666666663</ele><time>2026-04-19T07:45:44.73Z</time></trkpt><trkpt lat="44.8774756" lon="8.0650049"><ele>261.3333333333333</ele><time>2026-04-19T07:45:45.722Z</time></trkpt><trkpt lat="44.8774925" lon="8.0649161"><ele>262.0</ele><time>2026-04-19T07:45:46.727Z</time></trkpt><trkpt lat="44.8775154" lon="8.0648183"><ele>260.66666666666663</ele><time>2026-04-19T07:45:47.726Z</time></trkpt><trkpt lat="44.8775444" lon="8.0647203"><ele>259.3333333333333</ele><time>2026-04-19T07:45:48.733Z</time></trkpt><trkpt lat="44.8775787" lon="8.0646202"><ele>258.0</ele><time>2026-04-19T07:45:49.731Z</time></trkpt><trkpt lat="44.8776156" lon="8.0645228"><ele>256.6666666666667</ele><time>2026-04-19T07:45:50.742Z</time></trkpt><trkpt lat="44.8776715" lon="8.0644145"><ele>255.33333333333334</ele><time>2026-04-19T07:45:51.742Z</time></trkpt><trkpt lat="44.877738" lon="8.0642931"><ele>254.0</ele><time>2026-04-19T07:45:52.733Z</time></trkpt><trkpt lat="44.8778034" lon="8.0641936"><ele>252.39999999999998</ele><time>2026-04-19T07:45:53.743Z</time></trkpt><trkpt lat="44.8778586" lon="8.0641076"><ele>250.79999999999998</ele><time>2026-04-19T07:45:54.738Z</time></trkpt><trkpt lat="44.8778922" lon="8.06403"><ele>249.20000000000002</ele><time>2026-04-19T07:45:55.744Z</time></trkpt><trkpt lat="44.8779162" lon="8.0638707"><ele>247.60000000000002</ele><time>2026-04-19T07:45:57.736Z</time></trkpt><trkpt lat="44.8779122" lon="8.0636854"><ele>246.0</ele><time>2026-04-19T07:45:59.738Z</time></trkpt><trkpt lat="44.8779146" lon="8.0635842"><ele>246.0</ele><time>2026-04-19T07:46:00.729Z</time></trkpt><trkpt lat="44.8779102" lon="8.0634875"><ele>246.0</ele><time>2026-04-19T07:46:01.73Z</time></trkpt><trkpt lat="44.8779198" lon="8.0633215"><ele>246.0</ele><time>2026-04-19T07:46:03.738Z</time></trkpt><trkpt lat="44.8779148" lon="8.0632144"><ele>246.0</ele><time>2026-04-19T07:46:04.731Z</time></trkpt><trkpt lat="44.8779032" lon="8.0631106"><ele>246.0</ele><time>2026-04-19T07:46:05.737Z</time></trkpt><trkpt lat="44.8778931" lon="8.0630213"><ele>246.0</ele><time>2026-04-19T07:46:06.737Z</time></trkpt><trkpt lat="44.877875" lon="8.0629278"><ele>244.60000000000002</ele><time>2026-04-19T07:46:07.754Z</time></trkpt><trkpt lat="44.8778605" lon="8.062825"><ele>243.20000000000002</ele><time>2026-04-19T07:46:08.739Z</time></trkpt><trkpt lat="44.8778396" lon="8.0627014"><ele>241.79999999999998</ele><time>2026-04-19T07:46:09.734Z</time></trkpt><trkpt lat="44.877809" lon="8.062565"><ele>240.39999999999998</ele><time>2026-04-19T07:46:10.736Z</time></trkpt><trkpt lat="44.877775" lon="8.062444"><ele>239.0</ele><time>2026-04-19T07:46:11.736Z</time></trkpt><trkpt lat="44.8777352" lon="8.0623083"><ele>238.0</ele><time>2026-04-19T07:46:12.746Z</time></trkpt><trkpt lat="44.8776872" lon="8.0621802"><ele>236.99999999999997</ele><time>2026-04-19T07:46:13.742Z</time></trkpt><trkpt lat="44.8776323" lon="8.062057"><ele>235.99999999999997</ele><time>2026-04-19T07:46:14.738Z</time></trkpt><trkpt lat="44.8775762" lon="8.0619289"><ele>235.0</ele><time>2026-04-19T07:46:15.741Z</time></trkpt><trkpt lat="44.8775094" lon="8.0617901"><ele>234.0</ele><time>2026-04-19T07:46:16.747Z</time></trkpt><trkpt lat="44.8774397" lon="8.0616537"><ele>237.83333333333334</ele><time>2026-04-19T07:46:17.731Z</time></trkpt><trkpt lat="44.8773772" lon="8.061541"><ele>241.66666666666669</ele><time>2026-04-19T07:46:18.747Z</time></trkpt><trkpt lat="44.87738" lon="8.0614345"><ele>245.5</ele><time>2026-04-19T07:46:19.737Z</time></trkpt><trkpt lat="44.8773915" lon="8.0613246"><ele>249.33333333333334</ele><time>2026-04-19T07:46:20.746Z</time></trkpt><trkpt lat="44.8773961" lon="8.0612077"><ele>253.16666666666669</ele><time>2026-04-19T07:46:21.745Z</time></trkpt><trkpt lat="44.877405" lon="8.0610974"><ele>257.0</ele><time>2026-04-19T07:46:22.746Z</time></trkpt><trkpt lat="44.8774172" lon="8.0609966"><ele>257.0</ele><time>2026-04-19T07:46:23.737Z</time></trkpt><trkpt lat="44.877428" lon="8.0608511"><ele>257.0</ele><time>2026-04-19T07:46:25.736Z</time></trkpt><trkpt lat="44.8774261" lon="8.0607311"><ele>257.0</ele><time>2026-04-19T07:46:37.745Z</time></trkpt><trkpt lat="44.8773981" lon="8.0606024"><ele>257.0</ele><time>2026-04-19T07:46:39.743Z</time></trkpt><trkpt lat="44.8773935" lon="8.0604264"><ele>257.0</ele><time>2026-04-19T07:46:41.747Z</time></trkpt><trkpt lat="44.877397" lon="8.0603252"><ele>256.6666666666667</ele><time>2026-04-19T07:46:42.75Z</time></trkpt><trkpt lat="44.8774224" lon="8.0601771"><ele>256.33333333333337</ele><time>2026-04-19T07:46:44.743Z</time></trkpt><trkpt lat="44.8774421" lon="8.0600856"><ele>256.0</ele><time>2026-04-19T07:46:45.74Z</time></trkpt><trkpt lat="44.8774803" lon="8.0599786"><ele>255.66666666666669</ele><time>2026-04-19T07:46:46.734Z</time></trkpt><trkpt lat="44.8775232" lon="8.0598685"><ele>255.33333333333334</ele><time>2026-04-19T07:46:47.75Z</time></trkpt><trkpt lat="44.8775677" lon="8.0597576"><ele>255.0</ele><time>2026-04-19T07:46:48.726Z</time></trkpt><trkpt lat="44.8776337" lon="8.0596383"><ele>254.5</ele><time>2026-04-19T07:46:49.737Z</time></trkpt><trkpt lat="44.8777198" lon="8.0595034"><ele>254.0</ele><time>2026-04-19T07:46:50.733Z</time></trkpt><trkpt lat="44.8778006" lon="8.0593765"><ele>253.5</ele><time>2026-04-19T07:46:51.726Z</time></trkpt><trkpt lat="44.8778477" lon="8.0592414"><ele>253.0</ele><time>2026-04-19T07:46:52.728Z</time></trkpt><trkpt lat="44.8778954" lon="8.0590985"><ele>253.0</ele><time>2026-04-19T07:46:53.734Z</time></trkpt><trkpt lat="44.8779162" lon="8.0589253"><ele>253.0</ele><time>2026-04-19T07:46:54.73Z</time></trkpt><trkpt lat="44.8779295" lon="8.0587565"><ele>253.0</ele><time>2026-04-19T07:46:55.729Z</time></trkpt><trkpt lat="44.8779525" lon="8.0585839"><ele>253.0</ele><time>2026-04-19T07:46:56.727Z</time></trkpt><trkpt lat="44.8779704" lon="8.0584071"><ele>254.60000000000002</ele><time>2026-04-19T07:46:57.734Z</time></trkpt><trkpt lat="44.8779845" lon="8.0582425"><ele>256.20000000000005</ele><time>2026-04-19T07:46:58.735Z</time></trkpt><trkpt lat="44.8779973" lon="8.0581023"><ele>257.8</ele><time>2026-04-19T07:46:59.732Z</time></trkpt><trkpt lat="44.8780179" lon="8.0579778"><ele>259.40000000000003</ele><time>2026-04-19T07:47:00.734Z</time></trkpt><trkpt lat="44.878044" lon="8.0578658"><ele>261.0</ele><time>2026-04-19T07:47:01.727Z</time></trkpt><trkpt lat="44.8780767" lon="8.0577662"><ele>261.0</ele><time>2026-04-19T07:47:02.731Z</time></trkpt><trkpt lat="44.8781108" lon="8.0576778"><ele>261.0</ele><time>2026-04-19T07:47:03.728Z</time></trkpt><trkpt lat="44.8781481" lon="8.0575745"><ele>261.0</ele><time>2026-04-19T07:47:04.732Z</time></trkpt><trkpt lat="44.8781879" lon="8.0574712"><ele>261.0</ele><time>2026-04-19T07:47:05.732Z</time></trkpt><trkpt lat="44.8782267" lon="8.0573606"><ele>261.0</ele><time>2026-04-19T07:47:06.731Z</time></trkpt><trkpt lat="44.8782697" lon="8.0572478"><ele>261.0</ele><time>2026-04-19T07:47:07.73Z</time></trkpt><trkpt lat="44.878317" lon="8.0571373"><ele>261.0</ele><time>2026-04-19T07:47:08.729Z</time></trkpt><trkpt lat="44.8783695" lon="8.0570364"><ele>261.0</ele><time>2026-04-19T07:47:09.751Z</time></trkpt><trkpt lat="44.8784179" lon="8.0569268"><ele>261.0</ele><time>2026-04-19T07:47:10.724Z</time></trkpt><trkpt lat="44.8784638" lon="8.0568066"><ele>261.0</ele><time>2026-04-19T07:47:11.727Z</time></trkpt><trkpt lat="44.8785051" lon="8.0566721"><ele>261.0</ele><time>2026-04-19T07:47:12.73Z</time></trkpt><trkpt lat="44.8785422" lon="8.0565346"><ele>261.0</ele><time>2026-04-19T07:47:13.74Z</time></trkpt><trkpt lat="44.8785893" lon="8.0564059"><ele>261.0</ele><time>2026-04-19T07:47:14.724Z</time></trkpt><trkpt lat="44.878642" lon="8.0562931"><ele>261.0</ele><time>2026-04-19T07:47:15.742Z</time></trkpt><trkpt lat="44.8786954" lon="8.0561522"><ele>261.0</ele><time>2026-04-19T07:47:16.738Z</time></trkpt><trkpt lat="44.8787248" lon="8.056032"><ele>261.0</ele><time>2026-04-19T07:47:17.734Z</time></trkpt><trkpt lat="44.8787659" lon="8.0559097"><ele>261.0</ele><time>2026-04-19T07:47:18.732Z</time></trkpt><trkpt lat="44.878812" lon="8.0557937"><ele>261.0</ele><time>2026-04-19T07:47:19.74Z</time></trkpt><trkpt lat="44.8788586" lon="8.0556824"><ele>261.0</ele><time>2026-04-19T07:47:20.733Z</time></trkpt><trkpt lat="44.878879" lon="8.0555869"><ele>261.0</ele><time>2026-04-19T07:47:21.735Z</time></trkpt><trkpt lat="44.8789277" lon="8.0554902"><ele>261.0</ele><time>2026-04-19T07:47:22.747Z</time></trkpt><trkpt lat="44.8789922" lon="8.0553987"><ele>261.0</ele><time>2026-04-19T07:47:23.743Z</time></trkpt><trkpt lat="44.8790643" lon="8.0552994"><ele>262.5</ele><time>2026-04-19T07:47:24.746Z</time></trkpt><trkpt lat="44.8791523" lon="8.0551797"><ele>264.0</ele><time>2026-04-19T07:47:25.745Z</time></trkpt><trkpt lat="44.8792377" lon="8.0550545"><ele>265.5</ele><time>2026-04-19T07:47:26.745Z</time></trkpt><trkpt lat="44.8793234" lon="8.0549409"><ele>267.0</ele><time>2026-04-19T07:47:27.742Z</time></trkpt><trkpt lat="44.8793883" lon="8.0548362"><ele>267.6666666666667</ele><time>2026-04-19T07:47:28.744Z</time></trkpt><trkpt lat="44.8794468" lon="8.0547385"><ele>268.3333333333333</ele><time>2026-04-19T07:47:29.748Z</time></trkpt><trkpt lat="44.8794966" lon="8.0546698"><ele>269.0</ele><time>2026-04-19T07:47:30.746Z</time></trkpt><trkpt lat="44.8795907" lon="8.0545882"><ele>269.66666666666663</ele><time>2026-04-19T07:47:32.745Z</time></trkpt><trkpt lat="44.879656" lon="8.0545798"><ele>270.3333333333333</ele><time>2026-04-19T07:47:33.745Z</time></trkpt><trkpt lat="44.8797637" lon="8.054571"><ele>271.0</ele><time>2026-04-19T07:47:35.743Z</time></trkpt><trkpt lat="44.8798313" lon="8.0545634"><ele>271.0</ele><time>2026-04-19T07:47:36.745Z</time></trkpt><trkpt lat="44.8799769" lon="8.0545363"><ele>271.0</ele><time>2026-04-19T07:47:38.741Z</time></trkpt><trkpt lat="44.8800632" lon="8.0544995"><ele>271.0</ele><time>2026-04-19T07:47:39.736Z</time></trkpt><trkpt lat="44.8801325" lon="8.0544542"><ele>271.0</ele><time>2026-04-19T07:47:40.757Z</time></trkpt><trkpt lat="44.8801952" lon="8.0544336"><ele>271.0</ele><time>2026-04-19T07:47:41.747Z</time></trkpt><trkpt lat="44.8803155" lon="8.0544563"><ele>270.0</ele><time>2026-04-19T07:47:43.738Z</time></trkpt><trkpt lat="44.8803807" lon="8.0545076"><ele>269.0</ele><time>2026-04-19T07:47:44.745Z</time></trkpt><trkpt lat="44.8804336" lon="8.0545914"><ele>268.0</ele><time>2026-04-19T07:47:45.743Z</time></trkpt><trkpt lat="44.8804797" lon="8.0547129"><ele>267.0</ele><time>2026-04-19T07:47:46.735Z</time></trkpt><trkpt lat="44.8805251" lon="8.0548478"><ele>266.0</ele><time>2026-04-19T07:47:47.737Z</time></trkpt><trkpt lat="44.8805588" lon="8.0549924"><ele>266.0</ele><time>2026-04-19T07:47:48.734Z</time></trkpt><trkpt lat="44.880583" lon="8.055141"><ele>266.0</ele><time>2026-04-19T07:47:49.736Z</time></trkpt><trkpt lat="44.880606" lon="8.0552722"><ele>266.0</ele><time>2026-04-19T07:47:50.733Z</time></trkpt><trkpt lat="44.8806209" lon="8.0554048"><ele>266.0</ele><time>2026-04-19T07:47:51.737Z</time></trkpt><trkpt lat="44.8806219" lon="8.0555353"><ele>266.0</ele><time>2026-04-19T07:47:52.74Z</time></trkpt><trkpt lat="44.8806319" lon="8.0556602"><ele>266.0</ele><time>2026-04-19T07:47:53.741Z</time></trkpt><trkpt lat="44.880635" lon="8.0557737"><ele>266.0</ele><time>2026-04-19T07:47:54.734Z</time></trkpt><trkpt lat="44.8806402" lon="8.0558914"><ele>266.0</ele><time>2026-04-19T07:47:55.723Z</time></trkpt><trkpt lat="44.8806501" lon="8.0560095"><ele>266.0</ele><time>2026-04-19T07:47:56.727Z</time></trkpt><trkpt lat="44.8806663" lon="8.056134"><ele>266.0</ele><time>2026-04-19T07:47:57.72Z</time></trkpt><trkpt lat="44.880687" lon="8.0562624"><ele>266.0</ele><time>2026-04-19T07:47:58.721Z</time></trkpt><trkpt lat="44.8806994" lon="8.0563977"><ele>267.0</ele><time>2026-04-19T07:47:59.724Z</time></trkpt><trkpt lat="44.8807128" lon="8.0565168"><ele>268.0</ele><time>2026-04-19T07:48:00.709Z</time></trkpt><trkpt lat="44.8807272" lon="8.0566227"><ele>269.0</ele><time>2026-04-19T07:48:01.727Z</time></trkpt><trkpt lat="44.8807591" lon="8.0567795"><ele>270.0</ele><time>2026-04-19T07:48:03.739Z</time></trkpt><trkpt lat="44.8807798" lon="8.0568742"><ele>271.0</ele><time>2026-04-19T07:48:05.732Z</time></trkpt><trkpt lat="44.8808217" lon="8.056971"><ele>272.0</ele><time>2026-04-19T07:48:14.744Z</time></trkpt><trkpt lat="44.8807873" lon="8.0570993"><ele>272.0</ele><time>2026-04-19T07:48:15.735Z</time></trkpt><trkpt lat="44.8807826" lon="8.0572878"><ele>272.0</ele><time>2026-04-19T07:48:16.728Z</time></trkpt><trkpt lat="44.8807709" lon="8.0574852"><ele>272.0</ele><time>2026-04-19T07:48:17.735Z</time></trkpt><trkpt lat="44.8807774" lon="8.0576768"><ele>272.0</ele><time>2026-04-19T07:48:18.736Z</time></trkpt><trkpt lat="44.8807794" lon="8.057845"><ele>271.33333333333337</ele><time>2026-04-19T07:48:19.733Z</time></trkpt><trkpt lat="44.8807864" lon="8.058006"><ele>270.6666666666667</ele><time>2026-04-19T07:48:20.74Z</time></trkpt><trkpt lat="44.8807843" lon="8.0581443"><ele>270.0</ele><time>2026-04-19T07:48:21.741Z</time></trkpt><trkpt lat="44.8807522" lon="8.0582375"><ele>269.3333333333333</ele><time>2026-04-19T07:48:23.731Z</time></trkpt><trkpt lat="44.8806823" lon="8.0582956"><ele>268.66666666666663</ele><time>2026-04-19T07:48:29.72Z</time></trkpt><trkpt lat="44.8806241" lon="8.0582608"><ele>268.0</ele><time>2026-04-19T07:48:56.742Z</time></trkpt><trkpt lat="44.880536" lon="8.0582297"><ele>268.0</ele><time>2026-04-19T07:48:58.737Z</time></trkpt><trkpt lat="44.8804357" lon="8.0582083"><ele>268.0</ele><time>2026-04-19T07:49:00.742Z</time></trkpt><trkpt lat="44.8803295" lon="8.0582037"><ele>268.0</ele><time>2026-04-19T07:49:02.732Z</time></trkpt><trkpt lat="44.880224" lon="8.0582478"><ele>268.0</ele><time>2026-04-19T07:49:04.72Z</time></trkpt><trkpt lat="44.8801607" lon="8.0582853"><ele>268.0</ele><time>2026-04-19T07:49:05.725Z</time></trkpt><trkpt lat="44.8800925" lon="8.0583281"><ele>265.3333333333333</ele><time>2026-04-19T07:49:06.722Z</time></trkpt><trkpt lat="44.880026" lon="8.0583703"><ele>262.66666666666663</ele><time>2026-04-19T07:49:07.729Z</time></trkpt><trkpt lat="44.8799558" lon="8.0584072"><ele>260.0</ele><time>2026-04-19T07:49:08.733Z</time></trkpt><trkpt lat="44.879889" lon="8.0584474"><ele>257.3333333333333</ele><time>2026-04-19T07:49:09.731Z</time></trkpt><trkpt lat="44.8798334" lon="8.058494"><ele>254.66666666666666</ele><time>2026-04-19T07:49:10.734Z</time></trkpt><trkpt lat="44.8797322" lon="8.0585867"><ele>252.0</ele><time>2026-04-19T07:49:12.728Z</time></trkpt><trkpt lat="44.8796327" lon="8.0586667"><ele>252.0</ele><time>2026-04-19T07:49:14.719Z</time></trkpt><trkpt lat="44.8795749" lon="8.0587165"><ele>252.0</ele><time>2026-04-19T07:49:15.724Z</time></trkpt><trkpt lat="44.8795206" lon="8.0587788"><ele>252.0</ele><time>2026-04-19T07:49:16.721Z</time></trkpt><trkpt lat="44.8794622" lon="8.0588478"><ele>252.0</ele><time>2026-04-19T07:49:17.719Z</time></trkpt><trkpt lat="44.8794064" lon="8.0589175"><ele>252.0</ele><time>2026-04-19T07:49:18.718Z</time></trkpt><trkpt lat="44.8793517" lon="8.0589753"><ele>252.0</ele><time>2026-04-19T07:49:19.723Z</time></trkpt><trkpt lat="44.8792917" lon="8.0590462"><ele>252.0</ele><time>2026-04-19T07:49:21.725Z</time></trkpt><trkpt lat="44.87921" lon="8.0589726"><ele>248.39999999999998</ele><time>2026-04-19T07:49:24.716Z</time></trkpt><trkpt lat="44.8791886" lon="8.0588238"><ele>244.79999999999998</ele><time>2026-04-19T07:49:26.721Z</time></trkpt><trkpt lat="44.8791816" lon="8.0586416"><ele>241.2</ele><time>2026-04-19T07:49:28.722Z</time></trkpt><trkpt lat="44.879188" lon="8.0585293"><ele>237.6</ele><time>2026-04-19T07:49:29.715Z</time></trkpt><trkpt lat="44.8791898" lon="8.0584164"><ele>234.0</ele><time>2026-04-19T07:49:30.721Z</time></trkpt><trkpt lat="44.8791966" lon="8.0583036"><ele>234.5</ele><time>2026-04-19T07:49:31.714Z</time></trkpt><trkpt lat="44.8792014" lon="8.0582027"><ele>235.0</ele><time>2026-04-19T07:49:32.712Z</time></trkpt><trkpt lat="44.8792046" lon="8.0581059"><ele>235.5</ele><time>2026-04-19T07:49:33.706Z</time></trkpt><trkpt lat="44.8791924" lon="8.0579662"><ele>236.0</ele><time>2026-04-19T07:49:35.714Z</time></trkpt><trkpt lat="44.8791463" lon="8.0578992"><ele>236.5</ele><time>2026-04-19T07:49:36.717Z</time></trkpt><trkpt lat="44.8790493" lon="8.057908"><ele>237.0</ele><time>2026-04-19T07:49:38.709Z</time></trkpt><trkpt lat="44.8789792" lon="8.0580424"><ele>237.0</ele><time>2026-04-19T07:49:40.707Z</time></trkpt><trkpt lat="44.8789411" lon="8.058163"><ele>237.0</ele><time>2026-04-19T07:49:41.704Z</time></trkpt><trkpt lat="44.8789006" lon="8.0582734"><ele>237.0</ele><time>2026-04-19T07:49:42.705Z</time></trkpt><trkpt lat="44.8788629" lon="8.0583773"><ele>237.0</ele><time>2026-04-19T07:49:43.701Z</time></trkpt><trkpt lat="44.8788346" lon="8.0584825"><ele>237.0</ele><time>2026-04-19T07:49:44.725Z</time></trkpt><trkpt lat="44.8788171" lon="8.0585814"><ele>237.0</ele><time>2026-04-19T07:49:45.716Z</time></trkpt><trkpt lat="44.8788188" lon="8.0586726"><ele>236.5</ele><time>2026-04-19T07:49:46.706Z</time></trkpt><trkpt lat="44.8788257" lon="8.0588684"><ele>236.0</ele><time>2026-04-19T07:49:48.705Z</time></trkpt><trkpt lat="44.8788521" lon="8.0589753"><ele>235.5</ele><time>2026-04-19T07:49:49.705Z</time></trkpt><trkpt lat="44.8788715" lon="8.0590744"><ele>235.0</ele><time>2026-04-19T07:49:50.704Z</time></trkpt><trkpt lat="44.8788743" lon="8.059165"><ele>234.5</ele><time>2026-04-19T07:49:51.713Z</time></trkpt><trkpt lat="44.878849" lon="8.0592879"><ele>234.0</ele><time>2026-04-19T07:49:52.704Z</time></trkpt><trkpt lat="44.8788222" lon="8.0593965"><ele>233.0</ele><time>2026-04-19T07:49:53.701Z</time></trkpt><trkpt lat="44.8788082" lon="8.0595171"><ele>231.99999999999997</ele><time>2026-04-19T07:49:54.713Z</time></trkpt><trkpt lat="44.8788069" lon="8.0596519"><ele>230.99999999999997</ele><time>2026-04-19T07:49:55.706Z</time></trkpt><trkpt lat="44.8787919" lon="8.059785"><ele>230.0</ele><time>2026-04-19T07:49:56.711Z</time></trkpt><trkpt lat="44.8787586" lon="8.0599318"><ele>229.0</ele><time>2026-04-19T07:49:57.714Z</time></trkpt><trkpt lat="44.8787069" lon="8.0600894"><ele>229.0</ele><time>2026-04-19T07:49:58.709Z</time></trkpt><trkpt lat="44.8786666" lon="8.0602495"><ele>229.0</ele><time>2026-04-19T07:49:59.708Z</time></trkpt><trkpt lat="44.8786224" lon="8.0604"><ele>229.0</ele><time>2026-04-19T07:50:00.712Z</time></trkpt><trkpt lat="44.8785735" lon="8.0605481"><ele>229.0</ele><time>2026-04-19T07:50:01.715Z</time></trkpt><trkpt lat="44.8785393" lon="8.0606776"><ele>228.99999999999997</ele><time>2026-04-19T07:50:02.71Z</time></trkpt><trkpt lat="44.8785193" lon="8.060779"><ele>229.0</ele><time>2026-04-19T07:50:03.706Z</time></trkpt><trkpt lat="44.8785036" lon="8.0608651"><ele>229.0</ele><time>2026-04-19T07:50:04.71Z</time></trkpt><trkpt lat="44.8785234" lon="8.0610227"><ele>229.0</ele><time>2026-04-19T07:50:06.712Z</time></trkpt><trkpt lat="44.8785622" lon="8.0610988"><ele>228.99999999999997</ele><time>2026-04-19T07:50:07.71Z</time></trkpt><trkpt lat="44.8786041" lon="8.0611701"><ele>229.0</ele><time>2026-04-19T07:50:08.706Z</time></trkpt><trkpt lat="44.8786541" lon="8.0612455"><ele>228.66666666666666</ele><time>2026-04-19T07:50:09.705Z</time></trkpt><trkpt lat="44.8786842" lon="8.061342"><ele>228.33333333333331</ele><time>2026-04-19T07:50:10.714Z</time></trkpt><trkpt lat="44.8786943" lon="8.0614433"><ele>228.0</ele><time>2026-04-19T07:50:11.701Z</time></trkpt><trkpt lat="44.8787183" lon="8.0615666"><ele>227.66666666666669</ele><time>2026-04-19T07:50:12.704Z</time></trkpt><trkpt lat="44.8787432" lon="8.0616889"><ele>227.33333333333334</ele><time>2026-04-19T07:50:13.706Z</time></trkpt><trkpt lat="44.8787669" lon="8.0618057"><ele>227.0</ele><time>2026-04-19T07:50:14.703Z</time></trkpt><trkpt lat="44.8788086" lon="8.0619209"><ele>227.0</ele><time>2026-04-19T07:50:15.724Z</time></trkpt><trkpt lat="44.8788515" lon="8.0620438"><ele>227.0</ele><time>2026-04-19T07:50:16.705Z</time></trkpt><trkpt lat="44.8788976" lon="8.0621662"><ele>227.0</ele><time>2026-04-19T07:50:17.706Z</time></trkpt><trkpt lat="44.8789287" lon="8.0622825"><ele>227.0</ele><time>2026-04-19T07:50:18.712Z</time></trkpt><trkpt lat="44.8789576" lon="8.0624074"><ele>227.0</ele><time>2026-04-19T07:50:19.712Z</time></trkpt><trkpt lat="44.8789694" lon="8.0625238"><ele>226.16666666666669</ele><time>2026-04-19T07:50:20.709Z</time></trkpt><trkpt lat="44.878961" lon="8.0626344"><ele>225.33333333333334</ele><time>2026-04-19T07:50:21.707Z</time></trkpt><trkpt lat="44.8789515" lon="8.0627337"><ele>224.5</ele><time>2026-04-19T07:50:22.712Z</time></trkpt><trkpt lat="44.878941" lon="8.0628305"><ele>223.66666666666669</ele><time>2026-04-19T07:50:23.703Z</time></trkpt><trkpt lat="44.8789724" lon="8.0629776"><ele>222.83333333333334</ele><time>2026-04-19T07:50:25.702Z</time></trkpt><trkpt lat="44.8790121" lon="8.0630679"><ele>222.0</ele><time>2026-04-19T07:50:26.703Z</time></trkpt><trkpt lat="44.8790621" lon="8.0631624"><ele>222.0</ele><time>2026-04-19T07:50:27.701Z</time></trkpt><trkpt lat="44.8791122" lon="8.0632497"><ele>222.0</ele><time>2026-04-19T07:50:28.697Z</time></trkpt><trkpt lat="44.8791616" lon="8.0633518"><ele>222.0</ele><time>2026-04-19T07:50:29.699Z</time></trkpt><trkpt lat="44.8792062" lon="8.0634543"><ele>222.0</ele><time>2026-04-19T07:50:30.709Z</time></trkpt><trkpt lat="44.8792469" lon="8.0635436"><ele>222.0</ele><time>2026-04-19T07:50:31.708Z</time></trkpt><trkpt lat="44.8792661" lon="8.0636458"><ele>222.0</ele><time>2026-04-19T07:50:32.701Z</time></trkpt><trkpt lat="44.8792767" lon="8.0637384"><ele>222.16666666666666</ele><time>2026-04-19T07:50:33.702Z</time></trkpt><trkpt lat="44.8792649" lon="8.06384"><ele>222.33333333333331</ele><time>2026-04-19T07:50:34.707Z</time></trkpt><trkpt lat="44.8792387" lon="8.0639344"><ele>222.5</ele><time>2026-04-19T07:50:35.7Z</time></trkpt><trkpt lat="44.8791865" lon="8.064083"><ele>222.66666666666666</ele><time>2026-04-19T07:50:37.71Z</time></trkpt><trkpt lat="44.8791908" lon="8.0642372"><ele>222.83333333333331</ele><time>2026-04-19T07:50:39.706Z</time></trkpt><trkpt lat="44.8792296" lon="8.0643239"><ele>223.0</ele><time>2026-04-19T07:50:40.718Z</time></trkpt><trkpt lat="44.8792704" lon="8.0644248"><ele>225.0</ele><time>2026-04-19T07:50:41.712Z</time></trkpt><trkpt lat="44.8793009" lon="8.0645418"><ele>227.0</ele><time>2026-04-19T07:50:42.713Z</time></trkpt><trkpt lat="44.8793189" lon="8.0646833"><ele>229.0</ele><time>2026-04-19T07:50:43.707Z</time></trkpt><trkpt lat="44.8793176" lon="8.0648466"><ele>231.0</ele><time>2026-04-19T07:50:44.701Z</time></trkpt><trkpt lat="44.879315" lon="8.0649994"><ele>233.0</ele><time>2026-04-19T07:50:45.701Z</time></trkpt><trkpt lat="44.879315" lon="8.0651325"><ele>234.60000000000002</ele><time>2026-04-19T07:50:46.724Z</time></trkpt><trkpt lat="44.8793171" lon="8.0652545"><ele>236.20000000000002</ele><time>2026-04-19T07:50:47.706Z</time></trkpt><trkpt lat="44.8793009" lon="8.0653763"><ele>237.8</ele><time>2026-04-19T07:50:48.708Z</time></trkpt><trkpt lat="44.8792433" lon="8.0654569"><ele>239.4</ele><time>2026-04-19T07:50:49.718Z</time></trkpt><trkpt lat="44.8791731" lon="8.0655555"><ele>241.0</ele><time>2026-04-19T07:50:50.714Z</time></trkpt><trkpt lat="44.8791062" lon="8.0656663"><ele>237.4</ele><time>2026-04-19T07:50:51.708Z</time></trkpt><trkpt lat="44.8790433" lon="8.0657594"><ele>233.8</ele><time>2026-04-19T07:50:52.709Z</time></trkpt><trkpt lat="44.8790168" lon="8.0658639"><ele>230.20000000000002</ele><time>2026-04-19T07:50:53.707Z</time></trkpt><trkpt lat="44.8789804" lon="8.0659524"><ele>226.60000000000002</ele><time>2026-04-19T07:50:54.713Z</time></trkpt><trkpt lat="44.8789315" lon="8.0661497"><ele>223.0</ele><time>2026-04-19T07:50:56.721Z</time></trkpt><trkpt lat="44.8788794" lon="8.0663055"><ele>222.2</ele><time>2026-04-19T07:50:57.717Z</time></trkpt><trkpt lat="44.8788287" lon="8.0664271"><ele>221.4</ele><time>2026-04-19T07:50:58.71Z</time></trkpt><trkpt lat="44.8787955" lon="8.0665376"><ele>220.59999999999997</ele><time>2026-04-19T07:51:00.708Z</time></trkpt><trkpt lat="44.8788596" lon="8.0666062"><ele>219.79999999999998</ele><time>2026-04-19T07:51:04.707Z</time></trkpt><trkpt lat="44.8789747" lon="8.0666387"><ele>219.0</ele><time>2026-04-19T07:51:06.704Z</time></trkpt><trkpt lat="44.879073" lon="8.0666704"><ele>218.5</ele><time>2026-04-19T07:51:07.701Z</time></trkpt><trkpt lat="44.8791737" lon="8.0667017"><ele>218.0</ele><time>2026-04-19T07:51:08.708Z</time></trkpt><trkpt lat="44.8792741" lon="8.0667204"><ele>217.5</ele><time>2026-04-19T07:51:09.705Z</time></trkpt><trkpt lat="44.8793568" lon="8.0667381"><ele>217.0</ele><time>2026-04-19T07:51:10.702Z</time></trkpt><trkpt lat="44.8794302" lon="8.0667809"><ele>216.5</ele><time>2026-04-19T07:51:11.709Z</time></trkpt><trkpt lat="44.879503" lon="8.0668281"><ele>216.0</ele><time>2026-04-19T07:51:12.705Z</time></trkpt><trkpt lat="44.8795767" lon="8.0669017"><ele>218.16666666666666</ele><time>2026-04-19T07:51:13.704Z</time></trkpt><trkpt lat="44.8796555" lon="8.0669882"><ele>220.33333333333331</ele><time>2026-04-19T07:51:14.707Z</time></trkpt><trkpt lat="44.879731" lon="8.0670772"><ele>222.5</ele><time>2026-04-19T07:51:15.699Z</time></trkpt><trkpt lat="44.8798" lon="8.0671461"><ele>224.66666666666666</ele><time>2026-04-19T07:51:16.703Z</time></trkpt><trkpt lat="44.8798645" lon="8.0671937"><ele>226.83333333333331</ele><time>2026-04-19T07:51:17.719Z</time></trkpt><trkpt lat="44.8799388" lon="8.0672327"><ele>229.0</ele><time>2026-04-19T07:51:18.705Z</time></trkpt><trkpt lat="44.8800243" lon="8.0672641"><ele>229.2</ele><time>2026-04-19T07:51:19.71Z</time></trkpt><trkpt lat="44.8801282" lon="8.067306"><ele>229.39999999999998</ele><time>2026-04-19T07:51:20.7Z</time></trkpt><trkpt lat="44.8802192" lon="8.0673463"><ele>229.6</ele><time>2026-04-19T07:51:21.7Z</time></trkpt><trkpt lat="44.8802816" lon="8.0673801"><ele>229.8</ele><time>2026-04-19T07:51:22.7Z</time></trkpt><trkpt lat="44.8803773" lon="8.067384"><ele>230.0</ele><time>2026-04-19T07:51:24.696Z</time></trkpt><trkpt lat="44.8804492" lon="8.0673172"><ele>230.0</ele><time>2026-04-19T07:51:26.689Z</time></trkpt><trkpt lat="44.8805731" lon="8.0672092"><ele>230.0</ele><time>2026-04-19T07:51:28.694Z</time></trkpt><trkpt lat="44.8806168" lon="8.067134"><ele>230.0</ele><time>2026-04-19T07:51:29.705Z</time></trkpt><trkpt lat="44.8806802" lon="8.0670556"><ele>230.0</ele><time>2026-04-19T07:51:30.706Z</time></trkpt><trkpt lat="44.8807628" lon="8.0669821"><ele>230.0</ele><time>2026-04-19T07:51:31.715Z</time></trkpt><trkpt lat="44.8808571" lon="8.0669303"><ele>230.00000000000003</ele><time>2026-04-19T07:51:32.704Z</time></trkpt><trkpt lat="44.8809247" lon="8.0668591"><ele>230.0</ele><time>2026-04-19T07:51:33.704Z</time></trkpt><trkpt lat="44.8810062" lon="8.0667664"><ele>230.0</ele><time>2026-04-19T07:51:34.707Z</time></trkpt><trkpt lat="44.8810473" lon="8.0666463"><ele>230.0</ele><time>2026-04-19T07:51:35.693Z</time></trkpt><trkpt lat="44.8810746" lon="8.0665324"><ele>230.00000000000003</ele><time>2026-04-19T07:51:36.698Z</time></trkpt><trkpt lat="44.881088" lon="8.0664317"><ele>230.0</ele><time>2026-04-19T07:51:37.693Z</time></trkpt><trkpt lat="44.8811093" lon="8.0663448"><ele>232.83333333333334</ele><time>2026-04-19T07:51:38.692Z</time></trkpt><trkpt lat="44.881116" lon="8.0662474"><ele>235.66666666666669</ele><time>2026-04-19T07:51:39.698Z</time></trkpt><trkpt lat="44.8811111" lon="8.0661566"><ele>238.5</ele><time>2026-04-19T07:51:40.703Z</time></trkpt><trkpt lat="44.8810642" lon="8.0660417"><ele>241.33333333333331</ele><time>2026-04-19T07:51:42.702Z</time></trkpt><trkpt lat="44.8810351" lon="8.065928"><ele>244.16666666666666</ele><time>2026-04-19T07:51:44.697Z</time></trkpt><trkpt lat="44.880993" lon="8.0658152"><ele>247.0</ele><time>2026-04-19T07:51:46.7Z</time></trkpt><trkpt lat="44.8810257" lon="8.0660165"><ele>247.0</ele><time>2026-04-19T07:51:51.693Z</time></trkpt><trkpt lat="44.8810577" lon="8.0660983"><ele>247.0</ele><time>2026-04-19T07:51:52.699Z</time></trkpt><trkpt lat="44.881173" lon="8.0661739"><ele>247.0</ele><time>2026-04-19T07:51:54.705Z</time></trkpt><trkpt lat="44.8812853" lon="8.066224"><ele>247.0</ele><time>2026-04-19T07:51:56.711Z</time></trkpt><trkpt lat="44.8814148" lon="8.0662881"><ele>247.0</ele><time>2026-04-19T07:51:58.702Z</time></trkpt><trkpt lat="44.8814747" lon="8.0663432"><ele>246.99999999999997</ele><time>2026-04-19T07:51:59.706Z</time></trkpt><trkpt lat="44.8815341" lon="8.0664465"><ele>247.0</ele><time>2026-04-19T07:52:01.711Z</time></trkpt><trkpt lat="44.8815421" lon="8.0665508"><ele>247.0</ele><time>2026-04-19T07:52:03.706Z</time></trkpt><trkpt lat="44.8815848" lon="8.0666572"><ele>247.0</ele><time>2026-04-19T07:52:05.715Z</time></trkpt><trkpt lat="44.8816799" lon="8.066679"><ele>246.99999999999997</ele><time>2026-04-19T07:52:07.719Z</time></trkpt><trkpt lat="44.8817763" lon="8.0666862"><ele>247.0</ele><time>2026-04-19T07:52:12.738Z</time></trkpt><trkpt lat="44.8818375" lon="8.0667989"><ele>245.8</ele><time>2026-04-19T07:52:14.724Z</time></trkpt><trkpt lat="44.8819207" lon="8.0669338"><ele>244.6</ele><time>2026-04-19T07:52:17.737Z</time></trkpt><trkpt lat="44.8819653" lon="8.0670307"><ele>243.40000000000003</ele><time>2026-04-19T07:52:35.738Z</time></trkpt><trkpt lat="44.881985" lon="8.067191"><ele>242.20000000000002</ele><time>2026-04-19T07:52:37.727Z</time></trkpt><trkpt lat="44.8819893" lon="8.0672909"><ele>241.0</ele><time>2026-04-19T07:52:38.738Z</time></trkpt><trkpt lat="44.8820218" lon="8.0674169"><ele>239.33333333333331</ele><time>2026-04-19T07:52:40.72Z</time></trkpt><trkpt lat="44.8820762" lon="8.0675043"><ele>237.66666666666666</ele><time>2026-04-19T07:52:42.711Z</time></trkpt><trkpt lat="44.8821204" lon="8.0675858"><ele>236.0</ele><time>2026-04-19T07:52:43.716Z</time></trkpt><trkpt lat="44.8821803" lon="8.067679"><ele>234.33333333333331</ele><time>2026-04-19T07:52:44.705Z</time></trkpt><trkpt lat="44.8822334" lon="8.0677567"><ele>232.66666666666666</ele><time>2026-04-19T07:52:45.709Z</time></trkpt><trkpt lat="44.8822789" lon="8.0678359"><ele>231.0</ele><time>2026-04-19T07:52:46.709Z</time></trkpt><trkpt lat="44.8823286" lon="8.0679202"><ele>231.0</ele><time>2026-04-19T07:52:47.707Z</time></trkpt><trkpt lat="44.8823704" lon="8.0679908"><ele>231.0</ele><time>2026-04-19T07:52:48.708Z</time></trkpt><trkpt lat="44.8824059" lon="8.068066"><ele>231.0</ele><time>2026-04-19T07:52:49.732Z</time></trkpt><trkpt lat="44.8824371" lon="8.0681586"><ele>231.0</ele><time>2026-04-19T07:52:50.711Z</time></trkpt><trkpt lat="44.8824708" lon="8.0682641"><ele>231.0</ele><time>2026-04-19T07:52:51.709Z</time></trkpt><trkpt lat="44.88249" lon="8.0683688"><ele>231.0</ele><time>2026-04-19T07:52:52.72Z</time></trkpt><trkpt lat="44.8825041" lon="8.0684841"><ele>231.0</ele><time>2026-04-19T07:52:53.713Z</time></trkpt><trkpt lat="44.8825204" lon="8.0686276"><ele>231.60000000000002</ele><time>2026-04-19T07:52:54.705Z</time></trkpt><trkpt lat="44.8825369" lon="8.0687484"><ele>232.20000000000002</ele><time>2026-04-19T07:52:55.72Z</time></trkpt><trkpt lat="44.8825508" lon="8.0688749"><ele>232.79999999999998</ele><time>2026-04-19T07:52:56.714Z</time></trkpt><trkpt lat="44.8825614" lon="8.0690106"><ele>233.39999999999998</ele><time>2026-04-19T07:52:57.708Z</time></trkpt><trkpt lat="44.8825889" lon="8.0691279"><ele>234.0</ele><time>2026-04-19T07:52:58.714Z</time></trkpt><trkpt lat="44.8826003" lon="8.0692507"><ele>234.0</ele><time>2026-04-19T07:52:59.711Z</time></trkpt><trkpt lat="44.8825996" lon="8.0693722"><ele>233.99999999999997</ele><time>2026-04-19T07:53:00.719Z</time></trkpt><trkpt lat="44.8825991" lon="8.0694774"><ele>233.99999999999997</ele><time>2026-04-19T07:53:01.715Z</time></trkpt><trkpt lat="44.8825951" lon="8.069583"><ele>234.0</ele><time>2026-04-19T07:53:02.719Z</time></trkpt><trkpt lat="44.8825698" lon="8.0697561"><ele>234.0</ele><time>2026-04-19T07:53:04.718Z</time></trkpt><trkpt lat="44.8825154" lon="8.0699173"><ele>233.85714285714286</ele><time>2026-04-19T07:53:06.715Z</time></trkpt><trkpt lat="44.8824764" lon="8.0699922"><ele>233.71428571428572</ele><time>2026-04-19T07:53:07.699Z</time></trkpt><trkpt lat="44.8824289" lon="8.0701046"><ele>233.57142857142858</ele><time>2026-04-19T07:53:09.695Z</time></trkpt><trkpt lat="44.8824329" lon="8.0702054"><ele>233.42857142857144</ele><time>2026-04-19T07:53:11.696Z</time></trkpt><trkpt lat="44.8824486" lon="8.0702981"><ele>233.28571428571428</ele><time>2026-04-19T07:53:12.694Z</time></trkpt><trkpt lat="44.8825014" lon="8.0703742"><ele>233.14285714285717</ele><time>2026-04-19T07:53:13.699Z</time></trkpt><trkpt lat="44.882571" lon="8.0704064"><ele>233.0</ele><time>2026-04-19T07:53:14.691Z</time></trkpt><trkpt lat="44.882648" lon="8.0703885"><ele>228.60000000000002</ele><time>2026-04-19T07:53:15.696Z</time></trkpt><trkpt lat="44.8827227" lon="8.0703505"><ele>224.20000000000002</ele><time>2026-04-19T07:53:16.69Z</time></trkpt><trkpt lat="44.8828037" lon="8.0702914"><ele>219.8</ele><time>2026-04-19T07:53:17.694Z</time></trkpt><trkpt lat="44.8829026" lon="8.0702239"><ele>215.4</ele><time>2026-04-19T07:53:18.696Z</time></trkpt><trkpt lat="44.8830318" lon="8.0701646"><ele>211.0</ele><time>2026-04-19T07:53:19.69Z</time></trkpt><trkpt lat="44.8831368" lon="8.0701169"><ele>210.99999999999997</ele><time>2026-04-19T07:53:20.706Z</time></trkpt><trkpt lat="44.883213" lon="8.0700751"><ele>211.0</ele><time>2026-04-19T07:53:21.694Z</time></trkpt><trkpt lat="44.883283" lon="8.0700572"><ele>211.0</ele><time>2026-04-19T07:53:22.691Z</time></trkpt><trkpt lat="44.8833542" lon="8.0700641"><ele>211.0</ele><time>2026-04-19T07:53:23.7Z</time></trkpt><trkpt lat="44.8834242" lon="8.0701062"><ele>210.99999999999997</ele><time>2026-04-19T07:53:24.698Z</time></trkpt><trkpt lat="44.8835123" lon="8.0701863"><ele>211.0</ele><time>2026-04-19T07:53:25.697Z</time></trkpt><trkpt lat="44.8836001" lon="8.0702725"><ele>211.4</ele><time>2026-04-19T07:53:26.697Z</time></trkpt><trkpt lat="44.8836896" lon="8.070373"><ele>211.8</ele><time>2026-04-19T07:53:27.7Z</time></trkpt><trkpt lat="44.8837744" lon="8.0704653"><ele>212.20000000000002</ele><time>2026-04-19T07:53:28.695Z</time></trkpt><trkpt lat="44.883852" lon="8.0705612"><ele>212.60000000000002</ele><time>2026-04-19T07:53:29.702Z</time></trkpt><trkpt lat="44.8839206" lon="8.0706432"><ele>213.0</ele><time>2026-04-19T07:53:30.703Z</time></trkpt><trkpt lat="44.8839926" lon="8.0707363"><ele>211.5</ele><time>2026-04-19T07:53:31.702Z</time></trkpt><trkpt lat="44.884074" lon="8.0708532"><ele>210.0</ele><time>2026-04-19T07:53:32.703Z</time></trkpt><trkpt lat="44.8841498" lon="8.0709932"><ele>208.5</ele><time>2026-04-19T07:53:33.701Z</time></trkpt><trkpt lat="44.8842333" lon="8.0711308"><ele>207.0</ele><time>2026-04-19T07:53:34.697Z</time></trkpt><trkpt lat="44.8843145" lon="8.0712419"><ele>209.0</ele><time>2026-04-19T07:53:35.7Z</time></trkpt><trkpt lat="44.8843833" lon="8.0713713"><ele>211.0</ele><time>2026-04-19T07:53:36.699Z</time></trkpt><trkpt lat="44.8844473" lon="8.0715121"><ele>213.0</ele><time>2026-04-19T07:53:37.702Z</time></trkpt><trkpt lat="44.8845066" lon="8.0716562"><ele>215.0</ele><time>2026-04-19T07:53:38.7Z</time></trkpt><trkpt lat="44.8845652" lon="8.071784"><ele>215.0</ele><time>2026-04-19T07:53:39.698Z</time></trkpt><trkpt lat="44.8846287" lon="8.0718928"><ele>215.0</ele><time>2026-04-19T07:53:40.697Z</time></trkpt><trkpt lat="44.884697" lon="8.07198"><ele>215.0</ele><time>2026-04-19T07:53:41.7Z</time></trkpt><trkpt lat="44.8847672" lon="8.0720743"><ele>215.0</ele><time>2026-04-19T07:53:42.7Z</time></trkpt><trkpt lat="44.8848298" lon="8.0721599"><ele>215.0</ele><time>2026-04-19T07:53:43.704Z</time></trkpt><trkpt lat="44.8848811" lon="8.0722479"><ele>215.00000000000003</ele><time>2026-04-19T07:53:44.701Z</time></trkpt><trkpt lat="44.8849269" lon="8.072323"><ele>215.0</ele><time>2026-04-19T07:53:45.702Z</time></trkpt><trkpt lat="44.8849964" lon="8.0724459"><ele>215.0</ele><time>2026-04-19T07:53:47.699Z</time></trkpt><trkpt lat="44.8850485" lon="8.0725431"><ele>215.0</ele><time>2026-04-19T07:53:49.697Z</time></trkpt><trkpt lat="44.8849829" lon="8.0725781"><ele>215.00000000000003</ele><time>2026-04-19T07:54:15.715Z</time></trkpt><trkpt lat="44.8850294" lon="8.0726685"><ele>215.0</ele><time>2026-04-19T07:54:25.699Z</time></trkpt><trkpt lat="44.8851129" lon="8.0727234"><ele>217.25</ele><time>2026-04-19T07:54:26.695Z</time></trkpt><trkpt lat="44.8852062" lon="8.0727994"><ele>219.5</ele><time>2026-04-19T07:54:27.702Z</time></trkpt><trkpt lat="44.8853045" lon="8.072899"><ele>221.75</ele><time>2026-04-19T07:54:28.694Z</time></trkpt><trkpt lat="44.8854064" lon="8.0730137"><ele>224.0</ele><time>2026-04-19T07:54:29.71Z</time></trkpt><trkpt lat="44.8854903" lon="8.0731422"><ele>221.25</ele><time>2026-04-19T07:54:30.711Z</time></trkpt><trkpt lat="44.8855565" lon="8.0732818"><ele>218.5</ele><time>2026-04-19T07:54:31.707Z</time></trkpt><trkpt lat="44.885622" lon="8.0734303"><ele>215.75</ele><time>2026-04-19T07:54:32.704Z</time></trkpt><trkpt lat="44.8856866" lon="8.0735885"><ele>213.0</ele><time>2026-04-19T07:54:33.713Z</time></trkpt><trkpt lat="44.8857332" lon="8.0737076"><ele>213.0</ele><time>2026-04-19T07:54:34.708Z</time></trkpt><trkpt lat="44.8857788" lon="8.0737961"><ele>213.0</ele><time>2026-04-19T07:54:35.704Z</time></trkpt><trkpt lat="44.8858185" lon="8.073871"><ele>213.0</ele><time>2026-04-19T07:54:36.71Z</time></trkpt><trkpt lat="44.8858637" lon="8.0739341"><ele>213.0</ele><time>2026-04-19T07:54:42.717Z</time></trkpt><trkpt lat="44.8858373" lon="8.0741139"><ele>213.0</ele><time>2026-04-19T07:54:45.695Z</time></trkpt><trkpt lat="44.8858188" lon="8.0742293"><ele>213.0</ele><time>2026-04-19T07:54:46.718Z</time></trkpt><trkpt lat="44.8857991" lon="8.0743525"><ele>212.16666666666666</ele><time>2026-04-19T07:54:47.715Z</time></trkpt><trkpt lat="44.8857764" lon="8.0744807"><ele>211.33333333333331</ele><time>2026-04-19T07:54:48.715Z</time></trkpt><trkpt lat="44.8857564" lon="8.0746063"><ele>210.5</ele><time>2026-04-19T07:54:49.714Z</time></trkpt><trkpt lat="44.8857311" lon="8.0747272"><ele>209.66666666666666</ele><time>2026-04-19T07:54:50.714Z</time></trkpt><trkpt lat="44.8857016" lon="8.0748397"><ele>208.83333333333331</ele><time>2026-04-19T07:54:51.714Z</time></trkpt><trkpt lat="44.8856683" lon="8.0749425"><ele>208.0</ele><time>2026-04-19T07:54:52.717Z</time></trkpt><trkpt lat="44.8856323" lon="8.0750336"><ele>207.49999999999997</ele><time>2026-04-19T07:54:53.729Z</time></trkpt><trkpt lat="44.8855833" lon="8.0750984"><ele>207.0</ele><time>2026-04-19T07:54:54.707Z</time></trkpt><trkpt lat="44.8855224" lon="8.0751441"><ele>206.5</ele><time>2026-04-19T07:54:55.706Z</time></trkpt><trkpt lat="44.8854532" lon="8.0751736"><ele>206.0</ele><time>2026-04-19T07:54:56.707Z</time></trkpt><trkpt lat="44.8853662" lon="8.0752018"><ele>205.49999999999997</ele><time>2026-04-19T07:54:57.717Z</time></trkpt><trkpt lat="44.8852667" lon="8.0752433"><ele>205.0</ele><time>2026-04-19T07:54:58.719Z</time></trkpt><trkpt lat="44.8851619" lon="8.0752879"><ele>202.16666666666666</ele><time>2026-04-19T07:54:59.717Z</time></trkpt><trkpt lat="44.8850765" lon="8.075346"><ele>199.33333333333331</ele><time>2026-04-19T07:55:00.715Z</time></trkpt><trkpt lat="44.8850163" lon="8.0754155"><ele>196.5</ele><time>2026-04-19T07:55:01.714Z</time></trkpt><trkpt lat="44.8849664" lon="8.0754804"><ele>193.66666666666666</ele><time>2026-04-19T07:55:02.718Z</time></trkpt><trkpt lat="44.8848934" lon="8.0755359"><ele>190.83333333333331</ele><time>2026-04-19T07:55:04.715Z</time></trkpt><trkpt lat="44.8848424" lon="8.075641"><ele>188.0</ele><time>2026-04-19T07:55:07.721Z</time></trkpt><trkpt lat="44.884884" lon="8.0757792"><ele>187.71428571428572</ele><time>2026-04-19T07:55:09.713Z</time></trkpt><trkpt lat="44.8849173" lon="8.0758585"><ele>187.42857142857142</ele><time>2026-04-19T07:55:10.713Z</time></trkpt><trkpt lat="44.8849486" lon="8.0759405"><ele>187.14285714285717</ele><time>2026-04-19T07:55:11.703Z</time></trkpt><trkpt lat="44.8849766" lon="8.0760362"><ele>186.85714285714286</ele><time>2026-04-19T07:55:12.701Z</time></trkpt><trkpt lat="44.8850015" lon="8.0761364"><ele>186.57142857142858</ele><time>2026-04-19T07:55:13.702Z</time></trkpt><trkpt lat="44.8850252" lon="8.0762445"><ele>186.2857142857143</ele><time>2026-04-19T07:55:14.697Z</time></trkpt><trkpt lat="44.8850498" lon="8.0763404"><ele>186.0</ele><time>2026-04-19T07:55:15.698Z</time></trkpt><trkpt lat="44.8850747" lon="8.0764299"><ele>186.00000000000003</ele><time>2026-04-19T07:55:16.703Z</time></trkpt><trkpt lat="44.8850912" lon="8.0765199"><ele>186.0</ele><time>2026-04-19T07:55:17.709Z</time></trkpt><trkpt lat="44.8851097" lon="8.0766204"><ele>186.0</ele><time>2026-04-19T07:55:18.704Z</time></trkpt><trkpt lat="44.8851249" lon="8.0767272"><ele>186.0</ele><time>2026-04-19T07:55:19.707Z</time></trkpt><trkpt lat="44.8851378" lon="8.0768292"><ele>186.0</ele><time>2026-04-19T07:55:20.706Z</time></trkpt><trkpt lat="44.8851512" lon="8.0769176"><ele>186.00000000000003</ele><time>2026-04-19T07:55:21.708Z</time></trkpt><trkpt lat="44.8851814" lon="8.0770099"><ele>186.0</ele><time>2026-04-19T07:55:23.715Z</time></trkpt><trkpt lat="44.8852329" lon="8.0770758"><ele>187.4</ele><time>2026-04-19T07:55:25.705Z</time></trkpt><trkpt lat="44.8852401" lon="8.07717"><ele>188.8</ele><time>2026-04-19T07:55:30.701Z</time></trkpt><trkpt lat="44.8852629" lon="8.077294"><ele>190.20000000000002</ele><time>2026-04-19T07:55:32.697Z</time></trkpt><trkpt lat="44.8853064" lon="8.0774803"><ele>191.60000000000002</ele><time>2026-04-19T07:55:34.693Z</time></trkpt><trkpt lat="44.8853292" lon="8.0776014"><ele>193.0</ele><time>2026-04-19T07:55:35.693Z</time></trkpt><trkpt lat="44.885351" lon="8.0777198"><ele>192.99999999999997</ele><time>2026-04-19T07:55:36.705Z</time></trkpt><trkpt lat="44.8853756" lon="8.0778387"><ele>193.0</ele><time>2026-04-19T07:55:37.701Z</time></trkpt><trkpt lat="44.8854107" lon="8.0779552"><ele>193.0</ele><time>2026-04-19T07:55:38.699Z</time></trkpt><trkpt lat="44.8854489" lon="8.0780715"><ele>193.0</ele><time>2026-04-19T07:55:39.697Z</time></trkpt><trkpt lat="44.8854899" lon="8.078184"><ele>192.99999999999997</ele><time>2026-04-19T07:55:40.699Z</time></trkpt><trkpt lat="44.8855209" lon="8.0782902"><ele>193.0</ele><time>2026-04-19T07:55:41.696Z</time></trkpt><trkpt lat="44.8855423" lon="8.0783909"><ele>191.83333333333331</ele><time>2026-04-19T07:55:42.706Z</time></trkpt><trkpt lat="44.8855603" lon="8.0784801"><ele>190.66666666666666</ele><time>2026-04-19T07:55:43.702Z</time></trkpt><trkpt lat="44.8855824" lon="8.0785691"><ele>189.5</ele><time>2026-04-19T07:55:45.708Z</time></trkpt><trkpt lat="44.8855379" lon="8.0786403"><ele>188.33333333333331</ele><time>2026-04-19T07:56:06.711Z</time></trkpt><trkpt lat="44.8855951" lon="8.0785572"><ele>187.16666666666666</ele><time>2026-04-19T07:56:23.717Z</time></trkpt><trkpt lat="44.8856778" lon="8.0784702"><ele>186.0</ele><time>2026-04-19T07:56:26.737Z</time></trkpt><trkpt lat="44.8857554" lon="8.0784203"><ele>186.0</ele><time>2026-04-19T07:56:28.72Z</time></trkpt><trkpt lat="44.8858349" lon="8.0783916"><ele>186.0</ele><time>2026-04-19T07:56:30.72Z</time></trkpt><trkpt lat="44.8859126" lon="8.0783807"><ele>186.0</ele><time>2026-04-19T07:56:32.72Z</time></trkpt><trkpt lat="44.8859633" lon="8.0784698"><ele>186.0</ele><time>2026-04-19T07:56:36.714Z</time></trkpt><trkpt lat="44.8859738" lon="8.0785726"><ele>186.0</ele><time>2026-04-19T07:56:38.714Z</time></trkpt><trkpt lat="44.8859836" lon="8.0786902"><ele>186.0</ele><time>2026-04-19T07:56:40.71Z</time></trkpt><trkpt lat="44.8860141" lon="8.0788604"><ele>188.60000000000002</ele><time>2026-04-19T07:56:42.713Z</time></trkpt><trkpt lat="44.8860351" lon="8.0789895"><ele>191.2</ele><time>2026-04-19T07:56:43.713Z</time></trkpt><trkpt lat="44.8860702" lon="8.0791443"><ele>193.8</ele><time>2026-04-19T07:56:44.711Z</time></trkpt><trkpt lat="44.8861053" lon="8.079303"><ele>196.39999999999998</ele><time>2026-04-19T07:56:45.707Z</time></trkpt><trkpt lat="44.8861437" lon="8.0794523"><ele>199.0</ele><time>2026-04-19T07:56:46.703Z</time></trkpt><trkpt lat="44.8861815" lon="8.0795929"><ele>199.0</ele><time>2026-04-19T07:56:47.699Z</time></trkpt><trkpt lat="44.886212" lon="8.0797273"><ele>199.0</ele><time>2026-04-19T07:56:48.701Z</time></trkpt><trkpt lat="44.8862452" lon="8.0798669"><ele>199.0</ele><time>2026-04-19T07:56:49.706Z</time></trkpt><trkpt lat="44.8862739" lon="8.0800077"><ele>199.0</ele><time>2026-04-19T07:56:50.699Z</time></trkpt><trkpt lat="44.8862998" lon="8.0801413"><ele>199.0</ele><time>2026-04-19T07:56:51.712Z</time></trkpt><trkpt lat="44.8863301" lon="8.0802496"><ele>198.66666666666666</ele><time>2026-04-19T07:56:52.706Z</time></trkpt><trkpt lat="44.886367" lon="8.0803353"><ele>198.33333333333331</ele><time>2026-04-19T07:56:53.704Z</time></trkpt><trkpt lat="44.8864174" lon="8.0804193"><ele>198.0</ele><time>2026-04-19T07:56:54.704Z</time></trkpt><trkpt lat="44.8864623" lon="8.0805072"><ele>197.66666666666669</ele><time>2026-04-19T07:56:55.71Z</time></trkpt><trkpt lat="44.8864962" lon="8.0805881"><ele>197.33333333333334</ele><time>2026-04-19T07:56:56.704Z</time></trkpt><trkpt lat="44.88655" lon="8.0806993"><ele>197.0</ele><time>2026-04-19T07:56:58.715Z</time></trkpt><trkpt lat="44.8866054" lon="8.0807514"><ele>197.00000000000003</ele><time>2026-04-19T07:57:00.716Z</time></trkpt><trkpt lat="44.8866822" lon="8.0807555"><ele>197.0</ele><time>2026-04-19T07:57:02.715Z</time></trkpt><trkpt lat="44.8867613" lon="8.0807539"><ele>197.0</ele><time>2026-04-19T07:57:04.733Z</time></trkpt><trkpt lat="44.886828" lon="8.0808348"><ele>197.0</ele><time>2026-04-19T07:57:06.733Z</time></trkpt><trkpt lat="44.8868373" lon="8.0809355"><ele>197.00000000000003</ele><time>2026-04-19T07:57:07.718Z</time></trkpt><trkpt lat="44.8868286" lon="8.0810742"><ele>197.0</ele><time>2026-04-19T07:57:08.725Z</time></trkpt><trkpt lat="44.8868089" lon="8.0812136"><ele>196.6</ele><time>2026-04-19T07:57:09.725Z</time></trkpt><trkpt lat="44.8867804" lon="8.0813582"><ele>196.2</ele><time>2026-04-19T07:57:10.727Z</time></trkpt><trkpt lat="44.8867582" lon="8.0814909"><ele>195.8</ele><time>2026-04-19T07:57:11.712Z</time></trkpt><trkpt lat="44.8867355" lon="8.081621"><ele>195.4</ele><time>2026-04-19T07:57:12.717Z</time></trkpt><trkpt lat="44.8867149" lon="8.0817417"><ele>195.0</ele><time>2026-04-19T07:57:13.725Z</time></trkpt><trkpt lat="44.8866969" lon="8.0818414"><ele>194.6</ele><time>2026-04-19T07:57:14.735Z</time></trkpt><trkpt lat="44.8867188" lon="8.0819526"><ele>194.2</ele><time>2026-04-19T07:57:16.732Z</time></trkpt><trkpt lat="44.8867784" lon="8.0820364"><ele>193.8</ele><time>2026-04-19T07:57:18.724Z</time></trkpt><trkpt lat="44.886816" lon="8.0821547"><ele>193.4</ele><time>2026-04-19T07:57:20.721Z</time></trkpt><trkpt lat="44.886828" lon="8.0823071"><ele>193.0</ele><time>2026-04-19T07:57:22.714Z</time></trkpt><trkpt lat="44.8868044" lon="8.0824904"><ele>189.33333333333331</ele><time>2026-04-19T07:57:24.713Z</time></trkpt><trkpt lat="44.8867856" lon="8.0825976"><ele>185.66666666666666</ele><time>2026-04-19T07:57:25.709Z</time></trkpt><trkpt lat="44.8867754" lon="8.0827189"><ele>182.0</ele><time>2026-04-19T07:57:26.709Z</time></trkpt><trkpt lat="44.8867707" lon="8.0828484"><ele>178.33333333333331</ele><time>2026-04-19T07:57:27.733Z</time></trkpt><trkpt lat="44.8867745" lon="8.0829699"><ele>174.66666666666666</ele><time>2026-04-19T07:57:28.709Z</time></trkpt><trkpt lat="44.8867881" lon="8.0830916"><ele>171.0</ele><time>2026-04-19T07:57:29.713Z</time></trkpt><trkpt lat="44.8868189" lon="8.0832057"><ele>169.8</ele><time>2026-04-19T07:57:30.71Z</time></trkpt><trkpt lat="44.8868532" lon="8.0833394"><ele>168.60000000000002</ele><time>2026-04-19T07:57:31.699Z</time></trkpt><trkpt lat="44.8868958" lon="8.0834794"><ele>167.4</ele><time>2026-04-19T07:57:32.7Z</time></trkpt><trkpt lat="44.8869329" lon="8.0836167"><ele>166.2</ele><time>2026-04-19T07:57:33.711Z</time></trkpt><trkpt lat="44.8869751" lon="8.0837569"><ele>165.0</ele><time>2026-04-19T07:57:34.714Z</time></trkpt><trkpt lat="44.8870191" lon="8.0839007"><ele>165.0</ele><time>2026-04-19T07:57:35.706Z</time></trkpt><trkpt lat="44.8870549" lon="8.0840395"><ele>165.0</ele><time>2026-04-19T07:57:36.702Z</time></trkpt><trkpt lat="44.8870743" lon="8.0841819"><ele>165.0</ele><time>2026-04-19T07:57:37.717Z</time></trkpt><trkpt lat="44.8870871" lon="8.0843221"><ele>165.0</ele><time>2026-04-19T07:57:38.714Z</time></trkpt><trkpt lat="44.8871039" lon="8.0844449"><ele>165.0</ele><time>2026-04-19T07:57:39.702Z</time></trkpt><trkpt lat="44.8871171" lon="8.0845521"><ele>165.2</ele><time>2026-04-19T07:57:40.713Z</time></trkpt><trkpt lat="44.8871253" lon="8.0846623"><ele>165.4</ele><time>2026-04-19T07:57:41.713Z</time></trkpt><trkpt lat="44.8871183" lon="8.084778"><ele>165.60000000000002</ele><time>2026-04-19T07:57:42.717Z</time></trkpt><trkpt lat="44.8870972" lon="8.0849028"><ele>165.8</ele><time>2026-04-19T07:57:43.711Z</time></trkpt><trkpt lat="44.8870689" lon="8.0850348"><ele>166.0</ele><time>2026-04-19T07:57:44.713Z</time></trkpt><trkpt lat="44.8870336" lon="8.0851707"><ele>166.0</ele><time>2026-04-19T07:57:45.71Z</time></trkpt><trkpt lat="44.8870028" lon="8.0852956"><ele>166.0</ele><time>2026-04-19T07:57:46.708Z</time></trkpt><trkpt lat="44.8869799" lon="8.085428"><ele>166.0</ele><time>2026-04-19T07:57:47.721Z</time></trkpt><trkpt lat="44.8869911" lon="8.0855635"><ele>166.0</ele><time>2026-04-19T07:57:48.711Z</time></trkpt><trkpt lat="44.8870156" lon="8.0857001"><ele>166.0</ele><time>2026-04-19T07:57:49.713Z</time></trkpt><trkpt lat="44.8870387" lon="8.0858353"><ele>166.0</ele><time>2026-04-19T07:57:50.701Z</time></trkpt><trkpt lat="44.8870624" lon="8.0859713"><ele>166.0</ele><time>2026-04-19T07:57:51.709Z</time></trkpt><trkpt lat="44.8870905" lon="8.0861112"><ele>166.0</ele><time>2026-04-19T07:57:52.718Z</time></trkpt><trkpt lat="44.8871292" lon="8.086244"><ele>166.0</ele><time>2026-04-19T07:57:53.708Z</time></trkpt><trkpt lat="44.887188" lon="8.0863603"><ele>166.0</ele><time>2026-04-19T07:57:54.712Z</time></trkpt><trkpt lat="44.8872492" lon="8.0864539"><ele>166.0</ele><time>2026-04-19T07:57:55.719Z</time></trkpt><trkpt lat="44.8873031" lon="8.0865264"><ele>166.0</ele><time>2026-04-19T07:57:56.719Z</time></trkpt><trkpt lat="44.8873622" lon="8.0865789"><ele>166.0</ele><time>2026-04-19T07:57:57.72Z</time></trkpt><trkpt lat="44.8874309" lon="8.0866162"><ele>166.0</ele><time>2026-04-19T07:57:58.737Z</time></trkpt><trkpt lat="44.8875147" lon="8.086643"><ele>166.0</ele><time>2026-04-19T07:57:59.717Z</time></trkpt><trkpt lat="44.8876008" lon="8.0866837"><ele>166.0</ele><time>2026-04-19T07:58:00.718Z</time></trkpt><trkpt lat="44.8876778" lon="8.086743"><ele>167.0</ele><time>2026-04-19T07:58:01.714Z</time></trkpt><trkpt lat="44.8877487" lon="8.086819"><ele>168.0</ele><time>2026-04-19T07:58:02.721Z</time></trkpt><trkpt lat="44.8878035" lon="8.0869325"><ele>169.0</ele><time>2026-04-19T07:58:03.704Z</time></trkpt><trkpt lat="44.8878406" lon="8.0870597"><ele>170.0</ele><time>2026-04-19T07:58:04.707Z</time></trkpt><trkpt lat="44.8878652" lon="8.0871705"><ele>171.0</ele><time>2026-04-19T07:58:05.716Z</time></trkpt><trkpt lat="44.887867" lon="8.0872891"><ele>171.0</ele><time>2026-04-19T07:58:06.698Z</time></trkpt><trkpt lat="44.8878552" lon="8.0874153"><ele>171.0</ele><time>2026-04-19T07:58:07.705Z</time></trkpt><trkpt lat="44.8878434" lon="8.087548"><ele>171.0</ele><time>2026-04-19T07:58:08.706Z</time></trkpt><trkpt lat="44.8878448" lon="8.0876684"><ele>171.0</ele><time>2026-04-19T07:58:09.698Z</time></trkpt><trkpt lat="44.8878606" lon="8.087761"><ele>171.0</ele><time>2026-04-19T07:58:10.706Z</time></trkpt><trkpt lat="44.8879386" lon="8.0878278"><ele>171.0</ele><time>2026-04-19T07:58:12.71Z</time></trkpt><trkpt lat="44.8880224" lon="8.0878111"><ele>170.60000000000002</ele><time>2026-04-19T07:58:14.71Z</time></trkpt><trkpt lat="44.8880974" lon="8.0877675"><ele>170.2</ele><time>2026-04-19T07:58:16.704Z</time></trkpt><trkpt lat="44.8882255" lon="8.0877859"><ele>169.8</ele><time>2026-04-19T07:58:18.714Z</time></trkpt><trkpt lat="44.888322" lon="8.0878172"><ele>169.39999999999998</ele><time>2026-04-19T07:58:19.705Z</time></trkpt><trkpt lat="44.8884306" lon="8.0878655"><ele>169.0</ele><time>2026-04-19T07:58:20.707Z</time></trkpt><trkpt lat="44.8885331" lon="8.0879131"><ele>171.28571428571428</ele><time>2026-04-19T07:58:21.709Z</time></trkpt><trkpt lat="44.8886167" lon="8.0879719"><ele>173.57142857142856</ele><time>2026-04-19T07:58:22.71Z</time></trkpt><trkpt lat="44.8886893" lon="8.0880154"><ele>175.85714285714283</ele><time>2026-04-19T07:58:23.709Z</time></trkpt><trkpt lat="44.8887604" lon="8.0880481"><ele>178.14285714285714</ele><time>2026-04-19T07:58:24.705Z</time></trkpt><trkpt lat="44.8888276" lon="8.0880766"><ele>180.42857142857142</ele><time>2026-04-19T07:58:25.704Z</time></trkpt><trkpt lat="44.8888919" lon="8.088096"><ele>182.7142857142857</ele><time>2026-04-19T07:58:26.703Z</time></trkpt><trkpt lat="44.8889574" lon="8.0881057"><ele>185.0</ele><time>2026-04-19T07:58:27.706Z</time></trkpt><trkpt lat="44.8890237" lon="8.088112"><ele>184.99999999999997</ele><time>2026-04-19T07:58:28.706Z</time></trkpt><trkpt lat="44.8890895" lon="8.0881186"><ele>185.0</ele><time>2026-04-19T07:58:29.72Z</time></trkpt><trkpt lat="44.889165" lon="8.0881197"><ele>185.0</ele><time>2026-04-19T07:58:30.699Z</time></trkpt><trkpt lat="44.8892468" lon="8.0881179"><ele>185.0</ele><time>2026-04-19T07:58:31.702Z</time></trkpt><trkpt lat="44.8893311" lon="8.0881217"><ele>185.0</ele><time>2026-04-19T07:58:32.698Z</time></trkpt><trkpt lat="44.8894034" lon="8.0881277"><ele>184.99999999999997</ele><time>2026-04-19T07:58:33.694Z</time></trkpt><trkpt lat="44.8894705" lon="8.0881383"><ele>185.0</ele><time>2026-04-19T07:58:34.699Z</time></trkpt><trkpt lat="44.8895791" lon="8.0881471"><ele>188.8</ele><time>2026-04-19T07:58:36.712Z</time></trkpt><trkpt lat="44.8896979" lon="8.0881303"><ele>192.6</ele><time>2026-04-19T07:58:38.7Z</time></trkpt><trkpt lat="44.8898193" lon="8.0880987"><ele>196.39999999999998</ele><time>2026-04-19T07:58:40.701Z</time></trkpt><trkpt lat="44.8899165" lon="8.0881103"><ele>200.2</ele><time>2026-04-19T07:58:42.701Z</time></trkpt><trkpt lat="44.8900134" lon="8.0881367"><ele>204.0</ele><time>2026-04-19T07:58:44.701Z</time></trkpt><trkpt lat="44.8901194" lon="8.0882176"><ele>206.0</ele><time>2026-04-19T07:58:46.691Z</time></trkpt><trkpt lat="44.8902424" lon="8.0882634"><ele>208.0</ele><time>2026-04-19T07:58:48.696Z</time></trkpt><trkpt lat="44.8903298" lon="8.0882503"><ele>209.99999999999997</ele><time>2026-04-19T07:58:49.699Z</time></trkpt><trkpt lat="44.8904235" lon="8.0882326"><ele>212.0</ele><time>2026-04-19T07:58:50.697Z</time></trkpt><trkpt lat="44.8905168" lon="8.0882209"><ele>214.0</ele><time>2026-04-19T07:58:51.695Z</time></trkpt><trkpt lat="44.8906204" lon="8.0881981"><ele>213.99999999999997</ele><time>2026-04-19T07:58:53.694Z</time></trkpt><trkpt lat="44.890737" lon="8.0882484"><ele>214.0</ele><time>2026-04-19T07:58:55.698Z</time></trkpt><trkpt lat="44.8907944" lon="8.0882929"><ele>214.0</ele><time>2026-04-19T07:58:56.698Z</time></trkpt><trkpt lat="44.890863" lon="8.0883467"><ele>214.0</ele><time>2026-04-19T07:58:57.695Z</time></trkpt><trkpt lat="44.8909338" lon="8.0883954"><ele>213.99999999999997</ele><time>2026-04-19T07:58:58.702Z</time></trkpt><trkpt lat="44.8909996" lon="8.0884177"><ele>214.0</ele><time>2026-04-19T07:58:59.701Z</time></trkpt><trkpt lat="44.8910677" lon="8.0884246"><ele>213.83333333333331</ele><time>2026-04-19T07:59:00.729Z</time></trkpt><trkpt lat="44.8911368" lon="8.0884158"><ele>213.66666666666666</ele><time>2026-04-19T07:59:01.703Z</time></trkpt><trkpt lat="44.8912387" lon="8.088386"><ele>213.5</ele><time>2026-04-19T07:59:03.704Z</time></trkpt><trkpt lat="44.8913274" lon="8.0883282"><ele>213.33333333333331</ele><time>2026-04-19T07:59:05.73Z</time></trkpt><trkpt lat="44.8913995" lon="8.0882851"><ele>213.16666666666666</ele><time>2026-04-19T07:59:08.725Z</time></trkpt><trkpt lat="44.8914735" lon="8.0882902"><ele>213.0</ele><time>2026-04-19T07:59:11.729Z</time></trkpt><trkpt lat="44.8915057" lon="8.0881972"><ele>213.0</ele><time>2026-04-19T07:59:17.739Z</time></trkpt><trkpt lat="44.8914367" lon="8.0882623"><ele>213.0</ele><time>2026-04-19T07:59:29.726Z</time></trkpt><trkpt lat="44.8915004" lon="8.0881698"><ele>213.0</ele><time>2026-04-19T08:00:52.718Z</time></trkpt><trkpt lat="44.8915625" lon="8.0880777"><ele>213.0</ele><time>2026-04-19T08:00:53.729Z</time></trkpt><trkpt lat="44.8916226" lon="8.0880287"><ele>213.0</ele><time>2026-04-19T08:00:54.723Z</time></trkpt><trkpt lat="44.891725" lon="8.0880807"><ele>213.0</ele><time>2026-04-19T08:00:56.724Z</time></trkpt><trkpt lat="44.891763" lon="8.0881899"><ele>213.0</ele><time>2026-04-19T08:00:58.722Z</time></trkpt><trkpt lat="44.8917413" lon="8.0882747"><ele>213.0</ele><time>2026-04-19T08:00:59.72Z</time></trkpt><trkpt lat="44.8916974" lon="8.0883677"><ele>213.0</ele><time>2026-04-19T08:01:00.712Z</time></trkpt><trkpt lat="44.8916487" lon="8.0884711"><ele>213.0</ele><time>2026-04-19T08:01:01.718Z</time></trkpt><trkpt lat="44.8915971" lon="8.0885755"><ele>213.0</ele><time>2026-04-19T08:01:02.712Z</time></trkpt><trkpt lat="44.8915465" lon="8.0886833"><ele>213.0</ele><time>2026-04-19T08:01:03.718Z</time></trkpt><trkpt lat="44.8914934" lon="8.0887869"><ele>213.0</ele><time>2026-04-19T08:01:04.727Z</time></trkpt><trkpt lat="44.8914479" lon="8.08888"><ele>213.0</ele><time>2026-04-19T08:01:05.716Z</time></trkpt><trkpt lat="44.8914182" lon="8.0889615"><ele>213.0</ele><time>2026-04-19T08:01:06.718Z</time></trkpt><trkpt lat="44.8913967" lon="8.0890905"><ele>213.0</ele><time>2026-04-19T08:01:08.711Z</time></trkpt><trkpt lat="44.8914768" lon="8.0889993"><ele>213.0</ele><time>2026-04-19T08:01:15.716Z</time></trkpt><trkpt lat="44.8915373" lon="8.0888448"><ele>213.0</ele><time>2026-04-19T08:01:17.713Z</time></trkpt><trkpt lat="44.8916314" lon="8.0887559"><ele>213.0</ele><time>2026-04-19T08:01:19.72Z</time></trkpt><trkpt lat="44.8917475" lon="8.0886707"><ele>213.0</ele><time>2026-04-19T08:01:21.711Z</time></trkpt><trkpt lat="44.8917978" lon="8.0886081"><ele>213.0</ele><time>2026-04-19T08:01:22.705Z</time></trkpt><trkpt lat="44.8918555" lon="8.0885369"><ele>213.0</ele><time>2026-04-19T08:01:23.697Z</time></trkpt><trkpt lat="44.8919147" lon="8.0884675"><ele>210.5</ele><time>2026-04-19T08:01:24.708Z</time></trkpt><trkpt lat="44.8919762" lon="8.0884054"><ele>208.0</ele><time>2026-04-19T08:01:25.703Z</time></trkpt><trkpt lat="44.8920272" lon="8.0883496"><ele>205.5</ele><time>2026-04-19T08:01:26.708Z</time></trkpt><trkpt lat="44.8921479" lon="8.0883433"><ele>203.0</ele><time>2026-04-19T08:01:28.708Z</time></trkpt><trkpt lat="44.8922158" lon="8.0883667"><ele>200.5</ele><time>2026-04-19T08:01:29.704Z</time></trkpt><trkpt lat="44.8923182" lon="8.0884316"><ele>198.0</ele><time>2026-04-19T08:01:31.699Z</time></trkpt><trkpt lat="44.8924091" lon="8.0885144"><ele>198.0</ele><time>2026-04-19T08:01:33.679Z</time></trkpt><trkpt lat="44.8924679" lon="8.0885472"><ele>198.0</ele><time>2026-04-19T08:01:34.692Z</time></trkpt><trkpt lat="44.8925329" lon="8.0885739"><ele>198.0</ele><time>2026-04-19T08:01:35.717Z</time></trkpt><trkpt lat="44.8926019" lon="8.0886205"><ele>198.0</ele><time>2026-04-19T08:01:36.687Z</time></trkpt><trkpt lat="44.8926823" lon="8.0886693"><ele>198.0</ele><time>2026-04-19T08:01:37.686Z</time></trkpt><trkpt lat="44.8927678" lon="8.0887189"><ele>198.0</ele><time>2026-04-19T08:01:38.69Z</time></trkpt><trkpt lat="44.8928595" lon="8.0887689"><ele>195.4</ele><time>2026-04-19T08:01:39.692Z</time></trkpt><trkpt lat="44.892949" lon="8.0888268"><ele>192.8</ele><time>2026-04-19T08:01:40.69Z</time></trkpt><trkpt lat="44.8930381" lon="8.0888868"><ele>190.2</ele><time>2026-04-19T08:01:41.696Z</time></trkpt><trkpt lat="44.8931266" lon="8.088927"><ele>187.6</ele><time>2026-04-19T08:01:42.705Z</time></trkpt><trkpt lat="44.8932148" lon="8.0889407"><ele>185.0</ele><time>2026-04-19T08:01:43.701Z</time></trkpt><trkpt lat="44.8932995" lon="8.0889276"><ele>185.0</ele><time>2026-04-19T08:01:44.702Z</time></trkpt><trkpt lat="44.8933902" lon="8.0889086"><ele>185.0</ele><time>2026-04-19T08:01:45.697Z</time></trkpt><trkpt lat="44.8934768" lon="8.0888784"><ele>185.0</ele><time>2026-04-19T08:01:46.709Z</time></trkpt><trkpt lat="44.8935544" lon="8.0888341"><ele>185.0</ele><time>2026-04-19T08:01:47.712Z</time></trkpt><trkpt lat="44.8936237" lon="8.088778"><ele>185.0</ele><time>2026-04-19T08:01:48.709Z</time></trkpt><trkpt lat="44.8936836" lon="8.0887136"><ele>185.0</ele><time>2026-04-19T08:01:49.712Z</time></trkpt><trkpt lat="44.8937337" lon="8.0886542"><ele>182.83333333333331</ele><time>2026-04-19T08:01:50.702Z</time></trkpt><trkpt lat="44.8937925" lon="8.0886012"><ele>180.66666666666666</ele><time>2026-04-19T08:01:51.717Z</time></trkpt><trkpt lat="44.8938565" lon="8.0885515"><ele>178.5</ele><time>2026-04-19T08:01:52.703Z</time></trkpt><trkpt lat="44.8939287" lon="8.0885094"><ele>176.33333333333334</ele><time>2026-04-19T08:01:53.718Z</time></trkpt><trkpt lat="44.8940074" lon="8.0884939"><ele>174.16666666666669</ele><time>2026-04-19T08:01:54.696Z</time></trkpt><trkpt lat="44.8940846" lon="8.0884824"><ele>172.0</ele><time>2026-04-19T08:01:55.701Z</time></trkpt><trkpt lat="44.894166" lon="8.0884874"><ele>172.0</ele><time>2026-04-19T08:01:56.699Z</time></trkpt><trkpt lat="44.8942473" lon="8.0884999"><ele>172.0</ele><time>2026-04-19T08:01:57.705Z</time></trkpt><trkpt lat="44.8943154" lon="8.0885351"><ele>172.0</ele><time>2026-04-19T08:01:58.711Z</time></trkpt><trkpt lat="44.8943784" lon="8.0885937"><ele>172.0</ele><time>2026-04-19T08:01:59.709Z</time></trkpt><trkpt lat="44.8944958" lon="8.0886408"><ele>172.0</ele><time>2026-04-19T08:02:01.707Z</time></trkpt><trkpt lat="44.8946015" lon="8.0885656"><ele>172.0</ele><time>2026-04-19T08:02:03.697Z</time></trkpt><trkpt lat="44.8946928" lon="8.0884502"><ele>172.0</ele><time>2026-04-19T08:02:05.706Z</time></trkpt><trkpt lat="44.8947525" lon="8.0884023"><ele>172.0</ele><time>2026-04-19T08:02:06.699Z</time></trkpt><trkpt lat="44.8948526" lon="8.0883399"><ele>172.0</ele><time>2026-04-19T08:02:08.702Z</time></trkpt><trkpt lat="44.8949034" lon="8.0882827"><ele>172.0</ele><time>2026-04-19T08:02:10.699Z</time></trkpt><trkpt lat="44.8949781" lon="8.0882816"><ele>172.0</ele><time>2026-04-19T08:02:15.715Z</time></trkpt><trkpt lat="44.8950428" lon="8.0882596"><ele>172.8</ele><time>2026-04-19T08:02:22.706Z</time></trkpt><trkpt lat="44.8951371" lon="8.0882044"><ele>173.6</ele><time>2026-04-19T08:02:25.709Z</time></trkpt><trkpt lat="44.8952002" lon="8.0881216"><ele>174.4</ele><time>2026-04-19T08:02:26.727Z</time></trkpt><trkpt lat="44.8952734" lon="8.0880171"><ele>175.20000000000002</ele><time>2026-04-19T08:02:27.717Z</time></trkpt><trkpt lat="44.8953528" lon="8.0879044"><ele>176.0</ele><time>2026-04-19T08:02:28.72Z</time></trkpt><trkpt lat="44.8954278" lon="8.0877898"><ele>176.0</ele><time>2026-04-19T08:02:29.721Z</time></trkpt><trkpt lat="44.8955048" lon="8.0876744"><ele>176.0</ele><time>2026-04-19T08:02:30.723Z</time></trkpt><trkpt lat="44.8955838" lon="8.0875501"><ele>176.0</ele><time>2026-04-19T08:02:31.715Z</time></trkpt><trkpt lat="44.8956666" lon="8.0874147"><ele>176.0</ele><time>2026-04-19T08:02:32.722Z</time></trkpt><trkpt lat="44.895742" lon="8.0872755"><ele>176.0</ele><time>2026-04-19T08:02:33.716Z</time></trkpt><trkpt lat="44.8958085" lon="8.0871316"><ele>176.0</ele><time>2026-04-19T08:02:34.714Z</time></trkpt><trkpt lat="44.89586" lon="8.0870003"><ele>176.0</ele><time>2026-04-19T08:02:35.721Z</time></trkpt><trkpt lat="44.8958956" lon="8.0868982"><ele>176.0</ele><time>2026-04-19T08:02:36.733Z</time></trkpt><trkpt lat="44.8959239" lon="8.0868159"><ele>176.0</ele><time>2026-04-19T08:02:37.716Z</time></trkpt><trkpt lat="44.8959708" lon="8.0866784"><ele>178.0</ele><time>2026-04-19T08:02:39.722Z</time></trkpt><trkpt lat="44.896017" lon="8.0865575"><ele>180.0</ele><time>2026-04-19T08:02:41.712Z</time></trkpt><trkpt lat="44.8960525" lon="8.086474"><ele>182.0</ele><time>2026-04-19T08:02:42.718Z</time></trkpt><trkpt lat="44.8960998" lon="8.086374"><ele>184.0</ele><time>2026-04-19T08:02:43.718Z</time></trkpt><trkpt lat="44.8961612" lon="8.0862496"><ele>186.0</ele><time>2026-04-19T08:02:44.717Z</time></trkpt><trkpt lat="44.8962167" lon="8.0861392"><ele>186.0</ele><time>2026-04-19T08:02:45.7Z</time></trkpt><trkpt lat="44.8962695" lon="8.0860338"><ele>186.0</ele><time>2026-04-19T08:02:46.718Z</time></trkpt><trkpt lat="44.8963109" lon="8.0859383"><ele>186.0</ele><time>2026-04-19T08:02:47.702Z</time></trkpt><trkpt lat="44.8963316" lon="8.0858302"><ele>186.0</ele><time>2026-04-19T08:02:48.717Z</time></trkpt><trkpt lat="44.8963424" lon="8.0857"><ele>186.0</ele><time>2026-04-19T08:02:49.704Z</time></trkpt><trkpt lat="44.8963503" lon="8.0855566"><ele>186.0</ele><time>2026-04-19T08:02:50.702Z</time></trkpt><trkpt lat="44.8963487" lon="8.0854085"><ele>186.16666666666666</ele><time>2026-04-19T08:02:51.697Z</time></trkpt><trkpt lat="44.8963428" lon="8.0852639"><ele>186.33333333333334</ele><time>2026-04-19T08:02:52.697Z</time></trkpt><trkpt lat="44.8963338" lon="8.085134"><ele>186.5</ele><time>2026-04-19T08:02:53.692Z</time></trkpt><trkpt lat="44.8963279" lon="8.0850181"><ele>186.66666666666669</ele><time>2026-04-19T08:02:54.697Z</time></trkpt><trkpt lat="44.8963233" lon="8.0849079"><ele>186.83333333333334</ele><time>2026-04-19T08:02:55.703Z</time></trkpt><trkpt lat="44.8963199" lon="8.0847999"><ele>187.0</ele><time>2026-04-19T08:02:56.705Z</time></trkpt><trkpt lat="44.8963094" lon="8.0847098"><ele>186.5</ele><time>2026-04-19T08:02:57.689Z</time></trkpt><trkpt lat="44.8962826" lon="8.0845562"><ele>186.0</ele><time>2026-04-19T08:02:59.702Z</time></trkpt><trkpt lat="44.8962682" lon="8.08445"><ele>185.5</ele><time>2026-04-19T08:03:01.705Z</time></trkpt><trkpt lat="44.8962532" lon="8.0843396"><ele>185.0</ele><time>2026-04-19T08:03:03.705Z</time></trkpt><trkpt lat="44.8962346" lon="8.0842255"><ele>184.5</ele><time>2026-04-19T08:03:05.698Z</time></trkpt><trkpt lat="44.8962347" lon="8.0841317"><ele>184.0</ele><time>2026-04-19T08:03:08.697Z</time></trkpt><trkpt lat="44.8962416" lon="8.0840117"><ele>184.0</ele><time>2026-04-19T08:03:12.702Z</time></trkpt><trkpt lat="44.8962683" lon="8.0839283"><ele>184.0</ele><time>2026-04-19T08:03:14.703Z</time></trkpt><trkpt lat="44.8963122" lon="8.0838481"><ele>184.0</ele><time>2026-04-19T08:03:16.686Z</time></trkpt><trkpt lat="44.8963618" lon="8.0837025"><ele>184.0</ele><time>2026-04-19T08:03:19.69Z</time></trkpt><trkpt lat="44.8964211" lon="8.0836291"><ele>184.0</ele><time>2026-04-19T08:03:21.695Z</time></trkpt><trkpt lat="44.8965106" lon="8.0836199"><ele>184.0</ele><time>2026-04-19T08:03:25.707Z</time></trkpt><trkpt lat="44.8966252" lon="8.0837284"><ele>178.5</ele><time>2026-04-19T08:03:27.697Z</time></trkpt><trkpt lat="44.8967561" lon="8.0837647"><ele>173.0</ele><time>2026-04-19T08:03:28.695Z</time></trkpt><trkpt lat="44.8968796" lon="8.0837766"><ele>167.5</ele><time>2026-04-19T08:03:29.7Z</time></trkpt><trkpt lat="44.8969967" lon="8.0838008"><ele>162.0</ele><time>2026-04-19T08:03:30.709Z</time></trkpt><trkpt lat="44.8970915" lon="8.0838354"><ele>162.0</ele><time>2026-04-19T08:03:31.705Z</time></trkpt><trkpt lat="44.897176" lon="8.0838892"><ele>162.0</ele><time>2026-04-19T08:03:32.698Z</time></trkpt><trkpt lat="44.8972651" lon="8.0839495"><ele>162.0</ele><time>2026-04-19T08:03:33.702Z</time></trkpt><trkpt lat="44.8973487" lon="8.0840048"><ele>162.0</ele><time>2026-04-19T08:03:34.706Z</time></trkpt><trkpt lat="44.8974291" lon="8.0840519"><ele>162.0</ele><time>2026-04-19T08:03:35.703Z</time></trkpt><trkpt lat="44.8975096" lon="8.0841131"><ele>163.39999999999998</ele><time>2026-04-19T08:03:36.702Z</time></trkpt><trkpt lat="44.8975845" lon="8.0841788"><ele>164.79999999999998</ele><time>2026-04-19T08:03:37.72Z</time></trkpt><trkpt lat="44.8976514" lon="8.084273"><ele>166.2</ele><time>2026-04-19T08:03:38.725Z</time></trkpt><trkpt lat="44.8977175" lon="8.0843742"><ele>167.6</ele><time>2026-04-19T08:03:39.716Z</time></trkpt><trkpt lat="44.8977767" lon="8.0844713"><ele>169.0</ele><time>2026-04-19T08:03:40.711Z</time></trkpt><trkpt lat="44.897834" lon="8.0845608"><ele>165.6</ele><time>2026-04-19T08:03:41.718Z</time></trkpt><trkpt lat="44.8978876" lon="8.084631"><ele>162.2</ele><time>2026-04-19T08:03:42.721Z</time></trkpt><trkpt lat="44.8979764" lon="8.0847225"><ele>158.79999999999998</ele><time>2026-04-19T08:03:44.706Z</time></trkpt><trkpt lat="44.8980543" lon="8.0847453"><ele>155.39999999999998</ele><time>2026-04-19T08:03:46.724Z</time></trkpt><trkpt lat="44.8981309" lon="8.0846557"><ele>152.0</ele><time>2026-04-19T08:03:49.726Z</time></trkpt><trkpt lat="44.8982624" lon="8.084539"><ele>152.0</ele><time>2026-04-19T08:03:51.718Z</time></trkpt><trkpt lat="44.8983616" lon="8.084462"><ele>152.0</ele><time>2026-04-19T08:03:52.715Z</time></trkpt><trkpt lat="44.8984668" lon="8.08438"><ele>152.0</ele><time>2026-04-19T08:03:53.72Z</time></trkpt><trkpt lat="44.8985709" lon="8.0842859"><ele>152.0</ele><time>2026-04-19T08:03:54.722Z</time></trkpt><trkpt lat="44.8986691" lon="8.0841876"><ele>151.2</ele><time>2026-04-19T08:03:55.716Z</time></trkpt><trkpt lat="44.8987646" lon="8.0840908"><ele>150.39999999999998</ele><time>2026-04-19T08:03:56.708Z</time></trkpt><trkpt lat="44.8988531" lon="8.0839983"><ele>149.60000000000002</ele><time>2026-04-19T08:03:57.724Z</time></trkpt><trkpt lat="44.8989326" lon="8.0839108"><ele>148.8</ele><time>2026-04-19T08:03:58.726Z</time></trkpt><trkpt lat="44.8989864" lon="8.083814"><ele>148.0</ele><time>2026-04-19T08:03:59.724Z</time></trkpt><trkpt lat="44.8989968" lon="8.0837237"><ele>148.0</ele><time>2026-04-19T08:04:00.723Z</time></trkpt><trkpt lat="44.8989647" lon="8.0836007"><ele>148.0</ele><time>2026-04-19T08:04:01.715Z</time></trkpt><trkpt lat="44.8989245" lon="8.0834476"><ele>148.0</ele><time>2026-04-19T08:04:02.721Z</time></trkpt><trkpt lat="44.8988738" lon="8.0832751"><ele>148.0</ele><time>2026-04-19T08:04:03.709Z</time></trkpt><trkpt lat="44.8988226" lon="8.0830924"><ele>147.75</ele><time>2026-04-19T08:04:04.713Z</time></trkpt><trkpt lat="44.8987748" lon="8.0829176"><ele>147.5</ele><time>2026-04-19T08:04:05.719Z</time></trkpt><trkpt lat="44.8987354" lon="8.0827526"><ele>147.25</ele><time>2026-04-19T08:04:06.717Z</time></trkpt><trkpt lat="44.8987002" lon="8.0825948"><ele>147.0</ele><time>2026-04-19T08:04:07.72Z</time></trkpt><trkpt lat="44.8986579" lon="8.0824384"><ele>146.83333333333334</ele><time>2026-04-19T08:04:08.722Z</time></trkpt><trkpt lat="44.8986078" lon="8.0823095"><ele>146.66666666666666</ele><time>2026-04-19T08:04:09.734Z</time></trkpt><trkpt lat="44.8985533" lon="8.0821974"><ele>146.5</ele><time>2026-04-19T08:04:10.716Z</time></trkpt><trkpt lat="44.8984996" lon="8.0821043"><ele>146.33333333333331</ele><time>2026-04-19T08:04:11.726Z</time></trkpt><trkpt lat="44.8984435" lon="8.0820396"><ele>146.16666666666666</ele><time>2026-04-19T08:04:12.721Z</time></trkpt><trkpt lat="44.8983813" lon="8.0820178"><ele>146.0</ele><time>2026-04-19T08:04:13.719Z</time></trkpt><trkpt lat="44.8982984" lon="8.082027"><ele>146.33333333333331</ele><time>2026-04-19T08:04:14.723Z</time></trkpt><trkpt lat="44.8982096" lon="8.0820387"><ele>146.66666666666666</ele><time>2026-04-19T08:04:15.722Z</time></trkpt><trkpt lat="44.8981354" lon="8.0820352"><ele>147.0</ele><time>2026-04-19T08:04:16.723Z</time></trkpt><trkpt lat="44.8980702" lon="8.0819948"><ele>147.33333333333334</ele><time>2026-04-19T08:04:17.719Z</time></trkpt><trkpt lat="44.898014" lon="8.0819278"><ele>147.66666666666669</ele><time>2026-04-19T08:04:18.715Z</time></trkpt><trkpt lat="44.8979681" lon="8.0818472"><ele>148.0</ele><time>2026-04-19T08:04:19.72Z</time></trkpt><trkpt lat="44.8979308" lon="8.0817372"><ele>148.0</ele><time>2026-04-19T08:04:20.718Z</time></trkpt><trkpt lat="44.8978996" lon="8.0816221"><ele>148.0</ele><time>2026-04-19T08:04:21.714Z</time></trkpt><trkpt lat="44.8978705" lon="8.0815094"><ele>148.0</ele><time>2026-04-19T08:04:22.722Z</time></trkpt><trkpt lat="44.8978381" lon="8.081392"><ele>148.0</ele><time>2026-04-19T08:04:23.722Z</time></trkpt><trkpt lat="44.8978069" lon="8.0812651"><ele>148.0</ele><time>2026-04-19T08:04:24.708Z</time></trkpt><trkpt lat="44.8977784" lon="8.0811235"><ele>148.0</ele><time>2026-04-19T08:04:25.716Z</time></trkpt><trkpt lat="44.8977569" lon="8.0809735"><ele>148.0</ele><time>2026-04-19T08:04:26.717Z</time></trkpt><trkpt lat="44.8977461" lon="8.080829"><ele>148.0</ele><time>2026-04-19T08:04:27.718Z</time></trkpt><trkpt lat="44.8977412" lon="8.0806945"><ele>148.0</ele><time>2026-04-19T08:04:28.709Z</time></trkpt><trkpt lat="44.8977408" lon="8.0805731"><ele>148.0</ele><time>2026-04-19T08:04:29.72Z</time></trkpt><trkpt lat="44.8977373" lon="8.0804528"><ele>148.33333333333334</ele><time>2026-04-19T08:04:30.717Z</time></trkpt><trkpt lat="44.8977311" lon="8.0803247"><ele>148.66666666666669</ele><time>2026-04-19T08:04:31.713Z</time></trkpt><trkpt lat="44.8977313" lon="8.080198"><ele>149.0</ele><time>2026-04-19T08:04:32.715Z</time></trkpt><trkpt lat="44.8977292" lon="8.0800817"><ele>149.33333333333334</ele><time>2026-04-19T08:04:33.715Z</time></trkpt><trkpt lat="44.8977237" lon="8.0799629"><ele>149.66666666666666</ele><time>2026-04-19T08:04:34.712Z</time></trkpt><trkpt lat="44.8977117" lon="8.0798554"><ele>150.0</ele><time>2026-04-19T08:04:35.715Z</time></trkpt><trkpt lat="44.8977048" lon="8.079755"><ele>149.99999999999997</ele><time>2026-04-19T08:04:36.716Z</time></trkpt><trkpt lat="44.8977029" lon="8.0796588"><ele>150.0</ele><time>2026-04-19T08:04:37.722Z</time></trkpt><trkpt lat="44.8977109" lon="8.0795641"><ele>150.0</ele><time>2026-04-19T08:04:38.711Z</time></trkpt><trkpt lat="44.8977324" lon="8.0794709"><ele>150.0</ele><time>2026-04-19T08:04:39.725Z</time></trkpt><trkpt lat="44.8977663" lon="8.0793737"><ele>150.0</ele><time>2026-04-19T08:04:40.739Z</time></trkpt><trkpt lat="44.8978012" lon="8.0792747"><ele>149.99999999999997</ele><time>2026-04-19T08:04:41.722Z</time></trkpt><trkpt lat="44.8978244" lon="8.0791617"><ele>150.0</ele><time>2026-04-19T08:04:42.707Z</time></trkpt><trkpt lat="44.8978434" lon="8.0790412"><ele>150.2</ele><time>2026-04-19T08:04:43.714Z</time></trkpt><trkpt lat="44.8978548" lon="8.0789134"><ele>150.4</ele><time>2026-04-19T08:04:44.72Z</time></trkpt><trkpt lat="44.8978638" lon="8.0787823"><ele>150.6</ele><time>2026-04-19T08:04:45.716Z</time></trkpt><trkpt lat="44.8978747" lon="8.0786393"><ele>150.8</ele><time>2026-04-19T08:04:46.727Z</time></trkpt><trkpt lat="44.8978898" lon="8.0784888"><ele>151.0</ele><time>2026-04-19T08:04:47.719Z</time></trkpt><trkpt lat="44.897914" lon="8.0783364"><ele>151.0</ele><time>2026-04-19T08:04:48.716Z</time></trkpt><trkpt lat="44.8979374" lon="8.0781782"><ele>151.0</ele><time>2026-04-19T08:04:49.718Z</time></trkpt><trkpt lat="44.8979668" lon="8.0780227"><ele>151.0</ele><time>2026-04-19T08:04:50.72Z</time></trkpt><trkpt lat="44.8979952" lon="8.0778786"><ele>151.0</ele><time>2026-04-19T08:04:51.727Z</time></trkpt><trkpt lat="44.8980183" lon="8.0777463"><ele>151.0</ele><time>2026-04-19T08:04:52.715Z</time></trkpt><trkpt lat="44.8980336" lon="8.0776076"><ele>151.0</ele><time>2026-04-19T08:04:53.706Z</time></trkpt><trkpt lat="44.8980413" lon="8.077464"><ele>151.0</ele><time>2026-04-19T08:04:54.716Z</time></trkpt><trkpt lat="44.8980374" lon="8.0773124"><ele>151.0</ele><time>2026-04-19T08:04:55.704Z</time></trkpt><trkpt lat="44.8980262" lon="8.077156"><ele>151.0</ele><time>2026-04-19T08:04:56.698Z</time></trkpt><trkpt lat="44.8980171" lon="8.0770014"><ele>151.0</ele><time>2026-04-19T08:04:57.722Z</time></trkpt><trkpt lat="44.8980122" lon="8.0768567"><ele>151.0</ele><time>2026-04-19T08:04:58.721Z</time></trkpt><trkpt lat="44.8980091" lon="8.0767075"><ele>151.0</ele><time>2026-04-19T08:04:59.708Z</time></trkpt><trkpt lat="44.8980107" lon="8.0765591"><ele>151.0</ele><time>2026-04-19T08:05:00.712Z</time></trkpt><trkpt lat="44.8980001" lon="8.0764048"><ele>151.0</ele><time>2026-04-19T08:05:01.706Z</time></trkpt><trkpt lat="44.8980056" lon="8.0762294"><ele>151.0</ele><time>2026-04-19T08:05:02.7Z</time></trkpt><trkpt lat="44.8980035" lon="8.0760538"><ele>151.0</ele><time>2026-04-19T08:05:03.701Z</time></trkpt><trkpt lat="44.8979985" lon="8.0758821"><ele>151.0</ele><time>2026-04-19T08:05:04.701Z</time></trkpt><trkpt lat="44.8980114" lon="8.0757134"><ele>151.0</ele><time>2026-04-19T08:05:05.702Z</time></trkpt><trkpt lat="44.8980315" lon="8.0755598"><ele>151.0</ele><time>2026-04-19T08:05:06.713Z</time></trkpt><trkpt lat="44.8980571" lon="8.0754274"><ele>151.0</ele><time>2026-04-19T08:05:07.705Z</time></trkpt><trkpt lat="44.8980763" lon="8.0753015"><ele>151.0</ele><time>2026-04-19T08:05:08.707Z</time></trkpt><trkpt lat="44.8980548" lon="8.0752095"><ele>151.0</ele><time>2026-04-19T08:05:09.71Z</time></trkpt><trkpt lat="44.8979897" lon="8.075144"><ele>151.0</ele><time>2026-04-19T08:05:10.707Z</time></trkpt><trkpt lat="44.8978895" lon="8.0750974"><ele>151.0</ele><time>2026-04-19T08:05:11.727Z</time></trkpt><trkpt lat="44.8977615" lon="8.0750438"><ele>151.0</ele><time>2026-04-19T08:05:12.709Z</time></trkpt><trkpt lat="44.8976183" lon="8.0749783"><ele>151.0</ele><time>2026-04-19T08:05:13.716Z</time></trkpt><trkpt lat="44.8974888" lon="8.0749115"><ele>151.0</ele><time>2026-04-19T08:05:14.718Z</time></trkpt><trkpt lat="44.8973813" lon="8.0748487"><ele>151.0</ele><time>2026-04-19T08:05:15.718Z</time></trkpt><trkpt lat="44.8972961" lon="8.0747894"><ele>152.5</ele><time>2026-04-19T08:05:16.722Z</time></trkpt><trkpt lat="44.8972487" lon="8.0746837"><ele>154.0</ele><time>2026-04-19T08:05:18.715Z</time></trkpt><trkpt lat="44.8972803" lon="8.0744776"><ele>155.5</ele><time>2026-04-19T08:05:20.723Z</time></trkpt><trkpt lat="44.8973139" lon="8.0743233"><ele>157.0</ele><time>2026-04-19T08:05:21.722Z</time></trkpt><trkpt lat="44.8973506" lon="8.0741453"><ele>156.75</ele><time>2026-04-19T08:05:22.709Z</time></trkpt><trkpt lat="44.89738" lon="8.0739428"><ele>156.5</ele><time>2026-04-19T08:05:23.72Z</time></trkpt><trkpt lat="44.8974068" lon="8.0737381"><ele>156.25</ele><time>2026-04-19T08:05:24.709Z</time></trkpt><trkpt lat="44.8974219" lon="8.0735495"><ele>156.0</ele><time>2026-04-19T08:05:25.724Z</time></trkpt><trkpt lat="44.8974381" lon="8.0733775"><ele>157.4</ele><time>2026-04-19T08:05:26.724Z</time></trkpt><trkpt lat="44.8974549" lon="8.0732117"><ele>158.8</ele><time>2026-04-19T08:05:27.721Z</time></trkpt><trkpt lat="44.8974702" lon="8.0730657"><ele>160.20000000000002</ele><time>2026-04-19T08:05:28.718Z</time></trkpt><trkpt lat="44.8974857" lon="8.0729306"><ele>161.6</ele><time>2026-04-19T08:05:29.716Z</time></trkpt><trkpt lat="44.8975108" lon="8.0727868"><ele>163.0</ele><time>2026-04-19T08:05:30.722Z</time></trkpt><trkpt lat="44.8975451" lon="8.0726426"><ele>160.20000000000002</ele><time>2026-04-19T08:05:31.713Z</time></trkpt><trkpt lat="44.8975885" lon="8.0725024"><ele>157.4</ele><time>2026-04-19T08:05:32.718Z</time></trkpt><trkpt lat="44.8976456" lon="8.0723724"><ele>154.60000000000002</ele><time>2026-04-19T08:05:33.717Z</time></trkpt><trkpt lat="44.8977143" lon="8.0722471"><ele>151.8</ele><time>2026-04-19T08:05:34.71Z</time></trkpt><trkpt lat="44.8977909" lon="8.072136"><ele>149.0</ele><time>2026-04-19T08:05:35.718Z</time></trkpt><trkpt lat="44.8978648" lon="8.0720339"><ele>148.75</ele><time>2026-04-19T08:05:36.718Z</time></trkpt><trkpt lat="44.8979347" lon="8.0719242"><ele>148.5</ele><time>2026-04-19T08:05:37.719Z</time></trkpt><trkpt lat="44.8979996" lon="8.0717978"><ele>148.25</ele><time>2026-04-19T08:05:38.718Z</time></trkpt><trkpt lat="44.898059" lon="8.0716504"><ele>148.0</ele><time>2026-04-19T08:05:39.716Z</time></trkpt><trkpt lat="44.8981072" lon="8.0715008"><ele>148.4</ele><time>2026-04-19T08:05:40.717Z</time></trkpt><trkpt lat="44.8981395" lon="8.0713606"><ele>148.8</ele><time>2026-04-19T08:05:41.717Z</time></trkpt><trkpt lat="44.8981569" lon="8.0712253"><ele>149.2</ele><time>2026-04-19T08:05:42.733Z</time></trkpt><trkpt lat="44.8981598" lon="8.0711024"><ele>149.6</ele><time>2026-04-19T08:05:43.721Z</time></trkpt><trkpt lat="44.8981535" lon="8.0709898"><ele>150.0</ele><time>2026-04-19T08:05:44.722Z</time></trkpt><trkpt lat="44.8981469" lon="8.0708748"><ele>149.8</ele><time>2026-04-19T08:05:45.719Z</time></trkpt><trkpt lat="44.8981326" lon="8.0707537"><ele>149.6</ele><time>2026-04-19T08:05:46.724Z</time></trkpt><trkpt lat="44.8981082" lon="8.0706212"><ele>149.4</ele><time>2026-04-19T08:05:47.721Z</time></trkpt><trkpt lat="44.8980802" lon="8.070479"><ele>149.2</ele><time>2026-04-19T08:05:48.716Z</time></trkpt><trkpt lat="44.8980486" lon="8.0703279"><ele>149.0</ele><time>2026-04-19T08:05:49.714Z</time></trkpt><trkpt lat="44.8980191" lon="8.0701619"><ele>149.0</ele><time>2026-04-19T08:05:50.718Z</time></trkpt><trkpt lat="44.8979827" lon="8.0699876"><ele>149.0</ele><time>2026-04-19T08:05:51.719Z</time></trkpt><trkpt lat="44.8979402" lon="8.0698172"><ele>149.0</ele><time>2026-04-19T08:05:52.709Z</time></trkpt><trkpt lat="44.8979004" lon="8.0696537"><ele>149.0</ele><time>2026-04-19T08:05:53.717Z</time></trkpt><trkpt lat="44.897863" lon="8.0694967"><ele>149.75</ele><time>2026-04-19T08:05:54.713Z</time></trkpt><trkpt lat="44.8978277" lon="8.0693504"><ele>150.5</ele><time>2026-04-19T08:05:55.705Z</time></trkpt><trkpt lat="44.8977985" lon="8.0691984"><ele>151.25</ele><time>2026-04-19T08:05:56.705Z</time></trkpt><trkpt lat="44.8977675" lon="8.0690329"><ele>152.0</ele><time>2026-04-19T08:05:57.715Z</time></trkpt><trkpt lat="44.8977344" lon="8.0688648"><ele>152.2</ele><time>2026-04-19T08:05:58.707Z</time></trkpt><trkpt lat="44.8976927" lon="8.0687076"><ele>152.39999999999998</ele><time>2026-04-19T08:05:59.702Z</time></trkpt><trkpt lat="44.8976536" lon="8.0685682"><ele>152.60000000000002</ele><time>2026-04-19T08:06:00.702Z</time></trkpt><trkpt lat="44.8976261" lon="8.0684481"><ele>152.8</ele><time>2026-04-19T08:06:01.718Z</time></trkpt><trkpt lat="44.8976029" lon="8.0683353"><ele>153.0</ele><time>2026-04-19T08:06:02.726Z</time></trkpt><trkpt lat="44.8975871" lon="8.0682413"><ele>153.66666666666666</ele><time>2026-04-19T08:06:03.725Z</time></trkpt><trkpt lat="44.8975706" lon="8.0681449"><ele>154.33333333333334</ele><time>2026-04-19T08:06:06.707Z</time></trkpt><trkpt lat="44.8974872" lon="8.0681851"><ele>155.0</ele><time>2026-04-19T08:06:08.716Z</time></trkpt><trkpt lat="44.897423" lon="8.0682292"><ele>155.66666666666669</ele><time>2026-04-19T08:06:09.709Z</time></trkpt><trkpt lat="44.8973432" lon="8.0682756"><ele>156.33333333333334</ele><time>2026-04-19T08:06:10.705Z</time></trkpt><trkpt lat="44.8972574" lon="8.0683227"><ele>157.0</ele><time>2026-04-19T08:06:11.705Z</time></trkpt><trkpt lat="44.8971764" lon="8.0683653"><ele>157.0</ele><time>2026-04-19T08:06:12.721Z</time></trkpt><trkpt lat="44.8970968" lon="8.0683904"><ele>157.0</ele><time>2026-04-19T08:06:13.72Z</time></trkpt><trkpt lat="44.8970199" lon="8.0683966"><ele>157.0</ele><time>2026-04-19T08:06:14.709Z</time></trkpt><trkpt lat="44.8969365" lon="8.0683844"><ele>157.0</ele><time>2026-04-19T08:06:15.715Z</time></trkpt><trkpt lat="44.8968473" lon="8.0683448"><ele>157.0</ele><time>2026-04-19T08:06:17.713Z</time></trkpt><trkpt lat="44.8968002" lon="8.0682403"><ele>157.0</ele><time>2026-04-19T08:06:20.709Z</time></trkpt><trkpt lat="44.8967874" lon="8.0680527"><ele>157.28571428571428</ele><time>2026-04-19T08:06:22.71Z</time></trkpt><trkpt lat="44.8967823" lon="8.0679385"><ele>157.57142857142856</ele><time>2026-04-19T08:06:23.715Z</time></trkpt><trkpt lat="44.8967813" lon="8.0678365"><ele>157.85714285714283</ele><time>2026-04-19T08:06:24.712Z</time></trkpt><trkpt lat="44.8967834" lon="8.0677421"><ele>158.14285714285714</ele><time>2026-04-19T08:06:25.714Z</time></trkpt><trkpt lat="44.8967906" lon="8.0676351"><ele>158.42857142857144</ele><time>2026-04-19T08:06:26.717Z</time></trkpt><trkpt lat="44.896799" lon="8.067532"><ele>158.7142857142857</ele><time>2026-04-19T08:06:27.709Z</time></trkpt><trkpt lat="44.8968117" lon="8.0674259"><ele>159.0</ele><time>2026-04-19T08:06:28.705Z</time></trkpt><trkpt lat="44.8968167" lon="8.0673157"><ele>159.5</ele><time>2026-04-19T08:06:29.705Z</time></trkpt><trkpt lat="44.8968138" lon="8.0672002"><ele>160.0</ele><time>2026-04-19T08:06:30.714Z</time></trkpt><trkpt lat="44.8967996" lon="8.0670863"><ele>160.5</ele><time>2026-04-19T08:06:31.716Z</time></trkpt><trkpt lat="44.89678" lon="8.0669765"><ele>161.0</ele><time>2026-04-19T08:06:32.707Z</time></trkpt><trkpt lat="44.8967549" lon="8.0668629"><ele>161.5</ele><time>2026-04-19T08:06:33.715Z</time></trkpt><trkpt lat="44.8967256" lon="8.0667493"><ele>162.0</ele><time>2026-04-19T08:06:34.711Z</time></trkpt><trkpt lat="44.8966974" lon="8.0666097"><ele>164.66666666666666</ele><time>2026-04-19T08:06:35.715Z</time></trkpt><trkpt lat="44.8966636" lon="8.0664817"><ele>167.33333333333334</ele><time>2026-04-19T08:06:36.719Z</time></trkpt><trkpt lat="44.8966425" lon="8.0663682"><ele>170.0</ele><time>2026-04-19T08:06:37.707Z</time></trkpt><trkpt lat="44.8966263" lon="8.0662753"><ele>172.66666666666669</ele><time>2026-04-19T08:06:38.747Z</time></trkpt><trkpt lat="44.8965978" lon="8.0661056"><ele>175.33333333333334</ele><time>2026-04-19T08:06:40.707Z</time></trkpt><trkpt lat="44.8965705" lon="8.0660167"><ele>178.0</ele><time>2026-04-19T08:06:41.717Z</time></trkpt><trkpt lat="44.8964827" lon="8.0659317"><ele>178.0</ele><time>2026-04-19T08:06:43.716Z</time></trkpt><trkpt lat="44.8964503" lon="8.066144"><ele>178.0</ele><time>2026-04-19T08:06:45.704Z</time></trkpt><trkpt lat="44.8964489" lon="8.0662941"><ele>178.0</ele><time>2026-04-19T08:06:46.707Z</time></trkpt><trkpt lat="44.8964453" lon="8.0664527"><ele>178.0</ele><time>2026-04-19T08:06:47.705Z</time></trkpt><trkpt lat="44.8964352" lon="8.0665873"><ele>179.5</ele><time>2026-04-19T08:06:48.708Z</time></trkpt><trkpt lat="44.8964235" lon="8.0667068"><ele>181.0</ele><time>2026-04-19T08:06:49.712Z</time></trkpt><trkpt lat="44.8964092" lon="8.0668048"><ele>182.5</ele><time>2026-04-19T08:06:50.712Z</time></trkpt><trkpt lat="44.8963844" lon="8.0669016"><ele>184.0</ele><time>2026-04-19T08:06:51.721Z</time></trkpt><trkpt lat="44.8963536" lon="8.0669969"><ele>185.5</ele><time>2026-04-19T08:06:52.708Z</time></trkpt><trkpt lat="44.8963221" lon="8.0670848"><ele>187.0</ele><time>2026-04-19T08:06:53.717Z</time></trkpt><trkpt lat="44.896269" lon="8.0671967"><ele>187.0</ele><time>2026-04-19T08:06:55.718Z</time></trkpt><trkpt lat="44.8962162" lon="8.067278"><ele>187.0</ele><time>2026-04-19T08:06:57.72Z</time></trkpt><trkpt lat="44.8961669" lon="8.0673482"><ele>187.0</ele><time>2026-04-19T08:06:59.724Z</time></trkpt><trkpt lat="44.896097" lon="8.0674011"><ele>187.0</ele><time>2026-04-19T08:07:43.73Z</time></trkpt><trkpt lat="44.8960014" lon="8.0674597"><ele>187.0</ele><time>2026-04-19T08:07:46.726Z</time></trkpt><trkpt lat="44.8958654" lon="8.067514"><ele>190.8</ele><time>2026-04-19T08:07:48.726Z</time></trkpt><trkpt lat="44.8957704" lon="8.0675372"><ele>194.6</ele><time>2026-04-19T08:07:49.727Z</time></trkpt><trkpt lat="44.8956703" lon="8.0675677"><ele>198.4</ele><time>2026-04-19T08:07:50.726Z</time></trkpt><trkpt lat="44.8955705" lon="8.0676127"><ele>202.20000000000002</ele><time>2026-04-19T08:07:51.726Z</time></trkpt><trkpt lat="44.8954824" lon="8.0676709"><ele>206.0</ele><time>2026-04-19T08:07:52.728Z</time></trkpt><trkpt lat="44.8954156" lon="8.067739"><ele>206.00000000000003</ele><time>2026-04-19T08:07:53.724Z</time></trkpt><trkpt lat="44.8953568" lon="8.0678063"><ele>206.0</ele><time>2026-04-19T08:07:54.724Z</time></trkpt><trkpt lat="44.8953001" lon="8.0678823"><ele>206.0</ele><time>2026-04-19T08:07:55.718Z</time></trkpt><trkpt lat="44.8952456" lon="8.067971"><ele>206.0</ele><time>2026-04-19T08:07:56.721Z</time></trkpt><trkpt lat="44.895193" lon="8.0680684"><ele>206.00000000000003</ele><time>2026-04-19T08:07:57.716Z</time></trkpt><trkpt lat="44.8951419" lon="8.0681689"><ele>206.0</ele><time>2026-04-19T08:07:58.719Z</time></trkpt><trkpt lat="44.8950938" lon="8.0682602"><ele>207.14285714285714</ele><time>2026-04-19T08:07:59.716Z</time></trkpt><trkpt lat="44.8950473" lon="8.0683526"><ele>208.28571428571428</ele><time>2026-04-19T08:08:00.723Z</time></trkpt><trkpt lat="44.8950008" lon="8.0684531"><ele>209.42857142857144</ele><time>2026-04-19T08:08:01.724Z</time></trkpt><trkpt lat="44.8949606" lon="8.0685476"><ele>210.57142857142856</ele><time>2026-04-19T08:08:02.721Z</time></trkpt><trkpt lat="44.8949213" lon="8.0686236"><ele>211.71428571428572</ele><time>2026-04-19T08:08:03.718Z</time></trkpt><trkpt lat="44.894877" lon="8.0686892"><ele>212.85714285714286</ele><time>2026-04-19T08:08:04.725Z</time></trkpt><trkpt lat="44.8948262" lon="8.0687421"><ele>214.0</ele><time>2026-04-19T08:08:05.725Z</time></trkpt><trkpt lat="44.8947599" lon="8.0687869"><ele>214.0</ele><time>2026-04-19T08:08:06.732Z</time></trkpt><trkpt lat="44.8946754" lon="8.0688288"><ele>213.99999999999997</ele><time>2026-04-19T08:08:07.721Z</time></trkpt><trkpt lat="44.8945865" lon="8.0688562"><ele>213.99999999999997</ele><time>2026-04-19T08:08:08.73Z</time></trkpt><trkpt lat="44.8944939" lon="8.0688861"><ele>214.0</ele><time>2026-04-19T08:08:09.721Z</time></trkpt><trkpt lat="44.8944004" lon="8.0689179"><ele>214.0</ele><time>2026-04-19T08:08:10.724Z</time></trkpt><trkpt lat="44.8943196" lon="8.0689593"><ele>214.0</ele><time>2026-04-19T08:08:11.721Z</time></trkpt><trkpt lat="44.8942554" lon="8.0689885"><ele>213.99999999999997</ele><time>2026-04-19T08:08:12.729Z</time></trkpt><trkpt lat="44.8941626" lon="8.0689577"><ele>213.99999999999997</ele><time>2026-04-19T08:08:15.711Z</time></trkpt><trkpt lat="44.8940667" lon="8.0688378"><ele>214.0</ele><time>2026-04-19T08:08:17.737Z</time></trkpt><trkpt lat="44.8940081" lon="8.0687476"><ele>214.0</ele><time>2026-04-19T08:08:18.725Z</time></trkpt><trkpt lat="44.8939514" lon="8.0686516"><ele>214.0</ele><time>2026-04-19T08:08:19.725Z</time></trkpt><trkpt lat="44.8938955" lon="8.0685587"><ele>213.99999999999997</ele><time>2026-04-19T08:08:20.721Z</time></trkpt><trkpt lat="44.893853" lon="8.0684663"><ele>213.99999999999997</ele><time>2026-04-19T08:08:21.729Z</time></trkpt><trkpt lat="44.8938249" lon="8.0683683"><ele>214.0</ele><time>2026-04-19T08:08:22.72Z</time></trkpt><trkpt lat="44.8937954" lon="8.0682379"><ele>214.0</ele><time>2026-04-19T08:08:23.722Z</time></trkpt><trkpt lat="44.893769" lon="8.0680783"><ele>213.2</ele><time>2026-04-19T08:08:24.721Z</time></trkpt><trkpt lat="44.8937479" lon="8.0679204"><ele>212.39999999999998</ele><time>2026-04-19T08:08:25.722Z</time></trkpt><trkpt lat="44.8937268" lon="8.0677632"><ele>211.6</ele><time>2026-04-19T08:08:26.724Z</time></trkpt><trkpt lat="44.8937019" lon="8.0676282"><ele>210.8</ele><time>2026-04-19T08:08:27.727Z</time></trkpt><trkpt lat="44.8936838" lon="8.0675138"><ele>210.0</ele><time>2026-04-19T08:08:28.724Z</time></trkpt><trkpt lat="44.893671" lon="8.0674154"><ele>210.0</ele><time>2026-04-19T08:08:29.729Z</time></trkpt><trkpt lat="44.8936406" lon="8.0672626"><ele>210.0</ele><time>2026-04-19T08:08:31.723Z</time></trkpt><trkpt lat="44.8935991" lon="8.0671732"><ele>210.0</ele><time>2026-04-19T08:08:33.732Z</time></trkpt><trkpt lat="44.8936261" lon="8.067312"><ele>210.0</ele><time>2026-04-19T08:08:39.725Z</time></trkpt><trkpt lat="44.8936472" lon="8.0674003"><ele>210.0</ele><time>2026-04-19T08:08:40.716Z</time></trkpt><trkpt lat="44.893667" lon="8.0675091"><ele>210.0</ele><time>2026-04-19T08:08:41.721Z</time></trkpt><trkpt lat="44.8936948" lon="8.0676472"><ele>210.0</ele><time>2026-04-19T08:08:42.716Z</time></trkpt><trkpt lat="44.893729" lon="8.0678045"><ele>210.0</ele><time>2026-04-19T08:08:43.711Z</time></trkpt><trkpt lat="44.893763" lon="8.0679692"><ele>210.0</ele><time>2026-04-19T08:08:44.704Z</time></trkpt><trkpt lat="44.893788" lon="8.0681353"><ele>210.0</ele><time>2026-04-19T08:08:45.705Z</time></trkpt><trkpt lat="44.8938052" lon="8.0682841"><ele>210.66666666666666</ele><time>2026-04-19T08:08:46.711Z</time></trkpt><trkpt lat="44.8938179" lon="8.0684122"><ele>211.33333333333331</ele><time>2026-04-19T08:08:47.715Z</time></trkpt><trkpt lat="44.8938332" lon="8.0685136"><ele>212.0</ele><time>2026-04-19T08:08:48.73Z</time></trkpt><trkpt lat="44.8938538" lon="8.0685997"><ele>212.66666666666666</ele><time>2026-04-19T08:08:49.721Z</time></trkpt><trkpt lat="44.8938906" lon="8.0686869"><ele>213.33333333333331</ele><time>2026-04-19T08:08:50.715Z</time></trkpt><trkpt lat="44.893939" lon="8.0687679"><ele>214.0</ele><time>2026-04-19T08:08:51.722Z</time></trkpt><trkpt lat="44.8939903" lon="8.0688426"><ele>213.99999999999997</ele><time>2026-04-19T08:08:52.721Z</time></trkpt><trkpt lat="44.8940359" lon="8.0689112"><ele>214.0</ele><time>2026-04-19T08:08:53.719Z</time></trkpt><trkpt lat="44.894067" lon="8.0690302"><ele>214.0</ele><time>2026-04-19T08:08:55.713Z</time></trkpt><trkpt lat="44.8940265" lon="8.0691714"><ele>214.0</ele><time>2026-04-19T08:08:57.714Z</time></trkpt><trkpt lat="44.8939764" lon="8.069238"><ele>213.99999999999997</ele><time>2026-04-19T08:08:58.706Z</time></trkpt><trkpt lat="44.893908" lon="8.0692937"><ele>214.0</ele><time>2026-04-19T08:08:59.704Z</time></trkpt><trkpt lat="44.8938301" lon="8.069346"><ele>214.16666666666666</ele><time>2026-04-19T08:09:00.705Z</time></trkpt><trkpt lat="44.8937495" lon="8.0693871"><ele>214.33333333333331</ele><time>2026-04-19T08:09:01.702Z</time></trkpt><trkpt lat="44.8936738" lon="8.0694179"><ele>214.5</ele><time>2026-04-19T08:09:02.702Z</time></trkpt><trkpt lat="44.8936096" lon="8.0694609"><ele>214.66666666666669</ele><time>2026-04-19T08:09:03.705Z</time></trkpt><trkpt lat="44.8935576" lon="8.0695166"><ele>214.83333333333334</ele><time>2026-04-19T08:09:04.706Z</time></trkpt><trkpt lat="44.8935123" lon="8.069613"><ele>215.0</ele><time>2026-04-19T08:09:05.713Z</time></trkpt><trkpt lat="44.8934919" lon="8.0697522"><ele>215.00000000000003</ele><time>2026-04-19T08:09:06.708Z</time></trkpt><trkpt lat="44.8934828" lon="8.0698887"><ele>215.0</ele><time>2026-04-19T08:09:07.709Z</time></trkpt><trkpt lat="44.8934712" lon="8.0700065"><ele>215.0</ele><time>2026-04-19T08:09:08.703Z</time></trkpt><trkpt lat="44.8934553" lon="8.0701096"><ele>215.0</ele><time>2026-04-19T08:09:09.703Z</time></trkpt><trkpt lat="44.8934445" lon="8.0702548"><ele>215.00000000000003</ele><time>2026-04-19T08:09:11.715Z</time></trkpt><trkpt lat="44.8935214" lon="8.0703008"><ele>215.0</ele><time>2026-04-19T08:09:13.705Z</time></trkpt><trkpt lat="44.8936159" lon="8.0702704"><ele>214.66666666666669</ele><time>2026-04-19T08:09:15.704Z</time></trkpt><trkpt lat="44.8936916" lon="8.0702408"><ele>214.33333333333334</ele><time>2026-04-19T08:09:17.706Z</time></trkpt><trkpt lat="44.8937213" lon="8.0703262"><ele>214.0</ele><time>2026-04-19T08:09:19.715Z</time></trkpt><trkpt lat="44.893695" lon="8.0704095"><ele>213.66666666666669</ele><time>2026-04-19T08:09:20.69Z</time></trkpt><trkpt lat="44.8936541" lon="8.0705041"><ele>213.33333333333334</ele><time>2026-04-19T08:09:21.699Z</time></trkpt><trkpt lat="44.8935956" lon="8.070596"><ele>213.0</ele><time>2026-04-19T08:09:22.699Z</time></trkpt><trkpt lat="44.8935341" lon="8.0706847"><ele>213.33333333333334</ele><time>2026-04-19T08:09:23.693Z</time></trkpt><trkpt lat="44.8934806" lon="8.0707749"><ele>213.66666666666669</ele><time>2026-04-19T08:09:24.693Z</time></trkpt><trkpt lat="44.8934378" lon="8.0708531"><ele>214.0</ele><time>2026-04-19T08:09:25.694Z</time></trkpt><trkpt lat="44.8933864" lon="8.0709437"><ele>214.33333333333334</ele><time>2026-04-19T08:09:27.696Z</time></trkpt><trkpt lat="44.8933072" lon="8.0709377"><ele>214.66666666666669</ele><time>2026-04-19T08:09:30.702Z</time></trkpt><trkpt lat="44.8932281" lon="8.0708263"><ele>215.0</ele><time>2026-04-19T08:09:32.704Z</time></trkpt><trkpt lat="44.8931822" lon="8.0707357"><ele>211.83333333333334</ele><time>2026-04-19T08:09:33.713Z</time></trkpt><trkpt lat="44.8931342" lon="8.070653"><ele>208.66666666666669</ele><time>2026-04-19T08:09:34.706Z</time></trkpt><trkpt lat="44.8930934" lon="8.070583"><ele>205.5</ele><time>2026-04-19T08:09:35.707Z</time></trkpt><trkpt lat="44.8930603" lon="8.0704793"><ele>202.33333333333331</ele><time>2026-04-19T08:09:37.701Z</time></trkpt><trkpt lat="44.8930106" lon="8.0703969"><ele>199.16666666666666</ele><time>2026-04-19T08:09:40.71Z</time></trkpt><trkpt lat="44.8929301" lon="8.0703401"><ele>196.0</ele><time>2026-04-19T08:09:43.7Z</time></trkpt><trkpt lat="44.8928819" lon="8.0702353"><ele>196.0</ele><time>2026-04-19T08:09:45.705Z</time></trkpt><trkpt lat="44.8928865" lon="8.0700794"><ele>196.0</ele><time>2026-04-19T08:09:47.704Z</time></trkpt><trkpt lat="44.8929329" lon="8.0699167"><ele>196.0</ele><time>2026-04-19T08:09:49.709Z</time></trkpt><trkpt lat="44.89295" lon="8.0698203"><ele>196.0</ele><time>2026-04-19T08:09:50.712Z</time></trkpt><trkpt lat="44.8929568" lon="8.069723"><ele>196.0</ele><time>2026-04-19T08:09:51.713Z</time></trkpt><trkpt lat="44.8929139" lon="8.0695415"><ele>195.66666666666666</ele><time>2026-04-19T08:09:53.707Z</time></trkpt><trkpt lat="44.8928842" lon="8.0694557"><ele>195.33333333333331</ele><time>2026-04-19T08:09:54.707Z</time></trkpt><trkpt lat="44.8928523" lon="8.0693377"><ele>195.0</ele><time>2026-04-19T08:09:56.712Z</time></trkpt><trkpt lat="44.8928355" lon="8.069244"><ele>194.66666666666669</ele><time>2026-04-19T08:09:58.714Z</time></trkpt><trkpt lat="44.8928269" lon="8.0691195"><ele>194.33333333333334</ele><time>2026-04-19T08:10:00.706Z</time></trkpt><trkpt lat="44.8928362" lon="8.0689509"><ele>194.0</ele><time>2026-04-19T08:10:02.707Z</time></trkpt><trkpt lat="44.8928237" lon="8.0688092"><ele>195.0</ele><time>2026-04-19T08:10:04.705Z</time></trkpt><trkpt lat="44.8927775" lon="8.0686541"><ele>196.0</ele><time>2026-04-19T08:10:06.702Z</time></trkpt><trkpt lat="44.8927347" lon="8.0685721"><ele>197.0</ele><time>2026-04-19T08:10:07.702Z</time></trkpt><trkpt lat="44.8926916" lon="8.0684973"><ele>198.0</ele><time>2026-04-19T08:10:08.706Z</time></trkpt><trkpt lat="44.8926094" lon="8.0684094"><ele>199.0</ele><time>2026-04-19T08:10:10.709Z</time></trkpt><trkpt lat="44.892585" lon="8.0682748"><ele>200.2</ele><time>2026-04-19T08:10:12.71Z</time></trkpt><trkpt lat="44.8926229" lon="8.0681635"><ele>201.39999999999998</ele><time>2026-04-19T08:10:14.704Z</time></trkpt><trkpt lat="44.8926538" lon="8.0680036"><ele>202.6</ele><time>2026-04-19T08:10:17.703Z</time></trkpt><trkpt lat="44.8926643" lon="8.0678536"><ele>203.8</ele><time>2026-04-19T08:10:19.71Z</time></trkpt><trkpt lat="44.8926579" lon="8.0677345"><ele>205.0</ele><time>2026-04-19T08:10:21.716Z</time></trkpt><trkpt lat="44.8926462" lon="8.0676122"><ele>204.99999999999997</ele><time>2026-04-19T08:10:23.704Z</time></trkpt><trkpt lat="44.8926235" lon="8.0674683"><ele>205.0</ele><time>2026-04-19T08:10:25.704Z</time></trkpt><trkpt lat="44.8926152" lon="8.067376"><ele>205.0</ele><time>2026-04-19T08:10:26.706Z</time></trkpt><trkpt lat="44.892602" lon="8.0672795"><ele>205.0</ele><time>2026-04-19T08:10:27.699Z</time></trkpt><trkpt lat="44.8925936" lon="8.067185"><ele>204.99999999999997</ele><time>2026-04-19T08:10:28.705Z</time></trkpt><trkpt lat="44.8925793" lon="8.0670925"><ele>205.0</ele><time>2026-04-19T08:10:29.699Z</time></trkpt><trkpt lat="44.8925509" lon="8.0669735"><ele>204.4</ele><time>2026-04-19T08:10:31.702Z</time></trkpt><trkpt lat="44.892469" lon="8.0669044"><ele>203.8</ele><time>2026-04-19T08:10:34.7Z</time></trkpt><trkpt lat="44.8923958" lon="8.0668208"><ele>203.2</ele><time>2026-04-19T08:10:36.704Z</time></trkpt><trkpt lat="44.8923177" lon="8.0666942"><ele>202.6</ele><time>2026-04-19T08:10:38.7Z</time></trkpt><trkpt lat="44.8922664" lon="8.0666202"><ele>202.0</ele><time>2026-04-19T08:10:39.702Z</time></trkpt><trkpt lat="44.8922191" lon="8.066541"><ele>201.99999999999997</ele><time>2026-04-19T08:10:40.702Z</time></trkpt><trkpt lat="44.8921669" lon="8.0664507"><ele>202.0</ele><time>2026-04-19T08:10:41.698Z</time></trkpt><trkpt lat="44.8921113" lon="8.0663515"><ele>202.0</ele><time>2026-04-19T08:10:42.701Z</time></trkpt><trkpt lat="44.8920817" lon="8.0662444"><ele>202.0</ele><time>2026-04-19T08:10:43.695Z</time></trkpt><trkpt lat="44.8920631" lon="8.0661278"><ele>201.99999999999997</ele><time>2026-04-19T08:10:44.696Z</time></trkpt><trkpt lat="44.8920371" lon="8.0660126"><ele>202.0</ele><time>2026-04-19T08:10:45.696Z</time></trkpt><trkpt lat="44.8919924" lon="8.0658557"><ele>203.33333333333331</ele><time>2026-04-19T08:10:47.705Z</time></trkpt><trkpt lat="44.8919495" lon="8.065732"><ele>204.66666666666666</ele><time>2026-04-19T08:10:49.711Z</time></trkpt><trkpt lat="44.8918549" lon="8.065717"><ele>206.0</ele><time>2026-04-19T08:10:52.736Z</time></trkpt><trkpt lat="44.8917869" lon="8.0656602"><ele>207.33333333333331</ele><time>2026-04-19T08:10:54.712Z</time></trkpt><trkpt lat="44.891824" lon="8.0655197"><ele>208.66666666666666</ele><time>2026-04-19T08:10:56.705Z</time></trkpt><trkpt lat="44.8918551" lon="8.0654388"><ele>210.0</ele><time>2026-04-19T08:10:57.702Z</time></trkpt><trkpt lat="44.8918796" lon="8.0653569"><ele>210.0</ele><time>2026-04-19T08:10:58.697Z</time></trkpt><trkpt lat="44.8918832" lon="8.0651971"><ele>210.0</ele><time>2026-04-19T08:11:00.705Z</time></trkpt><trkpt lat="44.8918627" lon="8.0650432"><ele>210.0</ele><time>2026-04-19T08:11:02.698Z</time></trkpt><trkpt lat="44.8918644" lon="8.064862"><ele>210.0</ele><time>2026-04-19T08:11:04.702Z</time></trkpt><trkpt lat="44.8918637" lon="8.0647475"><ele>210.0</ele><time>2026-04-19T08:11:05.693Z</time></trkpt><trkpt lat="44.8918661" lon="8.0646237"><ele>210.16666666666666</ele><time>2026-04-19T08:11:06.707Z</time></trkpt><trkpt lat="44.891872" lon="8.064493"><ele>210.33333333333331</ele><time>2026-04-19T08:11:07.697Z</time></trkpt><trkpt lat="44.8918708" lon="8.0643678"><ele>210.5</ele><time>2026-04-19T08:11:08.704Z</time></trkpt><trkpt lat="44.891871" lon="8.0642429"><ele>210.66666666666666</ele><time>2026-04-19T08:11:09.701Z</time></trkpt><trkpt lat="44.8918671" lon="8.0641282"><ele>210.83333333333331</ele><time>2026-04-19T08:11:10.711Z</time></trkpt><trkpt lat="44.8918624" lon="8.0640152"><ele>211.0</ele><time>2026-04-19T08:11:11.706Z</time></trkpt><trkpt lat="44.8918597" lon="8.0639063"><ele>210.99999999999997</ele><time>2026-04-19T08:11:12.701Z</time></trkpt><trkpt lat="44.8918639" lon="8.0637917"><ele>211.0</ele><time>2026-04-19T08:11:13.708Z</time></trkpt><trkpt lat="44.8918728" lon="8.0636694"><ele>211.0</ele><time>2026-04-19T08:11:14.709Z</time></trkpt><trkpt lat="44.8918779" lon="8.06355"><ele>211.0</ele><time>2026-04-19T08:11:15.709Z</time></trkpt><trkpt lat="44.8918758" lon="8.0634423"><ele>210.99999999999997</ele><time>2026-04-19T08:11:16.701Z</time></trkpt><trkpt lat="44.8918622" lon="8.0633424"><ele>211.0</ele><time>2026-04-19T08:11:17.704Z</time></trkpt><trkpt lat="44.8918412" lon="8.0632439"><ele>210.49999999999997</ele><time>2026-04-19T08:11:18.707Z</time></trkpt><trkpt lat="44.8918126" lon="8.0631406"><ele>210.0</ele><time>2026-04-19T08:11:19.709Z</time></trkpt><trkpt lat="44.8917775" lon="8.0630373"><ele>209.5</ele><time>2026-04-19T08:11:20.701Z</time></trkpt><trkpt lat="44.8917406" lon="8.0629408"><ele>209.0</ele><time>2026-04-19T08:11:21.706Z</time></trkpt><trkpt lat="44.8917123" lon="8.062851"><ele>208.49999999999997</ele><time>2026-04-19T08:11:22.717Z</time></trkpt><trkpt lat="44.891685" lon="8.0627568"><ele>208.0</ele><time>2026-04-19T08:11:23.706Z</time></trkpt><trkpt lat="44.8916561" lon="8.0626594"><ele>207.99999999999997</ele><time>2026-04-19T08:11:24.704Z</time></trkpt><trkpt lat="44.8916234" lon="8.0625702"><ele>208.0</ele><time>2026-04-19T08:11:25.704Z</time></trkpt><trkpt lat="44.8915825" lon="8.0624975"><ele>208.0</ele><time>2026-04-19T08:11:26.713Z</time></trkpt><trkpt lat="44.891537" lon="8.0624307"><ele>208.0</ele><time>2026-04-19T08:11:27.703Z</time></trkpt><trkpt lat="44.891472" lon="8.0622891"><ele>207.99999999999997</ele><time>2026-04-19T08:11:29.698Z</time></trkpt><trkpt lat="44.8914363" lon="8.062209"><ele>208.0</ele><time>2026-04-19T08:11:30.704Z</time></trkpt><trkpt lat="44.8913947" lon="8.0621256"><ele>208.7142857142857</ele><time>2026-04-19T08:11:31.697Z</time></trkpt><trkpt lat="44.8913539" lon="8.0620238"><ele>209.42857142857144</ele><time>2026-04-19T08:11:32.7Z</time></trkpt><trkpt lat="44.8913241" lon="8.0619172"><ele>210.14285714285714</ele><time>2026-04-19T08:11:33.691Z</time></trkpt><trkpt lat="44.8912921" lon="8.0618238"><ele>210.85714285714283</ele><time>2026-04-19T08:11:34.696Z</time></trkpt><trkpt lat="44.8912552" lon="8.0617382"><ele>211.57142857142856</ele><time>2026-04-19T08:11:35.7Z</time></trkpt><trkpt lat="44.8912193" lon="8.0616591"><ele>212.28571428571428</ele><time>2026-04-19T08:11:36.696Z</time></trkpt><trkpt lat="44.8911968" lon="8.0615715"><ele>213.0</ele><time>2026-04-19T08:11:37.691Z</time></trkpt><trkpt lat="44.8911789" lon="8.0614682"><ele>214.83333333333334</ele><time>2026-04-19T08:11:38.689Z</time></trkpt><trkpt lat="44.8911551" lon="8.0613748"><ele>216.66666666666669</ele><time>2026-04-19T08:11:39.69Z</time></trkpt><trkpt lat="44.8911037" lon="8.0612967"><ele>218.5</ele><time>2026-04-19T08:11:40.698Z</time></trkpt><trkpt lat="44.8910345" lon="8.0611973"><ele>220.33333333333334</ele><time>2026-04-19T08:11:41.692Z</time></trkpt><trkpt lat="44.8909727" lon="8.0610955"><ele>222.16666666666669</ele><time>2026-04-19T08:11:42.69Z</time></trkpt><trkpt lat="44.8909591" lon="8.0609528"><ele>224.0</ele><time>2026-04-19T08:11:44.704Z</time></trkpt><trkpt lat="44.8909365" lon="8.060841"><ele>222.16666666666669</ele><time>2026-04-19T08:11:46.698Z</time></trkpt><trkpt lat="44.890904" lon="8.0606785"><ele>220.33333333333334</ele><time>2026-04-19T08:11:48.706Z</time></trkpt><trkpt lat="44.8908826" lon="8.0605804"><ele>218.5</ele><time>2026-04-19T08:11:49.699Z</time></trkpt><trkpt lat="44.8908417" lon="8.0604855"><ele>216.66666666666669</ele><time>2026-04-19T08:11:50.695Z</time></trkpt><trkpt lat="44.8907973" lon="8.0603913"><ele>214.83333333333334</ele><time>2026-04-19T08:11:51.704Z</time></trkpt><trkpt lat="44.8907506" lon="8.0603081"><ele>213.0</ele><time>2026-04-19T08:11:52.697Z</time></trkpt><trkpt lat="44.8907089" lon="8.0602301"><ele>213.0</ele><time>2026-04-19T08:11:53.709Z</time></trkpt><trkpt lat="44.8906404" lon="8.060125"><ele>213.0</ele><time>2026-04-19T08:11:55.693Z</time></trkpt><trkpt lat="44.8905754" lon="8.0600225"><ele>213.0</ele><time>2026-04-19T08:11:57.702Z</time></trkpt><trkpt lat="44.8905253" lon="8.05989"><ele>213.0</ele><time>2026-04-19T08:11:59.703Z</time></trkpt><trkpt lat="44.8905019" lon="8.0597368"><ele>213.0</ele><time>2026-04-19T08:12:01.702Z</time></trkpt><trkpt lat="44.8904561" lon="8.0595785"><ele>214.5</ele><time>2026-04-19T08:12:03.702Z</time></trkpt><trkpt lat="44.8904216" lon="8.0595024"><ele>216.0</ele><time>2026-04-19T08:12:04.714Z</time></trkpt><trkpt lat="44.8903554" lon="8.0593507"><ele>217.5</ele><time>2026-04-19T08:12:06.709Z</time></trkpt><trkpt lat="44.8903161" lon="8.0592724"><ele>219.0</ele><time>2026-04-19T08:12:07.701Z</time></trkpt><trkpt lat="44.8902777" lon="8.0591872"><ele>220.5</ele><time>2026-04-19T08:12:08.705Z</time></trkpt><trkpt lat="44.8902383" lon="8.059098"><ele>222.0</ele><time>2026-04-19T08:12:09.709Z</time></trkpt><trkpt lat="44.8901977" lon="8.0590061"><ele>220.83333333333334</ele><time>2026-04-19T08:12:10.708Z</time></trkpt><trkpt lat="44.8901563" lon="8.0589105"><ele>219.66666666666669</ele><time>2026-04-19T08:12:11.704Z</time></trkpt><trkpt lat="44.8901161" lon="8.0588126"><ele>218.5</ele><time>2026-04-19T08:12:12.709Z</time></trkpt><trkpt lat="44.8900702" lon="8.0587116"><ele>217.33333333333334</ele><time>2026-04-19T08:12:13.705Z</time></trkpt><trkpt lat="44.8900153" lon="8.0586064"><ele>216.16666666666669</ele><time>2026-04-19T08:12:14.702Z</time></trkpt><trkpt lat="44.8899558" lon="8.0584964"><ele>215.0</ele><time>2026-04-19T08:12:15.703Z</time></trkpt><trkpt lat="44.8898952" lon="8.0583845"><ele>216.50000000000003</ele><time>2026-04-19T08:12:16.71Z</time></trkpt><trkpt lat="44.8898335" lon="8.0582835"><ele>218.0</ele><time>2026-04-19T08:12:17.704Z</time></trkpt><trkpt lat="44.8897743" lon="8.0581831"><ele>219.5</ele><time>2026-04-19T08:12:18.697Z</time></trkpt><trkpt lat="44.8897161" lon="8.05809"><ele>221.0</ele><time>2026-04-19T08:12:19.708Z</time></trkpt><trkpt lat="44.8896615" lon="8.0580036"><ele>222.50000000000003</ele><time>2026-04-19T08:12:20.7Z</time></trkpt><trkpt lat="44.8896116" lon="8.0579341"><ele>224.0</ele><time>2026-04-19T08:12:22.714Z</time></trkpt><trkpt lat="44.8895292" lon="8.0579488"><ele>224.0</ele><time>2026-04-19T08:12:26.702Z</time></trkpt><trkpt lat="44.8894573" lon="8.0578995"><ele>223.99999999999997</ele><time>2026-04-19T08:12:29.703Z</time></trkpt><trkpt lat="44.8893615" lon="8.0577708"><ele>223.99999999999997</ele><time>2026-04-19T08:12:31.698Z</time></trkpt><trkpt lat="44.8893044" lon="8.0576687"><ele>224.0</ele><time>2026-04-19T08:12:32.712Z</time></trkpt><trkpt lat="44.8892564" lon="8.057558"><ele>224.0</ele><time>2026-04-19T08:12:33.702Z</time></trkpt><trkpt lat="44.8892064" lon="8.0574535"><ele>224.2</ele><time>2026-04-19T08:12:34.704Z</time></trkpt><trkpt lat="44.8891469" lon="8.0573551"><ele>224.39999999999998</ele><time>2026-04-19T08:12:35.703Z</time></trkpt><trkpt lat="44.8890829" lon="8.0572624"><ele>224.6</ele><time>2026-04-19T08:12:36.702Z</time></trkpt><trkpt lat="44.8890068" lon="8.0571672"><ele>224.8</ele><time>2026-04-19T08:12:37.711Z</time></trkpt><trkpt lat="44.8889119" lon="8.0570669"><ele>225.0</ele><time>2026-04-19T08:12:38.709Z</time></trkpt><trkpt lat="44.8888202" lon="8.0569735"><ele>225.0</ele><time>2026-04-19T08:12:39.701Z</time></trkpt><trkpt lat="44.8887378" lon="8.0568961"><ele>225.0</ele><time>2026-04-19T08:12:40.708Z</time></trkpt><trkpt lat="44.8886643" lon="8.0568381"><ele>225.0</ele><time>2026-04-19T08:12:41.705Z</time></trkpt><trkpt lat="44.8885947" lon="8.0567806"><ele>225.0</ele><time>2026-04-19T08:12:42.703Z</time></trkpt><trkpt lat="44.8885257" lon="8.0567182"><ele>225.0</ele><time>2026-04-19T08:12:43.704Z</time></trkpt><trkpt lat="44.8884643" lon="8.0566596"><ele>225.0</ele><time>2026-04-19T08:12:44.698Z</time></trkpt><trkpt lat="44.8884065" lon="8.0565946"><ele>224.83333333333334</ele><time>2026-04-19T08:12:45.708Z</time></trkpt><trkpt lat="44.8883578" lon="8.0565229"><ele>224.66666666666669</ele><time>2026-04-19T08:12:46.705Z</time></trkpt><trkpt lat="44.8883164" lon="8.0564499"><ele>224.5</ele><time>2026-04-19T08:12:47.706Z</time></trkpt><trkpt lat="44.8882424" lon="8.0563258"><ele>224.33333333333334</ele><time>2026-04-19T08:12:49.704Z</time></trkpt><trkpt lat="44.8881794" lon="8.0562555"><ele>224.16666666666669</ele><time>2026-04-19T08:12:51.716Z</time></trkpt><trkpt lat="44.8880883" lon="8.0562304"><ele>224.0</ele><time>2026-04-19T08:12:53.703Z</time></trkpt><trkpt lat="44.8879724" lon="8.0561468"><ele>224.00000000000003</ele><time>2026-04-19T08:12:55.719Z</time></trkpt><trkpt lat="44.8879107" lon="8.0560815"><ele>224.0</ele><time>2026-04-19T08:12:56.702Z</time></trkpt><trkpt lat="44.887866" lon="8.0559973"><ele>224.0</ele><time>2026-04-19T08:12:57.699Z</time></trkpt><trkpt lat="44.8878313" lon="8.0558972"><ele>224.0</ele><time>2026-04-19T08:12:58.699Z</time></trkpt><trkpt lat="44.8877984" lon="8.0557938"><ele>224.00000000000003</ele><time>2026-04-19T08:12:59.703Z</time></trkpt><trkpt lat="44.887753" lon="8.0556936"><ele>224.0</ele><time>2026-04-19T08:13:00.707Z</time></trkpt><trkpt lat="44.8877035" lon="8.0555894"><ele>224.00000000000003</ele><time>2026-04-19T08:13:01.713Z</time></trkpt><trkpt lat="44.8876647" lon="8.055474"><ele>224.0</ele><time>2026-04-19T08:13:02.707Z</time></trkpt><trkpt lat="44.8876227" lon="8.0553581"><ele>224.0</ele><time>2026-04-19T08:13:03.708Z</time></trkpt><trkpt lat="44.8875794" lon="8.0552618"><ele>224.0</ele><time>2026-04-19T08:13:04.704Z</time></trkpt><trkpt lat="44.8875357" lon="8.0551753"><ele>224.00000000000003</ele><time>2026-04-19T08:13:05.714Z</time></trkpt><trkpt lat="44.8874817" lon="8.055106"><ele>224.0</ele><time>2026-04-19T08:13:06.703Z</time></trkpt><trkpt lat="44.8874163" lon="8.0550505"><ele>224.00000000000003</ele><time>2026-04-19T08:13:07.706Z</time></trkpt><trkpt lat="44.8873517" lon="8.0549928"><ele>224.0</ele><time>2026-04-19T08:13:08.707Z</time></trkpt><trkpt lat="44.8872913" lon="8.0549334"><ele>224.0</ele><time>2026-04-19T08:13:09.707Z</time></trkpt><trkpt lat="44.8872359" lon="8.0548711"><ele>224.0</ele><time>2026-04-19T08:13:10.709Z</time></trkpt><trkpt lat="44.8871524" lon="8.0547577"><ele>224.00000000000003</ele><time>2026-04-19T08:13:12.701Z</time></trkpt><trkpt lat="44.8871057" lon="8.0546974"><ele>224.0</ele><time>2026-04-19T08:13:13.707Z</time></trkpt><trkpt lat="44.8870364" lon="8.054569"><ele>226.28571428571428</ele><time>2026-04-19T08:13:15.7Z</time></trkpt><trkpt lat="44.8869594" lon="8.0544842"><ele>228.57142857142856</ele><time>2026-04-19T08:13:17.699Z</time></trkpt><trkpt lat="44.8869019" lon="8.0544438"><ele>230.85714285714286</ele><time>2026-04-19T08:13:19.7Z</time></trkpt><trkpt lat="44.8868336" lon="8.0544066"><ele>233.14285714285714</ele><time>2026-04-19T08:13:21.695Z</time></trkpt><trkpt lat="44.8867704" lon="8.0543596"><ele>235.42857142857142</ele><time>2026-04-19T08:13:23.699Z</time></trkpt><trkpt lat="44.886723" lon="8.0543003"><ele>237.71428571428572</ele><time>2026-04-19T08:13:25.701Z</time></trkpt><trkpt lat="44.8866679" lon="8.0542312"><ele>240.0</ele><time>2026-04-19T08:13:27.702Z</time></trkpt><trkpt lat="44.8866195" lon="8.0541207"><ele>240.0</ele><time>2026-04-19T08:13:29.705Z</time></trkpt><trkpt lat="44.8865819" lon="8.053981"><ele>240.0</ele><time>2026-04-19T08:13:31.705Z</time></trkpt><trkpt lat="44.8865532" lon="8.0538315"><ele>240.0</ele><time>2026-04-19T08:13:33.694Z</time></trkpt><trkpt lat="44.8865212" lon="8.0536835"><ele>240.0</ele><time>2026-04-19T08:13:35.703Z</time></trkpt><trkpt lat="44.8864632" lon="8.0535539"><ele>240.0</ele><time>2026-04-19T08:13:37.699Z</time></trkpt><trkpt lat="44.8864096" lon="8.0534296"><ele>240.0</ele><time>2026-04-19T08:13:39.716Z</time></trkpt><trkpt lat="44.8863869" lon="8.0533249"><ele>240.0</ele><time>2026-04-19T08:14:07.711Z</time></trkpt><trkpt lat="44.8863825" lon="8.0532194"><ele>240.0</ele><time>2026-04-19T08:14:11.707Z</time></trkpt><trkpt lat="44.886442" lon="8.0532525"><ele>240.0</ele><time>2026-04-19T08:14:14.721Z</time></trkpt><trkpt lat="44.8865057" lon="8.0533048"><ele>240.0</ele><time>2026-04-19T08:14:16.705Z</time></trkpt><trkpt lat="44.8865895" lon="8.0533034"><ele>240.0</ele><time>2026-04-19T08:14:18.702Z</time></trkpt><trkpt lat="44.886665" lon="8.0532474"><ele>240.16666666666666</ele><time>2026-04-19T08:14:20.718Z</time></trkpt><trkpt lat="44.8867488" lon="8.0531583"><ele>240.33333333333331</ele><time>2026-04-19T08:14:22.708Z</time></trkpt><trkpt lat="44.8868123" lon="8.0530707"><ele>240.5</ele><time>2026-04-19T08:14:24.699Z</time></trkpt><trkpt lat="44.8868709" lon="8.0530125"><ele>240.66666666666666</ele><time>2026-04-19T08:14:28.72Z</time></trkpt><trkpt lat="44.88691" lon="8.0529332"><ele>240.83333333333331</ele><time>2026-04-19T08:14:30.704Z</time></trkpt><trkpt lat="44.8869565" lon="8.0528169"><ele>241.0</ele><time>2026-04-19T08:14:32.702Z</time></trkpt><trkpt lat="44.8870072" lon="8.0526966"><ele>240.99999999999997</ele><time>2026-04-19T08:14:34.71Z</time></trkpt><trkpt lat="44.8870458" lon="8.0525696"><ele>241.0</ele><time>2026-04-19T08:14:36.702Z</time></trkpt><trkpt lat="44.8870938" lon="8.0524072"><ele>241.0</ele><time>2026-04-19T08:14:38.703Z</time></trkpt><trkpt lat="44.8871224" lon="8.0523102"><ele>241.0</ele><time>2026-04-19T08:14:39.702Z</time></trkpt><trkpt lat="44.8871505" lon="8.0522213"><ele>240.99999999999997</ele><time>2026-04-19T08:14:40.699Z</time></trkpt><trkpt lat="44.8871858" lon="8.0521382"><ele>241.0</ele><time>2026-04-19T08:14:41.711Z</time></trkpt><trkpt lat="44.8872233" lon="8.0520608"><ele>239.57142857142858</ele><time>2026-04-19T08:14:42.705Z</time></trkpt><trkpt lat="44.8872641" lon="8.0519774"><ele>238.14285714285717</ele><time>2026-04-19T08:14:43.709Z</time></trkpt><trkpt lat="44.8872944" lon="8.0518865"><ele>236.71428571428572</ele><time>2026-04-19T08:14:44.702Z</time></trkpt><trkpt lat="44.8873144" lon="8.0517919"><ele>235.28571428571428</ele><time>2026-04-19T08:14:45.709Z</time></trkpt><trkpt lat="44.8873255" lon="8.0516853"><ele>233.85714285714286</ele><time>2026-04-19T08:14:46.7Z</time></trkpt><trkpt lat="44.8873285" lon="8.0515763"><ele>232.42857142857144</ele><time>2026-04-19T08:14:47.7Z</time></trkpt><trkpt lat="44.8873345" lon="8.0514714"><ele>231.0</ele><time>2026-04-19T08:14:48.697Z</time></trkpt><trkpt lat="44.8873364" lon="8.051374"><ele>228.60000000000002</ele><time>2026-04-19T08:14:49.687Z</time></trkpt><trkpt lat="44.8873429" lon="8.051279"><ele>226.20000000000002</ele><time>2026-04-19T08:14:50.693Z</time></trkpt><trkpt lat="44.8873606" lon="8.0511188"><ele>223.79999999999998</ele><time>2026-04-19T08:14:52.698Z</time></trkpt><trkpt lat="44.8874169" lon="8.0509475"><ele>221.39999999999998</ele><time>2026-04-19T08:14:54.698Z</time></trkpt><trkpt lat="44.8874525" lon="8.0508594"><ele>219.0</ele><time>2026-04-19T08:14:55.696Z</time></trkpt><trkpt lat="44.887489" lon="8.0507715"><ele>218.33333333333334</ele><time>2026-04-19T08:14:56.701Z</time></trkpt><trkpt lat="44.8875223" lon="8.0506736"><ele>217.66666666666669</ele><time>2026-04-19T08:14:57.709Z</time></trkpt><trkpt lat="44.8875553" lon="8.0505761"><ele>217.0</ele><time>2026-04-19T08:14:58.708Z</time></trkpt><trkpt lat="44.8875926" lon="8.0504837"><ele>216.33333333333334</ele><time>2026-04-19T08:14:59.693Z</time></trkpt><trkpt lat="44.8876382" lon="8.0503939"><ele>215.66666666666669</ele><time>2026-04-19T08:15:00.673Z</time></trkpt><trkpt lat="44.8876884" lon="8.0502992"><ele>215.0</ele><time>2026-04-19T08:15:01.687Z</time></trkpt><trkpt lat="44.887742" lon="8.0502082"><ele>214.50000000000003</ele><time>2026-04-19T08:15:02.677Z</time></trkpt><trkpt lat="44.8877921" lon="8.0501185"><ele>214.0</ele><time>2026-04-19T08:15:03.674Z</time></trkpt><trkpt lat="44.8878422" lon="8.0500347"><ele>213.5</ele><time>2026-04-19T08:15:04.681Z</time></trkpt><trkpt lat="44.8878895" lon="8.0499517"><ele>213.0</ele><time>2026-04-19T08:15:05.677Z</time></trkpt><trkpt lat="44.8879423" lon="8.0498676"><ele>212.50000000000003</ele><time>2026-04-19T08:15:06.671Z</time></trkpt><trkpt lat="44.8879996" lon="8.0497868"><ele>212.0</ele><time>2026-04-19T08:15:07.682Z</time></trkpt><trkpt lat="44.8880508" lon="8.0497032"><ele>212.0</ele><time>2026-04-19T08:15:08.666Z</time></trkpt><trkpt lat="44.8880879" lon="8.0496145"><ele>212.0</ele><time>2026-04-19T08:15:09.669Z</time></trkpt><trkpt lat="44.8881108" lon="8.049518"><ele>212.0</ele><time>2026-04-19T08:15:10.67Z</time></trkpt><trkpt lat="44.8881266" lon="8.0494185"><ele>212.0</ele><time>2026-04-19T08:15:11.668Z</time></trkpt><trkpt lat="44.8881479" lon="8.0493186"><ele>212.0</ele><time>2026-04-19T08:15:12.668Z</time></trkpt><trkpt lat="44.8881667" lon="8.0492174"><ele>212.0</ele><time>2026-04-19T08:15:13.669Z</time></trkpt><trkpt lat="44.8881792" lon="8.0491109"><ele>212.0</ele><time>2026-04-19T08:15:14.675Z</time></trkpt><trkpt lat="44.8881992" lon="8.0490046"><ele>210.50000000000003</ele><time>2026-04-19T08:15:15.676Z</time></trkpt><trkpt lat="44.8882192" lon="8.0489035"><ele>209.0</ele><time>2026-04-19T08:15:16.677Z</time></trkpt><trkpt lat="44.8882434" lon="8.0488019"><ele>207.5</ele><time>2026-04-19T08:15:17.681Z</time></trkpt><trkpt lat="44.8882696" lon="8.0487"><ele>206.0</ele><time>2026-04-19T08:15:18.676Z</time></trkpt><trkpt lat="44.8882961" lon="8.0485995"><ele>204.50000000000003</ele><time>2026-04-19T08:15:19.677Z</time></trkpt><trkpt lat="44.8883215" lon="8.0485025"><ele>203.0</ele><time>2026-04-19T08:15:20.675Z</time></trkpt><trkpt lat="44.8883488" lon="8.0484045"><ele>203.00000000000003</ele><time>2026-04-19T08:15:21.676Z</time></trkpt><trkpt lat="44.8883758" lon="8.0483069"><ele>203.0</ele><time>2026-04-19T08:15:22.679Z</time></trkpt><trkpt lat="44.8884165" lon="8.048205"><ele>203.0</ele><time>2026-04-19T08:15:23.684Z</time></trkpt><trkpt lat="44.8884593" lon="8.0481091"><ele>203.0</ele><time>2026-04-19T08:15:24.684Z</time></trkpt><trkpt lat="44.8885043" lon="8.0480194"><ele>203.00000000000003</ele><time>2026-04-19T08:15:25.675Z</time></trkpt><trkpt lat="44.888559" lon="8.0479356"><ele>203.0</ele><time>2026-04-19T08:15:26.671Z</time></trkpt><trkpt lat="44.8886148" lon="8.0478637"><ele>201.8</ele><time>2026-04-19T08:15:27.686Z</time></trkpt><trkpt lat="44.8886638" lon="8.0477973"><ele>200.60000000000002</ele><time>2026-04-19T08:15:28.677Z</time></trkpt><trkpt lat="44.8887419" lon="8.0476612"><ele>199.39999999999998</ele><time>2026-04-19T08:15:30.7Z</time></trkpt><trkpt lat="44.8887792" lon="8.0475263"><ele>198.2</ele><time>2026-04-19T08:15:32.679Z</time></trkpt><trkpt lat="44.888798" lon="8.047438"><ele>197.0</ele><time>2026-04-19T08:15:36.681Z</time></trkpt><trkpt lat="44.8887106" lon="8.0473655"><ele>197.00000000000003</ele><time>2026-04-19T08:15:39.682Z</time></trkpt><trkpt lat="44.8886261" lon="8.0472972"><ele>197.0</ele><time>2026-04-19T08:15:41.681Z</time></trkpt><trkpt lat="44.888524" lon="8.0472319"><ele>197.0</ele><time>2026-04-19T08:15:43.679Z</time></trkpt><trkpt lat="44.8884647" lon="8.0471869"><ele>197.0</ele><time>2026-04-19T08:15:44.686Z</time></trkpt><trkpt lat="44.8884104" lon="8.0471247"><ele>197.00000000000003</ele><time>2026-04-19T08:15:45.68Z</time></trkpt><trkpt lat="44.8883629" lon="8.0470548"><ele>197.0</ele><time>2026-04-19T08:15:46.685Z</time></trkpt><trkpt lat="44.8883244" lon="8.0469842"><ele>197.5</ele><time>2026-04-19T08:15:47.683Z</time></trkpt><trkpt lat="44.8882733" lon="8.0468257"><ele>198.0</ele><time>2026-04-19T08:15:49.69Z</time></trkpt><trkpt lat="44.8882548" lon="8.0466612"><ele>198.5</ele><time>2026-04-19T08:15:51.682Z</time></trkpt><trkpt lat="44.8882092" lon="8.0465297"><ele>199.0</ele><time>2026-04-19T08:15:53.686Z</time></trkpt><trkpt lat="44.8881284" lon="8.0464224"><ele>202.0</ele><time>2026-04-19T08:15:55.685Z</time></trkpt><trkpt lat="44.8880416" lon="8.0463169"><ele>205.0</ele><time>2026-04-19T08:15:57.687Z</time></trkpt><trkpt lat="44.8879525" lon="8.0461777"><ele>207.99999999999997</ele><time>2026-04-19T08:15:59.68Z</time></trkpt><trkpt lat="44.8879038" lon="8.0461127"><ele>211.0</ele><time>2026-04-19T08:16:00.683Z</time></trkpt><trkpt lat="44.8877935" lon="8.0460216"><ele>214.0</ele><time>2026-04-19T08:16:02.682Z</time></trkpt><trkpt lat="44.88773" lon="8.0459935"><ele>214.00000000000003</ele><time>2026-04-19T08:16:03.689Z</time></trkpt><trkpt lat="44.887662" lon="8.0459711"><ele>214.0</ele><time>2026-04-19T08:16:04.683Z</time></trkpt><trkpt lat="44.8875902" lon="8.0459454"><ele>214.0</ele><time>2026-04-19T08:16:05.679Z</time></trkpt><trkpt lat="44.8875163" lon="8.0459157"><ele>214.0</ele><time>2026-04-19T08:16:06.687Z</time></trkpt><trkpt lat="44.8874489" lon="8.0458788"><ele>214.0</ele><time>2026-04-19T08:16:07.681Z</time></trkpt><trkpt lat="44.887385" lon="8.0458493"><ele>214.00000000000003</ele><time>2026-04-19T08:16:08.681Z</time></trkpt><trkpt lat="44.8873256" lon="8.0458171"><ele>214.0</ele><time>2026-04-19T08:16:09.677Z</time></trkpt><trkpt lat="44.8872675" lon="8.0457742"><ele>215.33333333333331</ele><time>2026-04-19T08:16:10.673Z</time></trkpt><trkpt lat="44.8872104" lon="8.0457178"><ele>216.66666666666666</ele><time>2026-04-19T08:16:11.678Z</time></trkpt><trkpt lat="44.8871622" lon="8.0456599"><ele>218.0</ele><time>2026-04-19T08:16:12.674Z</time></trkpt><trkpt lat="44.8870656" lon="8.045556"><ele>219.33333333333331</ele><time>2026-04-19T08:16:14.674Z</time></trkpt><trkpt lat="44.8870124" lon="8.0455006"><ele>220.66666666666666</ele><time>2026-04-19T08:16:15.68Z</time></trkpt><trkpt lat="44.886957" lon="8.045438"><ele>222.0</ele><time>2026-04-19T08:16:16.677Z</time></trkpt><trkpt lat="44.8868963" lon="8.0453634"><ele>222.0</ele><time>2026-04-19T08:16:17.681Z</time></trkpt><trkpt lat="44.8868398" lon="8.0452777"><ele>222.0</ele><time>2026-04-19T08:16:18.676Z</time></trkpt><trkpt lat="44.8867803" lon="8.0451998"><ele>222.0</ele><time>2026-04-19T08:16:19.681Z</time></trkpt><trkpt lat="44.8867215" lon="8.0451242"><ele>222.0</ele><time>2026-04-19T08:16:20.679Z</time></trkpt><trkpt lat="44.8866654" lon="8.0450426"><ele>222.0</ele><time>2026-04-19T08:16:21.677Z</time></trkpt><trkpt lat="44.8866151" lon="8.0449813"><ele>222.0</ele><time>2026-04-19T08:16:22.681Z</time></trkpt><trkpt lat="44.8865519" lon="8.0449109"><ele>220.39999999999998</ele><time>2026-04-19T08:16:24.674Z</time></trkpt><trkpt lat="44.8865028" lon="8.0448084"><ele>218.79999999999998</ele><time>2026-04-19T08:16:27.679Z</time></trkpt><trkpt lat="44.8864862" lon="8.0446349"><ele>217.2</ele><time>2026-04-19T08:16:29.679Z</time></trkpt><trkpt lat="44.886463" lon="8.0444735"><ele>215.6</ele><time>2026-04-19T08:16:31.686Z</time></trkpt><trkpt lat="44.8864257" lon="8.0443458"><ele>214.0</ele><time>2026-04-19T08:16:33.668Z</time></trkpt><trkpt lat="44.8863352" lon="8.0442671"><ele>214.00000000000003</ele><time>2026-04-19T08:16:35.679Z</time></trkpt><trkpt lat="44.8862681" lon="8.0442405"><ele>214.0</ele><time>2026-04-19T08:16:36.678Z</time></trkpt><trkpt lat="44.8861967" lon="8.0442134"><ele>214.0</ele><time>2026-04-19T08:16:37.673Z</time></trkpt><trkpt lat="44.8861185" lon="8.0441811"><ele>214.0</ele><time>2026-04-19T08:16:38.674Z</time></trkpt><trkpt lat="44.886043" lon="8.0441418"><ele>214.0</ele><time>2026-04-19T08:16:39.672Z</time></trkpt><trkpt lat="44.8859755" lon="8.0441215"><ele>214.00000000000003</ele><time>2026-04-19T08:16:40.673Z</time></trkpt><trkpt lat="44.8859097" lon="8.0441113"><ele>214.0</ele><time>2026-04-19T08:16:41.672Z</time></trkpt><trkpt lat="44.8858452" lon="8.044099"><ele>213.99999999999997</ele><time>2026-04-19T08:16:42.677Z</time></trkpt><trkpt lat="44.8857329" lon="8.0440492"><ele>214.0</ele><time>2026-04-19T08:16:44.668Z</time></trkpt><trkpt lat="44.885643" lon="8.0440112"><ele>214.0</ele><time>2026-04-19T08:16:46.678Z</time></trkpt><trkpt lat="44.8856179" lon="8.0441012"><ele>214.0</ele><time>2026-04-19T08:16:54.689Z</time></trkpt><trkpt lat="44.8856166" lon="8.0442085"><ele>213.99999999999997</ele><time>2026-04-19T08:16:56.681Z</time></trkpt><trkpt lat="44.8856085" lon="8.0443035"><ele>214.0</ele><time>2026-04-19T08:16:58.684Z</time></trkpt><trkpt lat="44.8855775" lon="8.0444174"><ele>212.33333333333331</ele><time>2026-04-19T08:17:01.672Z</time></trkpt><trkpt lat="44.8856382" lon="8.0444962"><ele>210.66666666666666</ele><time>2026-04-19T08:17:10.684Z</time></trkpt><trkpt lat="44.8857083" lon="8.0445789"><ele>209.0</ele><time>2026-04-19T08:17:13.678Z</time></trkpt><trkpt lat="44.88576" lon="8.0446581"><ele>207.33333333333331</ele><time>2026-04-19T08:17:15.677Z</time></trkpt><trkpt lat="44.8858126" lon="8.0447198"><ele>205.66666666666666</ele><time>2026-04-19T08:17:17.676Z</time></trkpt><trkpt lat="44.8858719" lon="8.0447896"><ele>204.0</ele><time>2026-04-19T08:17:19.669Z</time></trkpt><trkpt lat="44.8859262" lon="8.044883"><ele>203.6</ele><time>2026-04-19T08:17:22.666Z</time></trkpt><trkpt lat="44.8859828" lon="8.0450155"><ele>203.2</ele><time>2026-04-19T08:17:24.666Z</time></trkpt><trkpt lat="44.8859992" lon="8.0451321"><ele>202.79999999999998</ele><time>2026-04-19T08:17:26.673Z</time></trkpt><trkpt lat="44.8860176" lon="8.045228"><ele>202.39999999999998</ele><time>2026-04-19T08:17:29.676Z</time></trkpt><trkpt lat="44.8860295" lon="8.0453559"><ele>202.0</ele><time>2026-04-19T08:17:32.685Z</time></trkpt><trkpt lat="44.8860319" lon="8.0454966"><ele>202.0</ele><time>2026-04-19T08:17:35.677Z</time></trkpt><trkpt lat="44.8859892" lon="8.04563"><ele>202.0</ele><time>2026-04-19T08:17:37.677Z</time></trkpt><trkpt lat="44.8859089" lon="8.045786"><ele>202.0</ele><time>2026-04-19T08:17:39.68Z</time></trkpt><trkpt lat="44.8858446" lon="8.04586"><ele>202.0</ele><time>2026-04-19T08:17:40.672Z</time></trkpt><trkpt lat="44.8857828" lon="8.0459181"><ele>202.0</ele><time>2026-04-19T08:17:41.679Z</time></trkpt><trkpt lat="44.885687" lon="8.0460024"><ele>204.39999999999998</ele><time>2026-04-19T08:17:43.681Z</time></trkpt><trkpt lat="44.8856043" lon="8.0461152"><ele>206.79999999999998</ele><time>2026-04-19T08:17:45.674Z</time></trkpt><trkpt lat="44.8855243" lon="8.0461868"><ele>209.2</ele><time>2026-04-19T08:17:47.686Z</time></trkpt><trkpt lat="44.8854303" lon="8.0462169"><ele>211.6</ele><time>2026-04-19T08:17:49.681Z</time></trkpt><trkpt lat="44.8853179" lon="8.0462326"><ele>214.0</ele><time>2026-04-19T08:17:51.68Z</time></trkpt><trkpt lat="44.885257" lon="8.046259"><ele>213.99999999999997</ele><time>2026-04-19T08:17:52.685Z</time></trkpt><trkpt lat="44.8851663" lon="8.0463072"><ele>214.0</ele><time>2026-04-19T08:17:54.674Z</time></trkpt><trkpt lat="44.8850991" lon="8.0463766"><ele>214.0</ele><time>2026-04-19T08:17:57.679Z</time></trkpt><trkpt lat="44.885045" lon="8.0464472"><ele>214.0</ele><time>2026-04-19T08:18:00.686Z</time></trkpt><trkpt lat="44.8849771" lon="8.0464215"><ele>213.99999999999997</ele><time>2026-04-19T08:18:04.678Z</time></trkpt><trkpt lat="44.8849512" lon="8.0463168"><ele>214.0</ele><time>2026-04-19T08:18:07.681Z</time></trkpt><trkpt lat="44.8849414" lon="8.0462033"><ele>216.8571428571429</ele><time>2026-04-19T08:18:10.673Z</time></trkpt><trkpt lat="44.8849719" lon="8.0460901"><ele>219.71428571428572</ele><time>2026-04-19T08:18:13.675Z</time></trkpt><trkpt lat="44.8850063" lon="8.0459952"><ele>222.57142857142858</ele><time>2026-04-19T08:18:15.672Z</time></trkpt><trkpt lat="44.8849646" lon="8.0459114"><ele>225.42857142857144</ele><time>2026-04-19T08:18:20.686Z</time></trkpt><trkpt lat="44.8848968" lon="8.0459339"><ele>228.2857142857143</ele><time>2026-04-19T08:18:23.681Z</time></trkpt><trkpt lat="44.8848518" lon="8.0460181"><ele>231.14285714285717</ele><time>2026-04-19T08:18:28.683Z</time></trkpt><trkpt lat="44.8847845" lon="8.0460413"><ele>234.0</ele><time>2026-04-19T08:18:31.691Z</time></trkpt><trkpt lat="44.8847399" lon="8.0461212"><ele>234.0</ele><time>2026-04-19T08:18:35.69Z</time></trkpt><trkpt lat="44.8847035" lon="8.0462318"><ele>234.0</ele><time>2026-04-19T08:18:39.683Z</time></trkpt><trkpt lat="44.884635" lon="8.0462937"><ele>234.0</ele><time>2026-04-19T08:18:42.685Z</time></trkpt><trkpt lat="44.88456" lon="8.0463052"><ele>234.0</ele><time>2026-04-19T08:18:44.694Z</time></trkpt><trkpt lat="44.8845043" lon="8.0463471"><ele>234.0</ele><time>2026-04-19T08:18:47.69Z</time></trkpt><trkpt lat="44.8844137" lon="8.0464086"><ele>234.0</ele><time>2026-04-19T08:18:50.687Z</time></trkpt><trkpt lat="44.8843335" lon="8.0464585"><ele>237.0</ele><time>2026-04-19T08:18:52.689Z</time></trkpt><trkpt lat="44.8842555" lon="8.0464719"><ele>239.99999999999997</ele><time>2026-04-19T08:18:54.69Z</time></trkpt><trkpt lat="44.884203" lon="8.0465577"><ele>242.99999999999997</ele><time>2026-04-19T08:20:14.697Z</time></trkpt><trkpt lat="44.8841494" lon="8.0466371"><ele>246.0</ele><time>2026-04-19T08:20:16.681Z</time></trkpt><trkpt lat="44.8841001" lon="8.0467531"><ele>249.0</ele><time>2026-04-19T08:20:18.688Z</time></trkpt><trkpt lat="44.8840243" lon="8.046883"><ele>250.66666666666666</ele><time>2026-04-19T08:20:20.685Z</time></trkpt><trkpt lat="44.8839788" lon="8.0469454"><ele>252.33333333333331</ele><time>2026-04-19T08:20:21.688Z</time></trkpt><trkpt lat="44.8839258" lon="8.0470049"><ele>254.0</ele><time>2026-04-19T08:20:22.681Z</time></trkpt><trkpt lat="44.8838318" lon="8.0471169"><ele>255.66666666666666</ele><time>2026-04-19T08:20:24.675Z</time></trkpt><trkpt lat="44.8837395" lon="8.0471949"><ele>257.3333333333333</ele><time>2026-04-19T08:20:26.68Z</time></trkpt><trkpt lat="44.8836876" lon="8.0472677"><ele>259.0</ele><time>2026-04-19T08:20:52.695Z</time></trkpt><trkpt lat="44.8836726" lon="8.0471554"><ele>259.0</ele><time>2026-04-19T08:21:03.69Z</time></trkpt><trkpt lat="44.8836618" lon="8.0470316"><ele>259.0</ele><time>2026-04-19T08:21:07.695Z</time></trkpt><trkpt lat="44.8836354" lon="8.0468865"><ele>259.0</ele><time>2026-04-19T08:21:09.713Z</time></trkpt><trkpt lat="44.8835505" lon="8.0467527"><ele>259.0</ele><time>2026-04-19T08:21:11.686Z</time></trkpt><trkpt lat="44.8834865" lon="8.0466774"><ele>259.0</ele><time>2026-04-19T08:21:12.689Z</time></trkpt><trkpt lat="44.883414" lon="8.0465899"><ele>260.16666666666663</ele><time>2026-04-19T08:21:13.693Z</time></trkpt><trkpt lat="44.8833442" lon="8.0464839"><ele>261.3333333333333</ele><time>2026-04-19T08:21:14.693Z</time></trkpt><trkpt lat="44.8832855" lon="8.0463769"><ele>262.5</ele><time>2026-04-19T08:21:15.688Z</time></trkpt><trkpt lat="44.8832387" lon="8.0462732"><ele>263.6666666666667</ele><time>2026-04-19T08:21:16.7Z</time></trkpt><trkpt lat="44.8831989" lon="8.0461821"><ele>264.83333333333337</ele><time>2026-04-19T08:21:17.694Z</time></trkpt><trkpt lat="44.8831617" lon="8.0460962"><ele>266.0</ele><time>2026-04-19T08:21:18.689Z</time></trkpt><trkpt lat="44.8831176" lon="8.0460151"><ele>266.0</ele><time>2026-04-19T08:21:19.692Z</time></trkpt><trkpt lat="44.8830653" lon="8.045936"><ele>266.0</ele><time>2026-04-19T08:21:20.689Z</time></trkpt><trkpt lat="44.8830102" lon="8.0458687"><ele>266.0</ele><time>2026-04-19T08:21:21.7Z</time></trkpt><trkpt lat="44.8829283" lon="8.045752"><ele>266.0</ele><time>2026-04-19T08:21:23.688Z</time></trkpt><trkpt lat="44.8828665" lon="8.0456463"><ele>266.0</ele><time>2026-04-19T08:21:25.686Z</time></trkpt><trkpt lat="44.8827953" lon="8.0455747"><ele>266.5</ele><time>2026-04-19T08:21:28.685Z</time></trkpt><trkpt lat="44.8827258" lon="8.0454398"><ele>267.0</ele><time>2026-04-19T08:21:30.684Z</time></trkpt><trkpt lat="44.8826943" lon="8.0453566"><ele>267.5</ele><time>2026-04-19T08:21:31.682Z</time></trkpt><trkpt lat="44.8826652" lon="8.0452349"><ele>268.0</ele><time>2026-04-19T08:21:33.682Z</time></trkpt><trkpt lat="44.8826338" lon="8.0451348"><ele>268.5</ele><time>2026-04-19T08:21:35.689Z</time></trkpt><trkpt lat="44.8825956" lon="8.045051"><ele>269.0</ele><time>2026-04-19T08:21:37.692Z</time></trkpt><trkpt lat="44.8825558" lon="8.0449393"><ele>269.0</ele><time>2026-04-19T08:21:39.685Z</time></trkpt><trkpt lat="44.8825021" lon="8.0448205"><ele>269.0</ele><time>2026-04-19T08:21:41.694Z</time></trkpt><trkpt lat="44.8824541" lon="8.0447378"><ele>269.0</ele><time>2026-04-19T08:21:43.689Z</time></trkpt><trkpt lat="44.8823754" lon="8.0447535"><ele>269.0</ele><time>2026-04-19T08:21:46.693Z</time></trkpt><trkpt lat="44.8822911" lon="8.0448348"><ele>269.0</ele><time>2026-04-19T08:21:48.689Z</time></trkpt><trkpt lat="44.882238" lon="8.0449"><ele>269.0</ele><time>2026-04-19T08:21:49.69Z</time></trkpt><trkpt lat="44.8821794" lon="8.0449635"><ele>269.0</ele><time>2026-04-19T08:21:50.689Z</time></trkpt><trkpt lat="44.8821295" lon="8.0450183"><ele>269.0</ele><time>2026-04-19T08:21:51.69Z</time></trkpt><trkpt lat="44.8820538" lon="8.0450881"><ele>269.0</ele><time>2026-04-19T08:21:53.694Z</time></trkpt><trkpt lat="44.8820168" lon="8.0451689"><ele>269.0</ele><time>2026-04-19T08:21:56.685Z</time></trkpt><trkpt lat="44.8820281" lon="8.0452944"><ele>269.0</ele><time>2026-04-19T08:21:58.696Z</time></trkpt><trkpt lat="44.8820544" lon="8.0454146"><ele>269.0</ele><time>2026-04-19T08:21:59.684Z</time></trkpt><trkpt lat="44.8820906" lon="8.045563"><ele>269.0</ele><time>2026-04-19T08:22:00.69Z</time></trkpt><trkpt lat="44.8821276" lon="8.0457028"><ele>269.0</ele><time>2026-04-19T08:22:01.686Z</time></trkpt><trkpt lat="44.8821661" lon="8.0458294"><ele>269.0</ele><time>2026-04-19T08:22:02.684Z</time></trkpt><trkpt lat="44.8822093" lon="8.0459349"><ele>269.0</ele><time>2026-04-19T08:22:03.686Z</time></trkpt><trkpt lat="44.8822535" lon="8.0460345"><ele>269.0</ele><time>2026-04-19T08:22:04.688Z</time></trkpt><trkpt lat="44.8822937" lon="8.0461361"><ele>270.0</ele><time>2026-04-19T08:22:05.69Z</time></trkpt><trkpt lat="44.8823348" lon="8.0462278"><ele>271.0</ele><time>2026-04-19T08:22:06.693Z</time></trkpt><trkpt lat="44.8823729" lon="8.0463126"><ele>272.0</ele><time>2026-04-19T08:22:07.694Z</time></trkpt><trkpt lat="44.8824059" lon="8.0463964"><ele>273.0</ele><time>2026-04-19T08:22:08.692Z</time></trkpt><trkpt lat="44.8824363" lon="8.0464827"><ele>274.0</ele><time>2026-04-19T08:22:09.692Z</time></trkpt><trkpt lat="44.8824636" lon="8.0465752"><ele>275.0</ele><time>2026-04-19T08:22:10.688Z</time></trkpt><trkpt lat="44.8824862" lon="8.0466658"><ele>276.0</ele><time>2026-04-19T08:22:11.71Z</time></trkpt><trkpt lat="44.8825253" lon="8.046817"><ele>275.8</ele><time>2026-04-19T08:22:13.692Z</time></trkpt><trkpt lat="44.8825526" lon="8.0469346"><ele>275.6</ele><time>2026-04-19T08:22:15.693Z</time></trkpt><trkpt lat="44.8825712" lon="8.0470453"><ele>275.4</ele><time>2026-04-19T08:22:17.696Z</time></trkpt><trkpt lat="44.8825936" lon="8.0471889"><ele>275.2</ele><time>2026-04-19T08:22:19.694Z</time></trkpt><trkpt lat="44.8826206" lon="8.0473436"><ele>275.0</ele><time>2026-04-19T08:22:21.694Z</time></trkpt><trkpt lat="44.8826371" lon="8.0474959"><ele>275.0</ele><time>2026-04-19T08:22:23.698Z</time></trkpt><trkpt lat="44.8826233" lon="8.0476535"><ele>275.0</ele><time>2026-04-19T08:22:25.704Z</time></trkpt><trkpt lat="44.882542" lon="8.0477802"><ele>275.0</ele><time>2026-04-19T08:22:27.699Z</time></trkpt><trkpt lat="44.8824868" lon="8.0478404"><ele>275.0</ele><time>2026-04-19T08:22:28.698Z</time></trkpt><trkpt lat="44.8823919" lon="8.0479428"><ele>275.0</ele><time>2026-04-19T08:22:30.695Z</time></trkpt><trkpt lat="44.8823361" lon="8.0479954"><ele>276.4</ele><time>2026-04-19T08:22:31.7Z</time></trkpt><trkpt lat="44.8822363" lon="8.0480948"><ele>277.8</ele><time>2026-04-19T08:22:33.695Z</time></trkpt><trkpt lat="44.8821343" lon="8.0481821"><ele>279.2</ele><time>2026-04-19T08:22:35.689Z</time></trkpt><trkpt lat="44.8820732" lon="8.0482408"><ele>280.6</ele><time>2026-04-19T08:22:36.692Z</time></trkpt><trkpt lat="44.8820029" lon="8.0482969"><ele>282.0</ele><time>2026-04-19T08:22:37.686Z</time></trkpt><trkpt lat="44.8819319" lon="8.0483626"><ele>282.0</ele><time>2026-04-19T08:22:38.687Z</time></trkpt><trkpt lat="44.8818617" lon="8.048435"><ele>282.0</ele><time>2026-04-19T08:22:39.682Z</time></trkpt><trkpt lat="44.8817901" lon="8.0484994"><ele>282.0</ele><time>2026-04-19T08:22:40.691Z</time></trkpt><trkpt lat="44.8817141" lon="8.0485609"><ele>282.0</ele><time>2026-04-19T08:22:41.692Z</time></trkpt><trkpt lat="44.8816346" lon="8.0486264"><ele>282.0</ele><time>2026-04-19T08:22:42.707Z</time></trkpt><trkpt lat="44.881552" lon="8.0486978"><ele>282.0</ele><time>2026-04-19T08:22:43.691Z</time></trkpt><trkpt lat="44.8814764" lon="8.0487659"><ele>282.0</ele><time>2026-04-19T08:22:44.69Z</time></trkpt><trkpt lat="44.8813989" lon="8.0488454"><ele>282.0</ele><time>2026-04-19T08:22:45.691Z</time></trkpt><trkpt lat="44.8813291" lon="8.0489317"><ele>282.0</ele><time>2026-04-19T08:22:46.693Z</time></trkpt><trkpt lat="44.881269" lon="8.0490193"><ele>282.0</ele><time>2026-04-19T08:22:47.694Z</time></trkpt><trkpt lat="44.8812111" lon="8.0491026"><ele>282.0</ele><time>2026-04-19T08:22:48.692Z</time></trkpt><trkpt lat="44.8811625" lon="8.0491745"><ele>282.0</ele><time>2026-04-19T08:22:49.695Z</time></trkpt><trkpt lat="44.8811196" lon="8.0492423"><ele>282.0</ele><time>2026-04-19T08:22:50.7Z</time></trkpt><trkpt lat="44.8810673" lon="8.0493106"><ele>282.0</ele><time>2026-04-19T08:22:53.697Z</time></trkpt><trkpt lat="44.8810683" lon="8.0492087"><ele>282.0</ele><time>2026-04-19T08:23:00.704Z</time></trkpt><trkpt lat="44.8810913" lon="8.0491"><ele>282.0</ele><time>2026-04-19T08:23:02.695Z</time></trkpt><trkpt lat="44.8810337" lon="8.0490211"><ele>282.0</ele><time>2026-04-19T08:23:04.698Z</time></trkpt><trkpt lat="44.8809637" lon="8.0489684"><ele>282.0</ele><time>2026-04-19T08:23:05.694Z</time></trkpt><trkpt lat="44.8808825" lon="8.0489002"><ele>281.0</ele><time>2026-04-19T08:23:06.682Z</time></trkpt><trkpt lat="44.8808077" lon="8.0488294"><ele>280.0</ele><time>2026-04-19T08:23:07.679Z</time></trkpt><trkpt lat="44.8807392" lon="8.0487765"><ele>279.0</ele><time>2026-04-19T08:23:08.692Z</time></trkpt><trkpt lat="44.880671" lon="8.048724"><ele>278.0</ele><time>2026-04-19T08:23:09.692Z</time></trkpt><trkpt lat="44.8806097" lon="8.0486777"><ele>277.0</ele><time>2026-04-19T08:23:10.688Z</time></trkpt><trkpt lat="44.8805465" lon="8.0486161"><ele>276.0</ele><time>2026-04-19T08:23:11.692Z</time></trkpt><trkpt lat="44.8804882" lon="8.0485482"><ele>276.0</ele><time>2026-04-19T08:23:12.684Z</time></trkpt><trkpt lat="44.880422" lon="8.0484642"><ele>276.0</ele><time>2026-04-19T08:23:13.707Z</time></trkpt><trkpt lat="44.8803496" lon="8.0483792"><ele>276.0</ele><time>2026-04-19T08:23:14.693Z</time></trkpt><trkpt lat="44.8802749" lon="8.0482944"><ele>276.0</ele><time>2026-04-19T08:23:15.697Z</time></trkpt><trkpt lat="44.8802016" lon="8.0482097"><ele>276.0</ele><time>2026-04-19T08:23:16.694Z</time></trkpt><trkpt lat="44.8801261" lon="8.0481316"><ele>273.6666666666667</ele><time>2026-04-19T08:23:17.697Z</time></trkpt><trkpt lat="44.8800526" lon="8.0480539"><ele>271.3333333333333</ele><time>2026-04-19T08:23:18.7Z</time></trkpt><trkpt lat="44.8799802" lon="8.0479781"><ele>269.0</ele><time>2026-04-19T08:23:19.699Z</time></trkpt><trkpt lat="44.8799041" lon="8.0479156"><ele>266.66666666666663</ele><time>2026-04-19T08:23:20.694Z</time></trkpt><trkpt lat="44.8798358" lon="8.0478604"><ele>264.3333333333333</ele><time>2026-04-19T08:23:21.687Z</time></trkpt><trkpt lat="44.8797793" lon="8.0478072"><ele>262.0</ele><time>2026-04-19T08:23:22.694Z</time></trkpt><trkpt lat="44.8797795" lon="8.0479044"><ele>262.0</ele><time>2026-04-19T08:23:32.685Z</time></trkpt><trkpt lat="44.8797449" lon="8.0480461"><ele>262.0</ele><time>2026-04-19T08:23:33.673Z</time></trkpt><trkpt lat="44.8796988" lon="8.0481755"><ele>262.0</ele><time>2026-04-19T08:23:34.673Z</time></trkpt><trkpt lat="44.8796088" lon="8.0482685"><ele>262.0</ele><time>2026-04-19T08:23:36.68Z</time></trkpt><trkpt lat="44.8795343" lon="8.0482665"><ele>262.0</ele><time>2026-04-19T08:23:37.673Z</time></trkpt><trkpt lat="44.8794339" lon="8.0482513"><ele>262.0</ele><time>2026-04-19T08:23:38.685Z</time></trkpt><trkpt lat="44.8793312" lon="8.0482787"><ele>262.0</ele><time>2026-04-19T08:23:39.677Z</time></trkpt><trkpt lat="44.8792502" lon="8.0483234"><ele>262.0</ele><time>2026-04-19T08:23:40.686Z</time></trkpt><trkpt lat="44.8791771" lon="8.0483539"><ele>262.0</ele><time>2026-04-19T08:23:41.69Z</time></trkpt><trkpt lat="44.8790936" lon="8.0483572"><ele>262.0</ele><time>2026-04-19T08:23:42.693Z</time></trkpt><trkpt lat="44.8790207" lon="8.0483609"><ele>262.0</ele><time>2026-04-19T08:23:43.693Z</time></trkpt><trkpt lat="44.8789508" lon="8.0483542"><ele>262.5</ele><time>2026-04-19T08:23:44.705Z</time></trkpt><trkpt lat="44.8789006" lon="8.0482965"><ele>263.0</ele><time>2026-04-19T08:23:45.688Z</time></trkpt><trkpt lat="44.8787949" lon="8.0481913"><ele>263.5</ele><time>2026-04-19T08:23:47.689Z</time></trkpt><trkpt lat="44.8787301" lon="8.0481398"><ele>264.0</ele><time>2026-04-19T08:23:48.692Z</time></trkpt><trkpt lat="44.8786735" lon="8.048098"><ele>264.5</ele><time>2026-04-19T08:23:49.697Z</time></trkpt><trkpt lat="44.8785876" lon="8.0479875"><ele>265.0</ele><time>2026-04-19T08:23:51.691Z</time></trkpt><trkpt lat="44.8784955" lon="8.0478966"><ele>262.8</ele><time>2026-04-19T08:23:53.689Z</time></trkpt><trkpt lat="44.8784147" lon="8.0477971"><ele>260.6</ele><time>2026-04-19T08:23:55.692Z</time></trkpt><trkpt lat="44.8783462" lon="8.0477081"><ele>258.4</ele><time>2026-04-19T08:23:57.702Z</time></trkpt><trkpt lat="44.8782561" lon="8.0476227"><ele>256.2</ele><time>2026-04-19T08:23:59.694Z</time></trkpt><trkpt lat="44.8781955" lon="8.0475948"><ele>254.0</ele><time>2026-04-19T08:24:00.693Z</time></trkpt><trkpt lat="44.8780851" lon="8.0475446"><ele>254.0</ele><time>2026-04-19T08:24:02.69Z</time></trkpt><trkpt lat="44.8779947" lon="8.0474883"><ele>253.99999999999997</ele><time>2026-04-19T08:24:04.683Z</time></trkpt><trkpt lat="44.8779579" lon="8.0473952"><ele>253.99999999999997</ele><time>2026-04-19T08:24:06.682Z</time></trkpt><trkpt lat="44.8779301" lon="8.0472602"><ele>254.0</ele><time>2026-04-19T08:24:08.69Z</time></trkpt><trkpt lat="44.8779074" lon="8.047127"><ele>254.0</ele><time>2026-04-19T08:24:10.692Z</time></trkpt><trkpt lat="44.877893" lon="8.0470159"><ele>252.33333333333334</ele><time>2026-04-19T08:24:12.689Z</time></trkpt><trkpt lat="44.8778875" lon="8.0468847"><ele>250.66666666666669</ele><time>2026-04-19T08:24:14.691Z</time></trkpt><trkpt lat="44.8778415" lon="8.0468034"><ele>249.0</ele><time>2026-04-19T08:24:16.686Z</time></trkpt><trkpt lat="44.877774" lon="8.0467107"><ele>247.33333333333331</ele><time>2026-04-19T08:24:18.69Z</time></trkpt><trkpt lat="44.8777489" lon="8.0466151"><ele>245.66666666666666</ele><time>2026-04-19T08:24:20.684Z</time></trkpt><trkpt lat="44.8777519" lon="8.0465046"><ele>244.0</ele><time>2026-04-19T08:24:22.687Z</time></trkpt><trkpt lat="44.8777961" lon="8.0464332"><ele>241.71428571428567</ele><time>2026-04-19T08:24:24.673Z</time></trkpt><trkpt lat="44.8778101" lon="8.0463452"><ele>239.42857142857142</ele><time>2026-04-19T08:24:29.672Z</time></trkpt><trkpt lat="44.8777335" lon="8.0462998"><ele>237.1428571428571</ele><time>2026-04-19T08:24:33.681Z</time></trkpt><trkpt lat="44.87764" lon="8.0462834"><ele>234.85714285714283</ele><time>2026-04-19T08:24:36.678Z</time></trkpt><trkpt lat="44.8775669" lon="8.0462869"><ele>232.57142857142856</ele><time>2026-04-19T08:24:39.681Z</time></trkpt><trkpt lat="44.8775024" lon="8.046295"><ele>230.28571428571428</ele><time>2026-04-19T08:24:41.676Z</time></trkpt><trkpt lat="44.8774334" lon="8.0463119"><ele>228.0</ele><time>2026-04-19T08:24:43.676Z</time></trkpt><trkpt lat="44.8773489" lon="8.0463557"><ele>228.33333333333334</ele><time>2026-04-19T08:24:46.704Z</time></trkpt><trkpt lat="44.8772943" lon="8.0464095"><ele>228.66666666666669</ele><time>2026-04-19T08:24:48.677Z</time></trkpt><trkpt lat="44.8772536" lon="8.0465008"><ele>229.0</ele><time>2026-04-19T08:24:51.678Z</time></trkpt><trkpt lat="44.877215" lon="8.0465889"><ele>229.33333333333334</ele><time>2026-04-19T08:24:53.682Z</time></trkpt><trkpt lat="44.8771828" lon="8.046714"><ele>229.66666666666669</ele><time>2026-04-19T08:24:55.675Z</time></trkpt><trkpt lat="44.8771744" lon="8.0468395"><ele>230.0</ele><time>2026-04-19T08:24:57.679Z</time></trkpt><trkpt lat="44.8771363" lon="8.0469227"><ele>230.00000000000003</ele><time>2026-04-19T08:24:59.679Z</time></trkpt><trkpt lat="44.8770869" lon="8.0470204"><ele>230.0</ele><time>2026-04-19T08:25:01.68Z</time></trkpt><trkpt lat="44.8770549" lon="8.0471345"><ele>230.0</ele><time>2026-04-19T08:25:03.68Z</time></trkpt><trkpt lat="44.8770361" lon="8.0472241"><ele>230.0</ele><time>2026-04-19T08:25:05.678Z</time></trkpt><trkpt lat="44.8769976" lon="8.0473279"><ele>230.00000000000003</ele><time>2026-04-19T08:25:07.677Z</time></trkpt><trkpt lat="44.8769468" lon="8.0474536"><ele>230.0</ele><time>2026-04-19T08:25:09.681Z</time></trkpt><trkpt lat="44.8768895" lon="8.0475824"><ele>230.6</ele><time>2026-04-19T08:25:11.68Z</time></trkpt><trkpt lat="44.8768434" lon="8.0476872"><ele>231.2</ele><time>2026-04-19T08:25:13.685Z</time></trkpt><trkpt lat="44.87678" lon="8.0477451"><ele>231.8</ele><time>2026-04-19T08:25:17.678Z</time></trkpt><trkpt lat="44.8767542" lon="8.0476202"><ele>232.4</ele><time>2026-04-19T08:25:20.683Z</time></trkpt><trkpt lat="44.8766997" lon="8.0475358"><ele>233.0</ele><time>2026-04-19T08:25:22.685Z</time></trkpt><trkpt lat="44.8765815" lon="8.0474836"><ele>229.0</ele><time>2026-04-19T08:25:24.68Z</time></trkpt><trkpt lat="44.8765088" lon="8.0474744"><ele>225.0</ele><time>2026-04-19T08:25:25.685Z</time></trkpt><trkpt lat="44.8764432" lon="8.0474548"><ele>221.0</ele><time>2026-04-19T08:25:26.683Z</time></trkpt><trkpt lat="44.876333" lon="8.0474018"><ele>217.0</ele><time>2026-04-19T08:25:28.688Z</time></trkpt><trkpt lat="44.8763164" lon="8.0472997"><ele>213.0</ele><time>2026-04-19T08:25:30.679Z</time></trkpt><trkpt lat="44.8763785" lon="8.0471506"><ele>213.0</ele><time>2026-04-19T08:25:32.678Z</time></trkpt><trkpt lat="44.8764132" lon="8.0470677"><ele>213.0</ele><time>2026-04-19T08:25:33.671Z</time></trkpt><trkpt lat="44.876444" lon="8.0469742"><ele>213.0</ele><time>2026-04-19T08:25:34.681Z</time></trkpt><trkpt lat="44.8764894" lon="8.0468253"><ele>213.0</ele><time>2026-04-19T08:25:36.683Z</time></trkpt><trkpt lat="44.8765393" lon="8.046669"><ele>213.0</ele><time>2026-04-19T08:25:38.69Z</time></trkpt><trkpt lat="44.8765694" lon="8.046586"><ele>213.0</ele><time>2026-04-19T08:25:39.691Z</time></trkpt><trkpt lat="44.8766009" lon="8.0465065"><ele>213.66666666666666</ele><time>2026-04-19T08:25:40.69Z</time></trkpt><trkpt lat="44.8766309" lon="8.0464189"><ele>214.33333333333331</ele><time>2026-04-19T08:25:41.687Z</time></trkpt><trkpt lat="44.8766677" lon="8.0463233"><ele>215.0</ele><time>2026-04-19T08:25:42.689Z</time></trkpt><trkpt lat="44.8767043" lon="8.0462334"><ele>215.66666666666666</ele><time>2026-04-19T08:25:43.69Z</time></trkpt><trkpt lat="44.8767387" lon="8.0461498"><ele>216.33333333333331</ele><time>2026-04-19T08:25:44.688Z</time></trkpt><trkpt lat="44.876812" lon="8.046007"><ele>217.0</ele><time>2026-04-19T08:25:46.682Z</time></trkpt><trkpt lat="44.8768554" lon="8.0459314"><ele>217.16666666666666</ele><time>2026-04-19T08:25:47.696Z</time></trkpt><trkpt lat="44.8769013" lon="8.0458494"><ele>217.33333333333331</ele><time>2026-04-19T08:25:48.682Z</time></trkpt><trkpt lat="44.8769434" lon="8.045761"><ele>217.5</ele><time>2026-04-19T08:25:49.681Z</time></trkpt><trkpt lat="44.8769759" lon="8.0456788"><ele>217.66666666666669</ele><time>2026-04-19T08:25:50.687Z</time></trkpt><trkpt lat="44.8770247" lon="8.0455238"><ele>217.83333333333334</ele><time>2026-04-19T08:25:52.689Z</time></trkpt><trkpt lat="44.8770452" lon="8.0453835"><ele>218.0</ele><time>2026-04-19T08:25:54.681Z</time></trkpt><trkpt lat="44.8770692" lon="8.0452767"><ele>218.0</ele><time>2026-04-19T08:25:56.681Z</time></trkpt><trkpt lat="44.8770799" lon="8.0451823"><ele>218.0</ele><time>2026-04-19T08:25:58.68Z</time></trkpt><trkpt lat="44.8770917" lon="8.0450611"><ele>218.0</ele><time>2026-04-19T08:26:00.672Z</time></trkpt><trkpt lat="44.8770697" lon="8.0449094"><ele>218.0</ele><time>2026-04-19T08:26:02.677Z</time></trkpt><trkpt lat="44.8770257" lon="8.044775"><ele>218.0</ele><time>2026-04-19T08:26:04.676Z</time></trkpt><trkpt lat="44.8770192" lon="8.0446253"><ele>218.0</ele><time>2026-04-19T08:26:06.673Z</time></trkpt><trkpt lat="44.8770363" lon="8.0444974"><ele>218.0</ele><time>2026-04-19T08:26:08.677Z</time></trkpt><trkpt lat="44.8770637" lon="8.0443624"><ele>218.0</ele><time>2026-04-19T08:26:10.676Z</time></trkpt><trkpt lat="44.8771046" lon="8.0442391"><ele>218.0</ele><time>2026-04-19T08:26:12.678Z</time></trkpt><trkpt lat="44.8771329" lon="8.0441058"><ele>218.0</ele><time>2026-04-19T08:26:14.681Z</time></trkpt><trkpt lat="44.8771623" lon="8.043991"><ele>218.00000000000003</ele><time>2026-04-19T08:26:16.678Z</time></trkpt><trkpt lat="44.8772062" lon="8.0438456"><ele>218.0</ele><time>2026-04-19T08:26:18.691Z</time></trkpt><trkpt lat="44.8772349" lon="8.043764"><ele>218.0</ele><time>2026-04-19T08:26:19.681Z</time></trkpt><trkpt lat="44.8772655" lon="8.0436686"><ele>218.0</ele><time>2026-04-19T08:26:20.677Z</time></trkpt><trkpt lat="44.8772953" lon="8.0435674"><ele>218.00000000000003</ele><time>2026-04-19T08:26:21.673Z</time></trkpt><trkpt lat="44.8773171" lon="8.043475"><ele>218.0</ele><time>2026-04-19T08:26:22.676Z</time></trkpt><trkpt lat="44.877332" lon="8.0433855"><ele>218.16666666666669</ele><time>2026-04-19T08:26:23.678Z</time></trkpt><trkpt lat="44.8773445" lon="8.043284"><ele>218.33333333333334</ele><time>2026-04-19T08:26:24.68Z</time></trkpt><trkpt lat="44.8773572" lon="8.0431819"><ele>218.5</ele><time>2026-04-19T08:26:25.676Z</time></trkpt><trkpt lat="44.8773774" lon="8.0430753"><ele>218.66666666666669</ele><time>2026-04-19T08:26:26.672Z</time></trkpt><trkpt lat="44.8773974" lon="8.0429664"><ele>218.83333333333334</ele><time>2026-04-19T08:26:27.68Z</time></trkpt><trkpt lat="44.8774141" lon="8.0428561"><ele>219.0</ele><time>2026-04-19T08:26:28.68Z</time></trkpt><trkpt lat="44.8774359" lon="8.0427638"><ele>219.0</ele><time>2026-04-19T08:26:29.678Z</time></trkpt><trkpt lat="44.8774596" lon="8.0426802"><ele>219.0</ele><time>2026-04-19T08:26:30.677Z</time></trkpt><trkpt lat="44.8774761" lon="8.0425858"><ele>219.0</ele><time>2026-04-19T08:26:31.676Z</time></trkpt><trkpt lat="44.8775012" lon="8.0424117"><ele>219.0</ele><time>2026-04-19T08:26:33.679Z</time></trkpt><trkpt lat="44.8775033" lon="8.0423092"><ele>219.0</ele><time>2026-04-19T08:26:34.678Z</time></trkpt><trkpt lat="44.8775122" lon="8.0422036"><ele>219.0</ele><time>2026-04-19T08:26:35.67Z</time></trkpt><trkpt lat="44.8775218" lon="8.0421007"><ele>219.66666666666666</ele><time>2026-04-19T08:26:36.679Z</time></trkpt><trkpt lat="44.8775282" lon="8.0419962"><ele>220.33333333333331</ele><time>2026-04-19T08:26:37.666Z</time></trkpt><trkpt lat="44.8775362" lon="8.0419021"><ele>221.0</ele><time>2026-04-19T08:26:38.677Z</time></trkpt><trkpt lat="44.8775439" lon="8.0418052"><ele>221.66666666666666</ele><time>2026-04-19T08:26:39.677Z</time></trkpt><trkpt lat="44.87755" lon="8.0416553"><ele>222.33333333333331</ele><time>2026-04-19T08:26:41.681Z</time></trkpt><trkpt lat="44.8775383" lon="8.0415315"><ele>223.0</ele><time>2026-04-19T08:26:43.676Z</time></trkpt><trkpt lat="44.8775341" lon="8.0414286"><ele>224.2</ele><time>2026-04-19T08:26:45.669Z</time></trkpt><trkpt lat="44.8775441" lon="8.0412976"><ele>225.4</ele><time>2026-04-19T08:26:47.675Z</time></trkpt><trkpt lat="44.8775736" lon="8.0411351"><ele>226.59999999999997</ele><time>2026-04-19T08:26:49.693Z</time></trkpt><trkpt lat="44.8775887" lon="8.0410426"><ele>227.79999999999998</ele><time>2026-04-19T08:26:50.671Z</time></trkpt><trkpt lat="44.8776022" lon="8.0408722"><ele>229.0</ele><time>2026-04-19T08:26:52.674Z</time></trkpt><trkpt lat="44.8776073" lon="8.0407748"><ele>229.2</ele><time>2026-04-19T08:26:53.677Z</time></trkpt><trkpt lat="44.8776036" lon="8.0406584"><ele>229.39999999999998</ele><time>2026-04-19T08:26:54.678Z</time></trkpt><trkpt lat="44.8776155" lon="8.0405289"><ele>229.6</ele><time>2026-04-19T08:26:55.668Z</time></trkpt><trkpt lat="44.8776308" lon="8.0403996"><ele>229.8</ele><time>2026-04-19T08:26:56.673Z</time></trkpt><trkpt lat="44.8776475" lon="8.0402545"><ele>230.0</ele><time>2026-04-19T08:26:57.675Z</time></trkpt><trkpt lat="44.8776609" lon="8.0401211"><ele>230.00000000000003</ele><time>2026-04-19T08:26:58.67Z</time></trkpt><trkpt lat="44.8776722" lon="8.0399842"><ele>230.0</ele><time>2026-04-19T08:26:59.675Z</time></trkpt><trkpt lat="44.8776653" lon="8.0398593"><ele>230.0</ele><time>2026-04-19T08:27:00.669Z</time></trkpt><trkpt lat="44.8776499" lon="8.0397494"><ele>230.0</ele><time>2026-04-19T08:27:01.673Z</time></trkpt><trkpt lat="44.8776224" lon="8.0396335"><ele>230.00000000000003</ele><time>2026-04-19T08:27:02.679Z</time></trkpt><trkpt lat="44.8775829" lon="8.0395235"><ele>230.0</ele><time>2026-04-19T08:27:03.672Z</time></trkpt><trkpt lat="44.8775322" lon="8.0394165"><ele>229.8</ele><time>2026-04-19T08:27:04.671Z</time></trkpt><trkpt lat="44.8774809" lon="8.0393024"><ele>229.6</ele><time>2026-04-19T08:27:05.68Z</time></trkpt><trkpt lat="44.8774132" lon="8.039209"><ele>229.39999999999998</ele><time>2026-04-19T08:27:06.676Z</time></trkpt><trkpt lat="44.8773447" lon="8.0391539"><ele>229.2</ele><time>2026-04-19T08:27:07.676Z</time></trkpt><trkpt lat="44.8772834" lon="8.0391064"><ele>229.0</ele><time>2026-04-19T08:27:08.674Z</time></trkpt><trkpt lat="44.8771743" lon="8.0389969"><ele>231.49999999999997</ele><time>2026-04-19T08:27:10.673Z</time></trkpt><trkpt lat="44.8771164" lon="8.0388968"><ele>234.0</ele><time>2026-04-19T08:27:11.679Z</time></trkpt><trkpt lat="44.8770638" lon="8.0387885"><ele>236.5</ele><time>2026-04-19T08:27:12.685Z</time></trkpt><trkpt lat="44.8770117" lon="8.0386945"><ele>239.0</ele><time>2026-04-19T08:27:13.677Z</time></trkpt><trkpt lat="44.8769591" lon="8.0386222"><ele>241.49999999999997</ele><time>2026-04-19T08:27:14.679Z</time></trkpt><trkpt lat="44.8769057" lon="8.0385601"><ele>244.0</ele><time>2026-04-19T08:27:15.678Z</time></trkpt><trkpt lat="44.8768448" lon="8.0384932"><ele>243.99999999999997</ele><time>2026-04-19T08:27:16.678Z</time></trkpt><trkpt lat="44.8767842" lon="8.0384166"><ele>244.0</ele><time>2026-04-19T08:27:17.684Z</time></trkpt><trkpt lat="44.8767332" lon="8.0383323"><ele>244.0</ele><time>2026-04-19T08:27:18.681Z</time></trkpt><trkpt lat="44.8766813" lon="8.0382423"><ele>244.0</ele><time>2026-04-19T08:27:19.688Z</time></trkpt><trkpt lat="44.8766314" lon="8.0381417"><ele>243.99999999999997</ele><time>2026-04-19T08:27:20.696Z</time></trkpt><trkpt lat="44.8765905" lon="8.0380458"><ele>244.0</ele><time>2026-04-19T08:27:21.675Z</time></trkpt><trkpt lat="44.876545" lon="8.0379638"><ele>243.33333333333331</ele><time>2026-04-19T08:27:22.691Z</time></trkpt><trkpt lat="44.8764954" lon="8.0379047"><ele>242.66666666666666</ele><time>2026-04-19T08:27:23.681Z</time></trkpt><trkpt lat="44.8764366" lon="8.0378603"><ele>242.0</ele><time>2026-04-19T08:27:24.676Z</time></trkpt><trkpt lat="44.8763389" lon="8.0377809"><ele>241.33333333333331</ele><time>2026-04-19T08:27:26.685Z</time></trkpt><trkpt lat="44.8762983" lon="8.0377123"><ele>240.66666666666666</ele><time>2026-04-19T08:27:27.676Z</time></trkpt><trkpt lat="44.8762636" lon="8.0376149"><ele>240.0</ele><time>2026-04-19T08:27:28.68Z</time></trkpt><trkpt lat="44.8762348" lon="8.0375076"><ele>241.66666666666666</ele><time>2026-04-19T08:27:29.678Z</time></trkpt><trkpt lat="44.8762183" lon="8.037406"><ele>243.33333333333331</ele><time>2026-04-19T08:27:30.689Z</time></trkpt><trkpt lat="44.8761982" lon="8.0372925"><ele>245.0</ele><time>2026-04-19T08:27:31.678Z</time></trkpt><trkpt lat="44.8761731" lon="8.037184"><ele>246.66666666666666</ele><time>2026-04-19T08:27:32.683Z</time></trkpt><trkpt lat="44.8761456" lon="8.0370718"><ele>248.33333333333331</ele><time>2026-04-19T08:27:33.685Z</time></trkpt><trkpt lat="44.8761113" lon="8.0369593"><ele>250.0</ele><time>2026-04-19T08:27:34.677Z</time></trkpt><trkpt lat="44.876071" lon="8.0368672"><ele>249.99999999999997</ele><time>2026-04-19T08:27:35.678Z</time></trkpt><trkpt lat="44.8760282" lon="8.0367891"><ele>250.0</ele><time>2026-04-19T08:27:36.683Z</time></trkpt><trkpt lat="44.8759484" lon="8.036657"><ele>250.0</ele><time>2026-04-19T08:27:38.681Z</time></trkpt><trkpt lat="44.8759113" lon="8.0365727"><ele>250.0</ele><time>2026-04-19T08:27:40.678Z</time></trkpt><trkpt lat="44.8758918" lon="8.0364654"><ele>249.99999999999997</ele><time>2026-04-19T08:27:43.681Z</time></trkpt><trkpt lat="44.8758391" lon="8.0363543"><ele>250.0</ele><time>2026-04-19T08:27:46.68Z</time></trkpt><trkpt lat="44.875816" lon="8.0362222"><ele>248.8</ele><time>2026-04-19T08:27:48.672Z</time></trkpt><trkpt lat="44.8758205" lon="8.0360824"><ele>247.6</ele><time>2026-04-19T08:27:50.681Z</time></trkpt><trkpt lat="44.8758255" lon="8.0359853"><ele>246.39999999999998</ele><time>2026-04-19T08:27:52.679Z</time></trkpt><trkpt lat="44.8757221" lon="8.0359302"><ele>245.2</ele><time>2026-04-19T08:27:59.683Z</time></trkpt><trkpt lat="44.8756509" lon="8.0358233"><ele>244.0</ele><time>2026-04-19T08:28:01.679Z</time></trkpt><trkpt lat="44.8755793" lon="8.0356851"><ele>243.99999999999997</ele><time>2026-04-19T08:28:03.673Z</time></trkpt><trkpt lat="44.8755261" lon="8.035628"><ele>244.0</ele><time>2026-04-19T08:28:04.679Z</time></trkpt><trkpt lat="44.8754686" lon="8.0355612"><ele>243.99999999999997</ele><time>2026-04-19T08:28:05.672Z</time></trkpt><trkpt lat="44.8754166" lon="8.035485"><ele>243.99999999999997</ele><time>2026-04-19T08:28:06.672Z</time></trkpt><trkpt lat="44.8753508" lon="8.0354128"><ele>244.0</ele><time>2026-04-19T08:28:07.671Z</time></trkpt><trkpt lat="44.8752941" lon="8.0353516"><ele>243.99999999999997</ele><time>2026-04-19T08:28:08.674Z</time></trkpt><trkpt lat="44.8752469" lon="8.0352895"><ele>243.99999999999997</ele><time>2026-04-19T08:28:09.67Z</time></trkpt><trkpt lat="44.8752005" lon="8.035224"><ele>243.99999999999997</ele><time>2026-04-19T08:28:10.674Z</time></trkpt><trkpt lat="44.8751299" lon="8.0350649"><ele>244.0</ele><time>2026-04-19T08:28:12.676Z</time></trkpt><trkpt lat="44.8750872" lon="8.0349981"><ele>244.0</ele><time>2026-04-19T08:28:13.67Z</time></trkpt><trkpt lat="44.8750414" lon="8.0349218"><ele>244.0</ele><time>2026-04-19T08:28:14.68Z</time></trkpt><trkpt lat="44.8749712" lon="8.0348684"><ele>243.99999999999997</ele><time>2026-04-19T08:28:15.67Z</time></trkpt><trkpt lat="44.8748982" lon="8.034807"><ele>244.0</ele><time>2026-04-19T08:28:16.67Z</time></trkpt><trkpt lat="44.8748434" lon="8.0347442"><ele>245.75</ele><time>2026-04-19T08:28:17.672Z</time></trkpt><trkpt lat="44.8747456" lon="8.0346203"><ele>247.5</ele><time>2026-04-19T08:28:19.673Z</time></trkpt><trkpt lat="44.8746432" lon="8.0345093"><ele>249.25</ele><time>2026-04-19T08:28:21.676Z</time></trkpt><trkpt lat="44.8745685" lon="8.0344262"><ele>251.0</ele><time>2026-04-19T08:28:23.677Z</time></trkpt><trkpt lat="44.8744805" lon="8.0343119"><ele>251.0</ele><time>2026-04-19T08:28:25.677Z</time></trkpt><trkpt lat="44.8743905" lon="8.0341874"><ele>251.00000000000003</ele><time>2026-04-19T08:28:27.673Z</time></trkpt><trkpt lat="44.8743511" lon="8.0341094"><ele>251.00000000000003</ele><time>2026-04-19T08:28:28.678Z</time></trkpt><trkpt lat="44.8742837" lon="8.0339845"><ele>251.0</ele><time>2026-04-19T08:28:30.678Z</time></trkpt><trkpt lat="44.8741975" lon="8.033907"><ele>251.0</ele><time>2026-04-19T08:28:32.673Z</time></trkpt><trkpt lat="44.8741124" lon="8.0338504"><ele>249.20000000000002</ele><time>2026-04-19T08:28:34.669Z</time></trkpt><trkpt lat="44.8740003" lon="8.0337935"><ele>247.40000000000003</ele><time>2026-04-19T08:28:36.669Z</time></trkpt><trkpt lat="44.8739006" lon="8.0337328"><ele>245.6</ele><time>2026-04-19T08:28:38.676Z</time></trkpt><trkpt lat="44.8738206" lon="8.0336801"><ele>243.8</ele><time>2026-04-19T08:28:40.671Z</time></trkpt><trkpt lat="44.8738087" lon="8.0335703"><ele>242.0</ele><time>2026-04-19T08:28:43.672Z</time></trkpt><trkpt lat="44.8738481" lon="8.0334656"><ele>242.00000000000003</ele><time>2026-04-19T08:28:45.676Z</time></trkpt><trkpt lat="44.8738677" lon="8.0333594"><ele>242.0</ele><time>2026-04-19T08:28:47.674Z</time></trkpt><trkpt lat="44.8738289" lon="8.0332471"><ele>242.0</ele><time>2026-04-19T08:28:50.676Z</time></trkpt><trkpt lat="44.8737874" lon="8.0331597"><ele>242.0</ele><time>2026-04-19T08:28:52.673Z</time></trkpt><trkpt lat="44.873764" lon="8.0330391"><ele>242.00000000000003</ele><time>2026-04-19T08:28:54.677Z</time></trkpt><trkpt lat="44.873701" lon="8.0329377"><ele>242.0</ele><time>2026-04-19T08:28:56.673Z</time></trkpt><trkpt lat="44.8736181" lon="8.0328141"><ele>243.0</ele><time>2026-04-19T08:28:58.675Z</time></trkpt><trkpt lat="44.8735813" lon="8.0327349"><ele>244.0</ele><time>2026-04-19T08:28:59.675Z</time></trkpt><trkpt lat="44.8735275" lon="8.0326132"><ele>245.0</ele><time>2026-04-19T08:29:01.67Z</time></trkpt><trkpt lat="44.8735106" lon="8.0325078"><ele>246.0</ele><time>2026-04-19T08:29:28.681Z</time></trkpt><trkpt lat="44.8734642" lon="8.032398"><ele>247.0</ele><time>2026-04-19T08:29:31.675Z</time></trkpt><trkpt lat="44.8733625" lon="8.0323034"><ele>246.99999999999997</ele><time>2026-04-19T08:29:33.674Z</time></trkpt><trkpt lat="44.873292" lon="8.0322726"><ele>247.0</ele><time>2026-04-19T08:29:34.672Z</time></trkpt><trkpt lat="44.8732155" lon="8.0322241"><ele>247.0</ele><time>2026-04-19T08:29:35.671Z</time></trkpt><trkpt lat="44.8731334" lon="8.0321702"><ele>247.0</ele><time>2026-04-19T08:29:36.673Z</time></trkpt><trkpt lat="44.8730675" lon="8.0321226"><ele>246.99999999999997</ele><time>2026-04-19T08:29:37.679Z</time></trkpt><trkpt lat="44.8729824" lon="8.032084"><ele>247.0</ele><time>2026-04-19T08:29:39.681Z</time></trkpt><trkpt lat="44.8728913" lon="8.0320646"><ele>246.99999999999997</ele><time>2026-04-19T08:29:43.666Z</time></trkpt><trkpt lat="44.8728052" lon="8.0320525"><ele>247.0</ele><time>2026-04-19T08:29:46.663Z</time></trkpt><trkpt lat="44.8727472" lon="8.0320018"><ele>247.0</ele><time>2026-04-19T08:29:49.664Z</time></trkpt><trkpt lat="44.8727736" lon="8.0318826"><ele>247.0</ele><time>2026-04-19T08:29:54.685Z</time></trkpt><trkpt lat="44.8727743" lon="8.0317785"><ele>246.99999999999997</ele><time>2026-04-19T08:29:56.674Z</time></trkpt><trkpt lat="44.8727659" lon="8.0316558"><ele>247.0</ele><time>2026-04-19T08:29:59.676Z</time></trkpt><trkpt lat="44.8727712" lon="8.0315446"><ele>248.83333333333331</ele><time>2026-04-19T08:30:01.673Z</time></trkpt><trkpt lat="44.8727597" lon="8.0314358"><ele>250.66666666666666</ele><time>2026-04-19T08:30:03.676Z</time></trkpt><trkpt lat="44.8727597" lon="8.0313176"><ele>252.5</ele><time>2026-04-19T08:30:05.677Z</time></trkpt><trkpt lat="44.8727613" lon="8.0312257"><ele>254.33333333333331</ele><time>2026-04-19T08:30:07.69Z</time></trkpt><trkpt lat="44.872764" lon="8.0311015"><ele>256.1666666666667</ele><time>2026-04-19T08:30:10.682Z</time></trkpt><trkpt lat="44.8727658" lon="8.03097"><ele>258.0</ele><time>2026-04-19T08:30:12.685Z</time></trkpt><trkpt lat="44.8727747" lon="8.0308226"><ele>260.0</ele><time>2026-04-19T08:30:14.686Z</time></trkpt><trkpt lat="44.872769" lon="8.0306853"><ele>262.0</ele><time>2026-04-19T08:30:16.685Z</time></trkpt><trkpt lat="44.8727868" lon="8.0305401"><ele>264.0</ele><time>2026-04-19T08:30:18.687Z</time></trkpt><trkpt lat="44.8728086" lon="8.0304441"><ele>266.0</ele><time>2026-04-19T08:30:21.692Z</time></trkpt><trkpt lat="44.8727903" lon="8.0303539"><ele>268.0</ele><time>2026-04-19T08:30:33.687Z</time></trkpt><trkpt lat="44.8727813" lon="8.0302549"><ele>270.0</ele><time>2026-04-19T08:30:35.691Z</time></trkpt><trkpt lat="44.8727636" lon="8.0301668"><ele>270.0</ele><time>2026-04-19T08:30:37.677Z</time></trkpt><trkpt lat="44.8727215" lon="8.0300805"><ele>270.0</ele><time>2026-04-19T08:30:39.683Z</time></trkpt><trkpt lat="44.8726806" lon="8.0300017"><ele>270.0</ele><time>2026-04-19T08:30:41.684Z</time></trkpt><trkpt lat="44.8726192" lon="8.0300571"><ele>270.0</ele><time>2026-04-19T08:30:47.673Z</time></trkpt><trkpt lat="44.8725949" lon="8.0301522"><ele>270.0</ele><time>2026-04-19T08:30:50.666Z</time></trkpt><trkpt lat="44.8724876" lon="8.0301663"><ele>270.0</ele><time>2026-04-19T08:30:55.677Z</time></trkpt><trkpt lat="44.8723658" lon="8.0301085"><ele>270.8333333333333</ele><time>2026-04-19T08:30:57.691Z</time></trkpt><trkpt lat="44.8723151" lon="8.0300419"><ele>271.6666666666667</ele><time>2026-04-19T08:30:58.689Z</time></trkpt><trkpt lat="44.8722591" lon="8.0299629"><ele>272.5</ele><time>2026-04-19T08:30:59.685Z</time></trkpt><trkpt lat="44.872188" lon="8.0298734"><ele>273.33333333333337</ele><time>2026-04-19T08:31:00.687Z</time></trkpt><trkpt lat="44.872137" lon="8.0297882"><ele>274.1666666666667</ele><time>2026-04-19T08:31:01.687Z</time></trkpt><trkpt lat="44.8720922" lon="8.0297232"><ele>275.0</ele><time>2026-04-19T08:31:02.687Z</time></trkpt><trkpt lat="44.872089" lon="8.029629"><ele>275.6</ele><time>2026-04-19T08:31:04.684Z</time></trkpt><trkpt lat="44.8721476" lon="8.0295105"><ele>276.2</ele><time>2026-04-19T08:31:06.689Z</time></trkpt><trkpt lat="44.8722045" lon="8.029417"><ele>276.8</ele><time>2026-04-19T08:31:40.688Z</time></trkpt><trkpt lat="44.8722942" lon="8.0292813"><ele>277.4</ele><time>2026-04-19T08:31:42.69Z</time></trkpt><trkpt lat="44.872394" lon="8.0291854"><ele>278.0</ele><time>2026-04-19T08:31:43.695Z</time></trkpt><trkpt lat="44.8725168" lon="8.0291026"><ele>277.0</ele><time>2026-04-19T08:31:44.692Z</time></trkpt><trkpt lat="44.8726411" lon="8.02903"><ele>276.0</ele><time>2026-04-19T08:31:45.686Z</time></trkpt><trkpt lat="44.8727824" lon="8.0289624"><ele>275.0</ele><time>2026-04-19T08:31:46.692Z</time></trkpt><trkpt lat="44.8729249" lon="8.0289122"><ele>274.0</ele><time>2026-04-19T08:31:47.689Z</time></trkpt><trkpt lat="44.8730466" lon="8.0288811"><ele>274.0</ele><time>2026-04-19T08:31:48.689Z</time></trkpt><trkpt lat="44.8731572" lon="8.028865"><ele>274.0</ele><time>2026-04-19T08:31:49.694Z</time></trkpt><trkpt lat="44.8732652" lon="8.0288521"><ele>274.0</ele><time>2026-04-19T08:31:50.69Z</time></trkpt><trkpt lat="44.8733673" lon="8.0288659"><ele>274.0</ele><time>2026-04-19T08:31:51.696Z</time></trkpt><trkpt lat="44.8734656" lon="8.0289041"><ele>274.0</ele><time>2026-04-19T08:31:52.705Z</time></trkpt><trkpt lat="44.8735575" lon="8.0289592"><ele>273.2</ele><time>2026-04-19T08:31:53.699Z</time></trkpt><trkpt lat="44.8736419" lon="8.0290202"><ele>272.4</ele><time>2026-04-19T08:31:54.693Z</time></trkpt><trkpt lat="44.8737266" lon="8.0290918"><ele>271.6</ele><time>2026-04-19T08:31:55.697Z</time></trkpt><trkpt lat="44.8738112" lon="8.029169"><ele>270.8</ele><time>2026-04-19T08:31:56.697Z</time></trkpt><trkpt lat="44.8738915" lon="8.0292523"><ele>270.0</ele><time>2026-04-19T08:31:57.696Z</time></trkpt><trkpt lat="44.8739732" lon="8.0293401"><ele>273.0</ele><time>2026-04-19T08:31:58.708Z</time></trkpt><trkpt lat="44.8740614" lon="8.0294308"><ele>276.0</ele><time>2026-04-19T08:31:59.691Z</time></trkpt><trkpt lat="44.8741528" lon="8.029523"><ele>279.0</ele><time>2026-04-19T08:32:00.692Z</time></trkpt><trkpt lat="44.8742413" lon="8.0296128"><ele>282.0</ele><time>2026-04-19T08:32:01.684Z</time></trkpt><trkpt lat="44.8743321" lon="8.0296963"><ele>285.0</ele><time>2026-04-19T08:32:02.699Z</time></trkpt><trkpt lat="44.8744178" lon="8.0297733"><ele>285.0</ele><time>2026-04-19T08:32:03.69Z</time></trkpt><trkpt lat="44.8745063" lon="8.0298446"><ele>285.0</ele><time>2026-04-19T08:32:04.686Z</time></trkpt><trkpt lat="44.8745916" lon="8.0299149"><ele>285.0</ele><time>2026-04-19T08:32:05.681Z</time></trkpt><trkpt lat="44.8746762" lon="8.0299964"><ele>285.0</ele><time>2026-04-19T08:32:06.68Z</time></trkpt><trkpt lat="44.8747701" lon="8.0300448"><ele>285.0</ele><time>2026-04-19T08:32:07.676Z</time></trkpt><trkpt lat="44.8748726" lon="8.0300709"><ele>285.6</ele><time>2026-04-19T08:32:08.69Z</time></trkpt><trkpt lat="44.8749522" lon="8.0301013"><ele>286.2</ele><time>2026-04-19T08:32:09.693Z</time></trkpt><trkpt lat="44.8750379" lon="8.0300395"><ele>286.8</ele><time>2026-04-19T08:32:11.686Z</time></trkpt><trkpt lat="44.875154" lon="8.0300041"><ele>287.4</ele><time>2026-04-19T08:32:13.689Z</time></trkpt><trkpt lat="44.8752504" lon="8.0299807"><ele>288.0</ele><time>2026-04-19T08:32:15.689Z</time></trkpt><trkpt lat="44.875356" lon="8.0299985"><ele>288.8333333333333</ele><time>2026-04-19T08:32:17.686Z</time></trkpt><trkpt lat="44.8754733" lon="8.0300237"><ele>289.6666666666667</ele><time>2026-04-19T08:32:19.685Z</time></trkpt><trkpt lat="44.8755432" lon="8.0300451"><ele>290.5</ele><time>2026-04-19T08:32:20.693Z</time></trkpt><trkpt lat="44.8756136" lon="8.0300728"><ele>291.33333333333337</ele><time>2026-04-19T08:32:21.698Z</time></trkpt><trkpt lat="44.8756846" lon="8.0301306"><ele>292.1666666666667</ele><time>2026-04-19T08:32:22.703Z</time></trkpt><trkpt lat="44.8757559" lon="8.0301805"><ele>293.0</ele><time>2026-04-19T08:32:23.688Z</time></trkpt><trkpt lat="44.8758226" lon="8.0302472"><ele>293.0</ele><time>2026-04-19T08:32:24.698Z</time></trkpt><trkpt lat="44.8758908" lon="8.0303084"><ele>293.0</ele><time>2026-04-19T08:32:25.69Z</time></trkpt><trkpt lat="44.8759601" lon="8.0303604"><ele>293.0</ele><time>2026-04-19T08:32:26.686Z</time></trkpt><trkpt lat="44.8760255" lon="8.0304172"><ele>293.0</ele><time>2026-04-19T08:32:27.69Z</time></trkpt><trkpt lat="44.8761051" lon="8.0304821"><ele>293.0</ele><time>2026-04-19T08:32:28.697Z</time></trkpt><trkpt lat="44.876194" lon="8.0305555"><ele>293.0</ele><time>2026-04-19T08:32:29.698Z</time></trkpt><trkpt lat="44.8762875" lon="8.030633"><ele>292.4</ele><time>2026-04-19T08:32:30.692Z</time></trkpt><trkpt lat="44.8763681" lon="8.030698"><ele>291.8</ele><time>2026-04-19T08:32:31.686Z</time></trkpt><trkpt lat="44.8764548" lon="8.030738"><ele>291.2</ele><time>2026-04-19T08:32:32.687Z</time></trkpt><trkpt lat="44.8765465" lon="8.0307657"><ele>290.6</ele><time>2026-04-19T08:32:33.689Z</time></trkpt><trkpt lat="44.8766546" lon="8.0308083"><ele>290.0</ele><time>2026-04-19T08:32:34.694Z</time></trkpt><trkpt lat="44.8767529" lon="8.0308732"><ele>286.8</ele><time>2026-04-19T08:32:35.692Z</time></trkpt><trkpt lat="44.8768374" lon="8.0309474"><ele>283.6</ele><time>2026-04-19T08:32:36.699Z</time></trkpt><trkpt lat="44.876928" lon="8.0310339"><ele>280.4</ele><time>2026-04-19T08:32:37.687Z</time></trkpt><trkpt lat="44.8770188" lon="8.0311288"><ele>277.2</ele><time>2026-04-19T08:32:38.688Z</time></trkpt><trkpt lat="44.8771065" lon="8.0312262"><ele>274.0</ele><time>2026-04-19T08:32:39.701Z</time></trkpt><trkpt lat="44.877193" lon="8.0313277"><ele>274.0</ele><time>2026-04-19T08:32:40.677Z</time></trkpt><trkpt lat="44.8772722" lon="8.0314293"><ele>274.0</ele><time>2026-04-19T08:32:41.69Z</time></trkpt><trkpt lat="44.8773471" lon="8.0315291"><ele>274.0</ele><time>2026-04-19T08:32:42.686Z</time></trkpt><trkpt lat="44.877425" lon="8.0316145"><ele>274.0</ele><time>2026-04-19T08:32:43.687Z</time></trkpt><trkpt lat="44.8774948" lon="8.0316961"><ele>274.0</ele><time>2026-04-19T08:32:44.692Z</time></trkpt><trkpt lat="44.8775508" lon="8.0317695"><ele>273.8333333333333</ele><time>2026-04-19T08:32:45.685Z</time></trkpt><trkpt lat="44.8776291" lon="8.0318758"><ele>273.66666666666663</ele><time>2026-04-19T08:32:47.697Z</time></trkpt><trkpt lat="44.8776784" lon="8.0319329"><ele>273.5</ele><time>2026-04-19T08:32:49.69Z</time></trkpt><trkpt lat="44.8777205" lon="8.0318503"><ele>273.3333333333333</ele><time>2026-04-19T08:32:54.698Z</time></trkpt><trkpt lat="44.8777664" lon="8.0317368"><ele>273.1666666666667</ele><time>2026-04-19T08:32:56.694Z</time></trkpt><trkpt lat="44.8778278" lon="8.031713"><ele>273.0</ele><time>2026-04-19T08:32:58.694Z</time></trkpt><trkpt lat="44.8779059" lon="8.0317596"><ele>273.0</ele><time>2026-04-19T08:33:00.706Z</time></trkpt><trkpt lat="44.8779646" lon="8.0318106"><ele>273.0</ele><time>2026-04-19T08:33:02.69Z</time></trkpt><trkpt lat="44.8780328" lon="8.0318678"><ele>273.0</ele><time>2026-04-19T08:33:05.683Z</time></trkpt><trkpt lat="44.878117" lon="8.0318189"><ele>273.0</ele><time>2026-04-19T08:33:08.68Z</time></trkpt><trkpt lat="44.878157" lon="8.0317157"><ele>273.0</ele><time>2026-04-19T08:33:10.683Z</time></trkpt><trkpt lat="44.8781711" lon="8.03159"><ele>273.0</ele><time>2026-04-19T08:33:12.683Z</time></trkpt><trkpt lat="44.8782117" lon="8.0314601"><ele>270.6</ele><time>2026-04-19T08:33:14.689Z</time></trkpt><trkpt lat="44.878283" lon="8.0313278"><ele>268.20000000000005</ele><time>2026-04-19T08:33:16.685Z</time></trkpt><trkpt lat="44.8783402" lon="8.0312087"><ele>265.8</ele><time>2026-04-19T08:33:18.694Z</time></trkpt><trkpt lat="44.8783825" lon="8.0310721"><ele>263.40000000000003</ele><time>2026-04-19T08:33:20.69Z</time></trkpt><trkpt lat="44.8783898" lon="8.0309721"><ele>261.0</ele><time>2026-04-19T08:33:21.691Z</time></trkpt><trkpt lat="44.878379" lon="8.0308119"><ele>258.2</ele><time>2026-04-19T08:33:23.685Z</time></trkpt><trkpt lat="44.8783289" lon="8.0306902"><ele>255.40000000000003</ele><time>2026-04-19T08:33:25.692Z</time></trkpt><trkpt lat="44.8782649" lon="8.0306001"><ele>252.6</ele><time>2026-04-19T08:33:27.686Z</time></trkpt><trkpt lat="44.8782025" lon="8.0305172"><ele>249.8</ele><time>2026-04-19T08:33:30.689Z</time></trkpt><trkpt lat="44.8781904" lon="8.0304238"><ele>247.0</ele><time>2026-04-19T08:33:33.678Z</time></trkpt><trkpt lat="44.8782596" lon="8.0302919"><ele>246.99999999999997</ele><time>2026-04-19T08:33:35.677Z</time></trkpt><trkpt lat="44.8782991" lon="8.030222"><ele>247.0</ele><time>2026-04-19T08:33:36.676Z</time></trkpt><trkpt lat="44.8783806" lon="8.0300998"><ele>247.0</ele><time>2026-04-19T08:33:38.675Z</time></trkpt><trkpt lat="44.8784352" lon="8.0299894"><ele>247.0</ele><time>2026-04-19T08:33:40.677Z</time></trkpt><trkpt lat="44.8784713" lon="8.0298785"><ele>246.99999999999997</ele><time>2026-04-19T08:33:42.677Z</time></trkpt><trkpt lat="44.8784991" lon="8.0297936"><ele>247.0</ele><time>2026-04-19T08:33:44.69Z</time></trkpt><trkpt lat="44.878517" lon="8.0296761"><ele>244.16666666666666</ele><time>2026-04-19T08:33:46.677Z</time></trkpt><trkpt lat="44.8785509" lon="8.0295665"><ele>241.33333333333331</ele><time>2026-04-19T08:33:48.68Z</time></trkpt><trkpt lat="44.8786061" lon="8.0294519"><ele>238.5</ele><time>2026-04-19T08:33:50.68Z</time></trkpt><trkpt lat="44.878648" lon="8.0293634"><ele>235.66666666666669</ele><time>2026-04-19T08:33:52.685Z</time></trkpt><trkpt lat="44.8786915" lon="8.0292732"><ele>232.83333333333334</ele><time>2026-04-19T08:33:55.669Z</time></trkpt><trkpt lat="44.8786728" lon="8.0291736"><ele>230.0</ele><time>2026-04-19T08:33:58.682Z</time></trkpt><trkpt lat="44.8786389" lon="8.0290791"><ele>229.2</ele><time>2026-04-19T08:34:00.678Z</time></trkpt><trkpt lat="44.8786288" lon="8.0289381"><ele>228.4</ele><time>2026-04-19T08:34:02.701Z</time></trkpt><trkpt lat="44.8786362" lon="8.0287872"><ele>227.60000000000002</ele><time>2026-04-19T08:34:04.673Z</time></trkpt><trkpt lat="44.8786527" lon="8.0286559"><ele>226.8</ele><time>2026-04-19T08:34:06.677Z</time></trkpt><trkpt lat="44.8786913" lon="8.0285456"><ele>226.0</ele><time>2026-04-19T08:34:08.678Z</time></trkpt><trkpt lat="44.8787548" lon="8.0284344"><ele>226.0</ele><time>2026-04-19T08:34:10.675Z</time></trkpt><trkpt lat="44.8788147" lon="8.0283142"><ele>226.00000000000003</ele><time>2026-04-19T08:34:12.673Z</time></trkpt><trkpt lat="44.8788539" lon="8.0281827"><ele>226.00000000000003</ele><time>2026-04-19T08:34:14.677Z</time></trkpt><trkpt lat="44.8789123" lon="8.0280668"><ele>226.0</ele><time>2026-04-19T08:34:16.665Z</time></trkpt><trkpt lat="44.8789818" lon="8.027982"><ele>226.0</ele><time>2026-04-19T08:34:18.669Z</time></trkpt><trkpt lat="44.8790495" lon="8.0278805"><ele>227.33333333333331</ele><time>2026-04-19T08:34:20.674Z</time></trkpt><trkpt lat="44.8791154" lon="8.0278122"><ele>228.66666666666666</ele><time>2026-04-19T08:34:22.667Z</time></trkpt><trkpt lat="44.8792076" lon="8.027834"><ele>230.0</ele><time>2026-04-19T08:34:24.674Z</time></trkpt><trkpt lat="44.8792641" lon="8.0278928"><ele>231.33333333333331</ele><time>2026-04-19T08:34:25.672Z</time></trkpt><trkpt lat="44.8793186" lon="8.0279459"><ele>232.66666666666666</ele><time>2026-04-19T08:34:26.675Z</time></trkpt><trkpt lat="44.8794265" lon="8.0280372"><ele>234.0</ele><time>2026-04-19T08:34:28.677Z</time></trkpt><trkpt lat="44.8794862" lon="8.0280908"><ele>234.0</ele><time>2026-04-19T08:34:29.669Z</time></trkpt><trkpt lat="44.8795565" lon="8.0281301"><ele>234.0</ele><time>2026-04-19T08:34:30.673Z</time></trkpt><trkpt lat="44.8796298" lon="8.0281596"><ele>234.0</ele><time>2026-04-19T08:34:31.669Z</time></trkpt><trkpt lat="44.8797028" lon="8.0281987"><ele>234.0</ele><time>2026-04-19T08:34:32.688Z</time></trkpt><trkpt lat="44.8797595" lon="8.0282439"><ele>234.0</ele><time>2026-04-19T08:34:33.673Z</time></trkpt><trkpt lat="44.8798411" lon="8.0283433"><ele>234.0</ele><time>2026-04-19T08:34:35.672Z</time></trkpt><trkpt lat="44.8799491" lon="8.0283984"><ele>232.33333333333334</ele><time>2026-04-19T08:34:37.673Z</time></trkpt><trkpt lat="44.8800142" lon="8.0283804"><ele>230.66666666666669</ele><time>2026-04-19T08:34:38.673Z</time></trkpt><trkpt lat="44.8800896" lon="8.0283432"><ele>229.0</ele><time>2026-04-19T08:34:39.673Z</time></trkpt><trkpt lat="44.8801661" lon="8.0283063"><ele>227.33333333333334</ele><time>2026-04-19T08:34:40.677Z</time></trkpt><trkpt lat="44.8802618" lon="8.0282675"><ele>225.66666666666669</ele><time>2026-04-19T08:34:42.675Z</time></trkpt><trkpt lat="44.8803432" lon="8.0282846"><ele>224.0</ele><time>2026-04-19T08:34:44.674Z</time></trkpt><trkpt lat="44.8804401" lon="8.0282922"><ele>223.33333333333334</ele><time>2026-04-19T08:34:46.672Z</time></trkpt><trkpt lat="44.8805101" lon="8.0282702"><ele>222.66666666666669</ele><time>2026-04-19T08:34:47.676Z</time></trkpt><trkpt lat="44.8805765" lon="8.0282197"><ele>222.0</ele><time>2026-04-19T08:34:48.677Z</time></trkpt><trkpt lat="44.8806295" lon="8.0281451"><ele>221.33333333333331</ele><time>2026-04-19T08:34:49.67Z</time></trkpt><trkpt lat="44.8806767" lon="8.028077"><ele>220.66666666666666</ele><time>2026-04-19T08:34:50.67Z</time></trkpt><trkpt lat="44.8807486" lon="8.027997"><ele>220.0</ele><time>2026-04-19T08:34:52.673Z</time></trkpt><trkpt lat="44.8808209" lon="8.0279909"><ele>219.99999999999997</ele><time>2026-04-19T08:34:54.676Z</time></trkpt><trkpt lat="44.8808698" lon="8.028059"><ele>220.0</ele><time>2026-04-19T08:34:56.673Z</time></trkpt><trkpt lat="44.880946" lon="8.028169"><ele>220.0</ele><time>2026-04-19T08:35:12.682Z</time></trkpt><trkpt lat="44.8809874" lon="8.028239"><ele>220.0</ele><time>2026-04-19T08:35:13.687Z</time></trkpt><trkpt lat="44.8810313" lon="8.0283143"><ele>219.99999999999997</ele><time>2026-04-19T08:35:14.681Z</time></trkpt><trkpt lat="44.8810788" lon="8.0283978"><ele>220.0</ele><time>2026-04-19T08:35:15.681Z</time></trkpt><trkpt lat="44.8811268" lon="8.0284628"><ele>222.33333333333331</ele><time>2026-04-19T08:35:16.677Z</time></trkpt><trkpt lat="44.8811828" lon="8.0285302"><ele>224.66666666666666</ele><time>2026-04-19T08:35:17.68Z</time></trkpt><trkpt lat="44.8812404" lon="8.0285887"><ele>227.0</ele><time>2026-04-19T08:35:18.681Z</time></trkpt><trkpt lat="44.8813035" lon="8.0286466"><ele>229.33333333333331</ele><time>2026-04-19T08:35:19.682Z</time></trkpt><trkpt lat="44.8813573" lon="8.0287157"><ele>231.66666666666666</ele><time>2026-04-19T08:35:20.687Z</time></trkpt><trkpt lat="44.881439" lon="8.0288173"><ele>234.0</ele><time>2026-04-19T08:35:22.679Z</time></trkpt><trkpt lat="44.8815306" lon="8.0289129"><ele>234.0</ele><time>2026-04-19T08:35:24.687Z</time></trkpt><trkpt lat="44.8816199" lon="8.0290129"><ele>233.99999999999997</ele><time>2026-04-19T08:35:26.672Z</time></trkpt><trkpt lat="44.8816974" lon="8.0291164"><ele>233.99999999999997</ele><time>2026-04-19T08:35:28.679Z</time></trkpt><trkpt lat="44.8817742" lon="8.0292214"><ele>234.0</ele><time>2026-04-19T08:35:30.683Z</time></trkpt><trkpt lat="44.8818397" lon="8.0292974"><ele>234.0</ele><time>2026-04-19T08:35:32.684Z</time></trkpt><trkpt lat="44.8818618" lon="8.0294166"><ele>235.33333333333334</ele><time>2026-04-19T08:35:35.676Z</time></trkpt><trkpt lat="44.8818347" lon="8.0295554"><ele>236.66666666666669</ele><time>2026-04-19T08:35:37.68Z</time></trkpt><trkpt lat="44.8818099" lon="8.0296488"><ele>238.0</ele><time>2026-04-19T08:35:39.679Z</time></trkpt><trkpt lat="44.8817641" lon="8.0297376"><ele>239.33333333333334</ele><time>2026-04-19T08:35:46.673Z</time></trkpt><trkpt lat="44.8817691" lon="8.0298315"><ele>240.66666666666669</ele><time>2026-04-19T08:35:48.669Z</time></trkpt><trkpt lat="44.8817055" lon="8.0298972"><ele>242.0</ele><time>2026-04-19T08:35:53.681Z</time></trkpt><trkpt lat="44.8817718" lon="8.0298662"><ele>244.0</ele><time>2026-04-19T08:36:19.674Z</time></trkpt><trkpt lat="44.8818322" lon="8.0297491"><ele>246.0</ele><time>2026-04-19T08:36:32.68Z</time></trkpt><trkpt lat="44.8819363" lon="8.0295677"><ele>248.0</ele><time>2026-04-19T08:36:34.683Z</time></trkpt><trkpt lat="44.8820212" lon="8.0294288"><ele>250.0</ele><time>2026-04-19T08:36:35.685Z</time></trkpt><trkpt lat="44.8820883" lon="8.029335"><ele>249.99999999999997</ele><time>2026-04-19T08:36:36.691Z</time></trkpt><trkpt lat="44.8821325" lon="8.029237"><ele>250.0</ele><time>2026-04-19T08:36:37.677Z</time></trkpt><trkpt lat="44.882179" lon="8.0291389"><ele>250.0</ele><time>2026-04-19T08:36:38.682Z</time></trkpt><trkpt lat="44.8822042" lon="8.0290538"><ele>250.0</ele><time>2026-04-19T08:36:39.682Z</time></trkpt><trkpt lat="44.8821832" lon="8.0288977"><ele>249.99999999999997</ele><time>2026-04-19T08:36:41.682Z</time></trkpt><trkpt lat="44.8821524" lon="8.0288039"><ele>250.0</ele><time>2026-04-19T08:36:42.679Z</time></trkpt><trkpt lat="44.882122" lon="8.028726"><ele>250.85714285714283</ele><time>2026-04-19T08:36:43.687Z</time></trkpt><trkpt lat="44.8821116" lon="8.0286033"><ele>251.71428571428572</ele><time>2026-04-19T08:36:45.669Z</time></trkpt><trkpt lat="44.8821035" lon="8.0285149"><ele>252.57142857142856</ele><time>2026-04-19T08:36:48.687Z</time></trkpt><trkpt lat="44.882169" lon="8.0285242"><ele>253.42857142857142</ele><time>2026-04-19T08:37:44.684Z</time></trkpt><trkpt lat="44.8822048" lon="8.0284444"><ele>254.28571428571428</ele><time>2026-04-19T08:38:55.685Z</time></trkpt><trkpt lat="44.8821855" lon="8.0283445"><ele>255.14285714285714</ele><time>2026-04-19T08:39:02.685Z</time></trkpt><trkpt lat="44.8821234" lon="8.028367"><ele>256.0</ele><time>2026-04-19T08:39:38.688Z</time></trkpt><trkpt lat="44.8820948" lon="8.0282721"><ele>253.85714285714283</ele><time>2026-04-19T08:40:17.679Z</time></trkpt><trkpt lat="44.8821352" lon="8.0281763"><ele>251.7142857142857</ele><time>2026-04-19T08:40:40.675Z</time></trkpt><trkpt lat="44.8821681" lon="8.0280664"><ele>249.57142857142856</ele><time>2026-04-19T08:40:42.666Z</time></trkpt><trkpt lat="44.8822027" lon="8.0279914"><ele>247.42857142857144</ele><time>2026-04-19T08:40:43.676Z</time></trkpt><trkpt lat="44.8822437" lon="8.0279195"><ele>245.2857142857143</ele><time>2026-04-19T08:40:44.671Z</time></trkpt><trkpt lat="44.8822878" lon="8.0278437"><ele>243.14285714285717</ele><time>2026-04-19T08:40:45.664Z</time></trkpt><trkpt lat="44.8823347" lon="8.0277757"><ele>241.0</ele><time>2026-04-19T08:40:46.666Z</time></trkpt><trkpt lat="44.8823888" lon="8.027696"><ele>241.0</ele><time>2026-04-19T08:40:49.666Z</time></trkpt><trkpt lat="44.8824717" lon="8.0276496"><ele>241.00000000000003</ele><time>2026-04-19T08:40:52.668Z</time></trkpt><trkpt lat="44.8825527" lon="8.0275737"><ele>241.00000000000003</ele><time>2026-04-19T08:40:54.658Z</time></trkpt><trkpt lat="44.8826644" lon="8.0275269"><ele>241.0</ele><time>2026-04-19T08:40:56.669Z</time></trkpt><trkpt lat="44.8827709" lon="8.0274894"><ele>241.0</ele><time>2026-04-19T08:40:58.676Z</time></trkpt><trkpt lat="44.8828242" lon="8.0274326"><ele>238.99999999999997</ele><time>2026-04-19T08:41:01.674Z</time></trkpt><trkpt lat="44.8828371" lon="8.0273217"><ele>237.0</ele><time>2026-04-19T08:41:03.667Z</time></trkpt><trkpt lat="44.8828491" lon="8.0272165"><ele>235.0</ele><time>2026-04-19T08:41:05.67Z</time></trkpt><trkpt lat="44.8828374" lon="8.027077"><ele>233.0</ele><time>2026-04-19T08:41:12.675Z</time></trkpt><trkpt lat="44.8828438" lon="8.0269564"><ele>230.99999999999997</ele><time>2026-04-19T08:41:14.683Z</time></trkpt><trkpt lat="44.8828471" lon="8.026842"><ele>229.0</ele><time>2026-04-19T08:41:16.677Z</time></trkpt><trkpt lat="44.882835" lon="8.026709"><ele>226.49999999999997</ele><time>2026-04-19T08:41:18.669Z</time></trkpt><trkpt lat="44.8828137" lon="8.0265697"><ele>224.0</ele><time>2026-04-19T08:41:20.676Z</time></trkpt><trkpt lat="44.8827805" lon="8.0264252"><ele>221.5</ele><time>2026-04-19T08:41:22.682Z</time></trkpt><trkpt lat="44.8827319" lon="8.0263505"><ele>219.0</ele><time>2026-04-19T08:41:24.684Z</time></trkpt><trkpt lat="44.8826739" lon="8.0263055"><ele>216.49999999999997</ele><time>2026-04-19T08:41:28.68Z</time></trkpt><trkpt lat="44.8825881" lon="8.0262678"><ele>214.0</ele><time>2026-04-19T08:41:31.671Z</time></trkpt><trkpt lat="44.882566" lon="8.0261496"><ele>213.99999999999997</ele><time>2026-04-19T08:41:33.681Z</time></trkpt><trkpt lat="44.882526" lon="8.0260501"><ele>214.0</ele><time>2026-04-19T08:41:35.673Z</time></trkpt><trkpt lat="44.8824677" lon="8.0260006"><ele>214.0</ele><time>2026-04-19T08:41:38.674Z</time></trkpt><trkpt lat="44.8824267" lon="8.0259269"><ele>214.0</ele><time>2026-04-19T08:41:41.674Z</time></trkpt><trkpt lat="44.8824479" lon="8.0257807"><ele>213.99999999999997</ele><time>2026-04-19T08:41:43.673Z</time></trkpt><trkpt lat="44.8824673" lon="8.0256507"><ele>214.0</ele><time>2026-04-19T08:41:45.68Z</time></trkpt><trkpt lat="44.8825178" lon="8.0255097"><ele>213.2</ele><time>2026-04-19T08:41:47.667Z</time></trkpt><trkpt lat="44.8825782" lon="8.0254319"><ele>212.39999999999998</ele><time>2026-04-19T08:41:48.674Z</time></trkpt><trkpt lat="44.8826517" lon="8.0253517"><ele>211.6</ele><time>2026-04-19T08:41:49.667Z</time></trkpt><trkpt lat="44.8827432" lon="8.0252574"><ele>210.8</ele><time>2026-04-19T08:41:50.671Z</time></trkpt><trkpt lat="44.8828402" lon="8.0251678"><ele>210.0</ele><time>2026-04-19T08:41:51.674Z</time></trkpt><trkpt lat="44.8829362" lon="8.0250948"><ele>210.0</ele><time>2026-04-19T08:41:52.667Z</time></trkpt><trkpt lat="44.8830316" lon="8.0250292"><ele>210.0</ele><time>2026-04-19T08:41:53.664Z</time></trkpt><trkpt lat="44.883122" lon="8.024975"><ele>210.0</ele><time>2026-04-19T08:41:54.67Z</time></trkpt><trkpt lat="44.883216" lon="8.0249299"><ele>210.0</ele><time>2026-04-19T08:41:55.674Z</time></trkpt><trkpt lat="44.8833262" lon="8.0249038"><ele>210.0</ele><time>2026-04-19T08:41:56.669Z</time></trkpt><trkpt lat="44.8834399" lon="8.0248903"><ele>210.2</ele><time>2026-04-19T08:41:57.674Z</time></trkpt><trkpt lat="44.883548" lon="8.0248792"><ele>210.4</ele><time>2026-04-19T08:41:58.682Z</time></trkpt><trkpt lat="44.8836521" lon="8.0248782"><ele>210.60000000000002</ele><time>2026-04-19T08:41:59.675Z</time></trkpt><trkpt lat="44.8837584" lon="8.0248796"><ele>210.8</ele><time>2026-04-19T08:42:00.669Z</time></trkpt><trkpt lat="44.8838578" lon="8.0248755"><ele>211.0</ele><time>2026-04-19T08:42:01.67Z</time></trkpt><trkpt lat="44.8839472" lon="8.0248609"><ele>211.0</ele><time>2026-04-19T08:42:02.666Z</time></trkpt><trkpt lat="44.8840332" lon="8.0248406"><ele>211.0</ele><time>2026-04-19T08:42:03.67Z</time></trkpt><trkpt lat="44.8841203" lon="8.0247871"><ele>211.0</ele><time>2026-04-19T08:42:04.665Z</time></trkpt><trkpt lat="44.884215" lon="8.0247144"><ele>211.0</ele><time>2026-04-19T08:42:05.665Z</time></trkpt><trkpt lat="44.8843095" lon="8.0246435"><ele>211.0</ele><time>2026-04-19T08:42:06.672Z</time></trkpt><trkpt lat="44.8844004" lon="8.0245728"><ele>210.33333333333331</ele><time>2026-04-19T08:42:07.669Z</time></trkpt><trkpt lat="44.8844878" lon="8.0245028"><ele>209.66666666666666</ele><time>2026-04-19T08:42:08.665Z</time></trkpt><trkpt lat="44.8845703" lon="8.024438"><ele>209.0</ele><time>2026-04-19T08:42:09.669Z</time></trkpt><trkpt lat="44.8846417" lon="8.0243668"><ele>208.33333333333331</ele><time>2026-04-19T08:42:10.666Z</time></trkpt><trkpt lat="44.8846995" lon="8.0242829"><ele>207.66666666666666</ele><time>2026-04-19T08:42:11.673Z</time></trkpt><trkpt lat="44.8847506" lon="8.024195"><ele>207.0</ele><time>2026-04-19T08:42:12.676Z</time></trkpt><trkpt lat="44.8848091" lon="8.0241006"><ele>207.0</ele><time>2026-04-19T08:42:13.661Z</time></trkpt><trkpt lat="44.8848712" lon="8.0239987"><ele>207.0</ele><time>2026-04-19T08:42:14.681Z</time></trkpt><trkpt lat="44.8849345" lon="8.0238978"><ele>207.0</ele><time>2026-04-19T08:42:15.676Z</time></trkpt><trkpt lat="44.8849965" lon="8.0237846"><ele>207.0</ele><time>2026-04-19T08:42:16.685Z</time></trkpt><trkpt lat="44.88507" lon="8.0236644"><ele>207.0</ele><time>2026-04-19T08:42:17.679Z</time></trkpt><trkpt lat="44.8851483" lon="8.0235501"><ele>206.8</ele><time>2026-04-19T08:42:18.676Z</time></trkpt><trkpt lat="44.8852232" lon="8.023443"><ele>206.6</ele><time>2026-04-19T08:42:19.667Z</time></trkpt><trkpt lat="44.8852951" lon="8.0233366"><ele>206.4</ele><time>2026-04-19T08:42:20.675Z</time></trkpt><trkpt lat="44.8853543" lon="8.0232194"><ele>206.20000000000002</ele><time>2026-04-19T08:42:21.671Z</time></trkpt><trkpt lat="44.8854122" lon="8.0231055"><ele>206.0</ele><time>2026-04-19T08:42:22.664Z</time></trkpt><trkpt lat="44.8854779" lon="8.0229832"><ele>204.60000000000002</ele><time>2026-04-19T08:42:23.676Z</time></trkpt><trkpt lat="44.8855427" lon="8.0228685"><ele>203.2</ele><time>2026-04-19T08:42:24.678Z</time></trkpt><trkpt lat="44.885609" lon="8.0227571"><ele>201.8</ele><time>2026-04-19T08:42:25.665Z</time></trkpt><trkpt lat="44.8856704" lon="8.0226378"><ele>200.39999999999998</ele><time>2026-04-19T08:42:26.664Z</time></trkpt><trkpt lat="44.8857354" lon="8.0225097"><ele>199.0</ele><time>2026-04-19T08:42:27.661Z</time></trkpt><trkpt lat="44.8858105" lon="8.0223679"><ele>199.0</ele><time>2026-04-19T08:42:28.668Z</time></trkpt><trkpt lat="44.8858882" lon="8.0222192"><ele>199.0</ele><time>2026-04-19T08:42:29.668Z</time></trkpt><trkpt lat="44.8859644" lon="8.0220678"><ele>199.0</ele><time>2026-04-19T08:42:30.675Z</time></trkpt><trkpt lat="44.8860249" lon="8.0219495"><ele>199.0</ele><time>2026-04-19T08:42:31.679Z</time></trkpt><trkpt lat="44.8860687" lon="8.0218675"><ele>199.0</ele><time>2026-04-19T08:42:32.673Z</time></trkpt><trkpt lat="44.886107" lon="8.0217793"><ele>199.0</ele><time>2026-04-19T08:42:34.677Z</time></trkpt><trkpt lat="44.8860401" lon="8.0218745"><ele>199.0</ele><time>2026-04-19T08:43:04.677Z</time></trkpt><trkpt lat="44.8859841" lon="8.0219334"><ele>199.0</ele><time>2026-04-19T08:43:16.681Z</time></trkpt><trkpt lat="44.8859096" lon="8.0219688"><ele>199.0</ele><time>2026-04-19T08:43:19.68Z</time></trkpt><trkpt lat="44.8857958" lon="8.021896"><ele>199.0</ele><time>2026-04-19T08:43:21.681Z</time></trkpt><trkpt lat="44.8857213" lon="8.0218428"><ele>198.79999999999998</ele><time>2026-04-19T08:43:22.672Z</time></trkpt><trkpt lat="44.8856372" lon="8.0217826"><ele>198.6</ele><time>2026-04-19T08:43:23.675Z</time></trkpt><trkpt lat="44.8855426" lon="8.0217119"><ele>198.4</ele><time>2026-04-19T08:43:24.684Z</time></trkpt><trkpt lat="44.8854489" lon="8.0216425"><ele>198.2</ele><time>2026-04-19T08:43:25.674Z</time></trkpt><trkpt lat="44.8853533" lon="8.0215707"><ele>198.0</ele><time>2026-04-19T08:43:26.685Z</time></trkpt><trkpt lat="44.8852601" lon="8.0215035"><ele>197.83333333333334</ele><time>2026-04-19T08:43:27.682Z</time></trkpt><trkpt lat="44.885172" lon="8.0214429"><ele>197.66666666666669</ele><time>2026-04-19T08:43:28.683Z</time></trkpt><trkpt lat="44.8850855" lon="8.0213946"><ele>197.5</ele><time>2026-04-19T08:43:29.68Z</time></trkpt><trkpt lat="44.8850044" lon="8.021355"><ele>197.33333333333334</ele><time>2026-04-19T08:43:30.683Z</time></trkpt><trkpt lat="44.8849287" lon="8.0213373"><ele>197.16666666666669</ele><time>2026-04-19T08:43:31.673Z</time></trkpt><trkpt lat="44.8848524" lon="8.0213348"><ele>197.0</ele><time>2026-04-19T08:43:32.68Z</time></trkpt><trkpt lat="44.8847715" lon="8.0213435"><ele>199.00000000000003</ele><time>2026-04-19T08:43:33.678Z</time></trkpt><trkpt lat="44.8846839" lon="8.0213572"><ele>201.0</ele><time>2026-04-19T08:43:34.678Z</time></trkpt><trkpt lat="44.8845961" lon="8.0213618"><ele>203.0</ele><time>2026-04-19T08:43:35.678Z</time></trkpt><trkpt lat="44.8845079" lon="8.0213557"><ele>205.0</ele><time>2026-04-19T08:43:36.665Z</time></trkpt><trkpt lat="44.8844185" lon="8.0213381"><ele>207.00000000000003</ele><time>2026-04-19T08:43:37.669Z</time></trkpt><trkpt lat="44.8843416" lon="8.0213265"><ele>209.0</ele><time>2026-04-19T08:43:38.672Z</time></trkpt><trkpt lat="44.8842646" lon="8.0213227"><ele>209.83333333333334</ele><time>2026-04-19T08:43:39.664Z</time></trkpt><trkpt lat="44.8841882" lon="8.0213317"><ele>210.66666666666669</ele><time>2026-04-19T08:43:40.666Z</time></trkpt><trkpt lat="44.8841147" lon="8.0213611"><ele>211.5</ele><time>2026-04-19T08:43:41.671Z</time></trkpt><trkpt lat="44.8840387" lon="8.0214059"><ele>212.33333333333331</ele><time>2026-04-19T08:43:42.658Z</time></trkpt><trkpt lat="44.8839546" lon="8.0214568"><ele>213.16666666666666</ele><time>2026-04-19T08:43:43.666Z</time></trkpt><trkpt lat="44.8838613" lon="8.0214981"><ele>214.0</ele><time>2026-04-19T08:43:44.669Z</time></trkpt><trkpt lat="44.8837727" lon="8.0215374"><ele>213.99999999999997</ele><time>2026-04-19T08:43:45.67Z</time></trkpt><trkpt lat="44.8836992" lon="8.0215768"><ele>214.0</ele><time>2026-04-19T08:43:46.661Z</time></trkpt><trkpt lat="44.8836302" lon="8.0216281"><ele>214.0</ele><time>2026-04-19T08:43:47.655Z</time></trkpt><trkpt lat="44.883551" lon="8.0216817"><ele>214.0</ele><time>2026-04-19T08:43:48.676Z</time></trkpt><trkpt lat="44.8834779" lon="8.0217353"><ele>213.99999999999997</ele><time>2026-04-19T08:43:49.664Z</time></trkpt><trkpt lat="44.8834042" lon="8.0217761"><ele>214.0</ele><time>2026-04-19T08:43:50.663Z</time></trkpt><trkpt lat="44.8833284" lon="8.0218113"><ele>213.83333333333331</ele><time>2026-04-19T08:43:51.669Z</time></trkpt><trkpt lat="44.8832507" lon="8.0218365"><ele>213.66666666666666</ele><time>2026-04-19T08:43:52.662Z</time></trkpt><trkpt lat="44.883164" lon="8.0218535"><ele>213.5</ele><time>2026-04-19T08:43:53.658Z</time></trkpt><trkpt lat="44.8830759" lon="8.0218716"><ele>213.33333333333331</ele><time>2026-04-19T08:43:54.667Z</time></trkpt><trkpt lat="44.8829829" lon="8.0218889"><ele>213.16666666666666</ele><time>2026-04-19T08:43:55.659Z</time></trkpt><trkpt lat="44.8828852" lon="8.0219133"><ele>213.0</ele><time>2026-04-19T08:43:56.658Z</time></trkpt><trkpt lat="44.8828021" lon="8.0219424"><ele>213.0</ele><time>2026-04-19T08:43:57.662Z</time></trkpt><trkpt lat="44.8827197" lon="8.0219847"><ele>213.0</ele><time>2026-04-19T08:43:58.676Z</time></trkpt><trkpt lat="44.8826401" lon="8.0220136"><ele>213.0</ele><time>2026-04-19T08:43:59.664Z</time></trkpt><trkpt lat="44.8825627" lon="8.0220475"><ele>213.0</ele><time>2026-04-19T08:44:00.67Z</time></trkpt><trkpt lat="44.8824829" lon="8.0220779"><ele>213.0</ele><time>2026-04-19T08:44:01.666Z</time></trkpt><trkpt lat="44.8823997" lon="8.0220885"><ele>213.0</ele><time>2026-04-19T08:44:02.669Z</time></trkpt><trkpt lat="44.8823271" lon="8.0221071"><ele>214.0</ele><time>2026-04-19T08:44:03.661Z</time></trkpt><trkpt lat="44.8822117" lon="8.0221111"><ele>215.0</ele><time>2026-04-19T08:44:05.66Z</time></trkpt><trkpt lat="44.8821218" lon="8.0220338"><ele>216.0</ele><time>2026-04-19T08:44:07.666Z</time></trkpt><trkpt lat="44.8820373" lon="8.0219632"><ele>217.0</ele><time>2026-04-19T08:44:09.666Z</time></trkpt><trkpt lat="44.8819702" lon="8.0219319"><ele>218.0</ele><time>2026-04-19T08:44:11.665Z</time></trkpt><trkpt lat="44.8818928" lon="8.0219228"><ele>218.00000000000003</ele><time>2026-04-19T08:44:13.661Z</time></trkpt><trkpt lat="44.8817988" lon="8.0218916"><ele>218.0</ele><time>2026-04-19T08:44:15.666Z</time></trkpt><trkpt lat="44.8816963" lon="8.0218496"><ele>218.0</ele><time>2026-04-19T08:44:17.664Z</time></trkpt><trkpt lat="44.8816387" lon="8.0217978"><ele>218.0</ele><time>2026-04-19T08:44:19.68Z</time></trkpt><trkpt lat="44.8816023" lon="8.0217251"><ele>218.00000000000003</ele><time>2026-04-19T08:44:21.68Z</time></trkpt><trkpt lat="44.8815673" lon="8.0216306"><ele>218.0</ele><time>2026-04-19T08:44:24.665Z</time></trkpt><trkpt lat="44.8815504" lon="8.0215402"><ele>221.33333333333334</ele><time>2026-04-19T08:44:26.676Z</time></trkpt><trkpt lat="44.8815251" lon="8.0214442"><ele>224.66666666666669</ele><time>2026-04-19T08:44:28.672Z</time></trkpt><trkpt lat="44.8814664" lon="8.0213599"><ele>228.0</ele><time>2026-04-19T08:44:31.664Z</time></trkpt><trkpt lat="44.8813856" lon="8.0213"><ele>231.33333333333331</ele><time>2026-04-19T08:44:34.665Z</time></trkpt><trkpt lat="44.8813162" lon="8.0212729"><ele>234.66666666666666</ele><time>2026-04-19T08:44:36.67Z</time></trkpt><trkpt lat="44.8812354" lon="8.0212451"><ele>238.0</ele><time>2026-04-19T08:44:39.659Z</time></trkpt><trkpt lat="44.8811662" lon="8.0212471"><ele>238.0</ele><time>2026-04-19T08:44:41.662Z</time></trkpt><trkpt lat="44.8810644" lon="8.021267"><ele>238.0</ele><time>2026-04-19T08:44:44.67Z</time></trkpt><trkpt lat="44.8809392" lon="8.0212881"><ele>238.0</ele><time>2026-04-19T08:44:46.668Z</time></trkpt><trkpt lat="44.8808662" lon="8.0212981"><ele>238.0</ele><time>2026-04-19T08:44:47.667Z</time></trkpt><trkpt lat="44.8807999" lon="8.0213122"><ele>238.0</ele><time>2026-04-19T08:44:48.659Z</time></trkpt><trkpt lat="44.8806994" lon="8.0213595"><ele>240.60000000000002</ele><time>2026-04-19T08:44:50.667Z</time></trkpt><trkpt lat="44.8806134" lon="8.0213853"><ele>243.20000000000002</ele><time>2026-04-19T08:44:52.666Z</time></trkpt><trkpt lat="44.8805047" lon="8.0213891"><ele>245.8</ele><time>2026-04-19T08:44:54.666Z</time></trkpt><trkpt lat="44.880384" lon="8.0213707"><ele>248.4</ele><time>2026-04-19T08:44:56.667Z</time></trkpt><trkpt lat="44.880268" lon="8.0213513"><ele>251.0</ele><time>2026-04-19T08:44:58.672Z</time></trkpt><trkpt lat="44.8801613" lon="8.0213546"><ele>253.00000000000003</ele><time>2026-04-19T08:45:00.677Z</time></trkpt><trkpt lat="44.8800685" lon="8.0213578"><ele>255.0</ele><time>2026-04-19T08:45:02.666Z</time></trkpt><trkpt lat="44.8799849" lon="8.021367"><ele>257.0</ele><time>2026-04-19T08:45:04.683Z</time></trkpt><trkpt lat="44.8799093" lon="8.021361"><ele>259.0</ele><time>2026-04-19T08:45:06.67Z</time></trkpt><trkpt lat="44.8798757" lon="8.0212691"><ele>261.0</ele><time>2026-04-19T08:45:37.675Z</time></trkpt><trkpt lat="44.8798925" lon="8.0211379"><ele>263.0</ele><time>2026-04-19T08:45:40.67Z</time></trkpt><trkpt lat="44.8798851" lon="8.0210213"><ele>263.0</ele><time>2026-04-19T08:45:42.677Z</time></trkpt><trkpt lat="44.8799564" lon="8.0208694"><ele>263.0</ele><time>2026-04-19T08:45:44.678Z</time></trkpt><trkpt lat="44.8800066" lon="8.0207822"><ele>263.0</ele><time>2026-04-19T08:45:45.683Z</time></trkpt><trkpt lat="44.8800608" lon="8.0206967"><ele>263.0</ele><time>2026-04-19T08:45:46.678Z</time></trkpt><trkpt lat="44.8801124" lon="8.020615"><ele>263.0</ele><time>2026-04-19T08:45:47.681Z</time></trkpt><trkpt lat="44.8801391" lon="8.0205335"><ele>263.0</ele><time>2026-04-19T08:45:48.682Z</time></trkpt><trkpt lat="44.8800966" lon="8.0203446"><ele>261.0</ele><time>2026-04-19T08:45:50.68Z</time></trkpt><trkpt lat="44.880019" lon="8.0202312"><ele>259.0</ele><time>2026-04-19T08:45:51.691Z</time></trkpt><trkpt lat="44.8799244" lon="8.0201338"><ele>257.0</ele><time>2026-04-19T08:45:52.683Z</time></trkpt><trkpt lat="44.87982" lon="8.0200447"><ele>255.0</ele><time>2026-04-19T08:45:53.67Z</time></trkpt><trkpt lat="44.8797163" lon="8.0199676"><ele>252.2</ele><time>2026-04-19T08:45:54.679Z</time></trkpt><trkpt lat="44.8796176" lon="8.0198911"><ele>249.4</ele><time>2026-04-19T08:45:55.678Z</time></trkpt><trkpt lat="44.8795314" lon="8.0198072"><ele>246.60000000000002</ele><time>2026-04-19T08:45:56.682Z</time></trkpt><trkpt lat="44.8794572" lon="8.0197221"><ele>243.8</ele><time>2026-04-19T08:45:57.669Z</time></trkpt><trkpt lat="44.8794028" lon="8.0196284"><ele>241.0</ele><time>2026-04-19T08:45:58.687Z</time></trkpt><trkpt lat="44.8793741" lon="8.0195286"><ele>240.99999999999997</ele><time>2026-04-19T08:45:59.669Z</time></trkpt><trkpt lat="44.879341" lon="8.0193924"><ele>241.0</ele><time>2026-04-19T08:46:01.679Z</time></trkpt><trkpt lat="44.8792796" lon="8.0193548"><ele>241.0</ele><time>2026-04-19T08:46:06.681Z</time></trkpt><trkpt lat="44.8791977" lon="8.0192888"><ele>241.0</ele><time>2026-04-19T08:46:08.677Z</time></trkpt><trkpt lat="44.8791276" lon="8.0192483"><ele>240.99999999999997</ele><time>2026-04-19T08:46:10.677Z</time></trkpt><trkpt lat="44.8790542" lon="8.0192413"><ele>241.0</ele><time>2026-04-19T08:46:12.682Z</time></trkpt><trkpt lat="44.8789692" lon="8.019207"><ele>239.60000000000002</ele><time>2026-04-19T08:46:14.681Z</time></trkpt><trkpt lat="44.8788883" lon="8.0191505"><ele>238.20000000000002</ele><time>2026-04-19T08:46:16.677Z</time></trkpt><trkpt lat="44.8787987" lon="8.0191"><ele>236.79999999999998</ele><time>2026-04-19T08:46:18.678Z</time></trkpt><trkpt lat="44.8787171" lon="8.0191047"><ele>235.39999999999998</ele><time>2026-04-19T08:46:20.684Z</time></trkpt><trkpt lat="44.878618" lon="8.019121"><ele>234.0</ele><time>2026-04-19T08:46:22.695Z</time></trkpt><trkpt lat="44.8784877" lon="8.0191041"><ele>233.83333333333334</ele><time>2026-04-19T08:46:24.683Z</time></trkpt><trkpt lat="44.8783831" lon="8.0190937"><ele>233.66666666666669</ele><time>2026-04-19T08:46:26.673Z</time></trkpt><trkpt lat="44.8783086" lon="8.0191476"><ele>233.5</ele><time>2026-04-19T08:46:28.678Z</time></trkpt><trkpt lat="44.8782515" lon="8.0192539"><ele>233.33333333333334</ele><time>2026-04-19T08:46:30.688Z</time></trkpt><trkpt lat="44.8782377" lon="8.0193862"><ele>233.16666666666669</ele><time>2026-04-19T08:46:32.682Z</time></trkpt><trkpt lat="44.8782585" lon="8.01948"><ele>233.0</ele><time>2026-04-19T08:46:33.681Z</time></trkpt><trkpt lat="44.8782852" lon="8.0195848"><ele>235.83333333333334</ele><time>2026-04-19T08:46:34.682Z</time></trkpt><trkpt lat="44.8783169" lon="8.0196963"><ele>238.66666666666669</ele><time>2026-04-19T08:46:35.687Z</time></trkpt><trkpt lat="44.8783511" lon="8.0198044"><ele>241.5</ele><time>2026-04-19T08:46:36.689Z</time></trkpt><trkpt lat="44.8783821" lon="8.0199101"><ele>244.33333333333331</ele><time>2026-04-19T08:46:37.685Z</time></trkpt><trkpt lat="44.8784084" lon="8.020002"><ele>247.16666666666666</ele><time>2026-04-19T08:46:38.685Z</time></trkpt><trkpt lat="44.8784255" lon="8.0200897"><ele>250.0</ele><time>2026-04-19T08:46:39.687Z</time></trkpt><trkpt lat="44.8784366" lon="8.0201835"><ele>251.85714285714283</ele><time>2026-04-19T08:46:40.683Z</time></trkpt><trkpt lat="44.8784446" lon="8.0202726"><ele>253.71428571428572</ele><time>2026-04-19T08:46:41.689Z</time></trkpt><trkpt lat="44.8784564" lon="8.0203664"><ele>255.57142857142856</ele><time>2026-04-19T08:46:42.68Z</time></trkpt><trkpt lat="44.8784745" lon="8.0204652"><ele>257.42857142857144</ele><time>2026-04-19T08:46:43.68Z</time></trkpt><trkpt lat="44.8785032" lon="8.0205677"><ele>259.2857142857143</ele><time>2026-04-19T08:46:44.685Z</time></trkpt><trkpt lat="44.8785252" lon="8.0206622"><ele>261.1428571428571</ele><time>2026-04-19T08:46:45.681Z</time></trkpt><trkpt lat="44.8785299" lon="8.0207575"><ele>263.0</ele><time>2026-04-19T08:46:46.677Z</time></trkpt><trkpt lat="44.8785261" lon="8.0208669"><ele>262.1428571428571</ele><time>2026-04-19T08:46:47.679Z</time></trkpt><trkpt lat="44.8785186" lon="8.0209748"><ele>261.2857142857143</ele><time>2026-04-19T08:46:48.68Z</time></trkpt><trkpt lat="44.878503" lon="8.0210823"><ele>260.42857142857144</ele><time>2026-04-19T08:46:49.676Z</time></trkpt><trkpt lat="44.8784832" lon="8.0211817"><ele>259.57142857142856</ele><time>2026-04-19T08:46:50.684Z</time></trkpt><trkpt lat="44.8784505" lon="8.0212688"><ele>258.7142857142857</ele><time>2026-04-19T08:46:51.681Z</time></trkpt><trkpt lat="44.8783986" lon="8.0213422"><ele>257.85714285714283</ele><time>2026-04-19T08:46:52.681Z</time></trkpt><trkpt lat="44.8783403" lon="8.0214161"><ele>257.0</ele><time>2026-04-19T08:46:53.693Z</time></trkpt><trkpt lat="44.8782743" lon="8.0214756"><ele>257.0</ele><time>2026-04-19T08:46:54.684Z</time></trkpt><trkpt lat="44.8782219" lon="8.0215264"><ele>257.0</ele><time>2026-04-19T08:46:55.683Z</time></trkpt><trkpt lat="44.8781806" lon="8.021619"><ele>257.0</ele><time>2026-04-19T08:46:57.689Z</time></trkpt><trkpt lat="44.8782199" lon="8.0217254"><ele>257.0</ele><time>2026-04-19T08:46:59.681Z</time></trkpt><trkpt lat="44.8782623" lon="8.0217924"><ele>257.0</ele><time>2026-04-19T08:47:00.676Z</time></trkpt><trkpt lat="44.8783022" lon="8.0218717"><ele>257.0</ele><time>2026-04-19T08:47:01.68Z</time></trkpt><trkpt lat="44.8783347" lon="8.0219504"><ele>257.0</ele><time>2026-04-19T08:47:02.68Z</time></trkpt><trkpt lat="44.8783713" lon="8.0220728"><ele>258.33333333333337</ele><time>2026-04-19T08:47:04.683Z</time></trkpt><trkpt lat="44.8783825" lon="8.0221701"><ele>259.6666666666667</ele><time>2026-04-19T08:47:06.68Z</time></trkpt><trkpt lat="44.8783902" lon="8.0222921"><ele>261.0</ele><time>2026-04-19T08:47:08.684Z</time></trkpt><trkpt lat="44.8783779" lon="8.0224204"><ele>262.3333333333333</ele><time>2026-04-19T08:47:10.676Z</time></trkpt><trkpt lat="44.8783605" lon="8.0225229"><ele>263.66666666666663</ele><time>2026-04-19T08:47:12.682Z</time></trkpt><trkpt lat="44.8783362" lon="8.0226468"><ele>265.0</ele><time>2026-04-19T08:47:14.684Z</time></trkpt><trkpt lat="44.878315" lon="8.0227433"><ele>265.0</ele><time>2026-04-19T08:47:15.688Z</time></trkpt><trkpt lat="44.8782859" lon="8.0228539"><ele>265.0</ele><time>2026-04-19T08:47:16.681Z</time></trkpt><trkpt lat="44.8782612" lon="8.0229536"><ele>265.0</ele><time>2026-04-19T08:47:17.687Z</time></trkpt><trkpt lat="44.8782485" lon="8.0230906"><ele>265.0</ele><time>2026-04-19T08:47:19.685Z</time></trkpt><trkpt lat="44.8782777" lon="8.0231942"><ele>265.0</ele><time>2026-04-19T08:47:22.689Z</time></trkpt><trkpt lat="44.8782356" lon="8.023308"><ele>265.0</ele><time>2026-04-19T08:47:24.71Z</time></trkpt><trkpt lat="44.8782061" lon="8.0234095"><ele>265.1428571428571</ele><time>2026-04-19T08:47:25.685Z</time></trkpt><trkpt lat="44.8781807" lon="8.0235098"><ele>265.2857142857143</ele><time>2026-04-19T08:47:26.69Z</time></trkpt><trkpt lat="44.8781543" lon="8.0235914"><ele>265.42857142857144</ele><time>2026-04-19T08:47:27.685Z</time></trkpt><trkpt lat="44.8781142" lon="8.0236634"><ele>265.57142857142856</ele><time>2026-04-19T08:47:28.686Z</time></trkpt><trkpt lat="44.878067" lon="8.023726"><ele>265.7142857142857</ele><time>2026-04-19T08:47:29.693Z</time></trkpt><trkpt lat="44.8780097" lon="8.0237906"><ele>265.85714285714283</ele><time>2026-04-19T08:47:30.691Z</time></trkpt><trkpt lat="44.8779433" lon="8.0238481"><ele>266.0</ele><time>2026-04-19T08:47:31.685Z</time></trkpt><trkpt lat="44.8778692" lon="8.0238949"><ele>266.0</ele><time>2026-04-19T08:47:32.681Z</time></trkpt><trkpt lat="44.8777975" lon="8.0239357"><ele>266.0</ele><time>2026-04-19T08:47:33.688Z</time></trkpt><trkpt lat="44.8777268" lon="8.0239714"><ele>266.0</ele><time>2026-04-19T08:47:34.681Z</time></trkpt><trkpt lat="44.8776567" lon="8.0240074"><ele>266.0</ele><time>2026-04-19T08:47:35.678Z</time></trkpt><trkpt lat="44.8775878" lon="8.0240547"><ele>266.0</ele><time>2026-04-19T08:47:36.68Z</time></trkpt><trkpt lat="44.8775222" lon="8.0240986"><ele>266.0</ele><time>2026-04-19T08:47:37.682Z</time></trkpt><trkpt lat="44.8774597" lon="8.0241529"><ele>267.6666666666667</ele><time>2026-04-19T08:47:38.681Z</time></trkpt><trkpt lat="44.8774057" lon="8.0242173"><ele>269.33333333333337</ele><time>2026-04-19T08:47:39.678Z</time></trkpt><trkpt lat="44.8773255" lon="8.0243526"><ele>271.0</ele><time>2026-04-19T08:47:41.675Z</time></trkpt><trkpt lat="44.8772835" lon="8.0244357"><ele>272.6666666666667</ele><time>2026-04-19T08:47:42.682Z</time></trkpt><trkpt lat="44.8772498" lon="8.0245282"><ele>274.3333333333333</ele><time>2026-04-19T08:47:43.686Z</time></trkpt><trkpt lat="44.877219" lon="8.0246231"><ele>276.0</ele><time>2026-04-19T08:47:44.682Z</time></trkpt><trkpt lat="44.8771956" lon="8.024723"><ele>276.0</ele><time>2026-04-19T08:47:45.681Z</time></trkpt><trkpt lat="44.8771738" lon="8.0248305"><ele>276.0</ele><time>2026-04-19T08:47:46.679Z</time></trkpt><trkpt lat="44.8771459" lon="8.0249329"><ele>276.0</ele><time>2026-04-19T08:47:47.684Z</time></trkpt><trkpt lat="44.877115" lon="8.025042"><ele>276.0</ele><time>2026-04-19T08:47:48.677Z</time></trkpt><trkpt lat="44.8770812" lon="8.0251466"><ele>276.0</ele><time>2026-04-19T08:47:49.68Z</time></trkpt><trkpt lat="44.8770452" lon="8.0252537"><ele>276.0</ele><time>2026-04-19T08:47:50.682Z</time></trkpt><trkpt lat="44.8770092" lon="8.0253605"><ele>276.1666666666667</ele><time>2026-04-19T08:47:51.686Z</time></trkpt><trkpt lat="44.8769645" lon="8.0254598"><ele>276.3333333333333</ele><time>2026-04-19T08:47:52.69Z</time></trkpt><trkpt lat="44.8769158" lon="8.0255484"><ele>276.5</ele><time>2026-04-19T08:47:53.686Z</time></trkpt><trkpt lat="44.8768643" lon="8.0256294"><ele>276.66666666666663</ele><time>2026-04-19T08:47:54.697Z</time></trkpt><trkpt lat="44.8768107" lon="8.0257072"><ele>276.8333333333333</ele><time>2026-04-19T08:47:55.69Z</time></trkpt><trkpt lat="44.8767615" lon="8.0257854"><ele>277.0</ele><time>2026-04-19T08:47:56.694Z</time></trkpt><trkpt lat="44.876715" lon="8.025863"><ele>277.0</ele><time>2026-04-19T08:47:57.687Z</time></trkpt><trkpt lat="44.8766722" lon="8.0259354"><ele>277.0</ele><time>2026-04-19T08:47:58.685Z</time></trkpt><trkpt lat="44.8766338" lon="8.026016"><ele>277.0</ele><time>2026-04-19T08:47:59.689Z</time></trkpt><trkpt lat="44.8765978" lon="8.0261012"><ele>277.0</ele><time>2026-04-19T08:48:00.684Z</time></trkpt><trkpt lat="44.876565" lon="8.0261918"><ele>277.0</ele><time>2026-04-19T08:48:01.689Z</time></trkpt><trkpt lat="44.8765342" lon="8.0262819"><ele>277.0</ele><time>2026-04-19T08:48:02.684Z</time></trkpt><trkpt lat="44.8765046" lon="8.0263665"><ele>277.0</ele><time>2026-04-19T08:48:03.689Z</time></trkpt><trkpt lat="44.8764483" lon="8.0265311"><ele>277.0</ele><time>2026-04-19T08:48:05.688Z</time></trkpt><trkpt lat="44.8764111" lon="8.0266151"><ele>277.0</ele><time>2026-04-19T08:48:06.687Z</time></trkpt><trkpt lat="44.8763779" lon="8.0266934"><ele>277.0</ele><time>2026-04-19T08:48:07.683Z</time></trkpt><trkpt lat="44.8763227" lon="8.0268267"><ele>277.0</ele><time>2026-04-19T08:48:09.676Z</time></trkpt><trkpt lat="44.8763321" lon="8.0269312"><ele>277.0</ele><time>2026-04-19T08:48:12.681Z</time></trkpt><trkpt lat="44.8763532" lon="8.0270441"><ele>277.0</ele><time>2026-04-19T08:48:14.685Z</time></trkpt><trkpt lat="44.8763739" lon="8.0272223"><ele>276.0</ele><time>2026-04-19T08:48:16.684Z</time></trkpt><trkpt lat="44.8763815" lon="8.027327"><ele>275.0</ele><time>2026-04-19T08:48:17.68Z</time></trkpt><trkpt lat="44.8763842" lon="8.0274325"><ele>274.0</ele><time>2026-04-19T08:48:18.677Z</time></trkpt><trkpt lat="44.8763781" lon="8.0275413"><ele>273.0</ele><time>2026-04-19T08:48:19.682Z</time></trkpt><trkpt lat="44.8763674" lon="8.0276386"><ele>272.0</ele><time>2026-04-19T08:48:20.682Z</time></trkpt><trkpt lat="44.8763586" lon="8.0277355"><ele>271.0</ele><time>2026-04-19T08:48:21.684Z</time></trkpt><trkpt lat="44.876341" lon="8.0278381"><ele>270.0</ele><time>2026-04-19T08:48:22.678Z</time></trkpt><trkpt lat="44.8763175" lon="8.0279392"><ele>268.6666666666667</ele><time>2026-04-19T08:48:23.676Z</time></trkpt><trkpt lat="44.8762883" lon="8.028034"><ele>267.3333333333333</ele><time>2026-04-19T08:48:24.682Z</time></trkpt><trkpt lat="44.8762562" lon="8.0281181"><ele>266.0</ele><time>2026-04-19T08:48:25.687Z</time></trkpt><trkpt lat="44.8762023" lon="8.0282618"><ele>264.66666666666663</ele><time>2026-04-19T08:48:27.679Z</time></trkpt><trkpt lat="44.8761972" lon="8.0284093"><ele>263.3333333333333</ele><time>2026-04-19T08:48:29.69Z</time></trkpt><trkpt lat="44.8762186" lon="8.0285163"><ele>262.0</ele><time>2026-04-19T08:48:31.686Z</time></trkpt><trkpt lat="44.8761649" lon="8.0284648"><ele>262.0</ele><time>2026-04-19T08:48:37.679Z</time></trkpt><trkpt lat="44.8761115" lon="8.028387"><ele>262.0</ele><time>2026-04-19T08:48:39.677Z</time></trkpt><trkpt lat="44.8760679" lon="8.0283174"><ele>262.0</ele><time>2026-04-19T08:48:41.678Z</time></trkpt><trkpt lat="44.8760319" lon="8.0282397"><ele>262.0</ele><time>2026-04-19T08:48:43.682Z</time></trkpt><trkpt lat="44.8759739" lon="8.0282983"><ele>262.0</ele><time>2026-04-19T08:48:47.674Z</time></trkpt><trkpt lat="44.8759083" lon="8.0283516"><ele>262.0</ele><time>2026-04-19T08:48:50.679Z</time></trkpt><trkpt lat="44.8758197" lon="8.0283579"><ele>262.0</ele><time>2026-04-19T08:48:54.673Z</time></trkpt><trkpt lat="44.875734" lon="8.0283785"><ele>260.8</ele><time>2026-04-19T08:48:57.67Z</time></trkpt><trkpt lat="44.8756574" lon="8.0282858"><ele>259.6</ele><time>2026-04-19T08:49:00.666Z</time></trkpt><trkpt lat="44.8756243" lon="8.0281599"><ele>258.40000000000003</ele><time>2026-04-19T08:49:02.665Z</time></trkpt><trkpt lat="44.8755832" lon="8.0280239"><ele>257.2</ele><time>2026-04-19T08:49:04.672Z</time></trkpt><trkpt lat="44.8755098" lon="8.0279083"><ele>256.0</ele><time>2026-04-19T08:49:06.672Z</time></trkpt><trkpt lat="44.8754475" lon="8.0278441"><ele>256.0</ele><time>2026-04-19T08:49:08.674Z</time></trkpt><trkpt lat="44.8754091" lon="8.027744"><ele>256.0</ele><time>2026-04-19T08:49:10.67Z</time></trkpt><trkpt lat="44.8754177" lon="8.0276059"><ele>256.0</ele><time>2026-04-19T08:49:12.676Z</time></trkpt><trkpt lat="44.8753965" lon="8.0274828"><ele>256.0</ele><time>2026-04-19T08:49:14.673Z</time></trkpt><trkpt lat="44.8753383" lon="8.0273531"><ele>256.0</ele><time>2026-04-19T08:49:16.672Z</time></trkpt><trkpt lat="44.8752733" lon="8.0272351"><ele>255.83333333333331</ele><time>2026-04-19T08:49:18.671Z</time></trkpt><trkpt lat="44.875213" lon="8.0271235"><ele>255.66666666666666</ele><time>2026-04-19T08:49:20.675Z</time></trkpt><trkpt lat="44.875181" lon="8.0270091"><ele>255.5</ele><time>2026-04-19T08:49:25.679Z</time></trkpt><trkpt lat="44.8752042" lon="8.0268845"><ele>255.33333333333331</ele><time>2026-04-19T08:49:28.674Z</time></trkpt><trkpt lat="44.8752392" lon="8.026805"><ele>255.16666666666666</ele><time>2026-04-19T08:49:30.672Z</time></trkpt><trkpt lat="44.8752972" lon="8.0266907"><ele>255.0</ele><time>2026-04-19T08:49:32.681Z</time></trkpt><trkpt lat="44.8753328" lon="8.026547"><ele>254.66666666666666</ele><time>2026-04-19T08:49:34.673Z</time></trkpt><trkpt lat="44.8752863" lon="8.0263992"><ele>254.33333333333331</ele><time>2026-04-19T08:49:36.67Z</time></trkpt><trkpt lat="44.8752392" lon="8.0262676"><ele>254.0</ele><time>2026-04-19T08:49:38.683Z</time></trkpt><trkpt lat="44.8751744" lon="8.0262352"><ele>253.66666666666666</ele><time>2026-04-19T08:49:41.682Z</time></trkpt><trkpt lat="44.8751046" lon="8.0262553"><ele>253.33333333333331</ele><time>2026-04-19T08:49:44.683Z</time></trkpt><trkpt lat="44.8750561" lon="8.0261758"><ele>253.0</ele><time>2026-04-19T08:49:46.685Z</time></trkpt><trkpt lat="44.8750248" lon="8.0260936"><ele>248.4</ele><time>2026-04-19T08:49:47.677Z</time></trkpt><trkpt lat="44.8749873" lon="8.0259894"><ele>243.8</ele><time>2026-04-19T08:49:48.688Z</time></trkpt><trkpt lat="44.8749363" lon="8.0258585"><ele>239.2</ele><time>2026-04-19T08:49:49.681Z</time></trkpt><trkpt lat="44.8748795" lon="8.025726"><ele>234.6</ele><time>2026-04-19T08:49:50.684Z</time></trkpt><trkpt lat="44.8748197" lon="8.0256009"><ele>230.0</ele><time>2026-04-19T08:49:51.683Z</time></trkpt><trkpt lat="44.8747718" lon="8.0254923"><ele>228.66666666666669</ele><time>2026-04-19T08:49:52.686Z</time></trkpt><trkpt lat="44.874734" lon="8.0253938"><ele>227.33333333333334</ele><time>2026-04-19T08:49:53.678Z</time></trkpt><trkpt lat="44.8747053" lon="8.0252916"><ele>226.0</ele><time>2026-04-19T08:49:54.68Z</time></trkpt><trkpt lat="44.8746922" lon="8.0251762"><ele>224.66666666666669</ele><time>2026-04-19T08:49:55.678Z</time></trkpt><trkpt lat="44.8746902" lon="8.0250468"><ele>223.33333333333334</ele><time>2026-04-19T08:49:56.68Z</time></trkpt><trkpt lat="44.874698" lon="8.0249035"><ele>222.0</ele><time>2026-04-19T08:49:57.681Z</time></trkpt><trkpt lat="44.8747057" lon="8.0247576"><ele>221.2</ele><time>2026-04-19T08:49:58.692Z</time></trkpt><trkpt lat="44.8747047" lon="8.0246225"><ele>220.39999999999998</ele><time>2026-04-19T08:49:59.682Z</time></trkpt><trkpt lat="44.8746961" lon="8.0244877"><ele>219.60000000000002</ele><time>2026-04-19T08:50:00.682Z</time></trkpt><trkpt lat="44.8746739" lon="8.0243492"><ele>218.8</ele><time>2026-04-19T08:50:01.686Z</time></trkpt><trkpt lat="44.8746495" lon="8.0242114"><ele>218.0</ele><time>2026-04-19T08:50:02.679Z</time></trkpt><trkpt lat="44.8746273" lon="8.0240912"><ele>218.00000000000003</ele><time>2026-04-19T08:50:03.684Z</time></trkpt><trkpt lat="44.8746305" lon="8.0240008"><ele>218.0</ele><time>2026-04-19T08:50:04.676Z</time></trkpt><trkpt lat="44.8746573" lon="8.0239183"><ele>218.0</ele><time>2026-04-19T08:50:05.677Z</time></trkpt><trkpt lat="44.8746943" lon="8.0238347"><ele>218.0</ele><time>2026-04-19T08:50:06.674Z</time></trkpt><trkpt lat="44.8747406" lon="8.0237314"><ele>218.00000000000003</ele><time>2026-04-19T08:50:07.676Z</time></trkpt><trkpt lat="44.8747929" lon="8.0236067"><ele>218.0</ele><time>2026-04-19T08:50:08.675Z</time></trkpt><trkpt lat="44.8748408" lon="8.0234711"><ele>218.0</ele><time>2026-04-19T08:50:09.677Z</time></trkpt><trkpt lat="44.874889" lon="8.0233256"><ele>218.0</ele><time>2026-04-19T08:50:10.669Z</time></trkpt><trkpt lat="44.8749384" lon="8.0231798"><ele>218.0</ele><time>2026-04-19T08:50:11.681Z</time></trkpt><trkpt lat="44.874994" lon="8.0230321"><ele>218.0</ele><time>2026-04-19T08:50:12.673Z</time></trkpt><trkpt lat="44.8750515" lon="8.0228854"><ele>217.60000000000002</ele><time>2026-04-19T08:50:13.673Z</time></trkpt><trkpt lat="44.8751074" lon="8.0227416"><ele>217.20000000000002</ele><time>2026-04-19T08:50:14.678Z</time></trkpt><trkpt lat="44.8751597" lon="8.0225949"><ele>216.8</ele><time>2026-04-19T08:50:15.678Z</time></trkpt><trkpt lat="44.875211" lon="8.0224572"><ele>216.4</ele><time>2026-04-19T08:50:16.675Z</time></trkpt><trkpt lat="44.8752616" lon="8.0223356"><ele>216.0</ele><time>2026-04-19T08:50:17.676Z</time></trkpt><trkpt lat="44.875309" lon="8.022227"><ele>215.33333333333334</ele><time>2026-04-19T08:50:18.677Z</time></trkpt><trkpt lat="44.8753661" lon="8.0221339"><ele>214.66666666666669</ele><time>2026-04-19T08:50:19.68Z</time></trkpt><trkpt lat="44.875424" lon="8.0220529"><ele>214.0</ele><time>2026-04-19T08:50:20.669Z</time></trkpt><trkpt lat="44.8754718" lon="8.0219772"><ele>213.33333333333334</ele><time>2026-04-19T08:50:21.682Z</time></trkpt><trkpt lat="44.8755041" lon="8.0218894"><ele>212.66666666666669</ele><time>2026-04-19T08:50:22.68Z</time></trkpt><trkpt lat="44.8755302" lon="8.0217779"><ele>212.0</ele><time>2026-04-19T08:50:23.677Z</time></trkpt><trkpt lat="44.8755582" lon="8.0216498"><ele>211.71428571428572</ele><time>2026-04-19T08:50:24.675Z</time></trkpt><trkpt lat="44.8755797" lon="8.0215203"><ele>211.42857142857142</ele><time>2026-04-19T08:50:25.683Z</time></trkpt><trkpt lat="44.8755984" lon="8.0214066"><ele>211.14285714285714</ele><time>2026-04-19T08:50:26.685Z</time></trkpt><trkpt lat="44.875617" lon="8.0213094"><ele>210.85714285714286</ele><time>2026-04-19T08:50:27.676Z</time></trkpt><trkpt lat="44.8756472" lon="8.0212277"><ele>210.57142857142856</ele><time>2026-04-19T08:50:28.677Z</time></trkpt><trkpt lat="44.8756855" lon="8.021155"><ele>210.28571428571428</ele><time>2026-04-19T08:50:29.69Z</time></trkpt><trkpt lat="44.8757114" lon="8.0210721"><ele>210.0</ele><time>2026-04-19T08:50:30.676Z</time></trkpt><trkpt lat="44.8757214" lon="8.0209752"><ele>210.0</ele><time>2026-04-19T08:50:31.678Z</time></trkpt><trkpt lat="44.8757223" lon="8.0208626"><ele>210.0</ele><time>2026-04-19T08:50:32.674Z</time></trkpt><trkpt lat="44.8757183" lon="8.0207319"><ele>210.0</ele><time>2026-04-19T08:50:33.686Z</time></trkpt><trkpt lat="44.8757043" lon="8.0205696"><ele>210.0</ele><time>2026-04-19T08:50:34.68Z</time></trkpt><trkpt lat="44.8756781" lon="8.0204198"><ele>210.0</ele><time>2026-04-19T08:50:35.681Z</time></trkpt><trkpt lat="44.8756541" lon="8.0202892"><ele>209.33333333333334</ele><time>2026-04-19T08:50:36.682Z</time></trkpt><trkpt lat="44.8756198" lon="8.0201816"><ele>208.66666666666669</ele><time>2026-04-19T08:50:37.677Z</time></trkpt><trkpt lat="44.8755779" lon="8.0200933"><ele>208.0</ele><time>2026-04-19T08:50:38.673Z</time></trkpt><trkpt lat="44.8755213" lon="8.0199723"><ele>207.33333333333334</ele><time>2026-04-19T08:50:40.678Z</time></trkpt><trkpt lat="44.8755829" lon="8.0198849"><ele>206.66666666666669</ele><time>2026-04-19T08:50:44.688Z</time></trkpt><trkpt lat="44.875664" lon="8.0198301"><ele>206.0</ele><time>2026-04-19T08:50:45.679Z</time></trkpt><trkpt lat="44.8757538" lon="8.0197481"><ele>206.0</ele><time>2026-04-19T08:50:46.682Z</time></trkpt><trkpt lat="44.8758514" lon="8.0196263"><ele>206.0</ele><time>2026-04-19T08:50:47.68Z</time></trkpt><trkpt lat="44.8759455" lon="8.0194568"><ele>206.0</ele><time>2026-04-19T08:50:48.681Z</time></trkpt><trkpt lat="44.8760315" lon="8.0192479"><ele>207.33333333333334</ele><time>2026-04-19T08:50:49.676Z</time></trkpt><trkpt lat="44.8761107" lon="8.0190191"><ele>208.66666666666669</ele><time>2026-04-19T08:50:50.679Z</time></trkpt><trkpt lat="44.8761912" lon="8.0187953"><ele>210.0</ele><time>2026-04-19T08:50:51.682Z</time></trkpt><trkpt lat="44.876262" lon="8.0185891"><ele>210.0</ele><time>2026-04-19T08:50:52.688Z</time></trkpt><trkpt lat="44.8763246" lon="8.0183826"><ele>210.0</ele><time>2026-04-19T08:50:53.681Z</time></trkpt><trkpt lat="44.8763867" lon="8.0181917"><ele>210.0</ele><time>2026-04-19T08:50:54.687Z</time></trkpt><trkpt lat="44.8764508" lon="8.018015"><ele>210.0</ele><time>2026-04-19T08:50:55.683Z</time></trkpt><trkpt lat="44.8765224" lon="8.0178489"><ele>208.25</ele><time>2026-04-19T08:50:56.698Z</time></trkpt><trkpt lat="44.8766094" lon="8.0177038"><ele>206.5</ele><time>2026-04-19T08:50:57.673Z</time></trkpt><trkpt lat="44.8767023" lon="8.0175717"><ele>204.75</ele><time>2026-04-19T08:50:58.688Z</time></trkpt><trkpt lat="44.8767999" lon="8.0174692"><ele>203.0</ele><time>2026-04-19T08:50:59.689Z</time></trkpt><trkpt lat="44.8768931" lon="8.0173813"><ele>201.75</ele><time>2026-04-19T08:51:00.688Z</time></trkpt><trkpt lat="44.8769945" lon="8.017304"><ele>200.5</ele><time>2026-04-19T08:51:01.682Z</time></trkpt><trkpt lat="44.8771046" lon="8.0172358"><ele>199.25</ele><time>2026-04-19T08:51:02.684Z</time></trkpt><trkpt lat="44.8772112" lon="8.0171851"><ele>198.0</ele><time>2026-04-19T08:51:03.686Z</time></trkpt><trkpt lat="44.877318" lon="8.0171629"><ele>198.0</ele><time>2026-04-19T08:51:04.678Z</time></trkpt><trkpt lat="44.8774202" lon="8.0171458"><ele>198.0</ele><time>2026-04-19T08:51:05.678Z</time></trkpt><trkpt lat="44.8775321" lon="8.0171337"><ele>198.0</ele><time>2026-04-19T08:51:06.683Z</time></trkpt><trkpt lat="44.8776491" lon="8.0171034"><ele>198.0</ele><time>2026-04-19T08:51:07.68Z</time></trkpt><trkpt lat="44.8777787" lon="8.0170559"><ele>199.66666666666669</ele><time>2026-04-19T08:51:08.68Z</time></trkpt><trkpt lat="44.8779076" lon="8.0169861"><ele>201.33333333333334</ele><time>2026-04-19T08:51:09.678Z</time></trkpt><trkpt lat="44.8780395" lon="8.0168768"><ele>203.0</ele><time>2026-04-19T08:51:10.684Z</time></trkpt><trkpt lat="44.8781679" lon="8.0167318"><ele>201.5</ele><time>2026-04-19T08:51:11.686Z</time></trkpt><trkpt lat="44.8782839" lon="8.0165981"><ele>200.0</ele><time>2026-04-19T08:51:12.685Z</time></trkpt><trkpt lat="44.8783911" lon="8.0164974"><ele>198.5</ele><time>2026-04-19T08:51:13.682Z</time></trkpt><trkpt lat="44.8784971" lon="8.0164052"><ele>197.0</ele><time>2026-04-19T08:51:14.686Z</time></trkpt><trkpt lat="44.878596" lon="8.0163274"><ele>197.0</ele><time>2026-04-19T08:51:15.678Z</time></trkpt><trkpt lat="44.8787026" lon="8.0162874"><ele>197.0</ele><time>2026-04-19T08:51:16.681Z</time></trkpt><trkpt lat="44.8788254" lon="8.016275"><ele>197.0</ele><time>2026-04-19T08:51:17.682Z</time></trkpt><trkpt lat="44.8789613" lon="8.0162849"><ele>197.0</ele><time>2026-04-19T08:51:18.683Z</time></trkpt><trkpt lat="44.8790987" lon="8.0162951"><ele>197.0</ele><time>2026-04-19T08:51:19.683Z</time></trkpt><trkpt lat="44.8792364" lon="8.0162993"><ele>197.0</ele><time>2026-04-19T08:51:20.683Z</time></trkpt><trkpt lat="44.8793737" lon="8.0162976"><ele>197.0</ele><time>2026-04-19T08:51:21.681Z</time></trkpt><trkpt lat="44.8795129" lon="8.0162827"><ele>197.0</ele><time>2026-04-19T08:51:22.69Z</time></trkpt><trkpt lat="44.8796409" lon="8.0162492"><ele>197.6</ele><time>2026-04-19T08:51:23.69Z</time></trkpt><trkpt lat="44.879765" lon="8.0162103"><ele>198.2</ele><time>2026-04-19T08:51:24.686Z</time></trkpt><trkpt lat="44.879872" lon="8.0161818"><ele>198.8</ele><time>2026-04-19T08:51:25.681Z</time></trkpt><trkpt lat="44.8799723" lon="8.016165"><ele>199.4</ele><time>2026-04-19T08:51:26.69Z</time></trkpt><trkpt lat="44.8800782" lon="8.0161586"><ele>200.0</ele><time>2026-04-19T08:51:27.681Z</time></trkpt><trkpt lat="44.8801868" lon="8.0161709"><ele>200.33333333333334</ele><time>2026-04-19T08:51:28.68Z</time></trkpt><trkpt lat="44.8802986" lon="8.0161922"><ele>200.66666666666669</ele><time>2026-04-19T08:51:29.697Z</time></trkpt><trkpt lat="44.8803925" lon="8.0162091"><ele>201.0</ele><time>2026-04-19T08:51:30.687Z</time></trkpt><trkpt lat="44.8804694" lon="8.0162311"><ele>201.33333333333331</ele><time>2026-04-19T08:51:31.696Z</time></trkpt><trkpt lat="44.8805328" lon="8.0162766"><ele>201.66666666666666</ele><time>2026-04-19T08:51:32.685Z</time></trkpt><trkpt lat="44.8805775" lon="8.0163552"><ele>202.0</ele><time>2026-04-19T08:51:33.689Z</time></trkpt><trkpt lat="44.8805928" lon="8.0164493"><ele>202.0</ele><time>2026-04-19T08:51:34.689Z</time></trkpt><trkpt lat="44.8805835" lon="8.016567"><ele>202.0</ele><time>2026-04-19T08:51:35.679Z</time></trkpt><trkpt lat="44.8805497" lon="8.016691"><ele>202.0</ele><time>2026-04-19T08:51:36.686Z</time></trkpt><trkpt lat="44.8805086" lon="8.0168171"><ele>202.0</ele><time>2026-04-19T08:51:37.674Z</time></trkpt><trkpt lat="44.8804713" lon="8.016951"><ele>202.0</ele><time>2026-04-19T08:51:38.682Z</time></trkpt><trkpt lat="44.8804452" lon="8.0170841"><ele>204.39999999999998</ele><time>2026-04-19T08:51:39.683Z</time></trkpt><trkpt lat="44.880424" lon="8.0172226"><ele>206.79999999999998</ele><time>2026-04-19T08:51:40.675Z</time></trkpt><trkpt lat="44.880415" lon="8.0173689"><ele>209.2</ele><time>2026-04-19T08:51:41.686Z</time></trkpt><trkpt lat="44.8804184" lon="8.0175094"><ele>211.6</ele><time>2026-04-19T08:51:42.685Z</time></trkpt><trkpt lat="44.88044" lon="8.0176447"><ele>214.0</ele><time>2026-04-19T08:51:43.681Z</time></trkpt><trkpt lat="44.8804787" lon="8.0177783"><ele>215.75</ele><time>2026-04-19T08:51:44.682Z</time></trkpt><trkpt lat="44.8805331" lon="8.0179153"><ele>217.5</ele><time>2026-04-19T08:51:45.685Z</time></trkpt><trkpt lat="44.880614" lon="8.0180412"><ele>219.25</ele><time>2026-04-19T08:51:46.683Z</time></trkpt><trkpt lat="44.8807163" lon="8.0181636"><ele>221.0</ele><time>2026-04-19T08:51:47.687Z</time></trkpt><trkpt lat="44.8808242" lon="8.0182678"><ele>222.4</ele><time>2026-04-19T08:51:48.681Z</time></trkpt><trkpt lat="44.8809164" lon="8.0183544"><ele>223.8</ele><time>2026-04-19T08:51:49.686Z</time></trkpt><trkpt lat="44.8809821" lon="8.0184173"><ele>225.20000000000002</ele><time>2026-04-19T08:51:50.686Z</time></trkpt><trkpt lat="44.8809927" lon="8.0185251"><ele>226.60000000000002</ele><time>2026-04-19T08:51:52.681Z</time></trkpt><trkpt lat="44.8809003" lon="8.0186225"><ele>228.0</ele><time>2026-04-19T08:51:54.681Z</time></trkpt><trkpt lat="44.8808357" lon="8.0186665"><ele>228.0</ele><time>2026-04-19T08:51:55.673Z</time></trkpt><trkpt lat="44.8807533" lon="8.0187256"><ele>228.0</ele><time>2026-04-19T08:51:56.678Z</time></trkpt><trkpt lat="44.8806534" lon="8.0187926"><ele>228.0</ele><time>2026-04-19T08:51:57.678Z</time></trkpt><trkpt lat="44.88054" lon="8.0188766"><ele>228.0</ele><time>2026-04-19T08:51:58.68Z</time></trkpt><trkpt lat="44.8804381" lon="8.0189713"><ele>228.0</ele><time>2026-04-19T08:51:59.687Z</time></trkpt><trkpt lat="44.8803504" lon="8.0190736"><ele>228.0</ele><time>2026-04-19T08:52:00.676Z</time></trkpt><trkpt lat="44.8802676" lon="8.0191847"><ele>228.0</ele><time>2026-04-19T08:52:01.681Z</time></trkpt><trkpt lat="44.8801932" lon="8.0193071"><ele>228.0</ele><time>2026-04-19T08:52:02.703Z</time></trkpt><trkpt lat="44.8801408" lon="8.0194359"><ele>228.0</ele><time>2026-04-19T08:52:03.673Z</time></trkpt><trkpt lat="44.8800991" lon="8.0195451"><ele>230.16666666666666</ele><time>2026-04-19T08:52:04.684Z</time></trkpt><trkpt lat="44.8800627" lon="8.0196412"><ele>232.33333333333331</ele><time>2026-04-19T08:52:05.673Z</time></trkpt><trkpt lat="44.8800217" lon="8.019722"><ele>234.5</ele><time>2026-04-19T08:52:06.684Z</time></trkpt><trkpt lat="44.87992" lon="8.0197961"><ele>236.66666666666666</ele><time>2026-04-19T08:52:08.685Z</time></trkpt><trkpt lat="44.8798532" lon="8.0197833"><ele>238.83333333333331</ele><time>2026-04-19T08:52:09.678Z</time></trkpt><trkpt lat="44.8797604" lon="8.0197248"><ele>241.0</ele><time>2026-04-19T08:52:10.677Z</time></trkpt><trkpt lat="44.8796587" lon="8.0196309"><ele>240.99999999999997</ele><time>2026-04-19T08:52:11.671Z</time></trkpt><trkpt lat="44.8795684" lon="8.0195482"><ele>241.0</ele><time>2026-04-19T08:52:12.673Z</time></trkpt><trkpt lat="44.8794998" lon="8.0194962"><ele>241.0</ele><time>2026-04-19T08:52:13.675Z</time></trkpt><trkpt lat="44.8794087" lon="8.0195167"><ele>241.0</ele><time>2026-04-19T08:52:15.68Z</time></trkpt><trkpt lat="44.8793889" lon="8.0196465"><ele>240.99999999999997</ele><time>2026-04-19T08:52:17.68Z</time></trkpt><trkpt lat="44.8794189" lon="8.0197402"><ele>241.0</ele><time>2026-04-19T08:52:18.682Z</time></trkpt><trkpt lat="44.8794644" lon="8.0198368"><ele>241.0</ele><time>2026-04-19T08:52:19.682Z</time></trkpt><trkpt lat="44.8795348" lon="8.0199223"><ele>241.00000000000003</ele><time>2026-04-19T08:52:20.684Z</time></trkpt><trkpt lat="44.8796145" lon="8.0199907"><ele>241.00000000000003</ele><time>2026-04-19T08:52:21.685Z</time></trkpt><trkpt lat="44.8797006" lon="8.0200558"><ele>241.0</ele><time>2026-04-19T08:52:22.691Z</time></trkpt><trkpt lat="44.8797868" lon="8.0201186"><ele>241.0</ele><time>2026-04-19T08:52:23.681Z</time></trkpt><trkpt lat="44.879883" lon="8.0201792"><ele>243.33333333333331</ele><time>2026-04-19T08:52:24.687Z</time></trkpt><trkpt lat="44.8799794" lon="8.0202396"><ele>245.66666666666666</ele><time>2026-04-19T08:52:25.68Z</time></trkpt><trkpt lat="44.8800613" lon="8.0203048"><ele>248.0</ele><time>2026-04-19T08:52:26.694Z</time></trkpt><trkpt lat="44.8801228" lon="8.0203773"><ele>250.33333333333331</ele><time>2026-04-19T08:52:27.685Z</time></trkpt><trkpt lat="44.8801666" lon="8.0204415"><ele>252.66666666666666</ele><time>2026-04-19T08:52:28.683Z</time></trkpt><trkpt lat="44.8802074" lon="8.0205132"><ele>255.0</ele><time>2026-04-19T08:52:30.689Z</time></trkpt><trkpt lat="44.8801491" lon="8.0206271"><ele>255.0</ele><time>2026-04-19T08:52:35.694Z</time></trkpt><trkpt lat="44.8800546" lon="8.0207393"><ele>255.0</ele><time>2026-04-19T08:52:37.693Z</time></trkpt><trkpt lat="44.8800074" lon="8.0207984"><ele>255.0</ele><time>2026-04-19T08:52:38.686Z</time></trkpt><trkpt lat="44.8799263" lon="8.0209013"><ele>255.0</ele><time>2026-04-19T08:52:40.685Z</time></trkpt><trkpt lat="44.8798653" lon="8.0209713"><ele>255.0</ele><time>2026-04-19T08:52:42.691Z</time></trkpt><trkpt lat="44.8798112" lon="8.0210291"><ele>255.0</ele><time>2026-04-19T08:52:44.689Z</time></trkpt><trkpt lat="44.8798523" lon="8.0209397"><ele>255.0</ele><time>2026-04-19T08:53:03.691Z</time></trkpt><trkpt lat="44.8798935" lon="8.0208719"><ele>255.0</ele><time>2026-04-19T08:53:05.676Z</time></trkpt><trkpt lat="44.8799706" lon="8.0207757"><ele>255.0</ele><time>2026-04-19T08:53:07.666Z</time></trkpt><trkpt lat="44.8800248" lon="8.0206899"><ele>255.0</ele><time>2026-04-19T08:53:08.678Z</time></trkpt><trkpt lat="44.8800773" lon="8.0206126"><ele>255.0</ele><time>2026-04-19T08:53:09.675Z</time></trkpt><trkpt lat="44.8801405" lon="8.0205315"><ele>255.0</ele><time>2026-04-19T08:53:11.677Z</time></trkpt><trkpt lat="44.8801204" lon="8.0204418"><ele>255.0</ele><time>2026-04-19T08:53:14.684Z</time></trkpt><trkpt lat="44.8800785" lon="8.0203545"><ele>255.0</ele><time>2026-04-19T08:53:16.688Z</time></trkpt><trkpt lat="44.8800228" lon="8.0202626"><ele>255.0</ele><time>2026-04-19T08:53:18.686Z</time></trkpt><trkpt lat="44.8799519" lon="8.0201923"><ele>255.0</ele><time>2026-04-19T08:53:20.678Z</time></trkpt><trkpt lat="44.8798761" lon="8.0201358"><ele>255.0</ele><time>2026-04-19T08:53:22.68Z</time></trkpt><trkpt lat="44.8798077" lon="8.020073"><ele>255.0</ele><time>2026-04-19T08:53:24.676Z</time></trkpt><trkpt lat="44.8797307" lon="8.0200031"><ele>252.66666666666666</ele><time>2026-04-19T08:53:26.68Z</time></trkpt><trkpt lat="44.87964" lon="8.0199263"><ele>250.33333333333331</ele><time>2026-04-19T08:53:28.68Z</time></trkpt><trkpt lat="44.879585" lon="8.0198732"><ele>248.0</ele><time>2026-04-19T08:53:29.685Z</time></trkpt><trkpt lat="44.879526" lon="8.019812"><ele>245.66666666666666</ele><time>2026-04-19T08:53:30.682Z</time></trkpt><trkpt lat="44.8794679" lon="8.0197503"><ele>243.33333333333331</ele><time>2026-04-19T08:53:31.685Z</time></trkpt><trkpt lat="44.8794234" lon="8.0196785"><ele>241.0</ele><time>2026-04-19T08:53:32.678Z</time></trkpt><trkpt lat="44.8794053" lon="8.0195503"><ele>240.99999999999997</ele><time>2026-04-19T08:53:34.693Z</time></trkpt><trkpt lat="44.8794367" lon="8.0194732"><ele>241.0</ele><time>2026-04-19T08:53:37.678Z</time></trkpt><trkpt lat="44.8793862" lon="8.019371"><ele>241.0</ele><time>2026-04-19T08:53:44.682Z</time></trkpt><trkpt lat="44.8792955" lon="8.019287"><ele>241.0</ele><time>2026-04-19T08:53:46.683Z</time></trkpt><trkpt lat="44.8792182" lon="8.0192113"><ele>240.99999999999997</ele><time>2026-04-19T08:53:48.677Z</time></trkpt><trkpt lat="44.8791376" lon="8.0191874"><ele>241.0</ele><time>2026-04-19T08:53:50.675Z</time></trkpt><trkpt lat="44.8790481" lon="8.0191659"><ele>239.25</ele><time>2026-04-19T08:53:52.677Z</time></trkpt><trkpt lat="44.878929" lon="8.0191071"><ele>237.5</ele><time>2026-04-19T08:53:54.675Z</time></trkpt><trkpt lat="44.8788165" lon="8.0190529"><ele>235.75</ele><time>2026-04-19T08:53:56.688Z</time></trkpt><trkpt lat="44.8787131" lon="8.0190443"><ele>234.0</ele><time>2026-04-19T08:53:58.678Z</time></trkpt><trkpt lat="44.8786042" lon="8.0190696"><ele>234.0</ele><time>2026-04-19T08:54:00.679Z</time></trkpt><trkpt lat="44.878493" lon="8.0190644"><ele>233.99999999999997</ele><time>2026-04-19T08:54:02.682Z</time></trkpt><trkpt lat="44.8783991" lon="8.019077"><ele>233.99999999999997</ele><time>2026-04-19T08:54:04.669Z</time></trkpt><trkpt lat="44.8783121" lon="8.0190908"><ele>234.0</ele><time>2026-04-19T08:54:06.676Z</time></trkpt><trkpt lat="44.8782508" lon="8.0191339"><ele>234.0</ele><time>2026-04-19T08:54:08.684Z</time></trkpt><trkpt lat="44.8782717" lon="8.0192701"><ele>237.2</ele><time>2026-04-19T08:54:10.679Z</time></trkpt><trkpt lat="44.8782974" lon="8.019387"><ele>240.39999999999998</ele><time>2026-04-19T08:54:11.683Z</time></trkpt><trkpt lat="44.8783264" lon="8.0195114"><ele>243.6</ele><time>2026-04-19T08:54:12.679Z</time></trkpt><trkpt lat="44.8783508" lon="8.0196346"><ele>246.8</ele><time>2026-04-19T08:54:13.682Z</time></trkpt><trkpt lat="44.8783731" lon="8.0197629"><ele>250.0</ele><time>2026-04-19T08:54:14.687Z</time></trkpt><trkpt lat="44.8783978" lon="8.0198825"><ele>251.16666666666666</ele><time>2026-04-19T08:54:15.684Z</time></trkpt><trkpt lat="44.8784274" lon="8.0199859"><ele>252.33333333333331</ele><time>2026-04-19T08:54:16.685Z</time></trkpt><trkpt lat="44.8784518" lon="8.0200865"><ele>253.5</ele><time>2026-04-19T08:54:17.688Z</time></trkpt><trkpt lat="44.8784676" lon="8.020197"><ele>254.66666666666669</ele><time>2026-04-19T08:54:18.682Z</time></trkpt><trkpt lat="44.8784815" lon="8.0203108"><ele>255.83333333333334</ele><time>2026-04-19T08:54:19.68Z</time></trkpt><trkpt lat="44.8785023" lon="8.0204266"><ele>257.0</ele><time>2026-04-19T08:54:20.679Z</time></trkpt><trkpt lat="44.878526" lon="8.0205455"><ele>258.0</ele><time>2026-04-19T08:54:21.678Z</time></trkpt><trkpt lat="44.8785517" lon="8.0206519"><ele>259.0</ele><time>2026-04-19T08:54:22.676Z</time></trkpt><trkpt lat="44.878565" lon="8.0207573"><ele>260.0</ele><time>2026-04-19T08:54:23.678Z</time></trkpt><trkpt lat="44.8785709" lon="8.0208699"><ele>261.0</ele><time>2026-04-19T08:54:24.675Z</time></trkpt><trkpt lat="44.8785696" lon="8.020977"><ele>262.0</ele><time>2026-04-19T08:54:25.673Z</time></trkpt><trkpt lat="44.8785574" lon="8.0210782"><ele>263.0</ele><time>2026-04-19T08:54:26.681Z</time></trkpt><trkpt lat="44.8785283" lon="8.0211741"><ele>263.33333333333337</ele><time>2026-04-19T08:54:27.676Z</time></trkpt><trkpt lat="44.8784819" lon="8.021265"><ele>263.6666666666667</ele><time>2026-04-19T08:54:28.678Z</time></trkpt><trkpt lat="44.8784196" lon="8.0213462"><ele>264.0</ele><time>2026-04-19T08:54:29.69Z</time></trkpt><trkpt lat="44.878359" lon="8.0214114"><ele>264.3333333333333</ele><time>2026-04-19T08:54:30.683Z</time></trkpt><trkpt lat="44.8783052" lon="8.0214629"><ele>264.66666666666663</ele><time>2026-04-19T08:54:31.682Z</time></trkpt><trkpt lat="44.8782307" lon="8.0215692"><ele>265.0</ele><time>2026-04-19T08:54:33.673Z</time></trkpt><trkpt lat="44.8782461" lon="8.0216981"><ele>265.0</ele><time>2026-04-19T08:54:35.672Z</time></trkpt><trkpt lat="44.8782883" lon="8.0217793"><ele>265.0</ele><time>2026-04-19T08:54:36.685Z</time></trkpt><trkpt lat="44.8783376" lon="8.0218667"><ele>265.0</ele><time>2026-04-19T08:54:37.675Z</time></trkpt><trkpt lat="44.8783671" lon="8.0219461"><ele>265.0</ele><time>2026-04-19T08:54:38.673Z</time></trkpt><trkpt lat="44.8783705" lon="8.0220868"><ele>265.0</ele><time>2026-04-19T08:54:40.669Z</time></trkpt><trkpt lat="44.8783621" lon="8.0222196"><ele>265.0</ele><time>2026-04-19T08:54:42.672Z</time></trkpt><trkpt lat="44.8783538" lon="8.0223678"><ele>265.0</ele><time>2026-04-19T08:54:44.672Z</time></trkpt><trkpt lat="44.8783118" lon="8.0224785"><ele>265.0</ele><time>2026-04-19T08:54:46.681Z</time></trkpt><trkpt lat="44.8782775" lon="8.0225745"><ele>265.0</ele><time>2026-04-19T08:54:48.682Z</time></trkpt><trkpt lat="44.8782606" lon="8.0226995"><ele>265.0</ele><time>2026-04-19T08:54:50.687Z</time></trkpt><trkpt lat="44.8782496" lon="8.0228545"><ele>265.0</ele><time>2026-04-19T08:54:52.686Z</time></trkpt><trkpt lat="44.8782558" lon="8.0230232"><ele>265.0</ele><time>2026-04-19T08:54:54.682Z</time></trkpt><trkpt lat="44.8782662" lon="8.0231301"><ele>265.0</ele><time>2026-04-19T08:54:56.693Z</time></trkpt><trkpt lat="44.8782341" lon="8.0232294"><ele>265.0</ele><time>2026-04-19T08:54:58.685Z</time></trkpt><trkpt lat="44.8781984" lon="8.0233046"><ele>265.0</ele><time>2026-04-19T08:54:59.692Z</time></trkpt><trkpt lat="44.8781628" lon="8.0233986"><ele>265.0</ele><time>2026-04-19T08:55:00.685Z</time></trkpt><trkpt lat="44.8781306" lon="8.0235002"><ele>265.0</ele><time>2026-04-19T08:55:01.683Z</time></trkpt><trkpt lat="44.8780973" lon="8.0236064"><ele>265.16666666666663</ele><time>2026-04-19T08:55:02.681Z</time></trkpt><trkpt lat="44.8780529" lon="8.0236916"><ele>265.3333333333333</ele><time>2026-04-19T08:55:03.69Z</time></trkpt><trkpt lat="44.8779951" lon="8.0237586"><ele>265.5</ele><time>2026-04-19T08:55:04.683Z</time></trkpt><trkpt lat="44.8779236" lon="8.0238225"><ele>265.6666666666667</ele><time>2026-04-19T08:55:05.68Z</time></trkpt><trkpt lat="44.8778505" lon="8.0238827"><ele>265.83333333333337</ele><time>2026-04-19T08:55:06.685Z</time></trkpt><trkpt lat="44.8777768" lon="8.0239302"><ele>266.0</ele><time>2026-04-19T08:55:07.695Z</time></trkpt><trkpt lat="44.8777053" lon="8.0239652"><ele>266.0</ele><time>2026-04-19T08:55:08.688Z</time></trkpt><trkpt lat="44.8776326" lon="8.0240116"><ele>266.0</ele><time>2026-04-19T08:55:09.681Z</time></trkpt><trkpt lat="44.8775624" lon="8.0240653"><ele>266.0</ele><time>2026-04-19T08:55:10.685Z</time></trkpt><trkpt lat="44.8774964" lon="8.0241193"><ele>266.0</ele><time>2026-04-19T08:55:11.676Z</time></trkpt><trkpt lat="44.8774312" lon="8.024178"><ele>266.0</ele><time>2026-04-19T08:55:12.686Z</time></trkpt><trkpt lat="44.8773716" lon="8.0242577"><ele>266.0</ele><time>2026-04-19T08:55:13.682Z</time></trkpt><trkpt lat="44.8773155" lon="8.0243546"><ele>268.0</ele><time>2026-04-19T08:55:14.678Z</time></trkpt><trkpt lat="44.8772723" lon="8.0244686"><ele>270.0</ele><time>2026-04-19T08:55:15.685Z</time></trkpt><trkpt lat="44.8772405" lon="8.0245945"><ele>272.0</ele><time>2026-04-19T08:55:16.681Z</time></trkpt><trkpt lat="44.8772111" lon="8.0247266"><ele>274.0</ele><time>2026-04-19T08:55:17.68Z</time></trkpt><trkpt lat="44.8771852" lon="8.0248615"><ele>276.0</ele><time>2026-04-19T08:55:18.685Z</time></trkpt><trkpt lat="44.877158" lon="8.0249867"><ele>277.5</ele><time>2026-04-19T08:55:19.686Z</time></trkpt><trkpt lat="44.8771262" lon="8.0251041"><ele>279.0</ele><time>2026-04-19T08:55:20.684Z</time></trkpt><trkpt lat="44.8770896" lon="8.0252127"><ele>280.5</ele><time>2026-04-19T08:55:21.686Z</time></trkpt><trkpt lat="44.8770561" lon="8.0253112"><ele>282.0</ele><time>2026-04-19T08:55:22.688Z</time></trkpt><trkpt lat="44.8770185" lon="8.0254085"><ele>283.5</ele><time>2026-04-19T08:55:23.687Z</time></trkpt><trkpt lat="44.8769714" lon="8.0254972"><ele>285.0</ele><time>2026-04-19T08:55:24.688Z</time></trkpt><trkpt lat="44.8769213" lon="8.0255765"><ele>285.0</ele><time>2026-04-19T08:55:25.684Z</time></trkpt><trkpt lat="44.8768732" lon="8.0256524"><ele>285.0</ele><time>2026-04-19T08:55:26.693Z</time></trkpt><trkpt lat="44.8768245" lon="8.0257262"><ele>285.0</ele><time>2026-04-19T08:55:27.695Z</time></trkpt><trkpt lat="44.8767747" lon="8.0257966"><ele>285.0</ele><time>2026-04-19T08:55:28.686Z</time></trkpt><trkpt lat="44.8767236" lon="8.0258726"><ele>285.0</ele><time>2026-04-19T08:55:29.694Z</time></trkpt><trkpt lat="44.8766783" lon="8.0259565"><ele>285.0</ele><time>2026-04-19T08:55:30.689Z</time></trkpt><trkpt lat="44.8766305" lon="8.0260548"><ele>285.0</ele><time>2026-04-19T08:55:31.687Z</time></trkpt><trkpt lat="44.8765857" lon="8.0261656"><ele>283.6666666666667</ele><time>2026-04-19T08:55:32.681Z</time></trkpt><trkpt lat="44.8765452" lon="8.0262796"><ele>282.3333333333333</ele><time>2026-04-19T08:55:33.686Z</time></trkpt><trkpt lat="44.8765042" lon="8.0263925"><ele>281.0</ele><time>2026-04-19T08:55:34.679Z</time></trkpt><trkpt lat="44.8764642" lon="8.0264972"><ele>279.66666666666663</ele><time>2026-04-19T08:55:35.685Z</time></trkpt><trkpt lat="44.8764202" lon="8.0265951"><ele>278.3333333333333</ele><time>2026-04-19T08:55:36.685Z</time></trkpt><trkpt lat="44.876377" lon="8.0266845"><ele>277.0</ele><time>2026-04-19T08:55:37.684Z</time></trkpt><trkpt lat="44.8763416" lon="8.0267646"><ele>275.8333333333333</ele><time>2026-04-19T08:55:38.698Z</time></trkpt><trkpt lat="44.8763265" lon="8.0268693"><ele>274.66666666666663</ele><time>2026-04-19T08:55:40.682Z</time></trkpt><trkpt lat="44.8763379" lon="8.0269814"><ele>273.5</ele><time>2026-04-19T08:55:42.68Z</time></trkpt><trkpt lat="44.8763439" lon="8.0271398"><ele>272.3333333333333</ele><time>2026-04-19T08:55:44.673Z</time></trkpt><trkpt lat="44.8763494" lon="8.0272361"><ele>271.1666666666667</ele><time>2026-04-19T08:55:45.681Z</time></trkpt><trkpt lat="44.8763641" lon="8.0273439"><ele>270.0</ele><time>2026-04-19T08:55:46.672Z</time></trkpt><trkpt lat="44.8763699" lon="8.0274545"><ele>268.5</ele><time>2026-04-19T08:55:47.679Z</time></trkpt><trkpt lat="44.8763731" lon="8.0275766"><ele>267.0</ele><time>2026-04-19T08:55:48.686Z</time></trkpt><trkpt lat="44.8763753" lon="8.0276934"><ele>265.5</ele><time>2026-04-19T08:55:49.67Z</time></trkpt><trkpt lat="44.8763756" lon="8.0277997"><ele>264.0</ele><time>2026-04-19T08:55:50.673Z</time></trkpt><trkpt lat="44.8763641" lon="8.0279043"><ele>262.5</ele><time>2026-04-19T08:55:51.674Z</time></trkpt><trkpt lat="44.8763493" lon="8.0280054"><ele>261.0</ele><time>2026-04-19T08:55:52.679Z</time></trkpt><trkpt lat="44.8763352" lon="8.0281041"><ele>261.0</ele><time>2026-04-19T08:55:53.683Z</time></trkpt><trkpt lat="44.876308" lon="8.0281987"><ele>261.0</ele><time>2026-04-19T08:55:54.674Z</time></trkpt><trkpt lat="44.8762808" lon="8.0282845"><ele>261.0</ele><time>2026-04-19T08:55:55.672Z</time></trkpt><trkpt lat="44.8762527" lon="8.0283645"><ele>261.0</ele><time>2026-04-19T08:55:56.681Z</time></trkpt><trkpt lat="44.8762279" lon="8.0285224"><ele>261.0</ele><time>2026-04-19T08:55:58.678Z</time></trkpt><trkpt lat="44.8762551" lon="8.0286549"><ele>261.0</ele><time>2026-04-19T08:56:00.684Z</time></trkpt><trkpt lat="44.8761617" lon="8.0285618"><ele>261.0</ele><time>2026-04-19T08:56:04.672Z</time></trkpt><trkpt lat="44.8761137" lon="8.0284984"><ele>261.0</ele><time>2026-04-19T08:56:05.67Z</time></trkpt><trkpt lat="44.8760569" lon="8.0283789"><ele>261.0</ele><time>2026-04-19T08:56:07.674Z</time></trkpt><trkpt lat="44.8760165" lon="8.0282776"><ele>261.0</ele><time>2026-04-19T08:56:09.686Z</time></trkpt><trkpt lat="44.8759504" lon="8.0282859"><ele>261.0</ele><time>2026-04-19T08:56:12.673Z</time></trkpt><trkpt lat="44.8759037" lon="8.0283612"><ele>261.0</ele><time>2026-04-19T08:56:17.672Z</time></trkpt><trkpt lat="44.8758238" lon="8.0283433"><ele>261.0</ele><time>2026-04-19T08:56:21.672Z</time></trkpt><trkpt lat="44.875746" lon="8.0283234"><ele>261.0</ele><time>2026-04-19T08:56:24.681Z</time></trkpt><trkpt lat="44.8757229" lon="8.0282404"><ele>261.0</ele><time>2026-04-19T08:56:26.678Z</time></trkpt><trkpt lat="44.8756942" lon="8.0281528"><ele>261.0</ele><time>2026-04-19T08:56:28.669Z</time></trkpt><trkpt lat="44.875631" lon="8.0280467"><ele>261.0</ele><time>2026-04-19T08:56:30.67Z</time></trkpt><trkpt lat="44.8755468" lon="8.0279306"><ele>261.0</ele><time>2026-04-19T08:56:32.672Z</time></trkpt><trkpt lat="44.8754704" lon="8.0278504"><ele>260.1666666666667</ele><time>2026-04-19T08:56:34.679Z</time></trkpt><trkpt lat="44.8754222" lon="8.0277338"><ele>259.3333333333333</ele><time>2026-04-19T08:56:36.678Z</time></trkpt><trkpt lat="44.8754029" lon="8.0275987"><ele>258.5</ele><time>2026-04-19T08:56:39.678Z</time></trkpt><trkpt lat="44.8753693" lon="8.0275205"><ele>257.66666666666663</ele><time>2026-04-19T08:56:42.685Z</time></trkpt><trkpt lat="44.8753161" lon="8.027438"><ele>256.8333333333333</ele><time>2026-04-19T08:57:13.731Z</time></trkpt><trkpt lat="44.875252" lon="8.0273402"><ele>256.0</ele><time>2026-04-19T08:57:15.671Z</time></trkpt><trkpt lat="44.8751761" lon="8.0271943"><ele>255.83333333333331</ele><time>2026-04-19T08:57:17.658Z</time></trkpt><trkpt lat="44.875138" lon="8.0270958"><ele>255.66666666666666</ele><time>2026-04-19T08:57:18.667Z</time></trkpt><trkpt lat="44.8751256" lon="8.0270014"><ele>255.5</ele><time>2026-04-19T08:57:19.659Z</time></trkpt><trkpt lat="44.8751501" lon="8.0269161"><ele>255.33333333333331</ele><time>2026-04-19T08:57:22.664Z</time></trkpt><trkpt lat="44.8752028" lon="8.0268002"><ele>255.16666666666666</ele><time>2026-04-19T08:57:28.67Z</time></trkpt><trkpt lat="44.8752313" lon="8.0266978"><ele>255.0</ele><time>2026-04-19T08:57:30.662Z</time></trkpt><trkpt lat="44.8752151" lon="8.0265485"><ele>254.6</ele><time>2026-04-19T08:57:32.666Z</time></trkpt><trkpt lat="44.8751913" lon="8.0264286"><ele>254.2</ele><time>2026-04-19T08:57:34.681Z</time></trkpt><trkpt lat="44.8751392" lon="8.026345"><ele>253.8</ele><time>2026-04-19T08:57:36.677Z</time></trkpt><trkpt lat="44.8750797" lon="8.0262314"><ele>253.4</ele><time>2026-04-19T08:57:39.682Z</time></trkpt><trkpt lat="44.8750239" lon="8.0260592"><ele>253.0</ele><time>2026-04-19T08:57:41.683Z</time></trkpt><trkpt lat="44.8749843" lon="8.0259365"><ele>246.8</ele><time>2026-04-19T08:57:42.683Z</time></trkpt><trkpt lat="44.874932" lon="8.0257958"><ele>240.60000000000002</ele><time>2026-04-19T08:57:43.686Z</time></trkpt><trkpt lat="44.8748704" lon="8.0256579"><ele>234.39999999999998</ele><time>2026-04-19T08:57:44.675Z</time></trkpt><trkpt lat="44.8748078" lon="8.0255365"><ele>228.2</ele><time>2026-04-19T08:57:45.676Z</time></trkpt><trkpt lat="44.8747545" lon="8.0254155"><ele>222.0</ele><time>2026-04-19T08:57:46.689Z</time></trkpt><trkpt lat="44.8747183" lon="8.0252942"><ele>222.0</ele><time>2026-04-19T08:57:47.676Z</time></trkpt><trkpt lat="44.8746942" lon="8.0251701"><ele>222.0</ele><time>2026-04-19T08:57:48.672Z</time></trkpt><trkpt lat="44.874685" lon="8.025026"><ele>222.0</ele><time>2026-04-19T08:57:49.674Z</time></trkpt><trkpt lat="44.8746821" lon="8.0248626"><ele>222.0</ele><time>2026-04-19T08:57:50.683Z</time></trkpt><trkpt lat="44.8746793" lon="8.0247037"><ele>222.0</ele><time>2026-04-19T08:57:51.68Z</time></trkpt><trkpt lat="44.8746736" lon="8.0245538"><ele>221.2</ele><time>2026-04-19T08:57:52.677Z</time></trkpt><trkpt lat="44.8746649" lon="8.0243995"><ele>220.39999999999998</ele><time>2026-04-19T08:57:53.686Z</time></trkpt><trkpt lat="44.8746448" lon="8.024254"><ele>219.60000000000002</ele><time>2026-04-19T08:57:54.678Z</time></trkpt><trkpt lat="44.87463" lon="8.0241224"><ele>218.8</ele><time>2026-04-19T08:57:55.683Z</time></trkpt><trkpt lat="44.8746216" lon="8.024009"><ele>218.0</ele><time>2026-04-19T08:57:56.672Z</time></trkpt><trkpt lat="44.8746219" lon="8.0239008"><ele>218.0</ele><time>2026-04-19T08:57:57.682Z</time></trkpt><trkpt lat="44.8746379" lon="8.0237786"><ele>218.0</ele><time>2026-04-19T08:57:58.704Z</time></trkpt><trkpt lat="44.8746616" lon="8.0236622"><ele>218.0</ele><time>2026-04-19T08:57:59.681Z</time></trkpt><trkpt lat="44.8747026" lon="8.0235366"><ele>218.0</ele><time>2026-04-19T08:58:00.697Z</time></trkpt><trkpt lat="44.8747592" lon="8.0234154"><ele>218.0</ele><time>2026-04-19T08:58:01.712Z</time></trkpt><trkpt lat="44.8748412" lon="8.0232675"><ele>217.33333333333334</ele><time>2026-04-19T08:58:02.671Z</time></trkpt><trkpt lat="44.8749429" lon="8.0231098"><ele>216.66666666666669</ele><time>2026-04-19T08:58:03.672Z</time></trkpt><trkpt lat="44.87504" lon="8.0229361"><ele>216.0</ele><time>2026-04-19T08:58:04.672Z</time></trkpt><trkpt lat="44.8751191" lon="8.022766"><ele>216.0</ele><time>2026-04-19T08:58:05.685Z</time></trkpt><trkpt lat="44.8751901" lon="8.0225936"><ele>216.0</ele><time>2026-04-19T08:58:06.68Z</time></trkpt><trkpt lat="44.8752453" lon="8.0224299"><ele>216.0</ele><time>2026-04-19T08:58:07.68Z</time></trkpt><trkpt lat="44.8752883" lon="8.0222909"><ele>216.0</ele><time>2026-04-19T08:58:08.678Z</time></trkpt><trkpt lat="44.8753325" lon="8.0221737"><ele>215.33333333333334</ele><time>2026-04-19T08:58:09.684Z</time></trkpt><trkpt lat="44.875382" lon="8.022075"><ele>214.66666666666669</ele><time>2026-04-19T08:58:10.674Z</time></trkpt><trkpt lat="44.8754386" lon="8.0219923"><ele>214.0</ele><time>2026-04-19T08:58:11.674Z</time></trkpt><trkpt lat="44.8754918" lon="8.021919"><ele>213.33333333333334</ele><time>2026-04-19T08:58:12.683Z</time></trkpt><trkpt lat="44.8755348" lon="8.0218314"><ele>212.66666666666669</ele><time>2026-04-19T08:58:13.674Z</time></trkpt><trkpt lat="44.8755648" lon="8.0217219"><ele>212.0</ele><time>2026-04-19T08:58:14.676Z</time></trkpt><trkpt lat="44.8755897" lon="8.0216027"><ele>211.66666666666669</ele><time>2026-04-19T08:58:15.677Z</time></trkpt><trkpt lat="44.8756057" lon="8.0214774"><ele>211.33333333333334</ele><time>2026-04-19T08:58:16.667Z</time></trkpt><trkpt lat="44.8756252" lon="8.0213608"><ele>211.0</ele><time>2026-04-19T08:58:17.679Z</time></trkpt><trkpt lat="44.8756484" lon="8.0212542"><ele>210.66666666666669</ele><time>2026-04-19T08:58:18.681Z</time></trkpt><trkpt lat="44.8756729" lon="8.0211623"><ele>210.33333333333334</ele><time>2026-04-19T08:58:19.679Z</time></trkpt><trkpt lat="44.8756912" lon="8.0210714"><ele>210.0</ele><time>2026-04-19T08:58:20.667Z</time></trkpt><trkpt lat="44.8756991" lon="8.0209676"><ele>210.0</ele><time>2026-04-19T08:58:21.666Z</time></trkpt><trkpt lat="44.8757092" lon="8.0208504"><ele>210.0</ele><time>2026-04-19T08:58:22.683Z</time></trkpt><trkpt lat="44.8757189" lon="8.0207247"><ele>210.0</ele><time>2026-04-19T08:58:23.674Z</time></trkpt><trkpt lat="44.8757293" lon="8.0205924"><ele>210.0</ele><time>2026-04-19T08:58:24.676Z</time></trkpt><trkpt lat="44.8757264" lon="8.0204501"><ele>210.0</ele><time>2026-04-19T08:58:25.673Z</time></trkpt><trkpt lat="44.8757008" lon="8.0203149"><ele>209.2</ele><time>2026-04-19T08:58:26.672Z</time></trkpt><trkpt lat="44.8756579" lon="8.0202009"><ele>208.4</ele><time>2026-04-19T08:58:27.693Z</time></trkpt><trkpt lat="44.8756163" lon="8.0200983"><ele>207.60000000000002</ele><time>2026-04-19T08:58:28.673Z</time></trkpt><trkpt lat="44.8755548" lon="8.0200202"><ele>206.8</ele><time>2026-04-19T08:58:29.676Z</time></trkpt><trkpt lat="44.8754622" lon="8.0199506"><ele>206.0</ele><time>2026-04-19T08:58:31.682Z</time></trkpt><trkpt lat="44.8755582" lon="8.0198866"><ele>206.0</ele><time>2026-04-19T08:58:34.679Z</time></trkpt><trkpt lat="44.8756466" lon="8.0198249"><ele>206.0</ele><time>2026-04-19T08:58:35.675Z</time></trkpt><trkpt lat="44.8757496" lon="8.0197196"><ele>206.0</ele><time>2026-04-19T08:58:36.69Z</time></trkpt><trkpt lat="44.8758518" lon="8.019573"><ele>206.0</ele><time>2026-04-19T08:58:37.683Z</time></trkpt><trkpt lat="44.8759495" lon="8.0193926"><ele>207.33333333333334</ele><time>2026-04-19T08:58:38.681Z</time></trkpt><trkpt lat="44.8760348" lon="8.0191912"><ele>208.66666666666669</ele><time>2026-04-19T08:58:39.68Z</time></trkpt><trkpt lat="44.8761127" lon="8.0189819"><ele>210.0</ele><time>2026-04-19T08:58:40.684Z</time></trkpt><trkpt lat="44.8761842" lon="8.018787"><ele>210.0</ele><time>2026-04-19T08:58:41.675Z</time></trkpt><trkpt lat="44.8762493" lon="8.0185912"><ele>210.0</ele><time>2026-04-19T08:58:42.691Z</time></trkpt><trkpt lat="44.8763065" lon="8.0184122"><ele>210.0</ele><time>2026-04-19T08:58:43.687Z</time></trkpt><trkpt lat="44.8763654" lon="8.0182442"><ele>210.0</ele><time>2026-04-19T08:58:44.685Z</time></trkpt><trkpt lat="44.8764232" lon="8.0180739"><ele>208.25</ele><time>2026-04-19T08:58:45.702Z</time></trkpt><trkpt lat="44.8764935" lon="8.0179057"><ele>206.5</ele><time>2026-04-19T08:58:46.684Z</time></trkpt><trkpt lat="44.8765771" lon="8.0177388"><ele>204.75</ele><time>2026-04-19T08:58:47.692Z</time></trkpt><trkpt lat="44.876669" lon="8.0175945"><ele>203.0</ele><time>2026-04-19T08:58:48.691Z</time></trkpt><trkpt lat="44.8767741" lon="8.0174724"><ele>201.75</ele><time>2026-04-19T08:58:49.688Z</time></trkpt><trkpt lat="44.8768865" lon="8.0173624"><ele>200.5</ele><time>2026-04-19T08:58:50.693Z</time></trkpt><trkpt lat="44.8770054" lon="8.0172702"><ele>199.25</ele><time>2026-04-19T08:58:51.687Z</time></trkpt><trkpt lat="44.8771236" lon="8.0171955"><ele>198.0</ele><time>2026-04-19T08:58:52.688Z</time></trkpt><trkpt lat="44.8772448" lon="8.0171492"><ele>198.0</ele><time>2026-04-19T08:58:53.691Z</time></trkpt><trkpt lat="44.8773706" lon="8.0171345"><ele>198.0</ele><time>2026-04-19T08:58:54.689Z</time></trkpt><trkpt lat="44.8775015" lon="8.0171307"><ele>198.0</ele><time>2026-04-19T08:58:55.685Z</time></trkpt><trkpt lat="44.8776275" lon="8.0171089"><ele>198.0</ele><time>2026-04-19T08:58:56.687Z</time></trkpt><trkpt lat="44.8777542" lon="8.0170707"><ele>199.25</ele><time>2026-04-19T08:58:57.695Z</time></trkpt><trkpt lat="44.8778773" lon="8.017015"><ele>200.5</ele><time>2026-04-19T08:58:58.69Z</time></trkpt><trkpt lat="44.8779933" lon="8.0169349"><ele>201.75</ele><time>2026-04-19T08:58:59.698Z</time></trkpt><trkpt lat="44.8780985" lon="8.016834"><ele>203.0</ele><time>2026-04-19T08:59:00.688Z</time></trkpt><trkpt lat="44.8781979" lon="8.0167206"><ele>201.8</ele><time>2026-04-19T08:59:01.69Z</time></trkpt><trkpt lat="44.8782849" lon="8.0166135"><ele>200.60000000000002</ele><time>2026-04-19T08:59:02.688Z</time></trkpt><trkpt lat="44.8783664" lon="8.016522"><ele>199.39999999999998</ele><time>2026-04-19T08:59:03.691Z</time></trkpt><trkpt lat="44.8784442" lon="8.0164409"><ele>198.2</ele><time>2026-04-19T08:59:04.689Z</time></trkpt><trkpt lat="44.8785257" lon="8.0163618"><ele>197.0</ele><time>2026-04-19T08:59:05.692Z</time></trkpt><trkpt lat="44.8786097" lon="8.0162913"><ele>197.0</ele><time>2026-04-19T08:59:06.682Z</time></trkpt><trkpt lat="44.8786983" lon="8.0162444"><ele>197.0</ele><time>2026-04-19T08:59:07.685Z</time></trkpt><trkpt lat="44.8787921" lon="8.0162245"><ele>197.0</ele><time>2026-04-19T08:59:08.687Z</time></trkpt><trkpt lat="44.8788893" lon="8.016219"><ele>197.0</ele><time>2026-04-19T08:59:09.689Z</time></trkpt><trkpt lat="44.8789895" lon="8.0162213"><ele>197.0</ele><time>2026-04-19T08:59:10.691Z</time></trkpt><trkpt lat="44.8790989" lon="8.0162311"><ele>197.0</ele><time>2026-04-19T08:59:11.692Z</time></trkpt><trkpt lat="44.8792066" lon="8.0162387"><ele>197.0</ele><time>2026-04-19T08:59:12.689Z</time></trkpt><trkpt lat="44.8793217" lon="8.0162421"><ele>197.0</ele><time>2026-04-19T08:59:13.698Z</time></trkpt><trkpt lat="44.8794372" lon="8.0162328"><ele>197.0</ele><time>2026-04-19T08:59:14.682Z</time></trkpt><trkpt lat="44.8795555" lon="8.0162153"><ele>197.75</ele><time>2026-04-19T08:59:15.692Z</time></trkpt><trkpt lat="44.8796769" lon="8.0161898"><ele>198.5</ele><time>2026-04-19T08:59:16.688Z</time></trkpt><trkpt lat="44.8797927" lon="8.0161592"><ele>199.25</ele><time>2026-04-19T08:59:17.689Z</time></trkpt><trkpt lat="44.8799002" lon="8.0161342"><ele>200.0</ele><time>2026-04-19T08:59:18.694Z</time></trkpt><trkpt lat="44.8800051" lon="8.0161201"><ele>200.4</ele><time>2026-04-19T08:59:19.691Z</time></trkpt><trkpt lat="44.8801104" lon="8.0161192"><ele>200.8</ele><time>2026-04-19T08:59:20.69Z</time></trkpt><trkpt lat="44.8802095" lon="8.0161194"><ele>201.2</ele><time>2026-04-19T08:59:21.703Z</time></trkpt><trkpt lat="44.8803063" lon="8.0161267"><ele>201.6</ele><time>2026-04-19T08:59:22.694Z</time></trkpt><trkpt lat="44.8803979" lon="8.0161468"><ele>202.0</ele><time>2026-04-19T08:59:23.693Z</time></trkpt><trkpt lat="44.8804829" lon="8.0161831"><ele>202.0</ele><time>2026-04-19T08:59:24.687Z</time></trkpt><trkpt lat="44.8805483" lon="8.0162487"><ele>202.0</ele><time>2026-04-19T08:59:25.692Z</time></trkpt><trkpt lat="44.8805913" lon="8.0163446"><ele>202.0</ele><time>2026-04-19T08:59:26.693Z</time></trkpt><trkpt lat="44.8805997" lon="8.0164707"><ele>202.0</ele><time>2026-04-19T08:59:27.696Z</time></trkpt><trkpt lat="44.880576" lon="8.0166233"><ele>202.0</ele><time>2026-04-19T08:59:28.693Z</time></trkpt><trkpt lat="44.8805337" lon="8.0167994"><ele>205.0</ele><time>2026-04-19T08:59:29.688Z</time></trkpt><trkpt lat="44.8804954" lon="8.0169877"><ele>208.0</ele><time>2026-04-19T08:59:30.686Z</time></trkpt><trkpt lat="44.8804688" lon="8.0171729"><ele>211.0</ele><time>2026-04-19T08:59:31.691Z</time></trkpt><trkpt lat="44.8804601" lon="8.0173524"><ele>214.0</ele><time>2026-04-19T08:59:32.683Z</time></trkpt><trkpt lat="44.8804688" lon="8.0175217"><ele>215.39999999999998</ele><time>2026-04-19T08:59:33.689Z</time></trkpt><trkpt lat="44.8805048" lon="8.0176789"><ele>216.79999999999998</ele><time>2026-04-19T08:59:34.681Z</time></trkpt><trkpt lat="44.8805503" lon="8.0178148"><ele>218.20000000000002</ele><time>2026-04-19T08:59:35.685Z</time></trkpt><trkpt lat="44.8806021" lon="8.0179121"><ele>219.60000000000002</ele><time>2026-04-19T08:59:36.68Z</time></trkpt><trkpt lat="44.8806523" lon="8.0179737"><ele>221.0</ele><time>2026-04-19T08:59:37.681Z</time></trkpt><trkpt lat="44.8807343" lon="8.0180402"><ele>221.0</ele><time>2026-04-19T08:59:39.692Z</time></trkpt><trkpt lat="44.8808019" lon="8.0180678"><ele>221.00000000000003</ele><time>2026-04-19T08:59:42.694Z</time></trkpt><trkpt lat="44.8808863" lon="8.0180215"><ele>221.00000000000003</ele><time>2026-04-19T08:59:46.683Z</time></trkpt><trkpt lat="44.8809881" lon="8.0179924"><ele>221.0</ele><time>2026-04-19T08:59:48.687Z</time></trkpt><trkpt lat="44.8811047" lon="8.0179268"><ele>221.0</ele><time>2026-04-19T08:59:50.693Z</time></trkpt><trkpt lat="44.8812165" lon="8.0178523"><ele>221.00000000000003</ele><time>2026-04-19T08:59:52.686Z</time></trkpt><trkpt lat="44.8812769" lon="8.0177996"><ele>221.0</ele><time>2026-04-19T08:59:53.701Z</time></trkpt><trkpt lat="44.8813322" lon="8.0177394"><ele>221.0</ele><time>2026-04-19T08:59:54.684Z</time></trkpt><trkpt lat="44.8813925" lon="8.0176766"><ele>221.0</ele><time>2026-04-19T08:59:55.679Z</time></trkpt><trkpt lat="44.881455" lon="8.017609"><ele>221.00000000000003</ele><time>2026-04-19T08:59:56.664Z</time></trkpt><trkpt lat="44.8815197" lon="8.0175381"><ele>221.0</ele><time>2026-04-19T08:59:57.675Z</time></trkpt><trkpt lat="44.8815827" lon="8.0174782"><ele>221.2857142857143</ele><time>2026-04-19T08:59:58.675Z</time></trkpt><trkpt lat="44.8816435" lon="8.0174203"><ele>221.57142857142858</ele><time>2026-04-19T08:59:59.674Z</time></trkpt><trkpt lat="44.8817069" lon="8.0173727"><ele>221.85714285714286</ele><time>2026-04-19T09:00:00.663Z</time></trkpt><trkpt lat="44.8817657" lon="8.0173316"><ele>222.14285714285717</ele><time>2026-04-19T09:00:01.668Z</time></trkpt><trkpt lat="44.8818304" lon="8.0172916"><ele>222.42857142857142</ele><time>2026-04-19T09:00:02.664Z</time></trkpt><trkpt lat="44.8819035" lon="8.0172449"><ele>222.71428571428572</ele><time>2026-04-19T09:00:03.673Z</time></trkpt><trkpt lat="44.8819801" lon="8.0171972"><ele>223.0</ele><time>2026-04-19T09:00:04.666Z</time></trkpt><trkpt lat="44.8820566" lon="8.0171573"><ele>221.83333333333331</ele><time>2026-04-19T09:00:05.674Z</time></trkpt><trkpt lat="44.8821317" lon="8.0171146"><ele>220.66666666666666</ele><time>2026-04-19T09:00:06.672Z</time></trkpt><trkpt lat="44.8822103" lon="8.0170716"><ele>219.5</ele><time>2026-04-19T09:00:07.664Z</time></trkpt><trkpt lat="44.8822907" lon="8.0170271"><ele>218.33333333333331</ele><time>2026-04-19T09:00:08.673Z</time></trkpt><trkpt lat="44.8823715" lon="8.0169823"><ele>217.16666666666666</ele><time>2026-04-19T09:00:09.662Z</time></trkpt><trkpt lat="44.8824484" lon="8.016939"><ele>216.0</ele><time>2026-04-19T09:00:10.667Z</time></trkpt><trkpt lat="44.8825266" lon="8.0168979"><ele>214.85714285714286</ele><time>2026-04-19T09:00:11.668Z</time></trkpt><trkpt lat="44.882598" lon="8.0168638"><ele>213.71428571428572</ele><time>2026-04-19T09:00:12.669Z</time></trkpt><trkpt lat="44.8826681" lon="8.016833"><ele>212.57142857142856</ele><time>2026-04-19T09:00:13.669Z</time></trkpt><trkpt lat="44.8827398" lon="8.0168023"><ele>211.42857142857144</ele><time>2026-04-19T09:00:14.663Z</time></trkpt><trkpt lat="44.8828123" lon="8.0167747"><ele>210.2857142857143</ele><time>2026-04-19T09:00:15.683Z</time></trkpt><trkpt lat="44.8828796" lon="8.0167498"><ele>209.14285714285714</ele><time>2026-04-19T09:00:16.664Z</time></trkpt><trkpt lat="44.8829479" lon="8.0167194"><ele>208.0</ele><time>2026-04-19T09:00:17.674Z</time></trkpt><trkpt lat="44.8830219" lon="8.0166793"><ele>208.33333333333331</ele><time>2026-04-19T09:00:18.674Z</time></trkpt><trkpt lat="44.8831038" lon="8.016636"><ele>208.66666666666666</ele><time>2026-04-19T09:00:19.671Z</time></trkpt><trkpt lat="44.8831814" lon="8.0165901"><ele>209.0</ele><time>2026-04-19T09:00:20.678Z</time></trkpt><trkpt lat="44.883256" lon="8.0165496"><ele>209.33333333333331</ele><time>2026-04-19T09:00:21.675Z</time></trkpt><trkpt lat="44.883335" lon="8.0165249"><ele>209.66666666666666</ele><time>2026-04-19T09:00:22.674Z</time></trkpt><trkpt lat="44.8834181" lon="8.0165052"><ele>210.0</ele><time>2026-04-19T09:00:23.678Z</time></trkpt><trkpt lat="44.8835044" lon="8.0164879"><ele>209.0</ele><time>2026-04-19T09:00:24.673Z</time></trkpt><trkpt lat="44.8835927" lon="8.0164761"><ele>208.0</ele><time>2026-04-19T09:00:25.665Z</time></trkpt><trkpt lat="44.8836776" lon="8.0164684"><ele>207.0</ele><time>2026-04-19T09:00:26.676Z</time></trkpt><trkpt lat="44.8837564" lon="8.016461"><ele>206.0</ele><time>2026-04-19T09:00:27.678Z</time></trkpt><trkpt lat="44.8838265" lon="8.0164455"><ele>205.0</ele><time>2026-04-19T09:00:28.681Z</time></trkpt><trkpt lat="44.8838949" lon="8.0164101"><ele>204.0</ele><time>2026-04-19T09:00:29.675Z</time></trkpt><trkpt lat="44.8839567" lon="8.016366"><ele>204.0</ele><time>2026-04-19T09:00:30.67Z</time></trkpt><trkpt lat="44.8840255" lon="8.0163172"><ele>204.0</ele><time>2026-04-19T09:00:31.679Z</time></trkpt><trkpt lat="44.8840986" lon="8.0162768"><ele>204.0</ele><time>2026-04-19T09:00:32.672Z</time></trkpt><trkpt lat="44.8841721" lon="8.0162523"><ele>204.0</ele><time>2026-04-19T09:00:33.676Z</time></trkpt><trkpt lat="44.8842524" lon="8.0162376"><ele>204.0</ele><time>2026-04-19T09:00:34.677Z</time></trkpt><trkpt lat="44.8843345" lon="8.0162154"><ele>204.0</ele><time>2026-04-19T09:00:35.68Z</time></trkpt><trkpt lat="44.8844159" lon="8.016189"><ele>202.2</ele><time>2026-04-19T09:00:36.672Z</time></trkpt><trkpt lat="44.8844993" lon="8.016159"><ele>200.39999999999998</ele><time>2026-04-19T09:00:37.678Z</time></trkpt><trkpt lat="44.8845879" lon="8.0161212"><ele>198.6</ele><time>2026-04-19T09:00:38.678Z</time></trkpt><trkpt lat="44.8846801" lon="8.0160625"><ele>196.8</ele><time>2026-04-19T09:00:39.671Z</time></trkpt><trkpt lat="44.8847621" lon="8.0159925"><ele>195.0</ele><time>2026-04-19T09:00:40.679Z</time></trkpt><trkpt lat="44.8848301" lon="8.0159157"><ele>195.0</ele><time>2026-04-19T09:00:41.67Z</time></trkpt><trkpt lat="44.8848852" lon="8.0158312"><ele>195.0</ele><time>2026-04-19T09:00:42.667Z</time></trkpt><trkpt lat="44.884929" lon="8.0157336"><ele>195.0</ele><time>2026-04-19T09:00:43.675Z</time></trkpt><trkpt lat="44.8849593" lon="8.0156161"><ele>195.0</ele><time>2026-04-19T09:00:44.667Z</time></trkpt><trkpt lat="44.8849834" lon="8.0154632"><ele>195.0</ele><time>2026-04-19T09:00:45.679Z</time></trkpt><trkpt lat="44.8850004" lon="8.0153117"><ele>195.0</ele><time>2026-04-19T09:00:46.674Z</time></trkpt><trkpt lat="44.8850113" lon="8.0151878"><ele>195.0</ele><time>2026-04-19T09:00:47.674Z</time></trkpt><trkpt lat="44.8850248" lon="8.0150762"><ele>195.0</ele><time>2026-04-19T09:00:48.677Z</time></trkpt><trkpt lat="44.8850347" lon="8.0149805"><ele>195.0</ele><time>2026-04-19T09:00:49.677Z</time></trkpt><trkpt lat="44.8850246" lon="8.0148894"><ele>195.0</ele><time>2026-04-19T09:00:51.681Z</time></trkpt><trkpt lat="44.8851149" lon="8.0148996"><ele>195.0</ele><time>2026-04-19T09:00:55.678Z</time></trkpt><trkpt lat="44.8851815" lon="8.0149288"><ele>194.2</ele><time>2026-04-19T09:00:56.68Z</time></trkpt><trkpt lat="44.8852489" lon="8.0149864"><ele>193.4</ele><time>2026-04-19T09:00:57.683Z</time></trkpt><trkpt lat="44.8853208" lon="8.0150772"><ele>192.60000000000002</ele><time>2026-04-19T09:00:58.684Z</time></trkpt><trkpt lat="44.8853944" lon="8.0152096"><ele>191.8</ele><time>2026-04-19T09:00:59.677Z</time></trkpt><trkpt lat="44.8854606" lon="8.0153622"><ele>191.0</ele><time>2026-04-19T09:01:00.68Z</time></trkpt><trkpt lat="44.8855259" lon="8.015506"><ele>191.0</ele><time>2026-04-19T09:01:01.675Z</time></trkpt><trkpt lat="44.8855967" lon="8.0156209"><ele>191.0</ele><time>2026-04-19T09:01:02.681Z</time></trkpt><trkpt lat="44.8856687" lon="8.0157028"><ele>191.0</ele><time>2026-04-19T09:01:03.674Z</time></trkpt><trkpt lat="44.8857455" lon="8.0157627"><ele>191.0</ele><time>2026-04-19T09:01:04.673Z</time></trkpt><trkpt lat="44.8858307" lon="8.0158042"><ele>191.0</ele><time>2026-04-19T09:01:05.675Z</time></trkpt><trkpt lat="44.8859235" lon="8.0158339"><ele>190.60000000000002</ele><time>2026-04-19T09:01:06.673Z</time></trkpt><trkpt lat="44.8860164" lon="8.0158604"><ele>190.2</ele><time>2026-04-19T09:01:07.673Z</time></trkpt><trkpt lat="44.8861183" lon="8.0158853"><ele>189.8</ele><time>2026-04-19T09:01:08.672Z</time></trkpt><trkpt lat="44.8862174" lon="8.0159092"><ele>189.39999999999998</ele><time>2026-04-19T09:01:09.681Z</time></trkpt><trkpt lat="44.8863229" lon="8.0159392"><ele>189.0</ele><time>2026-04-19T09:01:10.674Z</time></trkpt><trkpt lat="44.8864309" lon="8.015968"><ele>189.0</ele><time>2026-04-19T09:01:11.679Z</time></trkpt><trkpt lat="44.8865345" lon="8.0159925"><ele>189.0</ele><time>2026-04-19T09:01:12.666Z</time></trkpt><trkpt lat="44.8866326" lon="8.016013"><ele>189.0</ele><time>2026-04-19T09:01:13.675Z</time></trkpt><trkpt lat="44.8867269" lon="8.0160303"><ele>189.0</ele><time>2026-04-19T09:01:14.662Z</time></trkpt><trkpt lat="44.8868118" lon="8.0160486"><ele>189.0</ele><time>2026-04-19T09:01:15.663Z</time></trkpt><trkpt lat="44.8868804" lon="8.0160594"><ele>189.2</ele><time>2026-04-19T09:01:16.681Z</time></trkpt><trkpt lat="44.8869446" lon="8.0161151"><ele>189.39999999999998</ele><time>2026-04-19T09:01:19.661Z</time></trkpt><trkpt lat="44.8869639" lon="8.0162855"><ele>189.6</ele><time>2026-04-19T09:01:21.674Z</time></trkpt><trkpt lat="44.8869593" lon="8.0164148"><ele>189.8</ele><time>2026-04-19T09:01:22.669Z</time></trkpt><trkpt lat="44.886943" lon="8.0165577"><ele>190.0</ele><time>2026-04-19T09:01:23.685Z</time></trkpt><trkpt lat="44.886926" lon="8.0167213"><ele>190.0</ele><time>2026-04-19T09:01:24.675Z</time></trkpt><trkpt lat="44.886915" lon="8.0169015"><ele>190.0</ele><time>2026-04-19T09:01:25.678Z</time></trkpt><trkpt lat="44.8869037" lon="8.0170818"><ele>190.0</ele><time>2026-04-19T09:01:26.672Z</time></trkpt><trkpt lat="44.8868925" lon="8.0172561"><ele>190.0</ele><time>2026-04-19T09:01:27.681Z</time></trkpt><trkpt lat="44.8868821" lon="8.0174256"><ele>191.5</ele><time>2026-04-19T09:01:28.676Z</time></trkpt><trkpt lat="44.8868735" lon="8.0175958"><ele>193.0</ele><time>2026-04-19T09:01:29.673Z</time></trkpt><trkpt lat="44.8868623" lon="8.0177713"><ele>194.5</ele><time>2026-04-19T09:01:30.68Z</time></trkpt><trkpt lat="44.8868511" lon="8.0179436"><ele>196.0</ele><time>2026-04-19T09:01:31.678Z</time></trkpt><trkpt lat="44.8868428" lon="8.0181153"><ele>196.0</ele><time>2026-04-19T09:01:32.683Z</time></trkpt><trkpt lat="44.8868359" lon="8.0182895"><ele>196.0</ele><time>2026-04-19T09:01:33.677Z</time></trkpt><trkpt lat="44.8868301" lon="8.0184618"><ele>196.0</ele><time>2026-04-19T09:01:34.68Z</time></trkpt><trkpt lat="44.8868234" lon="8.018627"><ele>196.0</ele><time>2026-04-19T09:01:35.678Z</time></trkpt><trkpt lat="44.8868178" lon="8.0187869"><ele>195.4</ele><time>2026-04-19T09:01:36.678Z</time></trkpt><trkpt lat="44.8868112" lon="8.0189319"><ele>194.8</ele><time>2026-04-19T09:01:37.674Z</time></trkpt><trkpt lat="44.8868008" lon="8.0190587"><ele>194.20000000000002</ele><time>2026-04-19T09:01:38.677Z</time></trkpt><trkpt lat="44.886784" lon="8.0191757"><ele>193.60000000000002</ele><time>2026-04-19T09:01:39.679Z</time></trkpt><trkpt lat="44.8867569" lon="8.0192939"><ele>193.0</ele><time>2026-04-19T09:01:40.679Z</time></trkpt><trkpt lat="44.8867213" lon="8.0194267"><ele>193.0</ele><time>2026-04-19T09:01:41.68Z</time></trkpt><trkpt lat="44.8866846" lon="8.0195855"><ele>193.0</ele><time>2026-04-19T09:01:42.683Z</time></trkpt><trkpt lat="44.8866447" lon="8.0197599"><ele>193.0</ele><time>2026-04-19T09:01:43.68Z</time></trkpt><trkpt lat="44.8866061" lon="8.0199275"><ele>193.0</ele><time>2026-04-19T09:01:44.675Z</time></trkpt><trkpt lat="44.8865715" lon="8.0200782"><ele>192.99999999999997</ele><time>2026-04-19T09:01:45.688Z</time></trkpt><trkpt lat="44.8865357" lon="8.0201871"><ele>193.0</ele><time>2026-04-19T09:01:46.683Z</time></trkpt><trkpt lat="44.8864867" lon="8.0203035"><ele>193.0</ele><time>2026-04-19T09:01:48.68Z</time></trkpt><trkpt lat="44.8865546" lon="8.0203875"><ele>193.0</ele><time>2026-04-19T09:01:51.678Z</time></trkpt><trkpt lat="44.8866264" lon="8.0204303"><ele>192.99999999999997</ele><time>2026-04-19T09:01:52.68Z</time></trkpt><trkpt lat="44.8867076" lon="8.0204779"><ele>193.0</ele><time>2026-04-19T09:01:53.683Z</time></trkpt><trkpt lat="44.8867934" lon="8.0205407"><ele>194.60000000000002</ele><time>2026-04-19T09:01:54.678Z</time></trkpt><trkpt lat="44.8868693" lon="8.0206022"><ele>196.20000000000002</ele><time>2026-04-19T09:01:55.683Z</time></trkpt><trkpt lat="44.8869453" lon="8.020681"><ele>197.8</ele><time>2026-04-19T09:01:56.669Z</time></trkpt><trkpt lat="44.8870136" lon="8.0207803"><ele>199.4</ele><time>2026-04-19T09:01:57.678Z</time></trkpt><trkpt lat="44.8870761" lon="8.0208952"><ele>201.0</ele><time>2026-04-19T09:01:58.677Z</time></trkpt><trkpt lat="44.8871329" lon="8.0210256"><ele>203.4</ele><time>2026-04-19T09:01:59.678Z</time></trkpt><trkpt lat="44.8871917" lon="8.0211505"><ele>205.8</ele><time>2026-04-19T09:02:00.675Z</time></trkpt><trkpt lat="44.8872356" lon="8.0212556"><ele>208.20000000000002</ele><time>2026-04-19T09:02:01.667Z</time></trkpt><trkpt lat="44.8872746" lon="8.0213445"><ele>210.60000000000002</ele><time>2026-04-19T09:02:02.673Z</time></trkpt><trkpt lat="44.8873391" lon="8.0214768"><ele>213.0</ele><time>2026-04-19T09:02:04.662Z</time></trkpt><trkpt lat="44.8873832" lon="8.0215754"><ele>215.0</ele><time>2026-04-19T09:02:06.667Z</time></trkpt><trkpt lat="44.8874228" lon="8.0216626"><ele>217.0</ele><time>2026-04-19T09:02:08.665Z</time></trkpt><trkpt lat="44.8874197" lon="8.0217549"><ele>219.0</ele><time>2026-04-19T09:02:10.67Z</time></trkpt><trkpt lat="44.8873731" lon="8.021888"><ele>221.0</ele><time>2026-04-19T09:02:12.673Z</time></trkpt><trkpt lat="44.8873283" lon="8.0220168"><ele>223.0</ele><time>2026-04-19T09:02:14.668Z</time></trkpt><trkpt lat="44.8872975" lon="8.0221609"><ele>223.0</ele><time>2026-04-19T09:02:16.664Z</time></trkpt><trkpt lat="44.8872406" lon="8.0222513"><ele>223.0</ele><time>2026-04-19T09:02:18.664Z</time></trkpt><trkpt lat="44.8871875" lon="8.0223658"><ele>223.0</ele><time>2026-04-19T09:02:20.665Z</time></trkpt><trkpt lat="44.8871529" lon="8.022495"><ele>223.0</ele><time>2026-04-19T09:02:22.667Z</time></trkpt><trkpt lat="44.8871444" lon="8.02267"><ele>223.0</ele><time>2026-04-19T09:02:24.668Z</time></trkpt><trkpt lat="44.8871546" lon="8.0227717"><ele>224.66666666666666</ele><time>2026-04-19T09:02:25.667Z</time></trkpt><trkpt lat="44.8871757" lon="8.0228747"><ele>226.33333333333331</ele><time>2026-04-19T09:02:26.67Z</time></trkpt><trkpt lat="44.8871986" lon="8.0229638"><ele>228.0</ele><time>2026-04-19T09:02:27.673Z</time></trkpt><trkpt lat="44.8872376" lon="8.0230556"><ele>229.66666666666669</ele><time>2026-04-19T09:02:29.674Z</time></trkpt><trkpt lat="44.8873346" lon="8.0230587"><ele>231.33333333333334</ele><time>2026-04-19T09:02:32.677Z</time></trkpt><trkpt lat="44.8874156" lon="8.0229461"><ele>233.0</ele><time>2026-04-19T09:02:34.672Z</time></trkpt><trkpt lat="44.8874494" lon="8.022837"><ele>233.0</ele><time>2026-04-19T09:02:35.676Z</time></trkpt><trkpt lat="44.8874805" lon="8.0227111"><ele>233.0</ele><time>2026-04-19T09:02:36.678Z</time></trkpt><trkpt lat="44.8875148" lon="8.0225802"><ele>233.0</ele><time>2026-04-19T09:02:37.675Z</time></trkpt><trkpt lat="44.8875634" lon="8.0224689"><ele>233.0</ele><time>2026-04-19T09:02:38.666Z</time></trkpt><trkpt lat="44.8876102" lon="8.0223801"><ele>233.0</ele><time>2026-04-19T09:02:39.677Z</time></trkpt><trkpt lat="44.8876814" lon="8.0223078"><ele>233.50000000000003</ele><time>2026-04-19T09:02:41.673Z</time></trkpt><trkpt lat="44.8877555" lon="8.0223121"><ele>234.0</ele><time>2026-04-19T09:02:43.672Z</time></trkpt><trkpt lat="44.8878153" lon="8.0223642"><ele>234.5</ele><time>2026-04-19T09:02:45.672Z</time></trkpt><trkpt lat="44.8878937" lon="8.02242"><ele>235.0</ele><time>2026-04-19T09:02:47.67Z</time></trkpt><trkpt lat="44.8879855" lon="8.022432"><ele>235.50000000000003</ele><time>2026-04-19T09:02:49.668Z</time></trkpt><trkpt lat="44.8880991" lon="8.0223937"><ele>236.0</ele><time>2026-04-19T09:02:51.673Z</time></trkpt><trkpt lat="44.8881713" lon="8.0223888"><ele>236.0</ele><time>2026-04-19T09:02:53.674Z</time></trkpt><trkpt lat="44.888271" lon="8.0223714"><ele>236.00000000000003</ele><time>2026-04-19T09:02:55.673Z</time></trkpt><trkpt lat="44.8883747" lon="8.0223321"><ele>236.00000000000003</ele><time>2026-04-19T09:02:57.673Z</time></trkpt><trkpt lat="44.888442" lon="8.0222567"><ele>236.0</ele><time>2026-04-19T09:02:59.672Z</time></trkpt><trkpt lat="44.88849" lon="8.0221105"><ele>236.0</ele><time>2026-04-19T09:03:01.673Z</time></trkpt><trkpt lat="44.8885205" lon="8.0220059"><ele>233.50000000000003</ele><time>2026-04-19T09:03:02.678Z</time></trkpt><trkpt lat="44.8885514" lon="8.0218912"><ele>231.0</ele><time>2026-04-19T09:03:03.675Z</time></trkpt><trkpt lat="44.8885928" lon="8.0217849"><ele>228.5</ele><time>2026-04-19T09:03:04.675Z</time></trkpt><trkpt lat="44.888639" lon="8.0216795"><ele>226.0</ele><time>2026-04-19T09:03:05.672Z</time></trkpt><trkpt lat="44.8886695" lon="8.0215858"><ele>223.50000000000003</ele><time>2026-04-19T09:03:06.672Z</time></trkpt><trkpt lat="44.8886979" lon="8.0214606"><ele>221.0</ele><time>2026-04-19T09:03:07.674Z</time></trkpt><trkpt lat="44.8887154" lon="8.0213291"><ele>220.83333333333334</ele><time>2026-04-19T09:03:08.673Z</time></trkpt><trkpt lat="44.8887285" lon="8.0212153"><ele>220.66666666666669</ele><time>2026-04-19T09:03:09.673Z</time></trkpt><trkpt lat="44.8887284" lon="8.021122"><ele>220.5</ele><time>2026-04-19T09:03:10.678Z</time></trkpt><trkpt lat="44.8886577" lon="8.021072"><ele>220.33333333333331</ele><time>2026-04-19T09:03:15.669Z</time></trkpt><trkpt lat="44.8885802" lon="8.0210679"><ele>220.16666666666666</ele><time>2026-04-19T09:03:17.672Z</time></trkpt><trkpt lat="44.8885434" lon="8.0209837"><ele>220.0</ele><time>2026-04-19T09:03:18.666Z</time></trkpt><trkpt lat="44.8885153" lon="8.0208761"><ele>220.66666666666666</ele><time>2026-04-19T09:03:19.676Z</time></trkpt><trkpt lat="44.8884968" lon="8.0207271"><ele>221.33333333333331</ele><time>2026-04-19T09:03:21.673Z</time></trkpt><trkpt lat="44.8884777" lon="8.02064"><ele>222.0</ele><time>2026-04-19T09:03:22.671Z</time></trkpt><trkpt lat="44.88842" lon="8.020531"><ele>222.66666666666669</ele><time>2026-04-19T09:03:24.672Z</time></trkpt><trkpt lat="44.8883827" lon="8.0204363"><ele>223.33333333333334</ele><time>2026-04-19T09:03:46.678Z</time></trkpt><trkpt lat="44.888389" lon="8.0203376"><ele>224.0</ele><time>2026-04-19T09:03:48.681Z</time></trkpt><trkpt lat="44.888402" lon="8.0202421"><ele>224.0</ele><time>2026-04-19T09:03:49.673Z</time></trkpt><trkpt lat="44.8884016" lon="8.0201118"><ele>223.99999999999997</ele><time>2026-04-19T09:03:50.674Z</time></trkpt><trkpt lat="44.888393" lon="8.0199661"><ele>223.99999999999997</ele><time>2026-04-19T09:03:51.662Z</time></trkpt><trkpt lat="44.8883712" lon="8.0197901"><ele>224.0</ele><time>2026-04-19T09:03:52.673Z</time></trkpt><trkpt lat="44.8883603" lon="8.0196399"><ele>224.0</ele><time>2026-04-19T09:03:53.669Z</time></trkpt><trkpt lat="44.8883645" lon="8.0195101"><ele>223.39999999999998</ele><time>2026-04-19T09:03:54.673Z</time></trkpt><trkpt lat="44.8883879" lon="8.0193805"><ele>222.79999999999998</ele><time>2026-04-19T09:03:55.674Z</time></trkpt><trkpt lat="44.8884234" lon="8.0192632"><ele>222.20000000000002</ele><time>2026-04-19T09:03:56.668Z</time></trkpt><trkpt lat="44.8884825" lon="8.0191395"><ele>221.60000000000002</ele><time>2026-04-19T09:03:57.678Z</time></trkpt><trkpt lat="44.88855" lon="8.0190208"><ele>221.0</ele><time>2026-04-19T09:03:58.67Z</time></trkpt><trkpt lat="44.8886038" lon="8.0189497"><ele>224.00000000000003</ele><time>2026-04-19T09:03:59.673Z</time></trkpt><trkpt lat="44.8886976" lon="8.018893"><ele>227.0</ele><time>2026-04-19T09:04:01.674Z</time></trkpt><trkpt lat="44.8887601" lon="8.0188684"><ele>230.0</ele><time>2026-04-19T09:04:02.675Z</time></trkpt><trkpt lat="44.8888353" lon="8.0188451"><ele>233.0</ele><time>2026-04-19T09:04:03.669Z</time></trkpt><trkpt lat="44.8889199" lon="8.0188353"><ele>236.00000000000003</ele><time>2026-04-19T09:04:04.673Z</time></trkpt><trkpt lat="44.8890005" lon="8.0188178"><ele>239.0</ele><time>2026-04-19T09:04:05.663Z</time></trkpt><trkpt lat="44.8890668" lon="8.0188039"><ele>239.0</ele><time>2026-04-19T09:04:06.675Z</time></trkpt><trkpt lat="44.8891717" lon="8.0187942"><ele>238.99999999999997</ele><time>2026-04-19T09:04:08.672Z</time></trkpt><trkpt lat="44.8892905" lon="8.0188377"><ele>238.99999999999997</ele><time>2026-04-19T09:04:10.666Z</time></trkpt><trkpt lat="44.8893554" lon="8.0188799"><ele>239.0</ele><time>2026-04-19T09:04:11.663Z</time></trkpt><trkpt lat="44.889456" lon="8.0189731"><ele>239.0</ele><time>2026-04-19T09:04:13.665Z</time></trkpt><trkpt lat="44.8895041" lon="8.0190372"><ele>237.50000000000003</ele><time>2026-04-19T09:04:14.666Z</time></trkpt><trkpt lat="44.8895554" lon="8.0191119"><ele>236.0</ele><time>2026-04-19T09:04:15.66Z</time></trkpt><trkpt lat="44.8896086" lon="8.0191869"><ele>234.5</ele><time>2026-04-19T09:04:16.662Z</time></trkpt><trkpt lat="44.8896749" lon="8.0192663"><ele>233.0</ele><time>2026-04-19T09:04:17.66Z</time></trkpt><trkpt lat="44.8897378" lon="8.0193338"><ele>231.50000000000003</ele><time>2026-04-19T09:04:18.662Z</time></trkpt><trkpt lat="44.8897967" lon="8.0193787"><ele>230.0</ele><time>2026-04-19T09:04:19.665Z</time></trkpt><trkpt lat="44.8898639" lon="8.0194195"><ele>228.4</ele><time>2026-04-19T09:04:20.661Z</time></trkpt><trkpt lat="44.8899476" lon="8.0194461"><ele>226.8</ele><time>2026-04-19T09:04:21.678Z</time></trkpt><trkpt lat="44.8900485" lon="8.0194619"><ele>225.2</ele><time>2026-04-19T09:04:22.675Z</time></trkpt><trkpt lat="44.8901702" lon="8.0194636"><ele>223.6</ele><time>2026-04-19T09:04:23.67Z</time></trkpt><trkpt lat="44.8902826" lon="8.0194533"><ele>222.0</ele><time>2026-04-19T09:04:24.668Z</time></trkpt><trkpt lat="44.8903528" lon="8.019443"><ele>219.33333333333334</ele><time>2026-04-19T09:04:25.666Z</time></trkpt><trkpt lat="44.8904184" lon="8.0194343"><ele>216.66666666666669</ele><time>2026-04-19T09:04:26.665Z</time></trkpt><trkpt lat="44.8904832" lon="8.0193826"><ele>214.0</ele><time>2026-04-19T09:04:28.674Z</time></trkpt><trkpt lat="44.8904451" lon="8.019306"><ele>211.33333333333334</ele><time>2026-04-19T09:04:33.667Z</time></trkpt><trkpt lat="44.8904029" lon="8.0191785"><ele>208.66666666666669</ele><time>2026-04-19T09:04:35.665Z</time></trkpt><trkpt lat="44.8904043" lon="8.0190599"><ele>206.0</ele><time>2026-04-19T09:04:37.659Z</time></trkpt><trkpt lat="44.8903579" lon="8.0189784"><ele>206.5</ele><time>2026-04-19T09:04:39.668Z</time></trkpt><trkpt lat="44.8903258" lon="8.0188813"><ele>207.0</ele><time>2026-04-19T09:04:41.671Z</time></trkpt><trkpt lat="44.8902016" lon="8.0174999"><ele>207.0</ele><time>2026-04-19T09:05:02.664Z</time></trkpt><trkpt lat="44.890948" lon="8.0158999"><ele>207.0</ele><time>2026-04-19T09:05:31.667Z</time></trkpt></trkseg></trk></gpx>